<?xml version="1.0" encoding="UTF-8" standalone="no" ?>
<gpx xmlns="http://www.topografix.com/GPX/1/1" xmlns:xsi="http://www.w3.org/2001/XMLSchema-instance" xsi:schemaLocation="http://www.topografix.com/GPX/1/1 http://www.topografix.com/GPX/1/1/gpx.xsd" version="1.1" creator="VisuGPX - https://www.visugpx.com">
  <metadata>
    <name>Grignan Monjoyer</name>
    <desc><![CDATA[VTT à Grignan]]></desc>
  </metadata>
  <trk>
    <name><![CDATA[T-14-09-11-Grignan-matin]]></name>
    <trkseg>
      <trkpt lat="44.4193" lon="4.90532">
        <ele>213.12</ele>
        <time>2014-09-11T07:55:36Z</time>
      </trkpt>
      <trkpt lat="44.4193" lon="4.90532">
        <ele>213.28</ele>
        <time>2014-09-11T07:55:37Z</time>
      </trkpt>
      <trkpt lat="44.41931" lon="4.90536">
        <ele>213.03</ele>
        <time>2014-09-11T07:55:42Z</time>
      </trkpt>
      <trkpt lat="44.41932" lon="4.90539">
        <ele>212.93</ele>
        <time>2014-09-11T07:55:43Z</time>
      </trkpt>
      <trkpt lat="44.41934" lon="4.90541">
        <ele>212.87</ele>
        <time>2014-09-11T07:55:44Z</time>
      </trkpt>
      <trkpt lat="44.41949" lon="4.90549">
        <ele>213.2</ele>
        <time>2014-09-11T07:55:49Z</time>
      </trkpt>
      <trkpt lat="44.41952" lon="4.90552">
        <ele>213.27</ele>
        <time>2014-09-11T07:55:50Z</time>
      </trkpt>
      <trkpt lat="44.41954" lon="4.90555">
        <ele>213.42</ele>
        <time>2014-09-11T07:55:51Z</time>
      </trkpt>
      <trkpt lat="44.41969" lon="4.90576">
        <ele>213.5</ele>
        <time>2014-09-11T07:55:57Z</time>
      </trkpt>
      <trkpt lat="44.41982" lon="4.90584">
        <ele>213.92</ele>
        <time>2014-09-11T07:56:01Z</time>
      </trkpt>
      <trkpt lat="44.41985" lon="4.90586">
        <ele>214.08</ele>
        <time>2014-09-11T07:56:02Z</time>
      </trkpt>
      <trkpt lat="44.41988" lon="4.90586">
        <ele>214.15</ele>
        <time>2014-09-11T07:56:03Z</time>
      </trkpt>
      <trkpt lat="44.42003" lon="4.90588">
        <ele>214.49</ele>
        <time>2014-09-11T07:56:08Z</time>
      </trkpt>
      <trkpt lat="44.42006" lon="4.90589">
        <ele>214.77</ele>
        <time>2014-09-11T07:56:09Z</time>
      </trkpt>
      <trkpt lat="44.42008" lon="4.90589">
        <ele>215.25</ele>
        <time>2014-09-11T07:56:10Z</time>
      </trkpt>
      <trkpt lat="44.42011" lon="4.90589">
        <ele>215.8</ele>
        <time>2014-09-11T07:56:11Z</time>
      </trkpt>
      <trkpt lat="44.42014" lon="4.9059">
        <ele>216.3</ele>
        <time>2014-09-11T07:56:12Z</time>
      </trkpt>
      <trkpt lat="44.42019" lon="4.9059">
        <ele>217.05</ele>
        <time>2014-09-11T07:56:14Z</time>
      </trkpt>
      <trkpt lat="44.42021" lon="4.9059">
        <ele>217.26</ele>
        <time>2014-09-11T07:56:15Z</time>
      </trkpt>
      <trkpt lat="44.42024" lon="4.9059">
        <ele>217.36</ele>
        <time>2014-09-11T07:56:16Z</time>
      </trkpt>
      <trkpt lat="44.42028" lon="4.9059">
        <ele>217.68</ele>
        <time>2014-09-11T07:56:18Z</time>
      </trkpt>
      <trkpt lat="44.42033" lon="4.90591">
        <ele>218.01</ele>
        <time>2014-09-11T07:56:20Z</time>
      </trkpt>
      <trkpt lat="44.42038" lon="4.90592">
        <ele>218.6</ele>
        <time>2014-09-11T07:56:22Z</time>
      </trkpt>
      <trkpt lat="44.42041" lon="4.90593">
        <ele>218.76</ele>
        <time>2014-09-11T07:56:23Z</time>
      </trkpt>
      <trkpt lat="44.42044" lon="4.90593">
        <ele>218.97</ele>
        <time>2014-09-11T07:56:24Z</time>
      </trkpt>
      <trkpt lat="44.42047" lon="4.90594">
        <ele>219.15</ele>
        <time>2014-09-11T07:56:25Z</time>
      </trkpt>
      <trkpt lat="44.42049" lon="4.90594">
        <ele>219.15</ele>
        <time>2014-09-11T07:56:26Z</time>
      </trkpt>
      <trkpt lat="44.42083" lon="4.90602">
        <ele>220.26</ele>
        <time>2014-09-11T07:56:41Z</time>
      </trkpt>
      <trkpt lat="44.42117" lon="4.9061">
        <ele>222.21</ele>
        <time>2014-09-11T07:56:56Z</time>
      </trkpt>
      <trkpt lat="44.42147" lon="4.90618">
        <ele>222.72</ele>
        <time>2014-09-11T07:57:10Z</time>
      </trkpt>
      <trkpt lat="44.42154" lon="4.90618">
        <ele>222.71</ele>
        <time>2014-09-11T07:57:13Z</time>
      </trkpt>
      <trkpt lat="44.42156" lon="4.90618">
        <ele>222.69</ele>
        <time>2014-09-11T07:57:14Z</time>
      </trkpt>
      <trkpt lat="44.42158" lon="4.90619">
        <ele>222.76</ele>
        <time>2014-09-11T07:57:15Z</time>
      </trkpt>
      <trkpt lat="44.42161" lon="4.90619">
        <ele>222.86</ele>
        <time>2014-09-11T07:57:16Z</time>
      </trkpt>
      <trkpt lat="44.42163" lon="4.9062">
        <ele>222.95</ele>
        <time>2014-09-11T07:57:17Z</time>
      </trkpt>
      <trkpt lat="44.42165" lon="4.9062">
        <ele>222.92</ele>
        <time>2014-09-11T07:57:18Z</time>
      </trkpt>
      <trkpt lat="44.42168" lon="4.9062">
        <ele>222.99</ele>
        <time>2014-09-11T07:57:19Z</time>
      </trkpt>
      <trkpt lat="44.4217" lon="4.9062">
        <ele>223.05</ele>
        <time>2014-09-11T07:57:20Z</time>
      </trkpt>
      <trkpt lat="44.42172" lon="4.9062">
        <ele>223.15</ele>
        <time>2014-09-11T07:57:21Z</time>
      </trkpt>
      <trkpt lat="44.42175" lon="4.90621">
        <ele>223.2</ele>
        <time>2014-09-11T07:57:22Z</time>
      </trkpt>
      <trkpt lat="44.42179" lon="4.90622">
        <ele>223.19</ele>
        <time>2014-09-11T07:57:24Z</time>
      </trkpt>
      <trkpt lat="44.42181" lon="4.90622">
        <ele>223.2</ele>
        <time>2014-09-11T07:57:25Z</time>
      </trkpt>
      <trkpt lat="44.42188" lon="4.90625">
        <ele>223.33</ele>
        <time>2014-09-11T07:57:30Z</time>
      </trkpt>
      <trkpt lat="44.42189" lon="4.90626">
        <ele>223.38</ele>
        <time>2014-09-11T07:57:31Z</time>
      </trkpt>
      <trkpt lat="44.42191" lon="4.90627">
        <ele>223.38</ele>
        <time>2014-09-11T07:57:32Z</time>
      </trkpt>
      <trkpt lat="44.42194" lon="4.90625">
        <ele>223.37</ele>
        <time>2014-09-11T07:57:34Z</time>
      </trkpt>
      <trkpt lat="44.42195" lon="4.90623">
        <ele>223.42</ele>
        <time>2014-09-11T07:57:35Z</time>
      </trkpt>
      <trkpt lat="44.42206" lon="4.90571">
        <ele>224.22</ele>
        <time>2014-09-11T07:57:49Z</time>
      </trkpt>
      <trkpt lat="44.4221" lon="4.90542">
        <ele>224.39</ele>
        <time>2014-09-11T07:57:56Z</time>
      </trkpt>
      <trkpt lat="44.4221" lon="4.90538">
        <ele>224.4</ele>
        <time>2014-09-11T07:57:57Z</time>
      </trkpt>
      <trkpt lat="44.4222" lon="4.9048">
        <ele>224.88</ele>
        <time>2014-09-11T07:58:16Z</time>
      </trkpt>
      <trkpt lat="44.42221" lon="4.90478">
        <ele>224.89</ele>
        <time>2014-09-11T07:58:17Z</time>
      </trkpt>
      <trkpt lat="44.42221" lon="4.90476">
        <ele>224.69</ele>
        <time>2014-09-11T07:58:18Z</time>
      </trkpt>
      <trkpt lat="44.42222" lon="4.90474">
        <ele>224.48</ele>
        <time>2014-09-11T07:58:19Z</time>
      </trkpt>
      <trkpt lat="44.42223" lon="4.90471">
        <ele>224.36</ele>
        <time>2014-09-11T07:58:20Z</time>
      </trkpt>
      <trkpt lat="44.42237" lon="4.90454">
        <ele>224.23</ele>
        <time>2014-09-11T07:58:26Z</time>
      </trkpt>
      <trkpt lat="44.42241" lon="4.90452">
        <ele>224.18</ele>
        <time>2014-09-11T07:58:27Z</time>
      </trkpt>
      <trkpt lat="44.42246" lon="4.90451">
        <ele>224.08</ele>
        <time>2014-09-11T07:58:28Z</time>
      </trkpt>
      <trkpt lat="44.42263" lon="4.9045">
        <ele>223.4</ele>
        <time>2014-09-11T07:58:32Z</time>
      </trkpt>
      <trkpt lat="44.42303" lon="4.90448">
        <ele>221.47</ele>
        <time>2014-09-11T07:58:39Z</time>
      </trkpt>
      <trkpt lat="44.42344" lon="4.90438">
        <ele>218.45</ele>
        <time>2014-09-11T07:58:44Z</time>
      </trkpt>
      <trkpt lat="44.42359" lon="4.90434">
        <ele>217.24</ele>
        <time>2014-09-11T07:58:46Z</time>
      </trkpt>
      <trkpt lat="44.42367" lon="4.90431">
        <ele>216.79</ele>
        <time>2014-09-11T07:58:47Z</time>
      </trkpt>
      <trkpt lat="44.42374" lon="4.90426">
        <ele>216.34</ele>
        <time>2014-09-11T07:58:48Z</time>
      </trkpt>
      <trkpt lat="44.42381" lon="4.90421">
        <ele>216</ele>
        <time>2014-09-11T07:58:49Z</time>
      </trkpt>
      <trkpt lat="44.42386" lon="4.90413">
        <ele>215.82</ele>
        <time>2014-09-11T07:58:50Z</time>
      </trkpt>
      <trkpt lat="44.4239" lon="4.90403">
        <ele>215.7</ele>
        <time>2014-09-11T07:58:51Z</time>
      </trkpt>
      <trkpt lat="44.42393" lon="4.90392">
        <ele>215.58</ele>
        <time>2014-09-11T07:58:52Z</time>
      </trkpt>
      <trkpt lat="44.42428" lon="4.90265">
        <ele>214.34</ele>
        <time>2014-09-11T07:59:07Z</time>
      </trkpt>
      <trkpt lat="44.42446" lon="4.90188">
        <ele>215.64</ele>
        <time>2014-09-11T07:59:21Z</time>
      </trkpt>
      <trkpt lat="44.42458" lon="4.90156">
        <ele>218.64</ele>
        <time>2014-09-11T07:59:32Z</time>
      </trkpt>
      <trkpt lat="44.42472" lon="4.90117">
        <ele>221.83</ele>
        <time>2014-09-11T07:59:47Z</time>
      </trkpt>
      <trkpt lat="44.42484" lon="4.90091">
        <ele>225.04</ele>
        <time>2014-09-11T07:59:58Z</time>
      </trkpt>
      <trkpt lat="44.42494" lon="4.90078">
        <ele>226.62</ele>
        <time>2014-09-11T08:00:05Z</time>
      </trkpt>
      <trkpt lat="44.42496" lon="4.90077">
        <ele>226.76</ele>
        <time>2014-09-11T08:00:06Z</time>
      </trkpt>
      <trkpt lat="44.42499" lon="4.90073">
        <ele>227.07</ele>
        <time>2014-09-11T08:00:08Z</time>
      </trkpt>
      <trkpt lat="44.42501" lon="4.90072">
        <ele>227.54</ele>
        <time>2014-09-11T08:00:09Z</time>
      </trkpt>
      <trkpt lat="44.42502" lon="4.9007">
        <ele>227.97</ele>
        <time>2014-09-11T08:00:10Z</time>
      </trkpt>
      <trkpt lat="44.42504" lon="4.90069">
        <ele>228.21</ele>
        <time>2014-09-11T08:00:11Z</time>
      </trkpt>
      <trkpt lat="44.42505" lon="4.90068">
        <ele>228.39</ele>
        <time>2014-09-11T08:00:12Z</time>
      </trkpt>
      <trkpt lat="44.42507" lon="4.90066">
        <ele>228.54</ele>
        <time>2014-09-11T08:00:13Z</time>
      </trkpt>
      <trkpt lat="44.42509" lon="4.90065">
        <ele>228.8</ele>
        <time>2014-09-11T08:00:14Z</time>
      </trkpt>
      <trkpt lat="44.42511" lon="4.90063">
        <ele>229.15</ele>
        <time>2014-09-11T08:00:15Z</time>
      </trkpt>
      <trkpt lat="44.42512" lon="4.90062">
        <ele>229.5</ele>
        <time>2014-09-11T08:00:16Z</time>
      </trkpt>
      <trkpt lat="44.42514" lon="4.9006">
        <ele>229.78</ele>
        <time>2014-09-11T08:00:17Z</time>
      </trkpt>
      <trkpt lat="44.42516" lon="4.90058">
        <ele>229.78</ele>
        <time>2014-09-11T08:00:18Z</time>
      </trkpt>
      <trkpt lat="44.42517" lon="4.90056">
        <ele>229.99</ele>
        <time>2014-09-11T08:00:19Z</time>
      </trkpt>
      <trkpt lat="44.42519" lon="4.90054">
        <ele>230.09</ele>
        <time>2014-09-11T08:00:20Z</time>
      </trkpt>
      <trkpt lat="44.4252" lon="4.90052">
        <ele>230.17</ele>
        <time>2014-09-11T08:00:21Z</time>
      </trkpt>
      <trkpt lat="44.42521" lon="4.9005">
        <ele>230.27</ele>
        <time>2014-09-11T08:00:22Z</time>
      </trkpt>
      <trkpt lat="44.42525" lon="4.90035">
        <ele>230.68</ele>
        <time>2014-09-11T08:00:28Z</time>
      </trkpt>
      <trkpt lat="44.42525" lon="4.90033">
        <ele>230.68</ele>
        <time>2014-09-11T08:00:29Z</time>
      </trkpt>
      <trkpt lat="44.42526" lon="4.9003">
        <ele>230.72</ele>
        <time>2014-09-11T08:00:30Z</time>
      </trkpt>
      <trkpt lat="44.42526" lon="4.90028">
        <ele>230.79</ele>
        <time>2014-09-11T08:00:31Z</time>
      </trkpt>
      <trkpt lat="44.42527" lon="4.90026">
        <ele>230.74</ele>
        <time>2014-09-11T08:00:32Z</time>
      </trkpt>
      <trkpt lat="44.42539" lon="4.89969">
        <ele>230.11</ele>
        <time>2014-09-11T08:00:51Z</time>
      </trkpt>
      <trkpt lat="44.4254" lon="4.89963">
        <ele>230.02</ele>
        <time>2014-09-11T08:00:53Z</time>
      </trkpt>
      <trkpt lat="44.42541" lon="4.8996">
        <ele>230.06</ele>
        <time>2014-09-11T08:00:54Z</time>
      </trkpt>
      <trkpt lat="44.42542" lon="4.89957">
        <ele>230.18</ele>
        <time>2014-09-11T08:00:55Z</time>
      </trkpt>
      <trkpt lat="44.42543" lon="4.89954">
        <ele>230.23</ele>
        <time>2014-09-11T08:00:56Z</time>
      </trkpt>
      <trkpt lat="44.42543" lon="4.89951">
        <ele>230.16</ele>
        <time>2014-09-11T08:00:57Z</time>
      </trkpt>
      <trkpt lat="44.42544" lon="4.89948">
        <ele>230.17</ele>
        <time>2014-09-11T08:00:58Z</time>
      </trkpt>
      <trkpt lat="44.42556" lon="4.89891">
        <ele>229.32</ele>
        <time>2014-09-11T08:01:16Z</time>
      </trkpt>
      <trkpt lat="44.42563" lon="4.89827">
        <ele>228.72</ele>
        <time>2014-09-11T08:01:32Z</time>
      </trkpt>
      <trkpt lat="44.42559" lon="4.89765">
        <ele>227.82</ele>
        <time>2014-09-11T08:01:46Z</time>
      </trkpt>
      <trkpt lat="44.42555" lon="4.89736">
        <ele>226.9</ele>
        <time>2014-09-11T08:01:52Z</time>
      </trkpt>
      <trkpt lat="44.42554" lon="4.89724">
        <ele>226.59</ele>
        <time>2014-09-11T08:01:54Z</time>
      </trkpt>
      <trkpt lat="44.42556" lon="4.89653">
        <ele>224.62</ele>
        <time>2014-09-11T08:02:06Z</time>
      </trkpt>
      <trkpt lat="44.42556" lon="4.89646">
        <ele>224.36</ele>
        <time>2014-09-11T08:02:07Z</time>
      </trkpt>
      <trkpt lat="44.42556" lon="4.89634">
        <ele>224.23</ele>
        <time>2014-09-11T08:02:09Z</time>
      </trkpt>
      <trkpt lat="44.42557" lon="4.89628">
        <ele>224.24</ele>
        <time>2014-09-11T08:02:10Z</time>
      </trkpt>
      <trkpt lat="44.42557" lon="4.89623">
        <ele>224.57</ele>
        <time>2014-09-11T08:02:11Z</time>
      </trkpt>
      <trkpt lat="44.42569" lon="4.89552">
        <ele>224.51</ele>
        <time>2014-09-11T08:02:25Z</time>
      </trkpt>
      <trkpt lat="44.42573" lon="4.89534">
        <ele>225.18</ele>
        <time>2014-09-11T08:02:38Z</time>
      </trkpt>
      <trkpt lat="44.42585" lon="4.89499">
        <ele>224.46</ele>
        <time>2014-09-11T08:02:48Z</time>
      </trkpt>
      <trkpt lat="44.42586" lon="4.89493">
        <ele>224.19</ele>
        <time>2014-09-11T08:02:49Z</time>
      </trkpt>
      <trkpt lat="44.4259" lon="4.89476">
        <ele>222.79</ele>
        <time>2014-09-11T08:02:52Z</time>
      </trkpt>
      <trkpt lat="44.42592" lon="4.89469">
        <ele>222.18</ele>
        <time>2014-09-11T08:02:53Z</time>
      </trkpt>
      <trkpt lat="44.42593" lon="4.89462">
        <ele>221.57</ele>
        <time>2014-09-11T08:02:54Z</time>
      </trkpt>
      <trkpt lat="44.42601" lon="4.89421">
        <ele>218.01</ele>
        <time>2014-09-11T08:02:59Z</time>
      </trkpt>
      <trkpt lat="44.42609" lon="4.89382">
        <ele>215.1</ele>
        <time>2014-09-11T08:03:03Z</time>
      </trkpt>
      <trkpt lat="44.42626" lon="4.89338">
        <ele>211.5</ele>
        <time>2014-09-11T08:03:08Z</time>
      </trkpt>
      <trkpt lat="44.42633" lon="4.89324">
        <ele>210.52</ele>
        <time>2014-09-11T08:03:10Z</time>
      </trkpt>
      <trkpt lat="44.42637" lon="4.89318">
        <ele>210.31</ele>
        <time>2014-09-11T08:03:11Z</time>
      </trkpt>
      <trkpt lat="44.42647" lon="4.89293">
        <ele>208.6</ele>
        <time>2014-09-11T08:03:15Z</time>
      </trkpt>
      <trkpt lat="44.42648" lon="4.89286">
        <ele>207.85</ele>
        <time>2014-09-11T08:03:16Z</time>
      </trkpt>
      <trkpt lat="44.42647" lon="4.89279">
        <ele>207.21</ele>
        <time>2014-09-11T08:03:17Z</time>
      </trkpt>
      <trkpt lat="44.42646" lon="4.89272">
        <ele>206.8</ele>
        <time>2014-09-11T08:03:18Z</time>
      </trkpt>
      <trkpt lat="44.42644" lon="4.89265">
        <ele>206.53</ele>
        <time>2014-09-11T08:03:19Z</time>
      </trkpt>
      <trkpt lat="44.42636" lon="4.89235">
        <ele>203.37</ele>
        <time>2014-09-11T08:03:25Z</time>
      </trkpt>
      <trkpt lat="44.42637" lon="4.89232">
        <ele>203.11</ele>
        <time>2014-09-11T08:03:26Z</time>
      </trkpt>
      <trkpt lat="44.42639" lon="4.89229">
        <ele>202.83</ele>
        <time>2014-09-11T08:03:27Z</time>
      </trkpt>
      <trkpt lat="44.42642" lon="4.89228">
        <ele>202.44</ele>
        <time>2014-09-11T08:03:28Z</time>
      </trkpt>
      <trkpt lat="44.42644" lon="4.8923">
        <ele>202.06</ele>
        <time>2014-09-11T08:03:29Z</time>
      </trkpt>
      <trkpt lat="44.42646" lon="4.89233">
        <ele>201.59</ele>
        <time>2014-09-11T08:03:30Z</time>
      </trkpt>
      <trkpt lat="44.42648" lon="4.89238">
        <ele>200.89</ele>
        <time>2014-09-11T08:03:31Z</time>
      </trkpt>
      <trkpt lat="44.42653" lon="4.89247">
        <ele>199.82</ele>
        <time>2014-09-11T08:03:33Z</time>
      </trkpt>
      <trkpt lat="44.42656" lon="4.8925">
        <ele>199.59</ele>
        <time>2014-09-11T08:03:34Z</time>
      </trkpt>
      <trkpt lat="44.42664" lon="4.8925">
        <ele>199.29</ele>
        <time>2014-09-11T08:03:36Z</time>
      </trkpt>
      <trkpt lat="44.42667" lon="4.89247">
        <ele>198.8</ele>
        <time>2014-09-11T08:03:37Z</time>
      </trkpt>
      <trkpt lat="44.42669" lon="4.89242">
        <ele>198.28</ele>
        <time>2014-09-11T08:03:38Z</time>
      </trkpt>
      <trkpt lat="44.42672" lon="4.89236">
        <ele>197.82</ele>
        <time>2014-09-11T08:03:39Z</time>
      </trkpt>
      <trkpt lat="44.42679" lon="4.89224">
        <ele>197.09</ele>
        <time>2014-09-11T08:03:41Z</time>
      </trkpt>
      <trkpt lat="44.42683" lon="4.89219">
        <ele>196.76</ele>
        <time>2014-09-11T08:03:42Z</time>
      </trkpt>
      <trkpt lat="44.42756" lon="4.89149">
        <ele>193.7</ele>
        <time>2014-09-11T08:03:56Z</time>
      </trkpt>
      <trkpt lat="44.42785" lon="4.89124">
        <ele>191.52</ele>
        <time>2014-09-11T08:04:02Z</time>
      </trkpt>
      <trkpt lat="44.4279" lon="4.89122">
        <ele>191.17</ele>
        <time>2014-09-11T08:04:03Z</time>
      </trkpt>
      <trkpt lat="44.42795" lon="4.89121">
        <ele>190.84</ele>
        <time>2014-09-11T08:04:04Z</time>
      </trkpt>
      <trkpt lat="44.42804" lon="4.89125">
        <ele>190.37</ele>
        <time>2014-09-11T08:04:06Z</time>
      </trkpt>
      <trkpt lat="44.42827" lon="4.89146">
        <ele>187.31</ele>
        <time>2014-09-11T08:04:13Z</time>
      </trkpt>
      <trkpt lat="44.42838" lon="4.89157">
        <ele>186.37</ele>
        <time>2014-09-11T08:04:19Z</time>
      </trkpt>
      <trkpt lat="44.4284" lon="4.89158">
        <ele>186.16</ele>
        <time>2014-09-11T08:04:20Z</time>
      </trkpt>
      <trkpt lat="44.42855" lon="4.8916">
        <ele>185.2</ele>
        <time>2014-09-11T08:04:24Z</time>
      </trkpt>
      <trkpt lat="44.42859" lon="4.8916">
        <ele>185.01</ele>
        <time>2014-09-11T08:04:25Z</time>
      </trkpt>
      <trkpt lat="44.42864" lon="4.89159">
        <ele>184.97</ele>
        <time>2014-09-11T08:04:26Z</time>
      </trkpt>
      <trkpt lat="44.42879" lon="4.89157">
        <ele>184.6</ele>
        <time>2014-09-11T08:04:29Z</time>
      </trkpt>
      <trkpt lat="44.42911" lon="4.89134">
        <ele>182.95</ele>
        <time>2014-09-11T08:04:38Z</time>
      </trkpt>
      <trkpt lat="44.42921" lon="4.891">
        <ele>182.7</ele>
        <time>2014-09-11T08:04:45Z</time>
      </trkpt>
      <trkpt lat="44.4293" lon="4.89085">
        <ele>181.71</ele>
        <time>2014-09-11T08:04:52Z</time>
      </trkpt>
      <trkpt lat="44.42933" lon="4.89083">
        <ele>181.35</ele>
        <time>2014-09-11T08:04:54Z</time>
      </trkpt>
      <trkpt lat="44.4294" lon="4.89068">
        <ele>179.14</ele>
        <time>2014-09-11T08:04:59Z</time>
      </trkpt>
      <trkpt lat="44.4295" lon="4.89028">
        <ele>179.74</ele>
        <time>2014-09-11T08:05:10Z</time>
      </trkpt>
      <trkpt lat="44.42967" lon="4.8901">
        <ele>180.29</ele>
        <time>2014-09-11T08:05:17Z</time>
      </trkpt>
      <trkpt lat="44.4298" lon="4.89">
        <ele>180.85</ele>
        <time>2014-09-11T08:05:22Z</time>
      </trkpt>
      <trkpt lat="44.42988" lon="4.88993">
        <ele>181.34</ele>
        <time>2014-09-11T08:05:25Z</time>
      </trkpt>
      <trkpt lat="44.43015" lon="4.8897">
        <ele>181.98</ele>
        <time>2014-09-11T08:05:36Z</time>
      </trkpt>
      <trkpt lat="44.43039" lon="4.88952">
        <ele>181.96</ele>
        <time>2014-09-11T08:05:45Z</time>
      </trkpt>
      <trkpt lat="44.43046" lon="4.88949">
        <ele>181.99</ele>
        <time>2014-09-11T08:05:48Z</time>
      </trkpt>
      <trkpt lat="44.43071" lon="4.88954">
        <ele>182.4</ele>
        <time>2014-09-11T08:05:56Z</time>
      </trkpt>
      <trkpt lat="44.43099" lon="4.88974">
        <ele>182.84</ele>
        <time>2014-09-11T08:06:06Z</time>
      </trkpt>
      <trkpt lat="44.43115" lon="4.88991">
        <ele>183.67</ele>
        <time>2014-09-11T08:06:13Z</time>
      </trkpt>
      <trkpt lat="44.43123" lon="4.88999">
        <ele>184.17</ele>
        <time>2014-09-11T08:06:17Z</time>
      </trkpt>
      <trkpt lat="44.43157" lon="4.89036">
        <ele>184.15</ele>
        <time>2014-09-11T08:06:35Z</time>
      </trkpt>
      <trkpt lat="44.43182" lon="4.89061">
        <ele>184.81</ele>
        <time>2014-09-11T08:06:49Z</time>
      </trkpt>
      <trkpt lat="44.4319" lon="4.89073">
        <ele>185.44</ele>
        <time>2014-09-11T08:06:56Z</time>
      </trkpt>
      <trkpt lat="44.43195" lon="4.89072">
        <ele>185.27</ele>
        <time>2014-09-11T08:06:59Z</time>
      </trkpt>
      <trkpt lat="44.43197" lon="4.89071">
        <ele>185.14</ele>
        <time>2014-09-11T08:07:00Z</time>
      </trkpt>
      <trkpt lat="44.43198" lon="4.89069">
        <ele>185.08</ele>
        <time>2014-09-11T08:07:01Z</time>
      </trkpt>
      <trkpt lat="44.43202" lon="4.89067">
        <ele>185.03</ele>
        <time>2014-09-11T08:07:03Z</time>
      </trkpt>
      <trkpt lat="44.43204" lon="4.89066">
        <ele>185.12</ele>
        <time>2014-09-11T08:07:04Z</time>
      </trkpt>
      <trkpt lat="44.43206" lon="4.89064">
        <ele>185.21</ele>
        <time>2014-09-11T08:07:05Z</time>
      </trkpt>
      <trkpt lat="44.43208" lon="4.89063">
        <ele>185.35</ele>
        <time>2014-09-11T08:07:06Z</time>
      </trkpt>
      <trkpt lat="44.4321" lon="4.89062">
        <ele>185.48</ele>
        <time>2014-09-11T08:07:07Z</time>
      </trkpt>
      <trkpt lat="44.43212" lon="4.89061">
        <ele>185.61</ele>
        <time>2014-09-11T08:07:08Z</time>
      </trkpt>
      <trkpt lat="44.43215" lon="4.8906">
        <ele>185.67</ele>
        <time>2014-09-11T08:07:09Z</time>
      </trkpt>
      <trkpt lat="44.43218" lon="4.89059">
        <ele>185.75</ele>
        <time>2014-09-11T08:07:10Z</time>
      </trkpt>
      <trkpt lat="44.43223" lon="4.89056">
        <ele>185.84</ele>
        <time>2014-09-11T08:07:12Z</time>
      </trkpt>
      <trkpt lat="44.43226" lon="4.89055">
        <ele>185.86</ele>
        <time>2014-09-11T08:07:13Z</time>
      </trkpt>
      <trkpt lat="44.43229" lon="4.89054">
        <ele>185.87</ele>
        <time>2014-09-11T08:07:14Z</time>
      </trkpt>
      <trkpt lat="44.43232" lon="4.89053">
        <ele>185.9</ele>
        <time>2014-09-11T08:07:15Z</time>
      </trkpt>
      <trkpt lat="44.43234" lon="4.89053">
        <ele>185.97</ele>
        <time>2014-09-11T08:07:16Z</time>
      </trkpt>
      <trkpt lat="44.43237" lon="4.89052">
        <ele>186.06</ele>
        <time>2014-09-11T08:07:17Z</time>
      </trkpt>
      <trkpt lat="44.4324" lon="4.89051">
        <ele>186.1</ele>
        <time>2014-09-11T08:07:18Z</time>
      </trkpt>
      <trkpt lat="44.43295" lon="4.89041">
        <ele>187.4</ele>
        <time>2014-09-11T08:07:36Z</time>
      </trkpt>
      <trkpt lat="44.43361" lon="4.89056">
        <ele>189.04</ele>
        <time>2014-09-11T08:07:57Z</time>
      </trkpt>
      <trkpt lat="44.434" lon="4.8907">
        <ele>189.87</ele>
        <time>2014-09-11T08:08:11Z</time>
      </trkpt>
      <trkpt lat="44.43427" lon="4.89103">
        <ele>191.12</ele>
        <time>2014-09-11T08:08:23Z</time>
      </trkpt>
      <trkpt lat="44.43489" lon="4.89109">
        <ele>192.76</ele>
        <time>2014-09-11T08:08:42Z</time>
      </trkpt>
      <trkpt lat="44.43561" lon="4.89121">
        <ele>193.82</ele>
        <time>2014-09-11T08:09:05Z</time>
      </trkpt>
      <trkpt lat="44.43622" lon="4.89126">
        <ele>195.89</ele>
        <time>2014-09-11T08:09:26Z</time>
      </trkpt>
      <trkpt lat="44.43667" lon="4.8913">
        <ele>198.53</ele>
        <time>2014-09-11T08:09:42Z</time>
      </trkpt>
      <trkpt lat="44.43708" lon="4.89143">
        <ele>201.19</ele>
        <time>2014-09-11T08:10:00Z</time>
      </trkpt>
      <trkpt lat="44.43711" lon="4.89144">
        <ele>201.92</ele>
        <time>2014-09-11T08:10:02Z</time>
      </trkpt>
      <trkpt lat="44.43713" lon="4.89146">
        <ele>202.62</ele>
        <time>2014-09-11T08:10:15Z</time>
      </trkpt>
      <trkpt lat="44.43721" lon="4.89148">
        <ele>202.32</ele>
        <time>2014-09-11T08:10:34Z</time>
      </trkpt>
      <trkpt lat="44.43725" lon="4.89153">
        <ele>202.23</ele>
        <time>2014-09-11T08:10:58Z</time>
      </trkpt>
      <trkpt lat="44.43743" lon="4.89158">
        <ele>202.07</ele>
        <time>2014-09-11T08:11:04Z</time>
      </trkpt>
      <trkpt lat="44.43746" lon="4.89159">
        <ele>202.07</ele>
        <time>2014-09-11T08:11:05Z</time>
      </trkpt>
      <trkpt lat="44.4375" lon="4.89159">
        <ele>202</ele>
        <time>2014-09-11T08:11:06Z</time>
      </trkpt>
      <trkpt lat="44.43753" lon="4.89161">
        <ele>201.95</ele>
        <time>2014-09-11T08:11:07Z</time>
      </trkpt>
      <trkpt lat="44.43756" lon="4.89162">
        <ele>201.93</ele>
        <time>2014-09-11T08:11:08Z</time>
      </trkpt>
      <trkpt lat="44.43759" lon="4.89164">
        <ele>201.91</ele>
        <time>2014-09-11T08:11:09Z</time>
      </trkpt>
      <trkpt lat="44.43762" lon="4.89166">
        <ele>201.94</ele>
        <time>2014-09-11T08:11:10Z</time>
      </trkpt>
      <trkpt lat="44.43764" lon="4.89169">
        <ele>202.01</ele>
        <time>2014-09-11T08:11:11Z</time>
      </trkpt>
      <trkpt lat="44.43766" lon="4.89173">
        <ele>202.02</ele>
        <time>2014-09-11T08:11:12Z</time>
      </trkpt>
      <trkpt lat="44.43767" lon="4.89176">
        <ele>202.11</ele>
        <time>2014-09-11T08:11:13Z</time>
      </trkpt>
      <trkpt lat="44.43769" lon="4.8918">
        <ele>202.24</ele>
        <time>2014-09-11T08:11:14Z</time>
      </trkpt>
      <trkpt lat="44.43771" lon="4.89182">
        <ele>202.24</ele>
        <time>2014-09-11T08:11:15Z</time>
      </trkpt>
      <trkpt lat="44.43773" lon="4.89185">
        <ele>202.41</ele>
        <time>2014-09-11T08:11:16Z</time>
      </trkpt>
      <trkpt lat="44.43775" lon="4.89188">
        <ele>202.54</ele>
        <time>2014-09-11T08:11:17Z</time>
      </trkpt>
      <trkpt lat="44.43777" lon="4.89191">
        <ele>202.73</ele>
        <time>2014-09-11T08:11:18Z</time>
      </trkpt>
      <trkpt lat="44.43784" lon="4.89199">
        <ele>203</ele>
        <time>2014-09-11T08:11:21Z</time>
      </trkpt>
      <trkpt lat="44.43786" lon="4.89202">
        <ele>203.07</ele>
        <time>2014-09-11T08:11:22Z</time>
      </trkpt>
      <trkpt lat="44.43804" lon="4.89219">
        <ele>203.79</ele>
        <time>2014-09-11T08:11:29Z</time>
      </trkpt>
      <trkpt lat="44.43806" lon="4.89222">
        <ele>203.81</ele>
        <time>2014-09-11T08:11:30Z</time>
      </trkpt>
      <trkpt lat="44.43811" lon="4.89226">
        <ele>204.07</ele>
        <time>2014-09-11T08:11:32Z</time>
      </trkpt>
      <trkpt lat="44.43814" lon="4.89229">
        <ele>204.23</ele>
        <time>2014-09-11T08:11:33Z</time>
      </trkpt>
      <trkpt lat="44.43816" lon="4.89231">
        <ele>204.55</ele>
        <time>2014-09-11T08:11:34Z</time>
      </trkpt>
      <trkpt lat="44.43818" lon="4.89233">
        <ele>204.84</ele>
        <time>2014-09-11T08:11:35Z</time>
      </trkpt>
      <trkpt lat="44.4382" lon="4.89235">
        <ele>204.98</ele>
        <time>2014-09-11T08:11:36Z</time>
      </trkpt>
      <trkpt lat="44.4383" lon="4.89246">
        <ele>206.18</ele>
        <time>2014-09-11T08:11:41Z</time>
      </trkpt>
      <trkpt lat="44.43834" lon="4.89247">
        <ele>206.52</ele>
        <time>2014-09-11T08:11:43Z</time>
      </trkpt>
      <trkpt lat="44.43839" lon="4.89248">
        <ele>207.07</ele>
        <time>2014-09-11T08:11:45Z</time>
      </trkpt>
      <trkpt lat="44.43841" lon="4.89247">
        <ele>207.27</ele>
        <time>2014-09-11T08:11:46Z</time>
      </trkpt>
      <trkpt lat="44.43844" lon="4.89246">
        <ele>207.4</ele>
        <time>2014-09-11T08:11:47Z</time>
      </trkpt>
      <trkpt lat="44.43846" lon="4.89245">
        <ele>207.4</ele>
        <time>2014-09-11T08:11:48Z</time>
      </trkpt>
      <trkpt lat="44.43848" lon="4.89245">
        <ele>207.52</ele>
        <time>2014-09-11T08:11:49Z</time>
      </trkpt>
      <trkpt lat="44.43851" lon="4.89244">
        <ele>207.71</ele>
        <time>2014-09-11T08:11:50Z</time>
      </trkpt>
      <trkpt lat="44.43853" lon="4.89243">
        <ele>207.85</ele>
        <time>2014-09-11T08:11:51Z</time>
      </trkpt>
      <trkpt lat="44.43855" lon="4.89242">
        <ele>207.96</ele>
        <time>2014-09-11T08:11:52Z</time>
      </trkpt>
      <trkpt lat="44.43857" lon="4.89242">
        <ele>208.09</ele>
        <time>2014-09-11T08:11:53Z</time>
      </trkpt>
      <trkpt lat="44.43859" lon="4.89241">
        <ele>208.26</ele>
        <time>2014-09-11T08:11:54Z</time>
      </trkpt>
      <trkpt lat="44.43861" lon="4.8924">
        <ele>208.41</ele>
        <time>2014-09-11T08:11:55Z</time>
      </trkpt>
      <trkpt lat="44.43863" lon="4.89239">
        <ele>208.56</ele>
        <time>2014-09-11T08:11:56Z</time>
      </trkpt>
      <trkpt lat="44.43865" lon="4.89239">
        <ele>208.63</ele>
        <time>2014-09-11T08:11:57Z</time>
      </trkpt>
      <trkpt lat="44.43868" lon="4.89238">
        <ele>208.79</ele>
        <time>2014-09-11T08:11:58Z</time>
      </trkpt>
      <trkpt lat="44.43884" lon="4.89233">
        <ele>211.24</ele>
        <time>2014-09-11T08:12:06Z</time>
      </trkpt>
      <trkpt lat="44.43889" lon="4.89232">
        <ele>211.48</ele>
        <time>2014-09-11T08:12:08Z</time>
      </trkpt>
      <trkpt lat="44.43891" lon="4.89232">
        <ele>211.73</ele>
        <time>2014-09-11T08:12:09Z</time>
      </trkpt>
      <trkpt lat="44.43893" lon="4.89232">
        <ele>211.94</ele>
        <time>2014-09-11T08:12:10Z</time>
      </trkpt>
      <trkpt lat="44.43895" lon="4.89232">
        <ele>212.11</ele>
        <time>2014-09-11T08:12:11Z</time>
      </trkpt>
      <trkpt lat="44.43897" lon="4.89232">
        <ele>212.26</ele>
        <time>2014-09-11T08:12:12Z</time>
      </trkpt>
      <trkpt lat="44.43899" lon="4.89232">
        <ele>212.39</ele>
        <time>2014-09-11T08:12:13Z</time>
      </trkpt>
      <trkpt lat="44.43901" lon="4.89232">
        <ele>212.64</ele>
        <time>2014-09-11T08:12:14Z</time>
      </trkpt>
      <trkpt lat="44.43903" lon="4.89231">
        <ele>213.08</ele>
        <time>2014-09-11T08:12:15Z</time>
      </trkpt>
      <trkpt lat="44.43904" lon="4.89231">
        <ele>213.46</ele>
        <time>2014-09-11T08:12:16Z</time>
      </trkpt>
      <trkpt lat="44.43906" lon="4.89231">
        <ele>213.71</ele>
        <time>2014-09-11T08:12:17Z</time>
      </trkpt>
      <trkpt lat="44.43908" lon="4.89231">
        <ele>213.99</ele>
        <time>2014-09-11T08:12:18Z</time>
      </trkpt>
      <trkpt lat="44.4391" lon="4.8923">
        <ele>214.25</ele>
        <time>2014-09-11T08:12:19Z</time>
      </trkpt>
      <trkpt lat="44.43912" lon="4.8923">
        <ele>214.38</ele>
        <time>2014-09-11T08:12:20Z</time>
      </trkpt>
      <trkpt lat="44.43931" lon="4.89228">
        <ele>214.73</ele>
        <time>2014-09-11T08:12:29Z</time>
      </trkpt>
      <trkpt lat="44.43933" lon="4.89228">
        <ele>214.87</ele>
        <time>2014-09-11T08:12:30Z</time>
      </trkpt>
      <trkpt lat="44.43936" lon="4.89227">
        <ele>215.03</ele>
        <time>2014-09-11T08:12:31Z</time>
      </trkpt>
      <trkpt lat="44.43938" lon="4.89227">
        <ele>215.14</ele>
        <time>2014-09-11T08:12:32Z</time>
      </trkpt>
      <trkpt lat="44.4394" lon="4.89227">
        <ele>215.2</ele>
        <time>2014-09-11T08:12:33Z</time>
      </trkpt>
      <trkpt lat="44.43943" lon="4.89227">
        <ele>215.18</ele>
        <time>2014-09-11T08:12:34Z</time>
      </trkpt>
      <trkpt lat="44.43945" lon="4.89226">
        <ele>215.2</ele>
        <time>2014-09-11T08:12:35Z</time>
      </trkpt>
      <trkpt lat="44.43948" lon="4.89226">
        <ele>215.38</ele>
        <time>2014-09-11T08:12:36Z</time>
      </trkpt>
      <trkpt lat="44.43966" lon="4.89227">
        <ele>216.52</ele>
        <time>2014-09-11T08:12:43Z</time>
      </trkpt>
      <trkpt lat="44.43971" lon="4.89226">
        <ele>216.63</ele>
        <time>2014-09-11T08:12:45Z</time>
      </trkpt>
      <trkpt lat="44.43973" lon="4.89226">
        <ele>216.77</ele>
        <time>2014-09-11T08:12:46Z</time>
      </trkpt>
      <trkpt lat="44.43991" lon="4.89223">
        <ele>218.1</ele>
        <time>2014-09-11T08:12:54Z</time>
      </trkpt>
      <trkpt lat="44.43993" lon="4.89222">
        <ele>218.24</ele>
        <time>2014-09-11T08:12:55Z</time>
      </trkpt>
      <trkpt lat="44.44001" lon="4.89218">
        <ele>219.53</ele>
        <time>2014-09-11T08:12:59Z</time>
      </trkpt>
      <trkpt lat="44.44005" lon="4.89215">
        <ele>219.7</ele>
        <time>2014-09-11T08:13:01Z</time>
      </trkpt>
      <trkpt lat="44.44006" lon="4.89214">
        <ele>219.81</ele>
        <time>2014-09-11T08:13:02Z</time>
      </trkpt>
      <trkpt lat="44.44008" lon="4.89213">
        <ele>219.91</ele>
        <time>2014-09-11T08:13:03Z</time>
      </trkpt>
      <trkpt lat="44.4401" lon="4.8921">
        <ele>220.08</ele>
        <time>2014-09-11T08:13:05Z</time>
      </trkpt>
      <trkpt lat="44.44011" lon="4.89209">
        <ele>220.14</ele>
        <time>2014-09-11T08:13:06Z</time>
      </trkpt>
      <trkpt lat="44.44013" lon="4.89207">
        <ele>220.17</ele>
        <time>2014-09-11T08:13:07Z</time>
      </trkpt>
      <trkpt lat="44.44032" lon="4.89188">
        <ele>221.72</ele>
        <time>2014-09-11T08:13:21Z</time>
      </trkpt>
      <trkpt lat="44.44034" lon="4.89188">
        <ele>221.93</ele>
        <time>2014-09-11T08:13:22Z</time>
      </trkpt>
      <trkpt lat="44.44036" lon="4.89188">
        <ele>222.22</ele>
        <time>2014-09-11T08:13:23Z</time>
      </trkpt>
      <trkpt lat="44.44037" lon="4.89188">
        <ele>222.53</ele>
        <time>2014-09-11T08:13:24Z</time>
      </trkpt>
      <trkpt lat="44.44039" lon="4.89189">
        <ele>222.86</ele>
        <time>2014-09-11T08:13:25Z</time>
      </trkpt>
      <trkpt lat="44.44041" lon="4.89189">
        <ele>223.05</ele>
        <time>2014-09-11T08:13:26Z</time>
      </trkpt>
      <trkpt lat="44.44043" lon="4.8919">
        <ele>223.05</ele>
        <time>2014-09-11T08:13:27Z</time>
      </trkpt>
      <trkpt lat="44.44044" lon="4.8919">
        <ele>223.2</ele>
        <time>2014-09-11T08:13:28Z</time>
      </trkpt>
      <trkpt lat="44.44046" lon="4.89191">
        <ele>223.27</ele>
        <time>2014-09-11T08:13:29Z</time>
      </trkpt>
      <trkpt lat="44.44047" lon="4.89191">
        <ele>223.3</ele>
        <time>2014-09-11T08:13:30Z</time>
      </trkpt>
      <trkpt lat="44.44049" lon="4.89192">
        <ele>223.37</ele>
        <time>2014-09-11T08:13:31Z</time>
      </trkpt>
      <trkpt lat="44.44054" lon="4.89194">
        <ele>223.49</ele>
        <time>2014-09-11T08:13:34Z</time>
      </trkpt>
      <trkpt lat="44.44056" lon="4.89194">
        <ele>223.64</ele>
        <time>2014-09-11T08:13:35Z</time>
      </trkpt>
      <trkpt lat="44.44061" lon="4.89192">
        <ele>224.25</ele>
        <time>2014-09-11T08:13:38Z</time>
      </trkpt>
      <trkpt lat="44.44062" lon="4.89192">
        <ele>224.39</ele>
        <time>2014-09-11T08:13:39Z</time>
      </trkpt>
      <trkpt lat="44.44064" lon="4.89191">
        <ele>224.46</ele>
        <time>2014-09-11T08:13:40Z</time>
      </trkpt>
      <trkpt lat="44.44066" lon="4.89191">
        <ele>224.49</ele>
        <time>2014-09-11T08:13:41Z</time>
      </trkpt>
      <trkpt lat="44.44067" lon="4.8919">
        <ele>224.44</ele>
        <time>2014-09-11T08:13:42Z</time>
      </trkpt>
      <trkpt lat="44.44069" lon="4.8919">
        <ele>224.53</ele>
        <time>2014-09-11T08:13:43Z</time>
      </trkpt>
      <trkpt lat="44.4407" lon="4.89189">
        <ele>224.44</ele>
        <time>2014-09-11T08:13:44Z</time>
      </trkpt>
      <trkpt lat="44.44072" lon="4.89189">
        <ele>224.56</ele>
        <time>2014-09-11T08:13:45Z</time>
      </trkpt>
      <trkpt lat="44.44074" lon="4.89187">
        <ele>224.58</ele>
        <time>2014-09-11T08:13:46Z</time>
      </trkpt>
      <trkpt lat="44.44076" lon="4.89186">
        <ele>224.77</ele>
        <time>2014-09-11T08:13:47Z</time>
      </trkpt>
      <trkpt lat="44.44078" lon="4.89185">
        <ele>225.06</ele>
        <time>2014-09-11T08:13:48Z</time>
      </trkpt>
      <trkpt lat="44.4408" lon="4.89184">
        <ele>225.28</ele>
        <time>2014-09-11T08:13:49Z</time>
      </trkpt>
      <trkpt lat="44.44082" lon="4.89183">
        <ele>225.52</ele>
        <time>2014-09-11T08:13:50Z</time>
      </trkpt>
      <trkpt lat="44.44084" lon="4.89181">
        <ele>225.64</ele>
        <time>2014-09-11T08:13:51Z</time>
      </trkpt>
      <trkpt lat="44.44086" lon="4.8918">
        <ele>225.56</ele>
        <time>2014-09-11T08:13:52Z</time>
      </trkpt>
      <trkpt lat="44.44088" lon="4.89178">
        <ele>225.66</ele>
        <time>2014-09-11T08:13:53Z</time>
      </trkpt>
      <trkpt lat="44.44103" lon="4.8916">
        <ele>226.12</ele>
        <time>2014-09-11T08:14:02Z</time>
      </trkpt>
      <trkpt lat="44.44109" lon="4.89133">
        <ele>226.39</ele>
        <time>2014-09-11T08:14:10Z</time>
      </trkpt>
      <trkpt lat="44.4411" lon="4.89125">
        <ele>226.47</ele>
        <time>2014-09-11T08:14:12Z</time>
      </trkpt>
      <trkpt lat="44.4411" lon="4.8912">
        <ele>226.53</ele>
        <time>2014-09-11T08:14:13Z</time>
      </trkpt>
      <trkpt lat="44.4411" lon="4.89116">
        <ele>226.54</ele>
        <time>2014-09-11T08:14:14Z</time>
      </trkpt>
      <trkpt lat="44.4411" lon="4.89112">
        <ele>226.55</ele>
        <time>2014-09-11T08:14:15Z</time>
      </trkpt>
      <trkpt lat="44.44109" lon="4.89108">
        <ele>226.57</ele>
        <time>2014-09-11T08:14:16Z</time>
      </trkpt>
      <trkpt lat="44.44109" lon="4.89104">
        <ele>226.51</ele>
        <time>2014-09-11T08:14:17Z</time>
      </trkpt>
      <trkpt lat="44.44109" lon="4.89099">
        <ele>226.48</ele>
        <time>2014-09-11T08:14:18Z</time>
      </trkpt>
      <trkpt lat="44.44109" lon="4.89095">
        <ele>226.46</ele>
        <time>2014-09-11T08:14:19Z</time>
      </trkpt>
      <trkpt lat="44.44106" lon="4.89067">
        <ele>226.25</ele>
        <time>2014-09-11T08:14:26Z</time>
      </trkpt>
      <trkpt lat="44.44112" lon="4.89041">
        <ele>225.63</ele>
        <time>2014-09-11T08:14:32Z</time>
      </trkpt>
      <trkpt lat="44.44134" lon="4.89017">
        <ele>223.8</ele>
        <time>2014-09-11T08:14:38Z</time>
      </trkpt>
      <trkpt lat="44.44152" lon="4.89007">
        <ele>223</ele>
        <time>2014-09-11T08:14:43Z</time>
      </trkpt>
      <trkpt lat="44.44165" lon="4.89001">
        <ele>222.94</ele>
        <time>2014-09-11T08:14:47Z</time>
      </trkpt>
      <trkpt lat="44.44179" lon="4.88996">
        <ele>223.56</ele>
        <time>2014-09-11T08:14:51Z</time>
      </trkpt>
      <trkpt lat="44.44191" lon="4.8899">
        <ele>224.16</ele>
        <time>2014-09-11T08:14:55Z</time>
      </trkpt>
      <trkpt lat="44.44207" lon="4.88981">
        <ele>223.81</ele>
        <time>2014-09-11T08:15:00Z</time>
      </trkpt>
      <trkpt lat="44.44214" lon="4.88976">
        <ele>223.71</ele>
        <time>2014-09-11T08:15:02Z</time>
      </trkpt>
      <trkpt lat="44.44231" lon="4.88964">
        <ele>223.38</ele>
        <time>2014-09-11T08:15:07Z</time>
      </trkpt>
      <trkpt lat="44.44242" lon="4.88955">
        <ele>223.15</ele>
        <time>2014-09-11T08:15:11Z</time>
      </trkpt>
      <trkpt lat="44.44268" lon="4.88942">
        <ele>222.85</ele>
        <time>2014-09-11T08:15:19Z</time>
      </trkpt>
      <trkpt lat="44.44276" lon="4.88934">
        <ele>222.83</ele>
        <time>2014-09-11T08:15:24Z</time>
      </trkpt>
      <trkpt lat="44.44282" lon="4.88928">
        <ele>220.8</ele>
        <time>2014-09-11T08:15:38Z</time>
      </trkpt>
      <trkpt lat="44.44283" lon="4.88928">
        <ele>220.86</ele>
        <time>2014-09-11T08:15:41Z</time>
      </trkpt>
      <trkpt lat="44.44288" lon="4.88925">
        <ele>221.65</ele>
        <time>2014-09-11T08:16:01Z</time>
      </trkpt>
      <trkpt lat="44.44288" lon="4.88923">
        <ele>220.75</ele>
        <time>2014-09-11T08:16:18Z</time>
      </trkpt>
      <trkpt lat="44.44289" lon="4.88923">
        <ele>220.76</ele>
        <time>2014-09-11T08:17:05Z</time>
      </trkpt>
      <trkpt lat="44.44289" lon="4.88923">
        <ele>220.63</ele>
        <time>2014-09-11T08:17:46Z</time>
      </trkpt>
      <trkpt lat="44.44291" lon="4.88912">
        <ele>220.66</ele>
        <time>2014-09-11T08:17:50Z</time>
      </trkpt>
      <trkpt lat="44.443" lon="4.88876">
        <ele>219.07</ele>
        <time>2014-09-11T08:17:59Z</time>
      </trkpt>
      <trkpt lat="44.44309" lon="4.88829">
        <ele>220.46</ele>
        <time>2014-09-11T08:18:14Z</time>
      </trkpt>
      <trkpt lat="44.44314" lon="4.8883">
        <ele>220.56</ele>
        <time>2014-09-11T08:18:17Z</time>
      </trkpt>
      <trkpt lat="44.44322" lon="4.88829">
        <ele>221</ele>
        <time>2014-09-11T08:18:21Z</time>
      </trkpt>
      <trkpt lat="44.44343" lon="4.88823">
        <ele>223.55</ele>
        <time>2014-09-11T08:18:34Z</time>
      </trkpt>
      <trkpt lat="44.4434" lon="4.88812">
        <ele>226.01</ele>
        <time>2014-09-11T08:18:47Z</time>
      </trkpt>
      <trkpt lat="44.44335" lon="4.8881">
        <ele>227.59</ele>
        <time>2014-09-11T08:18:53Z</time>
      </trkpt>
      <trkpt lat="44.44326" lon="4.88804">
        <ele>227.85</ele>
        <time>2014-09-11T08:19:13Z</time>
      </trkpt>
      <trkpt lat="44.44324" lon="4.88803">
        <ele>227.98</ele>
        <time>2014-09-11T08:19:15Z</time>
      </trkpt>
      <trkpt lat="44.44313" lon="4.88792">
        <ele>228.75</ele>
        <time>2014-09-11T08:19:30Z</time>
      </trkpt>
      <trkpt lat="44.44307" lon="4.88774">
        <ele>229.81</ele>
        <time>2014-09-11T08:19:48Z</time>
      </trkpt>
      <trkpt lat="44.44306" lon="4.88771">
        <ele>229.12</ele>
        <time>2014-09-11T08:20:07Z</time>
      </trkpt>
      <trkpt lat="44.44306" lon="4.8877">
        <ele>229.74</ele>
        <time>2014-09-11T08:20:34Z</time>
      </trkpt>
      <trkpt lat="44.44308" lon="4.88771">
        <ele>229.84</ele>
        <time>2014-09-11T08:21:04Z</time>
      </trkpt>
      <trkpt lat="44.44309" lon="4.88771">
        <ele>229.88</ele>
        <time>2014-09-11T08:21:05Z</time>
      </trkpt>
      <trkpt lat="44.44314" lon="4.88775">
        <ele>229.8</ele>
        <time>2014-09-11T08:21:09Z</time>
      </trkpt>
      <trkpt lat="44.44323" lon="4.88777">
        <ele>229.47</ele>
        <time>2014-09-11T08:21:14Z</time>
      </trkpt>
      <trkpt lat="44.44328" lon="4.88777">
        <ele>229.75</ele>
        <time>2014-09-11T08:21:34Z</time>
      </trkpt>
      <trkpt lat="44.4433" lon="4.8878">
        <ele>229.71</ele>
        <time>2014-09-11T08:22:18Z</time>
      </trkpt>
      <trkpt lat="44.44341" lon="4.88783">
        <ele>230.43</ele>
        <time>2014-09-11T08:22:24Z</time>
      </trkpt>
      <trkpt lat="44.4437" lon="4.8879">
        <ele>232.1</ele>
        <time>2014-09-11T08:22:38Z</time>
      </trkpt>
      <trkpt lat="44.44379" lon="4.88797">
        <ele>232.53</ele>
        <time>2014-09-11T08:22:43Z</time>
      </trkpt>
      <trkpt lat="44.4439" lon="4.88806">
        <ele>233.16</ele>
        <time>2014-09-11T08:22:49Z</time>
      </trkpt>
      <trkpt lat="44.44399" lon="4.88812">
        <ele>233.28</ele>
        <time>2014-09-11T08:22:53Z</time>
      </trkpt>
      <trkpt lat="44.44434" lon="4.88825">
        <ele>235.2</ele>
        <time>2014-09-11T08:23:09Z</time>
      </trkpt>
      <trkpt lat="44.44436" lon="4.88825">
        <ele>235.27</ele>
        <time>2014-09-11T08:23:10Z</time>
      </trkpt>
      <trkpt lat="44.44441" lon="4.88828">
        <ele>235.23</ele>
        <time>2014-09-11T08:23:13Z</time>
      </trkpt>
      <trkpt lat="44.44458" lon="4.88838">
        <ele>236.46</ele>
        <time>2014-09-11T08:23:21Z</time>
      </trkpt>
      <trkpt lat="44.44491" lon="4.88852">
        <ele>238.03</ele>
        <time>2014-09-11T08:23:37Z</time>
      </trkpt>
      <trkpt lat="44.44524" lon="4.88868">
        <ele>240.74</ele>
        <time>2014-09-11T08:23:53Z</time>
      </trkpt>
      <trkpt lat="44.44548" lon="4.88868">
        <ele>241.63</ele>
        <time>2014-09-11T08:24:05Z</time>
      </trkpt>
      <trkpt lat="44.44557" lon="4.88867">
        <ele>242.48</ele>
        <time>2014-09-11T08:24:09Z</time>
      </trkpt>
      <trkpt lat="44.44563" lon="4.88866">
        <ele>242.76</ele>
        <time>2014-09-11T08:24:12Z</time>
      </trkpt>
      <trkpt lat="44.44582" lon="4.88865">
        <ele>243.9</ele>
        <time>2014-09-11T08:24:21Z</time>
      </trkpt>
      <trkpt lat="44.44584" lon="4.88864">
        <ele>244.11</ele>
        <time>2014-09-11T08:24:22Z</time>
      </trkpt>
      <trkpt lat="44.44603" lon="4.88858">
        <ele>245.35</ele>
        <time>2014-09-11T08:24:38Z</time>
      </trkpt>
      <trkpt lat="44.44613" lon="4.8886">
        <ele>245.77</ele>
        <time>2014-09-11T08:24:42Z</time>
      </trkpt>
      <trkpt lat="44.44656" lon="4.88857">
        <ele>248.05</ele>
        <time>2014-09-11T08:24:57Z</time>
      </trkpt>
      <trkpt lat="44.44679" lon="4.88838">
        <ele>248.9</ele>
        <time>2014-09-11T08:25:09Z</time>
      </trkpt>
      <trkpt lat="44.44693" lon="4.88817">
        <ele>249.81</ele>
        <time>2014-09-11T08:25:18Z</time>
      </trkpt>
      <trkpt lat="44.44704" lon="4.88802">
        <ele>249.63</ele>
        <time>2014-09-11T08:25:24Z</time>
      </trkpt>
      <trkpt lat="44.44713" lon="4.88793">
        <ele>249.47</ele>
        <time>2014-09-11T08:25:28Z</time>
      </trkpt>
      <trkpt lat="44.44726" lon="4.8878">
        <ele>249.14</ele>
        <time>2014-09-11T08:25:33Z</time>
      </trkpt>
      <trkpt lat="44.44748" lon="4.88766">
        <ele>250.03</ele>
        <time>2014-09-11T08:25:41Z</time>
      </trkpt>
      <trkpt lat="44.4477" lon="4.88753">
        <ele>250.91</ele>
        <time>2014-09-11T08:25:49Z</time>
      </trkpt>
      <trkpt lat="44.44784" lon="4.88749">
        <ele>252.06</ele>
        <time>2014-09-11T08:25:54Z</time>
      </trkpt>
      <trkpt lat="44.44814" lon="4.88755">
        <ele>252.72</ele>
        <time>2014-09-11T08:26:07Z</time>
      </trkpt>
      <trkpt lat="44.44825" lon="4.88752">
        <ele>252.71</ele>
        <time>2014-09-11T08:26:11Z</time>
      </trkpt>
      <trkpt lat="44.44843" lon="4.88747">
        <ele>253.21</ele>
        <time>2014-09-11T08:26:18Z</time>
      </trkpt>
      <trkpt lat="44.44854" lon="4.88745">
        <ele>253.31</ele>
        <time>2014-09-11T08:26:22Z</time>
      </trkpt>
      <trkpt lat="44.44869" lon="4.88737">
        <ele>254.05</ele>
        <time>2014-09-11T08:26:28Z</time>
      </trkpt>
      <trkpt lat="44.44892" lon="4.88723">
        <ele>254.55</ele>
        <time>2014-09-11T08:26:38Z</time>
      </trkpt>
      <trkpt lat="44.44899" lon="4.88721">
        <ele>254.69</ele>
        <time>2014-09-11T08:26:41Z</time>
      </trkpt>
      <trkpt lat="44.44915" lon="4.88702">
        <ele>256.29</ele>
        <time>2014-09-11T08:26:50Z</time>
      </trkpt>
      <trkpt lat="44.44921" lon="4.88697">
        <ele>256.55</ele>
        <time>2014-09-11T08:26:53Z</time>
      </trkpt>
      <trkpt lat="44.44955" lon="4.88669">
        <ele>258.23</ele>
        <time>2014-09-11T08:27:09Z</time>
      </trkpt>
      <trkpt lat="44.44982" lon="4.8865">
        <ele>260.58</ele>
        <time>2014-09-11T08:27:22Z</time>
      </trkpt>
      <trkpt lat="44.45002" lon="4.8864">
        <ele>262.11</ele>
        <time>2014-09-11T08:27:32Z</time>
      </trkpt>
      <trkpt lat="44.45009" lon="4.88635">
        <ele>262.29</ele>
        <time>2014-09-11T08:27:36Z</time>
      </trkpt>
      <trkpt lat="44.45045" lon="4.88619">
        <ele>264.17</ele>
        <time>2014-09-11T08:27:53Z</time>
      </trkpt>
      <trkpt lat="44.4505" lon="4.88616">
        <ele>264.11</ele>
        <time>2014-09-11T08:27:56Z</time>
      </trkpt>
      <trkpt lat="44.45069" lon="4.8861">
        <ele>264.93</ele>
        <time>2014-09-11T08:28:06Z</time>
      </trkpt>
      <trkpt lat="44.4508" lon="4.88607">
        <ele>265.85</ele>
        <time>2014-09-11T08:28:11Z</time>
      </trkpt>
      <trkpt lat="44.45088" lon="4.88605">
        <ele>266.72</ele>
        <time>2014-09-11T08:28:15Z</time>
      </trkpt>
      <trkpt lat="44.45104" lon="4.886">
        <ele>267.22</ele>
        <time>2014-09-11T08:28:23Z</time>
      </trkpt>
      <trkpt lat="44.45125" lon="4.8859">
        <ele>268.32</ele>
        <time>2014-09-11T08:28:34Z</time>
      </trkpt>
      <trkpt lat="44.45127" lon="4.88589">
        <ele>268.45</ele>
        <time>2014-09-11T08:28:35Z</time>
      </trkpt>
      <trkpt lat="44.45129" lon="4.88588">
        <ele>268.4</ele>
        <time>2014-09-11T08:28:36Z</time>
      </trkpt>
      <trkpt lat="44.4513" lon="4.88588">
        <ele>268.48</ele>
        <time>2014-09-11T08:28:37Z</time>
      </trkpt>
      <trkpt lat="44.45132" lon="4.88587">
        <ele>268.8</ele>
        <time>2014-09-11T08:28:38Z</time>
      </trkpt>
      <trkpt lat="44.45133" lon="4.88586">
        <ele>269.15</ele>
        <time>2014-09-11T08:28:39Z</time>
      </trkpt>
      <trkpt lat="44.45135" lon="4.88585">
        <ele>269.34</ele>
        <time>2014-09-11T08:28:40Z</time>
      </trkpt>
      <trkpt lat="44.45137" lon="4.88584">
        <ele>269.47</ele>
        <time>2014-09-11T08:28:41Z</time>
      </trkpt>
      <trkpt lat="44.45139" lon="4.88584">
        <ele>269.54</ele>
        <time>2014-09-11T08:28:42Z</time>
      </trkpt>
      <trkpt lat="44.4514" lon="4.88583">
        <ele>269.66</ele>
        <time>2014-09-11T08:28:43Z</time>
      </trkpt>
      <trkpt lat="44.45141" lon="4.88582">
        <ele>269.85</ele>
        <time>2014-09-11T08:28:44Z</time>
      </trkpt>
      <trkpt lat="44.45146" lon="4.88582">
        <ele>269.87</ele>
        <time>2014-09-11T08:29:04Z</time>
      </trkpt>
      <trkpt lat="44.45149" lon="4.88583">
        <ele>269.36</ele>
        <time>2014-09-11T08:29:33Z</time>
      </trkpt>
      <trkpt lat="44.4515" lon="4.88584">
        <ele>269.28</ele>
        <time>2014-09-11T08:29:34Z</time>
      </trkpt>
      <trkpt lat="44.45152" lon="4.88584">
        <ele>269.26</ele>
        <time>2014-09-11T08:29:35Z</time>
      </trkpt>
      <trkpt lat="44.45156" lon="4.88584">
        <ele>269.53</ele>
        <time>2014-09-11T08:29:37Z</time>
      </trkpt>
      <trkpt lat="44.45158" lon="4.88584">
        <ele>269.47</ele>
        <time>2014-09-11T08:29:38Z</time>
      </trkpt>
      <trkpt lat="44.4516" lon="4.88584">
        <ele>269.45</ele>
        <time>2014-09-11T08:29:39Z</time>
      </trkpt>
      <trkpt lat="44.45168" lon="4.88582">
        <ele>269.82</ele>
        <time>2014-09-11T08:29:43Z</time>
      </trkpt>
      <trkpt lat="44.4517" lon="4.88582">
        <ele>269.86</ele>
        <time>2014-09-11T08:29:44Z</time>
      </trkpt>
      <trkpt lat="44.45173" lon="4.88581">
        <ele>270.01</ele>
        <time>2014-09-11T08:29:45Z</time>
      </trkpt>
      <trkpt lat="44.45177" lon="4.8858">
        <ele>270.32</ele>
        <time>2014-09-11T08:29:47Z</time>
      </trkpt>
      <trkpt lat="44.45179" lon="4.8858">
        <ele>270.56</ele>
        <time>2014-09-11T08:29:48Z</time>
      </trkpt>
      <trkpt lat="44.45181" lon="4.88579">
        <ele>270.79</ele>
        <time>2014-09-11T08:29:49Z</time>
      </trkpt>
      <trkpt lat="44.45219" lon="4.88591">
        <ele>271.14</ele>
        <time>2014-09-11T08:30:07Z</time>
      </trkpt>
      <trkpt lat="44.45228" lon="4.88597">
        <ele>271.94</ele>
        <time>2014-09-11T08:30:12Z</time>
      </trkpt>
      <trkpt lat="44.45232" lon="4.88597">
        <ele>272.24</ele>
        <time>2014-09-11T08:30:14Z</time>
      </trkpt>
      <trkpt lat="44.45234" lon="4.88596">
        <ele>272.56</ele>
        <time>2014-09-11T08:30:15Z</time>
      </trkpt>
      <trkpt lat="44.45236" lon="4.88595">
        <ele>272.81</ele>
        <time>2014-09-11T08:30:16Z</time>
      </trkpt>
      <trkpt lat="44.45239" lon="4.88595">
        <ele>272.93</ele>
        <time>2014-09-11T08:30:17Z</time>
      </trkpt>
      <trkpt lat="44.45241" lon="4.88595">
        <ele>272.99</ele>
        <time>2014-09-11T08:30:18Z</time>
      </trkpt>
      <trkpt lat="44.45243" lon="4.88594">
        <ele>273.14</ele>
        <time>2014-09-11T08:30:19Z</time>
      </trkpt>
      <trkpt lat="44.45245" lon="4.88593">
        <ele>273.08</ele>
        <time>2014-09-11T08:30:20Z</time>
      </trkpt>
      <trkpt lat="44.45247" lon="4.88593">
        <ele>273.04</ele>
        <time>2014-09-11T08:30:21Z</time>
      </trkpt>
      <trkpt lat="44.45249" lon="4.88592">
        <ele>272.93</ele>
        <time>2014-09-11T08:30:22Z</time>
      </trkpt>
      <trkpt lat="44.45251" lon="4.88591">
        <ele>272.86</ele>
        <time>2014-09-11T08:30:23Z</time>
      </trkpt>
      <trkpt lat="44.45253" lon="4.88591">
        <ele>272.94</ele>
        <time>2014-09-11T08:30:24Z</time>
      </trkpt>
      <trkpt lat="44.45256" lon="4.8859">
        <ele>273.1</ele>
        <time>2014-09-11T08:30:25Z</time>
      </trkpt>
      <trkpt lat="44.45258" lon="4.8859">
        <ele>273.1</ele>
        <time>2014-09-11T08:30:26Z</time>
      </trkpt>
      <trkpt lat="44.4526" lon="4.88589">
        <ele>273.1</ele>
        <time>2014-09-11T08:30:27Z</time>
      </trkpt>
      <trkpt lat="44.45262" lon="4.88589">
        <ele>273.1</ele>
        <time>2014-09-11T08:30:28Z</time>
      </trkpt>
      <trkpt lat="44.45265" lon="4.88589">
        <ele>272.99</ele>
        <time>2014-09-11T08:30:29Z</time>
      </trkpt>
      <trkpt lat="44.45267" lon="4.88588">
        <ele>273.04</ele>
        <time>2014-09-11T08:30:30Z</time>
      </trkpt>
      <trkpt lat="44.45269" lon="4.88587">
        <ele>273.19</ele>
        <time>2014-09-11T08:30:31Z</time>
      </trkpt>
      <trkpt lat="44.45271" lon="4.88586">
        <ele>273.13</ele>
        <time>2014-09-11T08:30:32Z</time>
      </trkpt>
      <trkpt lat="44.45273" lon="4.88585">
        <ele>273.1</ele>
        <time>2014-09-11T08:30:33Z</time>
      </trkpt>
      <trkpt lat="44.45275" lon="4.88584">
        <ele>273.2</ele>
        <time>2014-09-11T08:30:34Z</time>
      </trkpt>
      <trkpt lat="44.45278" lon="4.88583">
        <ele>273.21</ele>
        <time>2014-09-11T08:30:35Z</time>
      </trkpt>
      <trkpt lat="44.4528" lon="4.88582">
        <ele>273.32</ele>
        <time>2014-09-11T08:30:36Z</time>
      </trkpt>
      <trkpt lat="44.45282" lon="4.88582">
        <ele>273.39</ele>
        <time>2014-09-11T08:30:37Z</time>
      </trkpt>
      <trkpt lat="44.45284" lon="4.88582">
        <ele>273.43</ele>
        <time>2014-09-11T08:30:38Z</time>
      </trkpt>
      <trkpt lat="44.45286" lon="4.88582">
        <ele>273.57</ele>
        <time>2014-09-11T08:30:39Z</time>
      </trkpt>
      <trkpt lat="44.45288" lon="4.88583">
        <ele>273.65</ele>
        <time>2014-09-11T08:30:40Z</time>
      </trkpt>
      <trkpt lat="44.4529" lon="4.88584">
        <ele>273.82</ele>
        <time>2014-09-11T08:30:41Z</time>
      </trkpt>
      <trkpt lat="44.45293" lon="4.88585">
        <ele>273.92</ele>
        <time>2014-09-11T08:30:42Z</time>
      </trkpt>
      <trkpt lat="44.45295" lon="4.88585">
        <ele>273.96</ele>
        <time>2014-09-11T08:30:43Z</time>
      </trkpt>
      <trkpt lat="44.45297" lon="4.88585">
        <ele>274.13</ele>
        <time>2014-09-11T08:30:44Z</time>
      </trkpt>
      <trkpt lat="44.45299" lon="4.88585">
        <ele>274.38</ele>
        <time>2014-09-11T08:30:45Z</time>
      </trkpt>
      <trkpt lat="44.45301" lon="4.88586">
        <ele>274.53</ele>
        <time>2014-09-11T08:30:46Z</time>
      </trkpt>
      <trkpt lat="44.45305" lon="4.88588">
        <ele>275.03</ele>
        <time>2014-09-11T08:30:48Z</time>
      </trkpt>
      <trkpt lat="44.45307" lon="4.88588">
        <ele>275.24</ele>
        <time>2014-09-11T08:30:49Z</time>
      </trkpt>
      <trkpt lat="44.45309" lon="4.88588">
        <ele>275.32</ele>
        <time>2014-09-11T08:30:50Z</time>
      </trkpt>
      <trkpt lat="44.45311" lon="4.88589">
        <ele>275.45</ele>
        <time>2014-09-11T08:30:51Z</time>
      </trkpt>
      <trkpt lat="44.45315" lon="4.88591">
        <ele>275.6</ele>
        <time>2014-09-11T08:30:53Z</time>
      </trkpt>
      <trkpt lat="44.45317" lon="4.88591">
        <ele>275.68</ele>
        <time>2014-09-11T08:30:54Z</time>
      </trkpt>
      <trkpt lat="44.4532" lon="4.88592">
        <ele>275.8</ele>
        <time>2014-09-11T08:30:55Z</time>
      </trkpt>
      <trkpt lat="44.45322" lon="4.88593">
        <ele>275.96</ele>
        <time>2014-09-11T08:30:56Z</time>
      </trkpt>
      <trkpt lat="44.45324" lon="4.88593">
        <ele>276.2</ele>
        <time>2014-09-11T08:30:57Z</time>
      </trkpt>
      <trkpt lat="44.45325" lon="4.88593">
        <ele>276.51</ele>
        <time>2014-09-11T08:30:58Z</time>
      </trkpt>
      <trkpt lat="44.45337" lon="4.88592">
        <ele>277.7</ele>
        <time>2014-09-11T08:31:04Z</time>
      </trkpt>
      <trkpt lat="44.45339" lon="4.88592">
        <ele>277.75</ele>
        <time>2014-09-11T08:31:05Z</time>
      </trkpt>
      <trkpt lat="44.45341" lon="4.88593">
        <ele>277.67</ele>
        <time>2014-09-11T08:31:06Z</time>
      </trkpt>
      <trkpt lat="44.45344" lon="4.88593">
        <ele>277.66</ele>
        <time>2014-09-11T08:31:07Z</time>
      </trkpt>
      <trkpt lat="44.45345" lon="4.88594">
        <ele>277.62</ele>
        <time>2014-09-11T08:31:08Z</time>
      </trkpt>
      <trkpt lat="44.45348" lon="4.88594">
        <ele>277.63</ele>
        <time>2014-09-11T08:31:09Z</time>
      </trkpt>
      <trkpt lat="44.45349" lon="4.88595">
        <ele>277.78</ele>
        <time>2014-09-11T08:31:10Z</time>
      </trkpt>
      <trkpt lat="44.45351" lon="4.88595">
        <ele>277.88</ele>
        <time>2014-09-11T08:31:11Z</time>
      </trkpt>
      <trkpt lat="44.45353" lon="4.88596">
        <ele>278.08</ele>
        <time>2014-09-11T08:31:12Z</time>
      </trkpt>
      <trkpt lat="44.45354" lon="4.88596">
        <ele>278.33</ele>
        <time>2014-09-11T08:31:13Z</time>
      </trkpt>
      <trkpt lat="44.45356" lon="4.88597">
        <ele>278.46</ele>
        <time>2014-09-11T08:31:14Z</time>
      </trkpt>
      <trkpt lat="44.45358" lon="4.88598">
        <ele>278.55</ele>
        <time>2014-09-11T08:31:15Z</time>
      </trkpt>
      <trkpt lat="44.45359" lon="4.88599">
        <ele>278.6</ele>
        <time>2014-09-11T08:31:16Z</time>
      </trkpt>
      <trkpt lat="44.45361" lon="4.88599">
        <ele>278.58</ele>
        <time>2014-09-11T08:31:17Z</time>
      </trkpt>
      <trkpt lat="44.45363" lon="4.886">
        <ele>278.61</ele>
        <time>2014-09-11T08:31:18Z</time>
      </trkpt>
      <trkpt lat="44.45364" lon="4.88601">
        <ele>278.81</ele>
        <time>2014-09-11T08:31:19Z</time>
      </trkpt>
      <trkpt lat="44.45365" lon="4.88602">
        <ele>278.96</ele>
        <time>2014-09-11T08:31:20Z</time>
      </trkpt>
      <trkpt lat="44.45367" lon="4.88603">
        <ele>279.13</ele>
        <time>2014-09-11T08:31:21Z</time>
      </trkpt>
      <trkpt lat="44.45368" lon="4.88604">
        <ele>279.28</ele>
        <time>2014-09-11T08:31:22Z</time>
      </trkpt>
      <trkpt lat="44.45369" lon="4.88605">
        <ele>279.36</ele>
        <time>2014-09-11T08:31:23Z</time>
      </trkpt>
      <trkpt lat="44.45371" lon="4.88606">
        <ele>279.54</ele>
        <time>2014-09-11T08:31:24Z</time>
      </trkpt>
      <trkpt lat="44.45372" lon="4.88607">
        <ele>279.77</ele>
        <time>2014-09-11T08:31:25Z</time>
      </trkpt>
      <trkpt lat="44.45374" lon="4.88608">
        <ele>279.91</ele>
        <time>2014-09-11T08:31:26Z</time>
      </trkpt>
      <trkpt lat="44.45376" lon="4.88609">
        <ele>280</ele>
        <time>2014-09-11T08:31:27Z</time>
      </trkpt>
      <trkpt lat="44.45377" lon="4.8861">
        <ele>280.11</ele>
        <time>2014-09-11T08:31:28Z</time>
      </trkpt>
      <trkpt lat="44.45379" lon="4.88612">
        <ele>280.2</ele>
        <time>2014-09-11T08:31:29Z</time>
      </trkpt>
      <trkpt lat="44.45383" lon="4.88614">
        <ele>280.48</ele>
        <time>2014-09-11T08:31:31Z</time>
      </trkpt>
      <trkpt lat="44.45384" lon="4.88616">
        <ele>280.69</ele>
        <time>2014-09-11T08:31:32Z</time>
      </trkpt>
      <trkpt lat="44.45386" lon="4.88617">
        <ele>280.69</ele>
        <time>2014-09-11T08:31:33Z</time>
      </trkpt>
      <trkpt lat="44.45388" lon="4.88619">
        <ele>280.79</ele>
        <time>2014-09-11T08:31:34Z</time>
      </trkpt>
      <trkpt lat="44.4539" lon="4.8862">
        <ele>281</ele>
        <time>2014-09-11T08:31:35Z</time>
      </trkpt>
      <trkpt lat="44.45392" lon="4.88622">
        <ele>281.07</ele>
        <time>2014-09-11T08:31:36Z</time>
      </trkpt>
      <trkpt lat="44.45395" lon="4.88625">
        <ele>281.26</ele>
        <time>2014-09-11T08:31:38Z</time>
      </trkpt>
      <trkpt lat="44.45398" lon="4.88628">
        <ele>281.27</ele>
        <time>2014-09-11T08:31:40Z</time>
      </trkpt>
      <trkpt lat="44.454" lon="4.8863">
        <ele>281.57</ele>
        <time>2014-09-11T08:31:41Z</time>
      </trkpt>
      <trkpt lat="44.45402" lon="4.88631">
        <ele>281.83</ele>
        <time>2014-09-11T08:31:42Z</time>
      </trkpt>
      <trkpt lat="44.45404" lon="4.88633">
        <ele>282</ele>
        <time>2014-09-11T08:31:43Z</time>
      </trkpt>
      <trkpt lat="44.45406" lon="4.88634">
        <ele>282.08</ele>
        <time>2014-09-11T08:31:44Z</time>
      </trkpt>
      <trkpt lat="44.45408" lon="4.88635">
        <ele>282.02</ele>
        <time>2014-09-11T08:31:45Z</time>
      </trkpt>
      <trkpt lat="44.45416" lon="4.88641">
        <ele>281.89</ele>
        <time>2014-09-11T08:31:49Z</time>
      </trkpt>
      <trkpt lat="44.45417" lon="4.88642">
        <ele>281.95</ele>
        <time>2014-09-11T08:31:50Z</time>
      </trkpt>
      <trkpt lat="44.45419" lon="4.88643">
        <ele>282.32</ele>
        <time>2014-09-11T08:31:51Z</time>
      </trkpt>
      <trkpt lat="44.45421" lon="4.88644">
        <ele>282.7</ele>
        <time>2014-09-11T08:31:52Z</time>
      </trkpt>
      <trkpt lat="44.45422" lon="4.88645">
        <ele>282.87</ele>
        <time>2014-09-11T08:31:53Z</time>
      </trkpt>
      <trkpt lat="44.45424" lon="4.88645">
        <ele>282.97</ele>
        <time>2014-09-11T08:31:54Z</time>
      </trkpt>
      <trkpt lat="44.45425" lon="4.88646">
        <ele>283.01</ele>
        <time>2014-09-11T08:31:55Z</time>
      </trkpt>
      <trkpt lat="44.45427" lon="4.88647">
        <ele>283.1</ele>
        <time>2014-09-11T08:31:56Z</time>
      </trkpt>
      <trkpt lat="44.4543" lon="4.88648">
        <ele>282.86</ele>
        <time>2014-09-11T08:31:58Z</time>
      </trkpt>
      <trkpt lat="44.45432" lon="4.88648">
        <ele>282.81</ele>
        <time>2014-09-11T08:31:59Z</time>
      </trkpt>
      <trkpt lat="44.45434" lon="4.88649">
        <ele>282.98</ele>
        <time>2014-09-11T08:32:00Z</time>
      </trkpt>
      <trkpt lat="44.45436" lon="4.88649">
        <ele>283.06</ele>
        <time>2014-09-11T08:32:01Z</time>
      </trkpt>
      <trkpt lat="44.45437" lon="4.8865">
        <ele>283.29</ele>
        <time>2014-09-11T08:32:02Z</time>
      </trkpt>
      <trkpt lat="44.45439" lon="4.8865">
        <ele>283.53</ele>
        <time>2014-09-11T08:32:03Z</time>
      </trkpt>
      <trkpt lat="44.45441" lon="4.88651">
        <ele>283.7</ele>
        <time>2014-09-11T08:32:04Z</time>
      </trkpt>
      <trkpt lat="44.45443" lon="4.88651">
        <ele>283.85</ele>
        <time>2014-09-11T08:32:05Z</time>
      </trkpt>
      <trkpt lat="44.45459" lon="4.88653">
        <ele>285.07</ele>
        <time>2014-09-11T08:32:14Z</time>
      </trkpt>
      <trkpt lat="44.45463" lon="4.88654">
        <ele>284.98</ele>
        <time>2014-09-11T08:32:16Z</time>
      </trkpt>
      <trkpt lat="44.45465" lon="4.88654">
        <ele>284.96</ele>
        <time>2014-09-11T08:32:17Z</time>
      </trkpt>
      <trkpt lat="44.45466" lon="4.88654">
        <ele>285.03</ele>
        <time>2014-09-11T08:32:18Z</time>
      </trkpt>
      <trkpt lat="44.45468" lon="4.88653">
        <ele>285.19</ele>
        <time>2014-09-11T08:32:19Z</time>
      </trkpt>
      <trkpt lat="44.4547" lon="4.88653">
        <ele>285.42</ele>
        <time>2014-09-11T08:32:20Z</time>
      </trkpt>
      <trkpt lat="44.45472" lon="4.88653">
        <ele>285.73</ele>
        <time>2014-09-11T08:32:21Z</time>
      </trkpt>
      <trkpt lat="44.45474" lon="4.88653">
        <ele>285.89</ele>
        <time>2014-09-11T08:32:22Z</time>
      </trkpt>
      <trkpt lat="44.45476" lon="4.88652">
        <ele>286.06</ele>
        <time>2014-09-11T08:32:23Z</time>
      </trkpt>
      <trkpt lat="44.45477" lon="4.88652">
        <ele>286.2</ele>
        <time>2014-09-11T08:32:24Z</time>
      </trkpt>
      <trkpt lat="44.45479" lon="4.88652">
        <ele>286.27</ele>
        <time>2014-09-11T08:32:25Z</time>
      </trkpt>
      <trkpt lat="44.45481" lon="4.88652">
        <ele>286.43</ele>
        <time>2014-09-11T08:32:26Z</time>
      </trkpt>
      <trkpt lat="44.45483" lon="4.88652">
        <ele>286.48</ele>
        <time>2014-09-11T08:32:27Z</time>
      </trkpt>
      <trkpt lat="44.45485" lon="4.88653">
        <ele>286.62</ele>
        <time>2014-09-11T08:32:28Z</time>
      </trkpt>
      <trkpt lat="44.45487" lon="4.88654">
        <ele>286.78</ele>
        <time>2014-09-11T08:32:29Z</time>
      </trkpt>
      <trkpt lat="44.45488" lon="4.88655">
        <ele>286.93</ele>
        <time>2014-09-11T08:32:30Z</time>
      </trkpt>
      <trkpt lat="44.45495" lon="4.88656">
        <ele>286.72</ele>
        <time>2014-09-11T08:32:34Z</time>
      </trkpt>
      <trkpt lat="44.45498" lon="4.88656">
        <ele>286.68</ele>
        <time>2014-09-11T08:32:36Z</time>
      </trkpt>
      <trkpt lat="44.45499" lon="4.88657">
        <ele>286.66</ele>
        <time>2014-09-11T08:32:37Z</time>
      </trkpt>
      <trkpt lat="44.45502" lon="4.88657">
        <ele>286.72</ele>
        <time>2014-09-11T08:32:39Z</time>
      </trkpt>
      <trkpt lat="44.45505" lon="4.88656">
        <ele>286.95</ele>
        <time>2014-09-11T08:32:41Z</time>
      </trkpt>
      <trkpt lat="44.45507" lon="4.88656">
        <ele>287.18</ele>
        <time>2014-09-11T08:32:42Z</time>
      </trkpt>
      <trkpt lat="44.45509" lon="4.88656">
        <ele>287.44</ele>
        <time>2014-09-11T08:32:43Z</time>
      </trkpt>
      <trkpt lat="44.4551" lon="4.88656">
        <ele>287.66</ele>
        <time>2014-09-11T08:32:44Z</time>
      </trkpt>
      <trkpt lat="44.45512" lon="4.88656">
        <ele>287.84</ele>
        <time>2014-09-11T08:32:45Z</time>
      </trkpt>
      <trkpt lat="44.45513" lon="4.88655">
        <ele>287.87</ele>
        <time>2014-09-11T08:32:46Z</time>
      </trkpt>
      <trkpt lat="44.45514" lon="4.88655">
        <ele>287.91</ele>
        <time>2014-09-11T08:32:47Z</time>
      </trkpt>
      <trkpt lat="44.45516" lon="4.88655">
        <ele>287.96</ele>
        <time>2014-09-11T08:32:48Z</time>
      </trkpt>
      <trkpt lat="44.45518" lon="4.88655">
        <ele>287.99</ele>
        <time>2014-09-11T08:32:49Z</time>
      </trkpt>
      <trkpt lat="44.45519" lon="4.88655">
        <ele>287.99</ele>
        <time>2014-09-11T08:32:50Z</time>
      </trkpt>
      <trkpt lat="44.45521" lon="4.88655">
        <ele>287.95</ele>
        <time>2014-09-11T08:32:51Z</time>
      </trkpt>
      <trkpt lat="44.45522" lon="4.88655">
        <ele>287.93</ele>
        <time>2014-09-11T08:32:52Z</time>
      </trkpt>
      <trkpt lat="44.45524" lon="4.88654">
        <ele>287.96</ele>
        <time>2014-09-11T08:32:53Z</time>
      </trkpt>
      <trkpt lat="44.45525" lon="4.88654">
        <ele>288.07</ele>
        <time>2014-09-11T08:32:54Z</time>
      </trkpt>
      <trkpt lat="44.45527" lon="4.88653">
        <ele>288.18</ele>
        <time>2014-09-11T08:32:55Z</time>
      </trkpt>
      <trkpt lat="44.45529" lon="4.88653">
        <ele>288.33</ele>
        <time>2014-09-11T08:32:56Z</time>
      </trkpt>
      <trkpt lat="44.4553" lon="4.88652">
        <ele>288.46</ele>
        <time>2014-09-11T08:32:57Z</time>
      </trkpt>
      <trkpt lat="44.45532" lon="4.88652">
        <ele>288.59</ele>
        <time>2014-09-11T08:32:58Z</time>
      </trkpt>
      <trkpt lat="44.45533" lon="4.88652">
        <ele>288.75</ele>
        <time>2014-09-11T08:32:59Z</time>
      </trkpt>
      <trkpt lat="44.45535" lon="4.88652">
        <ele>288.84</ele>
        <time>2014-09-11T08:33:00Z</time>
      </trkpt>
      <trkpt lat="44.45537" lon="4.88652">
        <ele>289.16</ele>
        <time>2014-09-11T08:33:01Z</time>
      </trkpt>
      <trkpt lat="44.45542" lon="4.88651">
        <ele>289.64</ele>
        <time>2014-09-11T08:33:04Z</time>
      </trkpt>
      <trkpt lat="44.45543" lon="4.88651">
        <ele>289.54</ele>
        <time>2014-09-11T08:33:05Z</time>
      </trkpt>
      <trkpt lat="44.45545" lon="4.88651">
        <ele>289.49</ele>
        <time>2014-09-11T08:33:06Z</time>
      </trkpt>
      <trkpt lat="44.45547" lon="4.88651">
        <ele>289.62</ele>
        <time>2014-09-11T08:33:07Z</time>
      </trkpt>
      <trkpt lat="44.45548" lon="4.88651">
        <ele>289.55</ele>
        <time>2014-09-11T08:33:08Z</time>
      </trkpt>
      <trkpt lat="44.4555" lon="4.88651">
        <ele>289.52</ele>
        <time>2014-09-11T08:33:09Z</time>
      </trkpt>
      <trkpt lat="44.45552" lon="4.88651">
        <ele>289.41</ele>
        <time>2014-09-11T08:33:10Z</time>
      </trkpt>
      <trkpt lat="44.45554" lon="4.8865">
        <ele>289.35</ele>
        <time>2014-09-11T08:33:11Z</time>
      </trkpt>
      <trkpt lat="44.45556" lon="4.88649">
        <ele>289.35</ele>
        <time>2014-09-11T08:33:12Z</time>
      </trkpt>
      <trkpt lat="44.4556" lon="4.88648">
        <ele>289.2</ele>
        <time>2014-09-11T08:33:14Z</time>
      </trkpt>
      <trkpt lat="44.45577" lon="4.88643">
        <ele>289.41</ele>
        <time>2014-09-11T08:33:23Z</time>
      </trkpt>
      <trkpt lat="44.45578" lon="4.88644">
        <ele>289.27</ele>
        <time>2014-09-11T08:33:24Z</time>
      </trkpt>
      <trkpt lat="44.4558" lon="4.88644">
        <ele>289.13</ele>
        <time>2014-09-11T08:33:25Z</time>
      </trkpt>
      <trkpt lat="44.45582" lon="4.88645">
        <ele>289.07</ele>
        <time>2014-09-11T08:33:26Z</time>
      </trkpt>
      <trkpt lat="44.45584" lon="4.88646">
        <ele>289.1</ele>
        <time>2014-09-11T08:33:27Z</time>
      </trkpt>
      <trkpt lat="44.45586" lon="4.88648">
        <ele>289.23</ele>
        <time>2014-09-11T08:33:28Z</time>
      </trkpt>
      <trkpt lat="44.45587" lon="4.88649">
        <ele>289.16</ele>
        <time>2014-09-11T08:33:29Z</time>
      </trkpt>
      <trkpt lat="44.45588" lon="4.88651">
        <ele>289.26</ele>
        <time>2014-09-11T08:33:30Z</time>
      </trkpt>
      <trkpt lat="44.45589" lon="4.88654">
        <ele>289.3</ele>
        <time>2014-09-11T08:33:31Z</time>
      </trkpt>
      <trkpt lat="44.4559" lon="4.88657">
        <ele>289.39</ele>
        <time>2014-09-11T08:33:32Z</time>
      </trkpt>
      <trkpt lat="44.45591" lon="4.88659">
        <ele>289.49</ele>
        <time>2014-09-11T08:33:33Z</time>
      </trkpt>
      <trkpt lat="44.45592" lon="4.88662">
        <ele>289.47</ele>
        <time>2014-09-11T08:33:34Z</time>
      </trkpt>
      <trkpt lat="44.45593" lon="4.88665">
        <ele>289.48</ele>
        <time>2014-09-11T08:33:35Z</time>
      </trkpt>
      <trkpt lat="44.45593" lon="4.88668">
        <ele>289.7</ele>
        <time>2014-09-11T08:33:36Z</time>
      </trkpt>
      <trkpt lat="44.45594" lon="4.88688">
        <ele>289.88</ele>
        <time>2014-09-11T08:33:42Z</time>
      </trkpt>
      <trkpt lat="44.45594" lon="4.88692">
        <ele>289.84</ele>
        <time>2014-09-11T08:33:43Z</time>
      </trkpt>
      <trkpt lat="44.45593" lon="4.88695">
        <ele>289.99</ele>
        <time>2014-09-11T08:33:44Z</time>
      </trkpt>
      <trkpt lat="44.45593" lon="4.88698">
        <ele>289.99</ele>
        <time>2014-09-11T08:33:45Z</time>
      </trkpt>
      <trkpt lat="44.45592" lon="4.88701">
        <ele>290.07</ele>
        <time>2014-09-11T08:33:46Z</time>
      </trkpt>
      <trkpt lat="44.45591" lon="4.88707">
        <ele>290.21</ele>
        <time>2014-09-11T08:33:48Z</time>
      </trkpt>
      <trkpt lat="44.45588" lon="4.88743">
        <ele>289.3</ele>
        <time>2014-09-11T08:33:58Z</time>
      </trkpt>
      <trkpt lat="44.45589" lon="4.88748">
        <ele>288.57</ele>
        <time>2014-09-11T08:34:10Z</time>
      </trkpt>
      <trkpt lat="44.45591" lon="4.8875">
        <ele>288.34</ele>
        <time>2014-09-11T08:35:01Z</time>
      </trkpt>
      <trkpt lat="44.45591" lon="4.8875">
        <ele>288.11</ele>
        <time>2014-09-11T08:35:50Z</time>
      </trkpt>
      <trkpt lat="44.45592" lon="4.88751">
        <ele>288.07</ele>
        <time>2014-09-11T08:36:39Z</time>
      </trkpt>
      <trkpt lat="44.45594" lon="4.88753">
        <ele>287.96</ele>
        <time>2014-09-11T08:36:54Z</time>
      </trkpt>
      <trkpt lat="44.45596" lon="4.88753">
        <ele>287.99</ele>
        <time>2014-09-11T08:36:56Z</time>
      </trkpt>
      <trkpt lat="44.45611" lon="4.88728">
        <ele>288.85</ele>
        <time>2014-09-11T08:37:09Z</time>
      </trkpt>
      <trkpt lat="44.45612" lon="4.88726">
        <ele>289.07</ele>
        <time>2014-09-11T08:37:10Z</time>
      </trkpt>
      <trkpt lat="44.45613" lon="4.88724">
        <ele>289.17</ele>
        <time>2014-09-11T08:37:11Z</time>
      </trkpt>
      <trkpt lat="44.45614" lon="4.88722">
        <ele>289.14</ele>
        <time>2014-09-11T08:37:12Z</time>
      </trkpt>
      <trkpt lat="44.45616" lon="4.8872">
        <ele>289.13</ele>
        <time>2014-09-11T08:37:13Z</time>
      </trkpt>
      <trkpt lat="44.45618" lon="4.88716">
        <ele>289.08</ele>
        <time>2014-09-11T08:37:15Z</time>
      </trkpt>
      <trkpt lat="44.45619" lon="4.88714">
        <ele>289.09</ele>
        <time>2014-09-11T08:37:16Z</time>
      </trkpt>
      <trkpt lat="44.45641" lon="4.88684">
        <ele>291.58</ele>
        <time>2014-09-11T08:37:31Z</time>
      </trkpt>
      <trkpt lat="44.45673" lon="4.88654">
        <ele>293.74</ele>
        <time>2014-09-11T08:37:48Z</time>
      </trkpt>
      <trkpt lat="44.45704" lon="4.88634">
        <ele>296.32</ele>
        <time>2014-09-11T08:38:04Z</time>
      </trkpt>
      <trkpt lat="44.45706" lon="4.88632">
        <ele>296.46</ele>
        <time>2014-09-11T08:38:06Z</time>
      </trkpt>
      <trkpt lat="44.45708" lon="4.88631">
        <ele>296.42</ele>
        <time>2014-09-11T08:38:07Z</time>
      </trkpt>
      <trkpt lat="44.45732" lon="4.88615">
        <ele>298.24</ele>
        <time>2014-09-11T08:38:23Z</time>
      </trkpt>
      <trkpt lat="44.45736" lon="4.88614">
        <ele>298.47</ele>
        <time>2014-09-11T08:38:25Z</time>
      </trkpt>
      <trkpt lat="44.45738" lon="4.88613">
        <ele>298.51</ele>
        <time>2014-09-11T08:38:26Z</time>
      </trkpt>
      <trkpt lat="44.45739" lon="4.88612">
        <ele>298.72</ele>
        <time>2014-09-11T08:38:27Z</time>
      </trkpt>
      <trkpt lat="44.45741" lon="4.88611">
        <ele>299.08</ele>
        <time>2014-09-11T08:38:28Z</time>
      </trkpt>
      <trkpt lat="44.45743" lon="4.8861">
        <ele>299.31</ele>
        <time>2014-09-11T08:38:29Z</time>
      </trkpt>
      <trkpt lat="44.45767" lon="4.88602">
        <ele>300.53</ele>
        <time>2014-09-11T08:38:43Z</time>
      </trkpt>
      <trkpt lat="44.45796" lon="4.88598">
        <ele>302.37</ele>
        <time>2014-09-11T08:38:58Z</time>
      </trkpt>
      <trkpt lat="44.45805" lon="4.88598">
        <ele>302.76</ele>
        <time>2014-09-11T08:39:03Z</time>
      </trkpt>
      <trkpt lat="44.45807" lon="4.88599">
        <ele>302.82</ele>
        <time>2014-09-11T08:39:04Z</time>
      </trkpt>
      <trkpt lat="44.45809" lon="4.88599">
        <ele>302.95</ele>
        <time>2014-09-11T08:39:05Z</time>
      </trkpt>
      <trkpt lat="44.4581" lon="4.88599">
        <ele>303.14</ele>
        <time>2014-09-11T08:39:06Z</time>
      </trkpt>
      <trkpt lat="44.45815" lon="4.88599">
        <ele>303.43</ele>
        <time>2014-09-11T08:39:08Z</time>
      </trkpt>
      <trkpt lat="44.45817" lon="4.88599">
        <ele>303.6</ele>
        <time>2014-09-11T08:39:09Z</time>
      </trkpt>
      <trkpt lat="44.45819" lon="4.88599">
        <ele>303.68</ele>
        <time>2014-09-11T08:39:10Z</time>
      </trkpt>
      <trkpt lat="44.45821" lon="4.886">
        <ele>303.72</ele>
        <time>2014-09-11T08:39:11Z</time>
      </trkpt>
      <trkpt lat="44.45824" lon="4.886">
        <ele>303.74</ele>
        <time>2014-09-11T08:39:12Z</time>
      </trkpt>
      <trkpt lat="44.45847" lon="4.886">
        <ele>305.08</ele>
        <time>2014-09-11T08:39:24Z</time>
      </trkpt>
      <trkpt lat="44.45851" lon="4.886">
        <ele>305.21</ele>
        <time>2014-09-11T08:39:26Z</time>
      </trkpt>
      <trkpt lat="44.45852" lon="4.886">
        <ele>305.28</ele>
        <time>2014-09-11T08:39:27Z</time>
      </trkpt>
      <trkpt lat="44.45879" lon="4.88603">
        <ele>306.89</ele>
        <time>2014-09-11T08:39:41Z</time>
      </trkpt>
      <trkpt lat="44.45883" lon="4.88604">
        <ele>306.97</ele>
        <time>2014-09-11T08:39:43Z</time>
      </trkpt>
      <trkpt lat="44.45885" lon="4.88605">
        <ele>307.07</ele>
        <time>2014-09-11T08:39:44Z</time>
      </trkpt>
      <trkpt lat="44.45887" lon="4.88605">
        <ele>307.12</ele>
        <time>2014-09-11T08:39:45Z</time>
      </trkpt>
      <trkpt lat="44.45896" lon="4.88608">
        <ele>307.17</ele>
        <time>2014-09-11T08:39:50Z</time>
      </trkpt>
      <trkpt lat="44.45898" lon="4.88608">
        <ele>307.05</ele>
        <time>2014-09-11T08:39:51Z</time>
      </trkpt>
      <trkpt lat="44.45899" lon="4.88609">
        <ele>306.95</ele>
        <time>2014-09-11T08:39:52Z</time>
      </trkpt>
      <trkpt lat="44.45901" lon="4.8861">
        <ele>306.91</ele>
        <time>2014-09-11T08:39:53Z</time>
      </trkpt>
      <trkpt lat="44.45903" lon="4.8861">
        <ele>306.89</ele>
        <time>2014-09-11T08:39:54Z</time>
      </trkpt>
      <trkpt lat="44.45905" lon="4.8861">
        <ele>307</ele>
        <time>2014-09-11T08:39:55Z</time>
      </trkpt>
      <trkpt lat="44.45907" lon="4.88611">
        <ele>307.06</ele>
        <time>2014-09-11T08:39:56Z</time>
      </trkpt>
      <trkpt lat="44.45909" lon="4.88611">
        <ele>307.22</ele>
        <time>2014-09-11T08:39:57Z</time>
      </trkpt>
      <trkpt lat="44.45911" lon="4.88612">
        <ele>307.42</ele>
        <time>2014-09-11T08:39:58Z</time>
      </trkpt>
      <trkpt lat="44.45935" lon="4.88596">
        <ele>308.78</ele>
        <time>2014-09-11T08:40:13Z</time>
      </trkpt>
      <trkpt lat="44.45937" lon="4.88584">
        <ele>309.11</ele>
        <time>2014-09-11T08:40:18Z</time>
      </trkpt>
      <trkpt lat="44.45938" lon="4.88581">
        <ele>309.08</ele>
        <time>2014-09-11T08:40:36Z</time>
      </trkpt>
      <trkpt lat="44.45937" lon="4.88578">
        <ele>309.67</ele>
        <time>2014-09-11T08:41:32Z</time>
      </trkpt>
      <trkpt lat="44.45932" lon="4.88561">
        <ele>309.78</ele>
        <time>2014-09-11T08:41:43Z</time>
      </trkpt>
      <trkpt lat="44.4593" lon="4.88554">
        <ele>309.97</ele>
        <time>2014-09-11T08:41:46Z</time>
      </trkpt>
      <trkpt lat="44.45928" lon="4.88552">
        <ele>310.13</ele>
        <time>2014-09-11T08:41:48Z</time>
      </trkpt>
      <trkpt lat="44.45927" lon="4.88553">
        <ele>310.17</ele>
        <time>2014-09-11T08:41:49Z</time>
      </trkpt>
      <trkpt lat="44.45927" lon="4.88555">
        <ele>310.18</ele>
        <time>2014-09-11T08:41:50Z</time>
      </trkpt>
      <trkpt lat="44.45927" lon="4.88557">
        <ele>310.19</ele>
        <time>2014-09-11T08:41:51Z</time>
      </trkpt>
      <trkpt lat="44.45927" lon="4.88559">
        <ele>310.19</ele>
        <time>2014-09-11T08:41:52Z</time>
      </trkpt>
      <trkpt lat="44.45924" lon="4.88561">
        <ele>309.87</ele>
        <time>2014-09-11T08:42:03Z</time>
      </trkpt>
      <trkpt lat="44.45923" lon="4.88561">
        <ele>309.77</ele>
        <time>2014-09-11T08:42:04Z</time>
      </trkpt>
      <trkpt lat="44.45921" lon="4.88559">
        <ele>309.7</ele>
        <time>2014-09-11T08:42:05Z</time>
      </trkpt>
      <trkpt lat="44.45919" lon="4.88557">
        <ele>309.56</ele>
        <time>2014-09-11T08:42:06Z</time>
      </trkpt>
      <trkpt lat="44.45917" lon="4.88554">
        <ele>309.6</ele>
        <time>2014-09-11T08:42:07Z</time>
      </trkpt>
      <trkpt lat="44.45915" lon="4.88551">
        <ele>309.54</ele>
        <time>2014-09-11T08:42:08Z</time>
      </trkpt>
      <trkpt lat="44.45913" lon="4.88546">
        <ele>309.45</ele>
        <time>2014-09-11T08:42:09Z</time>
      </trkpt>
      <trkpt lat="44.4591" lon="4.88542">
        <ele>309.31</ele>
        <time>2014-09-11T08:42:10Z</time>
      </trkpt>
      <trkpt lat="44.45908" lon="4.88538">
        <ele>309.14</ele>
        <time>2014-09-11T08:42:11Z</time>
      </trkpt>
      <trkpt lat="44.45905" lon="4.88534">
        <ele>308.92</ele>
        <time>2014-09-11T08:42:12Z</time>
      </trkpt>
      <trkpt lat="44.45902" lon="4.88531">
        <ele>308.82</ele>
        <time>2014-09-11T08:42:13Z</time>
      </trkpt>
      <trkpt lat="44.45899" lon="4.88527">
        <ele>308.77</ele>
        <time>2014-09-11T08:42:14Z</time>
      </trkpt>
      <trkpt lat="44.45897" lon="4.88525">
        <ele>308.74</ele>
        <time>2014-09-11T08:42:15Z</time>
      </trkpt>
      <trkpt lat="44.45894" lon="4.88522">
        <ele>308.77</ele>
        <time>2014-09-11T08:42:16Z</time>
      </trkpt>
      <trkpt lat="44.45892" lon="4.88519">
        <ele>308.84</ele>
        <time>2014-09-11T08:42:17Z</time>
      </trkpt>
      <trkpt lat="44.45883" lon="4.88506">
        <ele>309.45</ele>
        <time>2014-09-11T08:42:21Z</time>
      </trkpt>
      <trkpt lat="44.45872" lon="4.88487">
        <ele>310.93</ele>
        <time>2014-09-11T08:42:26Z</time>
      </trkpt>
      <trkpt lat="44.45862" lon="4.88474">
        <ele>310.79</ele>
        <time>2014-09-11T08:42:30Z</time>
      </trkpt>
      <trkpt lat="44.45842" lon="4.88455">
        <ele>310.28</ele>
        <time>2014-09-11T08:42:35Z</time>
      </trkpt>
      <trkpt lat="44.458" lon="4.88397">
        <ele>306.64</ele>
        <time>2014-09-11T08:42:47Z</time>
      </trkpt>
      <trkpt lat="44.4579" lon="4.88382">
        <ele>305.58</ele>
        <time>2014-09-11T08:42:52Z</time>
      </trkpt>
      <trkpt lat="44.45759" lon="4.88339">
        <ele>303.26</ele>
        <time>2014-09-11T08:43:03Z</time>
      </trkpt>
      <trkpt lat="44.45752" lon="4.88329">
        <ele>302.96</ele>
        <time>2014-09-11T08:43:05Z</time>
      </trkpt>
      <trkpt lat="44.45726" lon="4.88288">
        <ele>302.2</ele>
        <time>2014-09-11T08:43:12Z</time>
      </trkpt>
      <trkpt lat="44.45702" lon="4.88256">
        <ele>300.51</ele>
        <time>2014-09-11T08:43:18Z</time>
      </trkpt>
      <trkpt lat="44.45681" lon="4.88221">
        <ele>298.88</ele>
        <time>2014-09-11T08:43:23Z</time>
      </trkpt>
      <trkpt lat="44.45678" lon="4.88214">
        <ele>298.68</ele>
        <time>2014-09-11T08:43:24Z</time>
      </trkpt>
      <trkpt lat="44.45663" lon="4.88173">
        <ele>297.16</ele>
        <time>2014-09-11T08:43:30Z</time>
      </trkpt>
      <trkpt lat="44.45649" lon="4.88145">
        <ele>296.24</ele>
        <time>2014-09-11T08:43:35Z</time>
      </trkpt>
      <trkpt lat="44.45645" lon="4.88132">
        <ele>296.31</ele>
        <time>2014-09-11T08:43:37Z</time>
      </trkpt>
      <trkpt lat="44.45641" lon="4.88119">
        <ele>296.59</ele>
        <time>2014-09-11T08:43:39Z</time>
      </trkpt>
      <trkpt lat="44.45628" lon="4.88075">
        <ele>296.36</ele>
        <time>2014-09-11T08:43:46Z</time>
      </trkpt>
      <trkpt lat="44.45616" lon="4.88055">
        <ele>296.08</ele>
        <time>2014-09-11T08:43:50Z</time>
      </trkpt>
      <trkpt lat="44.456" lon="4.88024">
        <ele>292.31</ele>
        <time>2014-09-11T08:43:57Z</time>
      </trkpt>
      <trkpt lat="44.45599" lon="4.8802">
        <ele>292.2</ele>
        <time>2014-09-11T08:43:58Z</time>
      </trkpt>
      <trkpt lat="44.45601" lon="4.88014">
        <ele>292.1</ele>
        <time>2014-09-11T08:44:00Z</time>
      </trkpt>
      <trkpt lat="44.45603" lon="4.88012">
        <ele>292.2</ele>
        <time>2014-09-11T08:44:01Z</time>
      </trkpt>
      <trkpt lat="44.45606" lon="4.8801">
        <ele>292.32</ele>
        <time>2014-09-11T08:44:02Z</time>
      </trkpt>
      <trkpt lat="44.45608" lon="4.88008">
        <ele>292.54</ele>
        <time>2014-09-11T08:44:03Z</time>
      </trkpt>
      <trkpt lat="44.45611" lon="4.88007">
        <ele>292.78</ele>
        <time>2014-09-11T08:44:04Z</time>
      </trkpt>
      <trkpt lat="44.45613" lon="4.88006">
        <ele>293.03</ele>
        <time>2014-09-11T08:44:05Z</time>
      </trkpt>
      <trkpt lat="44.45644" lon="4.87988">
        <ele>295.6</ele>
        <time>2014-09-11T08:44:20Z</time>
      </trkpt>
      <trkpt lat="44.45651" lon="4.87982">
        <ele>295.36</ele>
        <time>2014-09-11T08:44:23Z</time>
      </trkpt>
      <trkpt lat="44.45655" lon="4.87977">
        <ele>295.23</ele>
        <time>2014-09-11T08:44:25Z</time>
      </trkpt>
      <trkpt lat="44.45674" lon="4.87954">
        <ele>296.43</ele>
        <time>2014-09-11T08:44:35Z</time>
      </trkpt>
      <trkpt lat="44.45675" lon="4.87952">
        <ele>296.67</ele>
        <time>2014-09-11T08:44:36Z</time>
      </trkpt>
      <trkpt lat="44.45684" lon="4.87918">
        <ele>299.44</ele>
        <time>2014-09-11T08:44:50Z</time>
      </trkpt>
      <trkpt lat="44.45687" lon="4.87916">
        <ele>299.7</ele>
        <time>2014-09-11T08:44:52Z</time>
      </trkpt>
      <trkpt lat="44.45696" lon="4.87916">
        <ele>300.85</ele>
        <time>2014-09-11T08:44:57Z</time>
      </trkpt>
      <trkpt lat="44.45715" lon="4.87914">
        <ele>302.17</ele>
        <time>2014-09-11T08:45:09Z</time>
      </trkpt>
      <trkpt lat="44.45721" lon="4.87912">
        <ele>303.62</ele>
        <time>2014-09-11T08:45:14Z</time>
      </trkpt>
      <trkpt lat="44.45741" lon="4.87903">
        <ele>306.2</ele>
        <time>2014-09-11T08:45:30Z</time>
      </trkpt>
      <trkpt lat="44.45745" lon="4.87902">
        <ele>306.6</ele>
        <time>2014-09-11T08:45:32Z</time>
      </trkpt>
      <trkpt lat="44.45763" lon="4.87896">
        <ele>307.31</ele>
        <time>2014-09-11T08:45:41Z</time>
      </trkpt>
      <trkpt lat="44.45774" lon="4.87897">
        <ele>308.64</ele>
        <time>2014-09-11T08:45:47Z</time>
      </trkpt>
      <trkpt lat="44.45778" lon="4.87898">
        <ele>308.87</ele>
        <time>2014-09-11T08:45:49Z</time>
      </trkpt>
      <trkpt lat="44.45805" lon="4.87905">
        <ele>311.44</ele>
        <time>2014-09-11T08:46:03Z</time>
      </trkpt>
      <trkpt lat="44.45826" lon="4.8791">
        <ele>314.65</ele>
        <time>2014-09-11T08:46:12Z</time>
      </trkpt>
      <trkpt lat="44.4585" lon="4.87922">
        <ele>316.87</ele>
        <time>2014-09-11T08:46:26Z</time>
      </trkpt>
      <trkpt lat="44.45858" lon="4.87928">
        <ele>318.47</ele>
        <time>2014-09-11T08:46:32Z</time>
      </trkpt>
      <trkpt lat="44.45878" lon="4.87943">
        <ele>320.31</ele>
        <time>2014-09-11T08:46:43Z</time>
      </trkpt>
      <trkpt lat="44.45908" lon="4.87962">
        <ele>323.71</ele>
        <time>2014-09-11T08:47:01Z</time>
      </trkpt>
      <trkpt lat="44.45933" lon="4.87985">
        <ele>325.92</ele>
        <time>2014-09-11T08:47:16Z</time>
      </trkpt>
      <trkpt lat="44.4596" lon="4.88002">
        <ele>327.51</ele>
        <time>2014-09-11T08:47:30Z</time>
      </trkpt>
      <trkpt lat="44.45964" lon="4.88009">
        <ele>327.34</ele>
        <time>2014-09-11T08:47:33Z</time>
      </trkpt>
      <trkpt lat="44.4597" lon="4.88013">
        <ele>327.28</ele>
        <time>2014-09-11T08:47:36Z</time>
      </trkpt>
      <trkpt lat="44.45978" lon="4.88016">
        <ele>328.05</ele>
        <time>2014-09-11T08:47:40Z</time>
      </trkpt>
      <trkpt lat="44.45991" lon="4.88016">
        <ele>329.1</ele>
        <time>2014-09-11T08:47:46Z</time>
      </trkpt>
      <trkpt lat="44.46018" lon="4.88012">
        <ele>331.6</ele>
        <time>2014-09-11T08:47:58Z</time>
      </trkpt>
      <trkpt lat="44.46036" lon="4.88018">
        <ele>331.51</ele>
        <time>2014-09-11T08:48:09Z</time>
      </trkpt>
      <trkpt lat="44.4604" lon="4.88018">
        <ele>331.67</ele>
        <time>2014-09-11T08:48:11Z</time>
      </trkpt>
      <trkpt lat="44.46046" lon="4.88019">
        <ele>331.19</ele>
        <time>2014-09-11T08:48:29Z</time>
      </trkpt>
      <trkpt lat="44.46047" lon="4.88018">
        <ele>331.24</ele>
        <time>2014-09-11T08:49:00Z</time>
      </trkpt>
      <trkpt lat="44.46048" lon="4.88018">
        <ele>331.27</ele>
        <time>2014-09-11T08:49:22Z</time>
      </trkpt>
      <trkpt lat="44.4605" lon="4.88018">
        <ele>331.26</ele>
        <time>2014-09-11T08:49:49Z</time>
      </trkpt>
      <trkpt lat="44.46049" lon="4.88016">
        <ele>331.85</ele>
        <time>2014-09-11T08:50:32Z</time>
      </trkpt>
      <trkpt lat="44.46049" lon="4.88017">
        <ele>331.29</ele>
        <time>2014-09-11T08:51:00Z</time>
      </trkpt>
      <trkpt lat="44.46049" lon="4.88018">
        <ele>330.94</ele>
        <time>2014-09-11T08:51:29Z</time>
      </trkpt>
      <trkpt lat="44.46056" lon="4.88017">
        <ele>331.28</ele>
        <time>2014-09-11T08:51:46Z</time>
      </trkpt>
      <trkpt lat="44.46068" lon="4.88021">
        <ele>331.09</ele>
        <time>2014-09-11T08:51:51Z</time>
      </trkpt>
      <trkpt lat="44.46072" lon="4.88024">
        <ele>331.32</ele>
        <time>2014-09-11T08:51:53Z</time>
      </trkpt>
      <trkpt lat="44.46079" lon="4.8803">
        <ele>331.98</ele>
        <time>2014-09-11T08:51:56Z</time>
      </trkpt>
      <trkpt lat="44.46092" lon="4.88027">
        <ele>332.66</ele>
        <time>2014-09-11T08:52:02Z</time>
      </trkpt>
      <trkpt lat="44.46098" lon="4.88017">
        <ele>333.41</ele>
        <time>2014-09-11T08:52:06Z</time>
      </trkpt>
      <trkpt lat="44.46118" lon="4.87991">
        <ele>334.76</ele>
        <time>2014-09-11T08:52:16Z</time>
      </trkpt>
      <trkpt lat="44.46144" lon="4.87972">
        <ele>335.44</ele>
        <time>2014-09-11T08:52:28Z</time>
      </trkpt>
      <trkpt lat="44.46159" lon="4.87964">
        <ele>337.26</ele>
        <time>2014-09-11T08:52:35Z</time>
      </trkpt>
      <trkpt lat="44.46187" lon="4.87958">
        <ele>341.2</ele>
        <time>2014-09-11T08:52:49Z</time>
      </trkpt>
      <trkpt lat="44.46203" lon="4.87958">
        <ele>341.91</ele>
        <time>2014-09-11T08:52:57Z</time>
      </trkpt>
      <trkpt lat="44.46207" lon="4.87958">
        <ele>342.03</ele>
        <time>2014-09-11T08:52:59Z</time>
      </trkpt>
      <trkpt lat="44.46219" lon="4.8796">
        <ele>343.34</ele>
        <time>2014-09-11T08:53:05Z</time>
      </trkpt>
      <trkpt lat="44.4623" lon="4.87964">
        <ele>343.33</ele>
        <time>2014-09-11T08:53:11Z</time>
      </trkpt>
      <trkpt lat="44.46257" lon="4.87978">
        <ele>343.7</ele>
        <time>2014-09-11T08:53:24Z</time>
      </trkpt>
      <trkpt lat="44.4627" lon="4.87981">
        <ele>344.16</ele>
        <time>2014-09-11T08:53:30Z</time>
      </trkpt>
      <trkpt lat="44.46283" lon="4.87985">
        <ele>344.48</ele>
        <time>2014-09-11T08:53:36Z</time>
      </trkpt>
      <trkpt lat="44.46289" lon="4.87986">
        <ele>345.19</ele>
        <time>2014-09-11T08:53:39Z</time>
      </trkpt>
      <trkpt lat="44.46291" lon="4.87987">
        <ele>345.39</ele>
        <time>2014-09-11T08:53:40Z</time>
      </trkpt>
      <trkpt lat="44.46293" lon="4.87987">
        <ele>345.77</ele>
        <time>2014-09-11T08:53:41Z</time>
      </trkpt>
      <trkpt lat="44.46295" lon="4.87987">
        <ele>346.12</ele>
        <time>2014-09-11T08:53:42Z</time>
      </trkpt>
      <trkpt lat="44.46299" lon="4.87988">
        <ele>346.42</ele>
        <time>2014-09-11T08:53:44Z</time>
      </trkpt>
      <trkpt lat="44.46303" lon="4.87988">
        <ele>346.64</ele>
        <time>2014-09-11T08:53:46Z</time>
      </trkpt>
      <trkpt lat="44.46305" lon="4.87988">
        <ele>346.68</ele>
        <time>2014-09-11T08:53:47Z</time>
      </trkpt>
      <trkpt lat="44.46307" lon="4.87987">
        <ele>346.81</ele>
        <time>2014-09-11T08:53:48Z</time>
      </trkpt>
      <trkpt lat="44.46309" lon="4.87987">
        <ele>346.89</ele>
        <time>2014-09-11T08:53:49Z</time>
      </trkpt>
      <trkpt lat="44.46312" lon="4.87988">
        <ele>347.26</ele>
        <time>2014-09-11T08:53:51Z</time>
      </trkpt>
      <trkpt lat="44.46313" lon="4.8799">
        <ele>347.38</ele>
        <time>2014-09-11T08:53:52Z</time>
      </trkpt>
      <trkpt lat="44.46314" lon="4.87992">
        <ele>347.44</ele>
        <time>2014-09-11T08:53:53Z</time>
      </trkpt>
      <trkpt lat="44.46327" lon="4.87996">
        <ele>348.72</ele>
        <time>2014-09-11T08:54:04Z</time>
      </trkpt>
      <trkpt lat="44.46327" lon="4.87995">
        <ele>349.12</ele>
        <time>2014-09-11T08:54:23Z</time>
      </trkpt>
      <trkpt lat="44.46328" lon="4.87992">
        <ele>349.33</ele>
        <time>2014-09-11T08:54:47Z</time>
      </trkpt>
      <trkpt lat="44.46321" lon="4.87994">
        <ele>349.29</ele>
        <time>2014-09-11T08:54:51Z</time>
      </trkpt>
      <trkpt lat="44.46319" lon="4.87995">
        <ele>349.21</ele>
        <time>2014-09-11T08:54:52Z</time>
      </trkpt>
      <trkpt lat="44.46317" lon="4.87994">
        <ele>349.18</ele>
        <time>2014-09-11T08:54:53Z</time>
      </trkpt>
      <trkpt lat="44.46315" lon="4.87992">
        <ele>349.09</ele>
        <time>2014-09-11T08:54:54Z</time>
      </trkpt>
      <trkpt lat="44.46313" lon="4.8799">
        <ele>348.99</ele>
        <time>2014-09-11T08:54:55Z</time>
      </trkpt>
      <trkpt lat="44.4631" lon="4.87989">
        <ele>348.91</ele>
        <time>2014-09-11T08:54:56Z</time>
      </trkpt>
      <trkpt lat="44.46303" lon="4.87989">
        <ele>348.24</ele>
        <time>2014-09-11T08:54:58Z</time>
      </trkpt>
      <trkpt lat="44.463" lon="4.87989">
        <ele>347.55</ele>
        <time>2014-09-11T08:54:59Z</time>
      </trkpt>
      <trkpt lat="44.46294" lon="4.87988">
        <ele>347.35</ele>
        <time>2014-09-11T08:55:01Z</time>
      </trkpt>
      <trkpt lat="44.4629" lon="4.87987">
        <ele>347.1</ele>
        <time>2014-09-11T08:55:02Z</time>
      </trkpt>
      <trkpt lat="44.46287" lon="4.87986">
        <ele>346.86</ele>
        <time>2014-09-11T08:55:03Z</time>
      </trkpt>
      <trkpt lat="44.46283" lon="4.87985">
        <ele>346.65</ele>
        <time>2014-09-11T08:55:04Z</time>
      </trkpt>
      <trkpt lat="44.46279" lon="4.87984">
        <ele>346.32</ele>
        <time>2014-09-11T08:55:05Z</time>
      </trkpt>
      <trkpt lat="44.46275" lon="4.87983">
        <ele>346.13</ele>
        <time>2014-09-11T08:55:06Z</time>
      </trkpt>
      <trkpt lat="44.46271" lon="4.87982">
        <ele>345.87</ele>
        <time>2014-09-11T08:55:07Z</time>
      </trkpt>
      <trkpt lat="44.46268" lon="4.87982">
        <ele>345.74</ele>
        <time>2014-09-11T08:55:08Z</time>
      </trkpt>
      <trkpt lat="44.46266" lon="4.87982">
        <ele>345.74</ele>
        <time>2014-09-11T08:55:09Z</time>
      </trkpt>
      <trkpt lat="44.46262" lon="4.87982">
        <ele>345.59</ele>
        <time>2014-09-11T08:55:11Z</time>
      </trkpt>
      <trkpt lat="44.46259" lon="4.8798">
        <ele>344.02</ele>
        <time>2014-09-11T08:55:22Z</time>
      </trkpt>
      <trkpt lat="44.46259" lon="4.87979">
        <ele>344.74</ele>
        <time>2014-09-11T08:55:49Z</time>
      </trkpt>
      <trkpt lat="44.46261" lon="4.87979">
        <ele>344.58</ele>
        <time>2014-09-11T08:56:00Z</time>
      </trkpt>
      <trkpt lat="44.46262" lon="4.8798">
        <ele>344.65</ele>
        <time>2014-09-11T08:56:01Z</time>
      </trkpt>
      <trkpt lat="44.46264" lon="4.87981">
        <ele>344.69</ele>
        <time>2014-09-11T08:56:02Z</time>
      </trkpt>
      <trkpt lat="44.46265" lon="4.87981">
        <ele>344.64</ele>
        <time>2014-09-11T08:56:03Z</time>
      </trkpt>
      <trkpt lat="44.46267" lon="4.87981">
        <ele>344.61</ele>
        <time>2014-09-11T08:56:04Z</time>
      </trkpt>
      <trkpt lat="44.4627" lon="4.87981">
        <ele>344.89</ele>
        <time>2014-09-11T08:56:06Z</time>
      </trkpt>
      <trkpt lat="44.46272" lon="4.87982">
        <ele>345.07</ele>
        <time>2014-09-11T08:56:07Z</time>
      </trkpt>
      <trkpt lat="44.46274" lon="4.87982">
        <ele>345.23</ele>
        <time>2014-09-11T08:56:08Z</time>
      </trkpt>
      <trkpt lat="44.46278" lon="4.87983">
        <ele>345.5</ele>
        <time>2014-09-11T08:56:10Z</time>
      </trkpt>
      <trkpt lat="44.4628" lon="4.87983">
        <ele>345.57</ele>
        <time>2014-09-11T08:56:11Z</time>
      </trkpt>
      <trkpt lat="44.46291" lon="4.87986">
        <ele>346</ele>
        <time>2014-09-11T08:56:17Z</time>
      </trkpt>
      <trkpt lat="44.46293" lon="4.87987">
        <ele>346.05</ele>
        <time>2014-09-11T08:56:18Z</time>
      </trkpt>
      <trkpt lat="44.46294" lon="4.87987">
        <ele>346.14</ele>
        <time>2014-09-11T08:56:19Z</time>
      </trkpt>
      <trkpt lat="44.46304" lon="4.87986">
        <ele>346.66</ele>
        <time>2014-09-11T08:56:25Z</time>
      </trkpt>
      <trkpt lat="44.46305" lon="4.87985">
        <ele>346.71</ele>
        <time>2014-09-11T08:56:26Z</time>
      </trkpt>
      <trkpt lat="44.46307" lon="4.87985">
        <ele>346.84</ele>
        <time>2014-09-11T08:56:27Z</time>
      </trkpt>
      <trkpt lat="44.46308" lon="4.87985">
        <ele>347.04</ele>
        <time>2014-09-11T08:56:28Z</time>
      </trkpt>
      <trkpt lat="44.4631" lon="4.87985">
        <ele>347.3</ele>
        <time>2014-09-11T08:56:29Z</time>
      </trkpt>
      <trkpt lat="44.46311" lon="4.87986">
        <ele>347.66</ele>
        <time>2014-09-11T08:56:30Z</time>
      </trkpt>
      <trkpt lat="44.46313" lon="4.87986">
        <ele>347.93</ele>
        <time>2014-09-11T08:56:31Z</time>
      </trkpt>
      <trkpt lat="44.46314" lon="4.87987">
        <ele>348.06</ele>
        <time>2014-09-11T08:56:32Z</time>
      </trkpt>
      <trkpt lat="44.46315" lon="4.87991">
        <ele>348.24</ele>
        <time>2014-09-11T08:56:48Z</time>
      </trkpt>
      <trkpt lat="44.46316" lon="4.87996">
        <ele>347.7</ele>
        <time>2014-09-11T08:57:04Z</time>
      </trkpt>
      <trkpt lat="44.46322" lon="4.87997">
        <ele>347.92</ele>
        <time>2014-09-11T08:57:07Z</time>
      </trkpt>
      <trkpt lat="44.46327" lon="4.87995">
        <ele>348.44</ele>
        <time>2014-09-11T08:57:09Z</time>
      </trkpt>
      <trkpt lat="44.46329" lon="4.87994">
        <ele>348.58</ele>
        <time>2014-09-11T08:57:10Z</time>
      </trkpt>
      <trkpt lat="44.46332" lon="4.87992">
        <ele>348.65</ele>
        <time>2014-09-11T08:57:11Z</time>
      </trkpt>
      <trkpt lat="44.46367" lon="4.87971">
        <ele>351.37</ele>
        <time>2014-09-11T08:57:23Z</time>
      </trkpt>
      <trkpt lat="44.46398" lon="4.87951">
        <ele>353.34</ele>
        <time>2014-09-11T08:57:37Z</time>
      </trkpt>
      <trkpt lat="44.46414" lon="4.8794">
        <ele>353.68</ele>
        <time>2014-09-11T08:57:46Z</time>
      </trkpt>
      <trkpt lat="44.46416" lon="4.87938">
        <ele>353.88</ele>
        <time>2014-09-11T08:57:47Z</time>
      </trkpt>
      <trkpt lat="44.46417" lon="4.87936">
        <ele>354.07</ele>
        <time>2014-09-11T08:57:48Z</time>
      </trkpt>
      <trkpt lat="44.46418" lon="4.87935">
        <ele>354.26</ele>
        <time>2014-09-11T08:57:49Z</time>
      </trkpt>
      <trkpt lat="44.4642" lon="4.87934">
        <ele>354.43</ele>
        <time>2014-09-11T08:57:50Z</time>
      </trkpt>
      <trkpt lat="44.46421" lon="4.87933">
        <ele>354.59</ele>
        <time>2014-09-11T08:57:51Z</time>
      </trkpt>
      <trkpt lat="44.46422" lon="4.87932">
        <ele>354.79</ele>
        <time>2014-09-11T08:57:52Z</time>
      </trkpt>
      <trkpt lat="44.46425" lon="4.8793">
        <ele>354.97</ele>
        <time>2014-09-11T08:57:54Z</time>
      </trkpt>
      <trkpt lat="44.46426" lon="4.87929">
        <ele>355.16</ele>
        <time>2014-09-11T08:57:55Z</time>
      </trkpt>
      <trkpt lat="44.46428" lon="4.87929">
        <ele>355.35</ele>
        <time>2014-09-11T08:57:56Z</time>
      </trkpt>
      <trkpt lat="44.4643" lon="4.87927">
        <ele>355.44</ele>
        <time>2014-09-11T08:57:57Z</time>
      </trkpt>
      <trkpt lat="44.46432" lon="4.87926">
        <ele>355.49</ele>
        <time>2014-09-11T08:57:58Z</time>
      </trkpt>
      <trkpt lat="44.46433" lon="4.87925">
        <ele>355.51</ele>
        <time>2014-09-11T08:57:59Z</time>
      </trkpt>
      <trkpt lat="44.46435" lon="4.87923">
        <ele>355.46</ele>
        <time>2014-09-11T08:58:00Z</time>
      </trkpt>
      <trkpt lat="44.46436" lon="4.87922">
        <ele>355.43</ele>
        <time>2014-09-11T08:58:01Z</time>
      </trkpt>
      <trkpt lat="44.46463" lon="4.87905">
        <ele>357.36</ele>
        <time>2014-09-11T08:58:15Z</time>
      </trkpt>
      <trkpt lat="44.46489" lon="4.87889">
        <ele>358.98</ele>
        <time>2014-09-11T08:58:30Z</time>
      </trkpt>
      <trkpt lat="44.46513" lon="4.87871">
        <ele>360.63</ele>
        <time>2014-09-11T08:58:43Z</time>
      </trkpt>
      <trkpt lat="44.46515" lon="4.8787">
        <ele>361</ele>
        <time>2014-09-11T08:58:44Z</time>
      </trkpt>
      <trkpt lat="44.46518" lon="4.87868">
        <ele>361.08</ele>
        <time>2014-09-11T08:58:46Z</time>
      </trkpt>
      <trkpt lat="44.4652" lon="4.87867">
        <ele>361.13</ele>
        <time>2014-09-11T08:58:47Z</time>
      </trkpt>
      <trkpt lat="44.46522" lon="4.87866">
        <ele>361.15</ele>
        <time>2014-09-11T08:58:48Z</time>
      </trkpt>
      <trkpt lat="44.4654" lon="4.87854">
        <ele>361.7</ele>
        <time>2014-09-11T08:58:58Z</time>
      </trkpt>
      <trkpt lat="44.46542" lon="4.87852">
        <ele>361.88</ele>
        <time>2014-09-11T08:58:59Z</time>
      </trkpt>
      <trkpt lat="44.46544" lon="4.87851">
        <ele>362.09</ele>
        <time>2014-09-11T08:59:00Z</time>
      </trkpt>
      <trkpt lat="44.46575" lon="4.87828">
        <ele>363.89</ele>
        <time>2014-09-11T08:59:16Z</time>
      </trkpt>
      <trkpt lat="44.4659" lon="4.87819">
        <ele>363.94</ele>
        <time>2014-09-11T08:59:25Z</time>
      </trkpt>
      <trkpt lat="44.46591" lon="4.87818">
        <ele>364.03</ele>
        <time>2014-09-11T08:59:26Z</time>
      </trkpt>
      <trkpt lat="44.46597" lon="4.87817">
        <ele>365.36</ele>
        <time>2014-09-11T08:59:43Z</time>
      </trkpt>
      <trkpt lat="44.46595" lon="4.87818">
        <ele>364.97</ele>
        <time>2014-09-11T09:00:31Z</time>
      </trkpt>
      <trkpt lat="44.46597" lon="4.87817">
        <ele>365.19</ele>
        <time>2014-09-11T09:01:27Z</time>
      </trkpt>
      <trkpt lat="44.46599" lon="4.87815">
        <ele>365.34</ele>
        <time>2014-09-11T09:01:28Z</time>
      </trkpt>
      <trkpt lat="44.46601" lon="4.87814">
        <ele>365.42</ele>
        <time>2014-09-11T09:01:29Z</time>
      </trkpt>
      <trkpt lat="44.46603" lon="4.87812">
        <ele>365.47</ele>
        <time>2014-09-11T09:01:30Z</time>
      </trkpt>
      <trkpt lat="44.46605" lon="4.87811">
        <ele>365.49</ele>
        <time>2014-09-11T09:01:31Z</time>
      </trkpt>
      <trkpt lat="44.46608" lon="4.87809">
        <ele>365.44</ele>
        <time>2014-09-11T09:01:32Z</time>
      </trkpt>
      <trkpt lat="44.46654" lon="4.87798">
        <ele>364.93</ele>
        <time>2014-09-11T09:01:47Z</time>
      </trkpt>
      <trkpt lat="44.46677" lon="4.87809">
        <ele>364.23</ele>
        <time>2014-09-11T09:01:53Z</time>
      </trkpt>
      <trkpt lat="44.46681" lon="4.87812">
        <ele>364.06</ele>
        <time>2014-09-11T09:01:54Z</time>
      </trkpt>
      <trkpt lat="44.46685" lon="4.87815">
        <ele>363.91</ele>
        <time>2014-09-11T09:01:55Z</time>
      </trkpt>
      <trkpt lat="44.46693" lon="4.87821">
        <ele>363.57</ele>
        <time>2014-09-11T09:01:57Z</time>
      </trkpt>
      <trkpt lat="44.46697" lon="4.87825">
        <ele>363.46</ele>
        <time>2014-09-11T09:01:58Z</time>
      </trkpt>
      <trkpt lat="44.46701" lon="4.87828">
        <ele>363.29</ele>
        <time>2014-09-11T09:01:59Z</time>
      </trkpt>
      <trkpt lat="44.46739" lon="4.87831">
        <ele>361.2</ele>
        <time>2014-09-11T09:02:09Z</time>
      </trkpt>
      <trkpt lat="44.46754" lon="4.878">
        <ele>361.21</ele>
        <time>2014-09-11T09:02:21Z</time>
      </trkpt>
      <trkpt lat="44.46754" lon="4.87739">
        <ele>361.85</ele>
        <time>2014-09-11T09:02:33Z</time>
      </trkpt>
      <trkpt lat="44.4676" lon="4.87702">
        <ele>361.69</ele>
        <time>2014-09-11T09:02:40Z</time>
      </trkpt>
      <trkpt lat="44.46765" lon="4.87692">
        <ele>361.73</ele>
        <time>2014-09-11T09:02:42Z</time>
      </trkpt>
      <trkpt lat="44.46801" lon="4.8766">
        <ele>362.12</ele>
        <time>2014-09-11T09:02:54Z</time>
      </trkpt>
      <trkpt lat="44.46832" lon="4.87645">
        <ele>361.62</ele>
        <time>2014-09-11T09:03:05Z</time>
      </trkpt>
      <trkpt lat="44.46834" lon="4.87647">
        <ele>361.68</ele>
        <time>2014-09-11T09:03:06Z</time>
      </trkpt>
      <trkpt lat="44.46835" lon="4.87649">
        <ele>361.71</ele>
        <time>2014-09-11T09:03:07Z</time>
      </trkpt>
      <trkpt lat="44.46835" lon="4.87652">
        <ele>361.6</ele>
        <time>2014-09-11T09:03:08Z</time>
      </trkpt>
      <trkpt lat="44.46847" lon="4.87684">
        <ele>364.26</ele>
        <time>2014-09-11T09:03:22Z</time>
      </trkpt>
      <trkpt lat="44.46864" lon="4.87695">
        <ele>365.7</ele>
        <time>2014-09-11T09:03:34Z</time>
      </trkpt>
      <trkpt lat="44.46875" lon="4.87705">
        <ele>367.03</ele>
        <time>2014-09-11T09:03:41Z</time>
      </trkpt>
      <trkpt lat="44.46877" lon="4.87707">
        <ele>367.35</ele>
        <time>2014-09-11T09:03:42Z</time>
      </trkpt>
      <trkpt lat="44.46878" lon="4.87709">
        <ele>367.71</ele>
        <time>2014-09-11T09:03:43Z</time>
      </trkpt>
      <trkpt lat="44.46888" lon="4.87746">
        <ele>370.63</ele>
        <time>2014-09-11T09:03:57Z</time>
      </trkpt>
      <trkpt lat="44.46889" lon="4.87748">
        <ele>370.78</ele>
        <time>2014-09-11T09:03:58Z</time>
      </trkpt>
      <trkpt lat="44.46889" lon="4.8775">
        <ele>370.95</ele>
        <time>2014-09-11T09:03:59Z</time>
      </trkpt>
      <trkpt lat="44.46891" lon="4.87755">
        <ele>371.12</ele>
        <time>2014-09-11T09:04:01Z</time>
      </trkpt>
      <trkpt lat="44.46891" lon="4.87757">
        <ele>371.18</ele>
        <time>2014-09-11T09:04:02Z</time>
      </trkpt>
      <trkpt lat="44.46892" lon="4.8776">
        <ele>371.21</ele>
        <time>2014-09-11T09:04:03Z</time>
      </trkpt>
      <trkpt lat="44.46893" lon="4.87763">
        <ele>371.29</ele>
        <time>2014-09-11T09:04:04Z</time>
      </trkpt>
      <trkpt lat="44.46893" lon="4.87766">
        <ele>371.26</ele>
        <time>2014-09-11T09:04:05Z</time>
      </trkpt>
      <trkpt lat="44.46894" lon="4.87768">
        <ele>371.24</ele>
        <time>2014-09-11T09:04:06Z</time>
      </trkpt>
      <trkpt lat="44.46895" lon="4.87771">
        <ele>371.21</ele>
        <time>2014-09-11T09:04:07Z</time>
      </trkpt>
      <trkpt lat="44.46896" lon="4.87774">
        <ele>371.05</ele>
        <time>2014-09-11T09:04:08Z</time>
      </trkpt>
      <trkpt lat="44.46896" lon="4.87777">
        <ele>370.78</ele>
        <time>2014-09-11T09:04:09Z</time>
      </trkpt>
      <trkpt lat="44.46897" lon="4.87779">
        <ele>370.51</ele>
        <time>2014-09-11T09:04:10Z</time>
      </trkpt>
      <trkpt lat="44.46898" lon="4.87782">
        <ele>370.31</ele>
        <time>2014-09-11T09:04:11Z</time>
      </trkpt>
      <trkpt lat="44.46899" lon="4.87785">
        <ele>370.12</ele>
        <time>2014-09-11T09:04:12Z</time>
      </trkpt>
      <trkpt lat="44.46907" lon="4.87802">
        <ele>370.12</ele>
        <time>2014-09-11T09:04:17Z</time>
      </trkpt>
      <trkpt lat="44.46916" lon="4.87819">
        <ele>369.91</ele>
        <time>2014-09-11T09:04:22Z</time>
      </trkpt>
      <trkpt lat="44.46922" lon="4.87833">
        <ele>370.26</ele>
        <time>2014-09-11T09:04:26Z</time>
      </trkpt>
      <trkpt lat="44.46927" lon="4.87853">
        <ele>370.34</ele>
        <time>2014-09-11T09:04:31Z</time>
      </trkpt>
      <trkpt lat="44.46941" lon="4.87891">
        <ele>370.26</ele>
        <time>2014-09-11T09:04:41Z</time>
      </trkpt>
      <trkpt lat="44.46942" lon="4.87895">
        <ele>370.4</ele>
        <time>2014-09-11T09:04:42Z</time>
      </trkpt>
      <trkpt lat="44.46943" lon="4.87899">
        <ele>370.57</ele>
        <time>2014-09-11T09:04:43Z</time>
      </trkpt>
      <trkpt lat="44.46944" lon="4.87907">
        <ele>370.67</ele>
        <time>2014-09-11T09:04:45Z</time>
      </trkpt>
      <trkpt lat="44.46944" lon="4.87911">
        <ele>370.76</ele>
        <time>2014-09-11T09:04:46Z</time>
      </trkpt>
      <trkpt lat="44.46945" lon="4.87915">
        <ele>370.83</ele>
        <time>2014-09-11T09:04:47Z</time>
      </trkpt>
      <trkpt lat="44.46946" lon="4.87919">
        <ele>370.84</ele>
        <time>2014-09-11T09:04:48Z</time>
      </trkpt>
      <trkpt lat="44.46947" lon="4.87923">
        <ele>370.75</ele>
        <time>2014-09-11T09:04:49Z</time>
      </trkpt>
      <trkpt lat="44.46947" lon="4.87927">
        <ele>370.68</ele>
        <time>2014-09-11T09:04:50Z</time>
      </trkpt>
      <trkpt lat="44.46951" lon="4.87956">
        <ele>371.88</ele>
        <time>2014-09-11T09:04:57Z</time>
      </trkpt>
      <trkpt lat="44.46957" lon="4.87986">
        <ele>371.87</ele>
        <time>2014-09-11T09:05:05Z</time>
      </trkpt>
      <trkpt lat="44.46968" lon="4.88009">
        <ele>372.21</ele>
        <time>2014-09-11T09:05:12Z</time>
      </trkpt>
      <trkpt lat="44.46972" lon="4.88014">
        <ele>372.13</ele>
        <time>2014-09-11T09:05:14Z</time>
      </trkpt>
      <trkpt lat="44.46981" lon="4.88023">
        <ele>372.64</ele>
        <time>2014-09-11T09:05:18Z</time>
      </trkpt>
      <trkpt lat="44.46983" lon="4.88026">
        <ele>373.24</ele>
        <time>2014-09-11T09:05:19Z</time>
      </trkpt>
      <trkpt lat="44.46992" lon="4.8804">
        <ele>373.49</ele>
        <time>2014-09-11T09:05:24Z</time>
      </trkpt>
      <trkpt lat="44.47" lon="4.88056">
        <ele>373.82</ele>
        <time>2014-09-11T09:05:30Z</time>
      </trkpt>
      <trkpt lat="44.47002" lon="4.88064">
        <ele>374.05</ele>
        <time>2014-09-11T09:05:33Z</time>
      </trkpt>
      <trkpt lat="44.47008" lon="4.88082">
        <ele>375.07</ele>
        <time>2014-09-11T09:05:40Z</time>
      </trkpt>
      <trkpt lat="44.47012" lon="4.88094">
        <ele>375.44</ele>
        <time>2014-09-11T09:05:45Z</time>
      </trkpt>
      <trkpt lat="44.47015" lon="4.88106">
        <ele>376.17</ele>
        <time>2014-09-11T09:05:50Z</time>
      </trkpt>
      <trkpt lat="44.47023" lon="4.88128">
        <ele>377.35</ele>
        <time>2014-09-11T09:05:59Z</time>
      </trkpt>
      <trkpt lat="44.47044" lon="4.88164">
        <ele>377.16</ele>
        <time>2014-09-11T09:06:14Z</time>
      </trkpt>
      <trkpt lat="44.47061" lon="4.88175">
        <ele>378.37</ele>
        <time>2014-09-11T09:06:22Z</time>
      </trkpt>
      <trkpt lat="44.47084" lon="4.88188">
        <ele>379.33</ele>
        <time>2014-09-11T09:06:35Z</time>
      </trkpt>
      <trkpt lat="44.4709" lon="4.8819">
        <ele>380.08</ele>
        <time>2014-09-11T09:06:39Z</time>
      </trkpt>
      <trkpt lat="44.47103" lon="4.88195">
        <ele>380.99</ele>
        <time>2014-09-11T09:06:46Z</time>
      </trkpt>
      <trkpt lat="44.4711" lon="4.88198">
        <ele>381.21</ele>
        <time>2014-09-11T09:06:49Z</time>
      </trkpt>
      <trkpt lat="44.47122" lon="4.88205">
        <ele>381.19</ele>
        <time>2014-09-11T09:06:54Z</time>
      </trkpt>
      <trkpt lat="44.47129" lon="4.88213">
        <ele>381.56</ele>
        <time>2014-09-11T09:06:59Z</time>
      </trkpt>
      <trkpt lat="44.47136" lon="4.88231">
        <ele>381.87</ele>
        <time>2014-09-11T09:07:12Z</time>
      </trkpt>
      <trkpt lat="44.47137" lon="4.88234">
        <ele>381.07</ele>
        <time>2014-09-11T09:07:47Z</time>
      </trkpt>
      <trkpt lat="44.47139" lon="4.88236">
        <ele>381.58</ele>
        <time>2014-09-11T09:08:29Z</time>
      </trkpt>
      <trkpt lat="44.47141" lon="4.88241">
        <ele>381.97</ele>
        <time>2014-09-11T09:08:32Z</time>
      </trkpt>
      <trkpt lat="44.4715" lon="4.88256">
        <ele>382.23</ele>
        <time>2014-09-11T09:08:38Z</time>
      </trkpt>
      <trkpt lat="44.47157" lon="4.88269">
        <ele>382.39</ele>
        <time>2014-09-11T09:08:43Z</time>
      </trkpt>
      <trkpt lat="44.47167" lon="4.88283">
        <ele>383.12</ele>
        <time>2014-09-11T09:08:49Z</time>
      </trkpt>
      <trkpt lat="44.47178" lon="4.88298">
        <ele>382.17</ele>
        <time>2014-09-11T09:08:55Z</time>
      </trkpt>
      <trkpt lat="44.472" lon="4.88324">
        <ele>382.95</ele>
        <time>2014-09-11T09:09:07Z</time>
      </trkpt>
      <trkpt lat="44.47228" lon="4.88359">
        <ele>383.97</ele>
        <time>2014-09-11T09:09:23Z</time>
      </trkpt>
      <trkpt lat="44.47243" lon="4.88379">
        <ele>384.58</ele>
        <time>2014-09-11T09:09:32Z</time>
      </trkpt>
      <trkpt lat="44.47273" lon="4.88416">
        <ele>386.24</ele>
        <time>2014-09-11T09:09:50Z</time>
      </trkpt>
      <trkpt lat="44.47302" lon="4.88451">
        <ele>388.72</ele>
        <time>2014-09-11T09:10:08Z</time>
      </trkpt>
      <trkpt lat="44.47311" lon="4.88462">
        <ele>389.34</ele>
        <time>2014-09-11T09:10:14Z</time>
      </trkpt>
      <trkpt lat="44.47322" lon="4.88472">
        <ele>390.2</ele>
        <time>2014-09-11T09:10:21Z</time>
      </trkpt>
      <trkpt lat="44.47349" lon="4.88486">
        <ele>391.6</ele>
        <time>2014-09-11T09:10:36Z</time>
      </trkpt>
      <trkpt lat="44.47364" lon="4.88491">
        <ele>392.52</ele>
        <time>2014-09-11T09:10:44Z</time>
      </trkpt>
      <trkpt lat="44.47371" lon="4.88495">
        <ele>392.89</ele>
        <time>2014-09-11T09:10:48Z</time>
      </trkpt>
      <trkpt lat="44.47376" lon="4.88501">
        <ele>393.07</ele>
        <time>2014-09-11T09:10:52Z</time>
      </trkpt>
      <trkpt lat="44.4738" lon="4.88506">
        <ele>393.13</ele>
        <time>2014-09-11T09:10:55Z</time>
      </trkpt>
      <trkpt lat="44.47391" lon="4.8852">
        <ele>393.56</ele>
        <time>2014-09-11T09:11:03Z</time>
      </trkpt>
      <trkpt lat="44.47402" lon="4.88539">
        <ele>394.83</ele>
        <time>2014-09-11T09:11:13Z</time>
      </trkpt>
      <trkpt lat="44.47421" lon="4.88572">
        <ele>396.93</ele>
        <time>2014-09-11T09:11:31Z</time>
      </trkpt>
      <trkpt lat="44.47439" lon="4.88598">
        <ele>398.09</ele>
        <time>2014-09-11T09:11:46Z</time>
      </trkpt>
      <trkpt lat="44.47442" lon="4.88602">
        <ele>398.47</ele>
        <time>2014-09-11T09:11:49Z</time>
      </trkpt>
      <trkpt lat="44.4745" lon="4.8861">
        <ele>399.15</ele>
        <time>2014-09-11T09:11:55Z</time>
      </trkpt>
      <trkpt lat="44.47453" lon="4.88613">
        <ele>399.39</ele>
        <time>2014-09-11T09:11:57Z</time>
      </trkpt>
      <trkpt lat="44.4747" lon="4.88639">
        <ele>400.58</ele>
        <time>2014-09-11T09:12:09Z</time>
      </trkpt>
      <trkpt lat="44.47475" lon="4.88646">
        <ele>400.73</ele>
        <time>2014-09-11T09:12:12Z</time>
      </trkpt>
      <trkpt lat="44.47479" lon="4.88654">
        <ele>401.18</ele>
        <time>2014-09-11T09:12:15Z</time>
      </trkpt>
      <trkpt lat="44.47495" lon="4.88692">
        <ele>401.86</ele>
        <time>2014-09-11T09:12:28Z</time>
      </trkpt>
      <trkpt lat="44.47499" lon="4.88705">
        <ele>402.25</ele>
        <time>2014-09-11T09:12:32Z</time>
      </trkpt>
      <trkpt lat="44.47504" lon="4.88728">
        <ele>402.88</ele>
        <time>2014-09-11T09:12:39Z</time>
      </trkpt>
      <trkpt lat="44.47506" lon="4.88742">
        <ele>403.24</ele>
        <time>2014-09-11T09:12:43Z</time>
      </trkpt>
      <trkpt lat="44.47509" lon="4.88759">
        <ele>403.31</ele>
        <time>2014-09-11T09:12:48Z</time>
      </trkpt>
      <trkpt lat="44.47517" lon="4.88813">
        <ele>404.26</ele>
        <time>2014-09-11T09:13:03Z</time>
      </trkpt>
      <trkpt lat="44.47519" lon="4.88822">
        <ele>404.39</ele>
        <time>2014-09-11T09:13:06Z</time>
      </trkpt>
      <trkpt lat="44.47521" lon="4.88827">
        <ele>404.28</ele>
        <time>2014-09-11T09:13:08Z</time>
      </trkpt>
      <trkpt lat="44.47526" lon="4.88845">
        <ele>405.05</ele>
        <time>2014-09-11T09:13:15Z</time>
      </trkpt>
      <trkpt lat="44.47527" lon="4.8885">
        <ele>405.25</ele>
        <time>2014-09-11T09:13:17Z</time>
      </trkpt>
      <trkpt lat="44.4753" lon="4.88869">
        <ele>405.75</ele>
        <time>2014-09-11T09:13:25Z</time>
      </trkpt>
      <trkpt lat="44.47533" lon="4.88894">
        <ele>407.54</ele>
        <time>2014-09-11T09:13:34Z</time>
      </trkpt>
      <trkpt lat="44.47534" lon="4.8891">
        <ele>407.76</ele>
        <time>2014-09-11T09:13:39Z</time>
      </trkpt>
      <trkpt lat="44.47534" lon="4.88916">
        <ele>408.06</ele>
        <time>2014-09-11T09:13:41Z</time>
      </trkpt>
      <trkpt lat="44.47533" lon="4.88944">
        <ele>408.86</ele>
        <time>2014-09-11T09:13:50Z</time>
      </trkpt>
      <trkpt lat="44.47532" lon="4.88947">
        <ele>408.88</ele>
        <time>2014-09-11T09:13:51Z</time>
      </trkpt>
      <trkpt lat="44.47524" lon="4.88978">
        <ele>409.18</ele>
        <time>2014-09-11T09:14:00Z</time>
      </trkpt>
      <trkpt lat="44.47522" lon="4.89015">
        <ele>408.14</ele>
        <time>2014-09-11T09:14:10Z</time>
      </trkpt>
      <trkpt lat="44.47522" lon="4.89023">
        <ele>408.32</ele>
        <time>2014-09-11T09:14:12Z</time>
      </trkpt>
      <trkpt lat="44.47514" lon="4.89054">
        <ele>408.49</ele>
        <time>2014-09-11T09:14:20Z</time>
      </trkpt>
      <trkpt lat="44.47513" lon="4.89072">
        <ele>408.48</ele>
        <time>2014-09-11T09:14:25Z</time>
      </trkpt>
      <trkpt lat="44.4751" lon="4.89098">
        <ele>408.58</ele>
        <time>2014-09-11T09:14:32Z</time>
      </trkpt>
      <trkpt lat="44.47509" lon="4.89116">
        <ele>408.73</ele>
        <time>2014-09-11T09:14:37Z</time>
      </trkpt>
      <trkpt lat="44.47508" lon="4.89131">
        <ele>409.07</ele>
        <time>2014-09-11T09:14:42Z</time>
      </trkpt>
      <trkpt lat="44.47508" lon="4.89151">
        <ele>409.92</ele>
        <time>2014-09-11T09:14:49Z</time>
      </trkpt>
      <trkpt lat="44.47508" lon="4.89158">
        <ele>410.15</ele>
        <time>2014-09-11T09:14:51Z</time>
      </trkpt>
      <trkpt lat="44.47507" lon="4.89172">
        <ele>410.22</ele>
        <time>2014-09-11T09:14:55Z</time>
      </trkpt>
      <trkpt lat="44.47506" lon="4.89195">
        <ele>410.74</ele>
        <time>2014-09-11T09:15:01Z</time>
      </trkpt>
      <trkpt lat="44.47499" lon="4.89241">
        <ele>410.84</ele>
        <time>2014-09-11T09:15:12Z</time>
      </trkpt>
      <trkpt lat="44.47499" lon="4.89245">
        <ele>410.88</ele>
        <time>2014-09-11T09:15:13Z</time>
      </trkpt>
      <trkpt lat="44.47501" lon="4.89274">
        <ele>411.75</ele>
        <time>2014-09-11T09:15:21Z</time>
      </trkpt>
      <trkpt lat="44.47502" lon="4.89285">
        <ele>411.94</ele>
        <time>2014-09-11T09:15:24Z</time>
      </trkpt>
      <trkpt lat="44.47501" lon="4.89297">
        <ele>411.89</ele>
        <time>2014-09-11T09:15:27Z</time>
      </trkpt>
      <trkpt lat="44.47507" lon="4.89374">
        <ele>413.22</ele>
        <time>2014-09-11T09:15:45Z</time>
      </trkpt>
      <trkpt lat="44.47504" lon="4.89417">
        <ele>412.93</ele>
        <time>2014-09-11T09:15:56Z</time>
      </trkpt>
      <trkpt lat="44.47501" lon="4.89445">
        <ele>412.4</ele>
        <time>2014-09-11T09:16:01Z</time>
      </trkpt>
      <trkpt lat="44.47492" lon="4.89483">
        <ele>410.16</ele>
        <time>2014-09-11T09:16:09Z</time>
      </trkpt>
      <trkpt lat="44.47482" lon="4.89533">
        <ele>408.26</ele>
        <time>2014-09-11T09:16:22Z</time>
      </trkpt>
      <trkpt lat="44.47482" lon="4.89535">
        <ele>408.21</ele>
        <time>2014-09-11T09:16:23Z</time>
      </trkpt>
      <trkpt lat="44.47483" lon="4.89544">
        <ele>408.02</ele>
        <time>2014-09-11T09:16:27Z</time>
      </trkpt>
      <trkpt lat="44.47483" lon="4.89549">
        <ele>407.95</ele>
        <time>2014-09-11T09:16:29Z</time>
      </trkpt>
      <trkpt lat="44.47484" lon="4.89554">
        <ele>408.17</ele>
        <time>2014-09-11T09:16:46Z</time>
      </trkpt>
      <trkpt lat="44.47483" lon="4.89557">
        <ele>409.02</ele>
        <time>2014-09-11T09:16:58Z</time>
      </trkpt>
      <trkpt lat="44.47483" lon="4.89559">
        <ele>408.93</ele>
        <time>2014-09-11T09:16:59Z</time>
      </trkpt>
      <trkpt lat="44.4748" lon="4.89578">
        <ele>408.06</ele>
        <time>2014-09-11T09:17:05Z</time>
      </trkpt>
      <trkpt lat="44.4748" lon="4.89582">
        <ele>407.96</ele>
        <time>2014-09-11T09:17:06Z</time>
      </trkpt>
      <trkpt lat="44.4748" lon="4.89585">
        <ele>407.91</ele>
        <time>2014-09-11T09:17:07Z</time>
      </trkpt>
      <trkpt lat="44.4748" lon="4.89589">
        <ele>407.76</ele>
        <time>2014-09-11T09:17:08Z</time>
      </trkpt>
      <trkpt lat="44.47478" lon="4.89624">
        <ele>407.03</ele>
        <time>2014-09-11T09:17:16Z</time>
      </trkpt>
      <trkpt lat="44.47479" lon="4.89696">
        <ele>404.12</ele>
        <time>2014-09-11T09:17:31Z</time>
      </trkpt>
      <trkpt lat="44.4748" lon="4.89706">
        <ele>404.07</ele>
        <time>2014-09-11T09:17:33Z</time>
      </trkpt>
      <trkpt lat="44.4748" lon="4.89715">
        <ele>404.14</ele>
        <time>2014-09-11T09:17:35Z</time>
      </trkpt>
      <trkpt lat="44.47481" lon="4.8974">
        <ele>404.56</ele>
        <time>2014-09-11T09:17:41Z</time>
      </trkpt>
      <trkpt lat="44.47481" lon="4.89744">
        <ele>404.69</ele>
        <time>2014-09-11T09:17:42Z</time>
      </trkpt>
      <trkpt lat="44.47481" lon="4.89747">
        <ele>404.55</ele>
        <time>2014-09-11T09:17:43Z</time>
      </trkpt>
      <trkpt lat="44.47481" lon="4.8975">
        <ele>404.48</ele>
        <time>2014-09-11T09:17:44Z</time>
      </trkpt>
      <trkpt lat="44.47481" lon="4.89753">
        <ele>404.25</ele>
        <time>2014-09-11T09:17:45Z</time>
      </trkpt>
      <trkpt lat="44.47482" lon="4.89757">
        <ele>403.97</ele>
        <time>2014-09-11T09:17:46Z</time>
      </trkpt>
      <trkpt lat="44.47483" lon="4.89765">
        <ele>403.5</ele>
        <time>2014-09-11T09:17:49Z</time>
      </trkpt>
      <trkpt lat="44.47484" lon="4.89767">
        <ele>403.44</ele>
        <time>2014-09-11T09:17:50Z</time>
      </trkpt>
      <trkpt lat="44.47485" lon="4.8977">
        <ele>403.41</ele>
        <time>2014-09-11T09:17:51Z</time>
      </trkpt>
      <trkpt lat="44.47485" lon="4.89773">
        <ele>403.46</ele>
        <time>2014-09-11T09:17:52Z</time>
      </trkpt>
      <trkpt lat="44.47486" lon="4.89775">
        <ele>403.49</ele>
        <time>2014-09-11T09:17:53Z</time>
      </trkpt>
      <trkpt lat="44.47487" lon="4.89778">
        <ele>403.55</ele>
        <time>2014-09-11T09:17:54Z</time>
      </trkpt>
      <trkpt lat="44.47487" lon="4.89781">
        <ele>403.58</ele>
        <time>2014-09-11T09:17:55Z</time>
      </trkpt>
      <trkpt lat="44.47488" lon="4.89786">
        <ele>403.87</ele>
        <time>2014-09-11T09:18:09Z</time>
      </trkpt>
      <trkpt lat="44.47489" lon="4.89787">
        <ele>403.55</ele>
        <time>2014-09-11T09:18:29Z</time>
      </trkpt>
      <trkpt lat="44.4749" lon="4.89788">
        <ele>403.63</ele>
        <time>2014-09-11T09:18:30Z</time>
      </trkpt>
      <trkpt lat="44.47492" lon="4.89788">
        <ele>403.47</ele>
        <time>2014-09-11T09:18:31Z</time>
      </trkpt>
      <trkpt lat="44.47494" lon="4.89789">
        <ele>403.39</ele>
        <time>2014-09-11T09:18:32Z</time>
      </trkpt>
      <trkpt lat="44.47497" lon="4.89791">
        <ele>403.49</ele>
        <time>2014-09-11T09:18:33Z</time>
      </trkpt>
      <trkpt lat="44.475" lon="4.89793">
        <ele>403.34</ele>
        <time>2014-09-11T09:18:34Z</time>
      </trkpt>
      <trkpt lat="44.47503" lon="4.89795">
        <ele>403.16</ele>
        <time>2014-09-11T09:18:35Z</time>
      </trkpt>
      <trkpt lat="44.47511" lon="4.898">
        <ele>402.65</ele>
        <time>2014-09-11T09:18:37Z</time>
      </trkpt>
      <trkpt lat="44.47515" lon="4.89801">
        <ele>402.45</ele>
        <time>2014-09-11T09:18:38Z</time>
      </trkpt>
      <trkpt lat="44.47519" lon="4.89802">
        <ele>402.37</ele>
        <time>2014-09-11T09:18:39Z</time>
      </trkpt>
      <trkpt lat="44.47523" lon="4.89803">
        <ele>402.16</ele>
        <time>2014-09-11T09:18:40Z</time>
      </trkpt>
      <trkpt lat="44.47527" lon="4.89803">
        <ele>401.77</ele>
        <time>2014-09-11T09:18:41Z</time>
      </trkpt>
      <trkpt lat="44.47547" lon="4.89802">
        <ele>401.02</ele>
        <time>2014-09-11T09:18:46Z</time>
      </trkpt>
      <trkpt lat="44.47559" lon="4.898">
        <ele>400.79</ele>
        <time>2014-09-11T09:18:49Z</time>
      </trkpt>
      <trkpt lat="44.47565" lon="4.898">
        <ele>400.65</ele>
        <time>2014-09-11T09:18:51Z</time>
      </trkpt>
      <trkpt lat="44.47568" lon="4.89801">
        <ele>400.69</ele>
        <time>2014-09-11T09:18:52Z</time>
      </trkpt>
      <trkpt lat="44.47572" lon="4.89802">
        <ele>400.8</ele>
        <time>2014-09-11T09:18:53Z</time>
      </trkpt>
      <trkpt lat="44.47575" lon="4.89802">
        <ele>400.86</ele>
        <time>2014-09-11T09:18:54Z</time>
      </trkpt>
      <trkpt lat="44.47578" lon="4.89802">
        <ele>400.89</ele>
        <time>2014-09-11T09:18:55Z</time>
      </trkpt>
      <trkpt lat="44.47581" lon="4.89802">
        <ele>401.04</ele>
        <time>2014-09-11T09:18:56Z</time>
      </trkpt>
      <trkpt lat="44.47585" lon="4.89801">
        <ele>401.15</ele>
        <time>2014-09-11T09:18:57Z</time>
      </trkpt>
      <trkpt lat="44.47591" lon="4.89801">
        <ele>401.48</ele>
        <time>2014-09-11T09:18:59Z</time>
      </trkpt>
      <trkpt lat="44.47594" lon="4.89802">
        <ele>401.46</ele>
        <time>2014-09-11T09:19:00Z</time>
      </trkpt>
      <trkpt lat="44.47608" lon="4.89805">
        <ele>402.2</ele>
        <time>2014-09-11T09:19:04Z</time>
      </trkpt>
      <trkpt lat="44.47611" lon="4.89806">
        <ele>402.19</ele>
        <time>2014-09-11T09:19:05Z</time>
      </trkpt>
      <trkpt lat="44.47615" lon="4.89806">
        <ele>402.15</ele>
        <time>2014-09-11T09:19:06Z</time>
      </trkpt>
      <trkpt lat="44.47618" lon="4.89807">
        <ele>402.32</ele>
        <time>2014-09-11T09:19:07Z</time>
      </trkpt>
      <trkpt lat="44.47622" lon="4.89809">
        <ele>402.51</ele>
        <time>2014-09-11T09:19:08Z</time>
      </trkpt>
      <trkpt lat="44.47626" lon="4.89811">
        <ele>402.83</ele>
        <time>2014-09-11T09:19:09Z</time>
      </trkpt>
      <trkpt lat="44.47667" lon="4.8983">
        <ele>403.58</ele>
        <time>2014-09-11T09:19:22Z</time>
      </trkpt>
      <trkpt lat="44.47672" lon="4.89833">
        <ele>403.66</ele>
        <time>2014-09-11T09:19:24Z</time>
      </trkpt>
      <trkpt lat="44.47678" lon="4.89836">
        <ele>403.7</ele>
        <time>2014-09-11T09:19:26Z</time>
      </trkpt>
      <trkpt lat="44.47681" lon="4.89838">
        <ele>403.91</ele>
        <time>2014-09-11T09:19:27Z</time>
      </trkpt>
      <trkpt lat="44.47686" lon="4.89843">
        <ele>404.38</ele>
        <time>2014-09-11T09:19:29Z</time>
      </trkpt>
      <trkpt lat="44.47689" lon="4.89845">
        <ele>404.51</ele>
        <time>2014-09-11T09:19:30Z</time>
      </trkpt>
      <trkpt lat="44.47692" lon="4.89848">
        <ele>404.61</ele>
        <time>2014-09-11T09:19:31Z</time>
      </trkpt>
      <trkpt lat="44.47695" lon="4.8985">
        <ele>404.63</ele>
        <time>2014-09-11T09:19:32Z</time>
      </trkpt>
      <trkpt lat="44.47698" lon="4.89853">
        <ele>404.6</ele>
        <time>2014-09-11T09:19:33Z</time>
      </trkpt>
      <trkpt lat="44.47703" lon="4.8986">
        <ele>404.49</ele>
        <time>2014-09-11T09:19:35Z</time>
      </trkpt>
      <trkpt lat="44.47721" lon="4.89874">
        <ele>404.74</ele>
        <time>2014-09-11T09:19:41Z</time>
      </trkpt>
      <trkpt lat="44.47731" lon="4.89883">
        <ele>404.75</ele>
        <time>2014-09-11T09:19:45Z</time>
      </trkpt>
      <trkpt lat="44.47734" lon="4.89885">
        <ele>404.68</ele>
        <time>2014-09-11T09:19:46Z</time>
      </trkpt>
      <trkpt lat="44.47737" lon="4.89887">
        <ele>404.57</ele>
        <time>2014-09-11T09:19:47Z</time>
      </trkpt>
      <trkpt lat="44.47741" lon="4.89889">
        <ele>404.57</ele>
        <time>2014-09-11T09:19:48Z</time>
      </trkpt>
      <trkpt lat="44.47744" lon="4.89892">
        <ele>404.53</ele>
        <time>2014-09-11T09:19:49Z</time>
      </trkpt>
      <trkpt lat="44.47747" lon="4.89894">
        <ele>404.47</ele>
        <time>2014-09-11T09:19:50Z</time>
      </trkpt>
      <trkpt lat="44.4775" lon="4.89896">
        <ele>404.48</ele>
        <time>2014-09-11T09:19:51Z</time>
      </trkpt>
      <trkpt lat="44.47753" lon="4.89897">
        <ele>404.49</ele>
        <time>2014-09-11T09:19:52Z</time>
      </trkpt>
      <trkpt lat="44.47756" lon="4.89899">
        <ele>404.46</ele>
        <time>2014-09-11T09:19:53Z</time>
      </trkpt>
      <trkpt lat="44.47759" lon="4.899">
        <ele>404.49</ele>
        <time>2014-09-11T09:19:54Z</time>
      </trkpt>
      <trkpt lat="44.47762" lon="4.89901">
        <ele>404.6</ele>
        <time>2014-09-11T09:19:55Z</time>
      </trkpt>
      <trkpt lat="44.47765" lon="4.89902">
        <ele>404.59</ele>
        <time>2014-09-11T09:19:56Z</time>
      </trkpt>
      <trkpt lat="44.47781" lon="4.8991">
        <ele>404.03</ele>
        <time>2014-09-11T09:20:01Z</time>
      </trkpt>
      <trkpt lat="44.47795" lon="4.89932">
        <ele>402.89</ele>
        <time>2014-09-11T09:20:07Z</time>
      </trkpt>
      <trkpt lat="44.47798" lon="4.89937">
        <ele>402.75</ele>
        <time>2014-09-11T09:20:08Z</time>
      </trkpt>
      <trkpt lat="44.47801" lon="4.89941">
        <ele>402.55</ele>
        <time>2014-09-11T09:20:09Z</time>
      </trkpt>
      <trkpt lat="44.47805" lon="4.89946">
        <ele>402.42</ele>
        <time>2014-09-11T09:20:10Z</time>
      </trkpt>
      <trkpt lat="44.47809" lon="4.8995">
        <ele>402.19</ele>
        <time>2014-09-11T09:20:11Z</time>
      </trkpt>
      <trkpt lat="44.47813" lon="4.89954">
        <ele>401.69</ele>
        <time>2014-09-11T09:20:12Z</time>
      </trkpt>
      <trkpt lat="44.47817" lon="4.89958">
        <ele>401.09</ele>
        <time>2014-09-11T09:20:13Z</time>
      </trkpt>
      <trkpt lat="44.47824" lon="4.89966">
        <ele>400.38</ele>
        <time>2014-09-11T09:20:15Z</time>
      </trkpt>
      <trkpt lat="44.47828" lon="4.89971">
        <ele>400.45</ele>
        <time>2014-09-11T09:20:16Z</time>
      </trkpt>
      <trkpt lat="44.47852" lon="4.9001">
        <ele>400.92</ele>
        <time>2014-09-11T09:20:26Z</time>
      </trkpt>
      <trkpt lat="44.47854" lon="4.90013">
        <ele>401.14</ele>
        <time>2014-09-11T09:20:27Z</time>
      </trkpt>
      <trkpt lat="44.47856" lon="4.90016">
        <ele>401.35</ele>
        <time>2014-09-11T09:20:28Z</time>
      </trkpt>
      <trkpt lat="44.47859" lon="4.90018">
        <ele>401.64</ele>
        <time>2014-09-11T09:20:29Z</time>
      </trkpt>
      <trkpt lat="44.47861" lon="4.90021">
        <ele>401.96</ele>
        <time>2014-09-11T09:20:30Z</time>
      </trkpt>
      <trkpt lat="44.47863" lon="4.90023">
        <ele>401.96</ele>
        <time>2014-09-11T09:20:31Z</time>
      </trkpt>
      <trkpt lat="44.47865" lon="4.90025">
        <ele>402.12</ele>
        <time>2014-09-11T09:20:32Z</time>
      </trkpt>
      <trkpt lat="44.47867" lon="4.90027">
        <ele>402.2</ele>
        <time>2014-09-11T09:20:33Z</time>
      </trkpt>
      <trkpt lat="44.47869" lon="4.90029">
        <ele>402.43</ele>
        <time>2014-09-11T09:20:34Z</time>
      </trkpt>
      <trkpt lat="44.47872" lon="4.90031">
        <ele>402.57</ele>
        <time>2014-09-11T09:20:35Z</time>
      </trkpt>
      <trkpt lat="44.47875" lon="4.90032">
        <ele>402.69</ele>
        <time>2014-09-11T09:20:36Z</time>
      </trkpt>
      <trkpt lat="44.47877" lon="4.90034">
        <ele>402.87</ele>
        <time>2014-09-11T09:20:37Z</time>
      </trkpt>
      <trkpt lat="44.4788" lon="4.90035">
        <ele>403.05</ele>
        <time>2014-09-11T09:20:38Z</time>
      </trkpt>
      <trkpt lat="44.47883" lon="4.90037">
        <ele>403.15</ele>
        <time>2014-09-11T09:20:39Z</time>
      </trkpt>
      <trkpt lat="44.47886" lon="4.90038">
        <ele>403.13</ele>
        <time>2014-09-11T09:20:40Z</time>
      </trkpt>
      <trkpt lat="44.47889" lon="4.90038">
        <ele>403.18</ele>
        <time>2014-09-11T09:20:41Z</time>
      </trkpt>
      <trkpt lat="44.47892" lon="4.90039">
        <ele>403.21</ele>
        <time>2014-09-11T09:20:42Z</time>
      </trkpt>
      <trkpt lat="44.47898" lon="4.90041">
        <ele>403.24</ele>
        <time>2014-09-11T09:20:44Z</time>
      </trkpt>
      <trkpt lat="44.47901" lon="4.90042">
        <ele>403.17</ele>
        <time>2014-09-11T09:20:45Z</time>
      </trkpt>
      <trkpt lat="44.47903" lon="4.90044">
        <ele>403.07</ele>
        <time>2014-09-11T09:20:46Z</time>
      </trkpt>
      <trkpt lat="44.47906" lon="4.90045">
        <ele>403.06</ele>
        <time>2014-09-11T09:20:47Z</time>
      </trkpt>
      <trkpt lat="44.47909" lon="4.90046">
        <ele>403.06</ele>
        <time>2014-09-11T09:20:48Z</time>
      </trkpt>
      <trkpt lat="44.47911" lon="4.90047">
        <ele>403.22</ele>
        <time>2014-09-11T09:20:49Z</time>
      </trkpt>
      <trkpt lat="44.47917" lon="4.90049">
        <ele>403.47</ele>
        <time>2014-09-11T09:20:51Z</time>
      </trkpt>
      <trkpt lat="44.4792" lon="4.90049">
        <ele>403.66</ele>
        <time>2014-09-11T09:20:52Z</time>
      </trkpt>
      <trkpt lat="44.47924" lon="4.90049">
        <ele>403.75</ele>
        <time>2014-09-11T09:20:54Z</time>
      </trkpt>
      <trkpt lat="44.47926" lon="4.90048">
        <ele>403.84</ele>
        <time>2014-09-11T09:20:55Z</time>
      </trkpt>
      <trkpt lat="44.47928" lon="4.90047">
        <ele>404.01</ele>
        <time>2014-09-11T09:20:56Z</time>
      </trkpt>
      <trkpt lat="44.4793" lon="4.90046">
        <ele>404.27</ele>
        <time>2014-09-11T09:20:57Z</time>
      </trkpt>
      <trkpt lat="44.47932" lon="4.90045">
        <ele>404.49</ele>
        <time>2014-09-11T09:20:58Z</time>
      </trkpt>
      <trkpt lat="44.47934" lon="4.90045">
        <ele>404.7</ele>
        <time>2014-09-11T09:20:59Z</time>
      </trkpt>
      <trkpt lat="44.47936" lon="4.90046">
        <ele>404.91</ele>
        <time>2014-09-11T09:21:00Z</time>
      </trkpt>
      <trkpt lat="44.4794" lon="4.90047">
        <ele>405.12</ele>
        <time>2014-09-11T09:21:02Z</time>
      </trkpt>
      <trkpt lat="44.47943" lon="4.90051">
        <ele>405.31</ele>
        <time>2014-09-11T09:21:04Z</time>
      </trkpt>
      <trkpt lat="44.47945" lon="4.90053">
        <ele>405.44</ele>
        <time>2014-09-11T09:21:05Z</time>
      </trkpt>
      <trkpt lat="44.47947" lon="4.90054">
        <ele>405.58</ele>
        <time>2014-09-11T09:21:06Z</time>
      </trkpt>
      <trkpt lat="44.47949" lon="4.90056">
        <ele>405.65</ele>
        <time>2014-09-11T09:21:07Z</time>
      </trkpt>
      <trkpt lat="44.47953" lon="4.9006">
        <ele>406.02</ele>
        <time>2014-09-11T09:21:09Z</time>
      </trkpt>
      <trkpt lat="44.47955" lon="4.90061">
        <ele>406.13</ele>
        <time>2014-09-11T09:21:10Z</time>
      </trkpt>
      <trkpt lat="44.47956" lon="4.90062">
        <ele>406.25</ele>
        <time>2014-09-11T09:21:11Z</time>
      </trkpt>
      <trkpt lat="44.47958" lon="4.90063">
        <ele>406.44</ele>
        <time>2014-09-11T09:21:12Z</time>
      </trkpt>
      <trkpt lat="44.47959" lon="4.90065">
        <ele>406.74</ele>
        <time>2014-09-11T09:21:13Z</time>
      </trkpt>
      <trkpt lat="44.4796" lon="4.90066">
        <ele>407.19</ele>
        <time>2014-09-11T09:21:14Z</time>
      </trkpt>
      <trkpt lat="44.47963" lon="4.90069">
        <ele>408.01</ele>
        <time>2014-09-11T09:21:16Z</time>
      </trkpt>
      <trkpt lat="44.47964" lon="4.90071">
        <ele>408.18</ele>
        <time>2014-09-11T09:21:17Z</time>
      </trkpt>
      <trkpt lat="44.47965" lon="4.90072">
        <ele>408.26</ele>
        <time>2014-09-11T09:21:18Z</time>
      </trkpt>
      <trkpt lat="44.47968" lon="4.90075">
        <ele>408.32</ele>
        <time>2014-09-11T09:21:20Z</time>
      </trkpt>
      <trkpt lat="44.47969" lon="4.90076">
        <ele>408.43</ele>
        <time>2014-09-11T09:21:21Z</time>
      </trkpt>
      <trkpt lat="44.4797" lon="4.90078">
        <ele>408.66</ele>
        <time>2014-09-11T09:21:22Z</time>
      </trkpt>
      <trkpt lat="44.47971" lon="4.90079">
        <ele>408.78</ele>
        <time>2014-09-11T09:21:23Z</time>
      </trkpt>
      <trkpt lat="44.47972" lon="4.9008">
        <ele>408.67</ele>
        <time>2014-09-11T09:21:24Z</time>
      </trkpt>
      <trkpt lat="44.47974" lon="4.90082">
        <ele>408.83</ele>
        <time>2014-09-11T09:21:25Z</time>
      </trkpt>
      <trkpt lat="44.47977" lon="4.90084">
        <ele>408.92</ele>
        <time>2014-09-11T09:21:39Z</time>
      </trkpt>
      <trkpt lat="44.47978" lon="4.90082">
        <ele>409.48</ele>
        <time>2014-09-11T09:22:21Z</time>
      </trkpt>
      <trkpt lat="44.4798" lon="4.90081">
        <ele>409.49</ele>
        <time>2014-09-11T09:22:36Z</time>
      </trkpt>
      <trkpt lat="44.4798" lon="4.90079">
        <ele>409.34</ele>
        <time>2014-09-11T09:22:37Z</time>
      </trkpt>
      <trkpt lat="44.47981" lon="4.90076">
        <ele>409.27</ele>
        <time>2014-09-11T09:22:38Z</time>
      </trkpt>
      <trkpt lat="44.47982" lon="4.90074">
        <ele>409.23</ele>
        <time>2014-09-11T09:22:39Z</time>
      </trkpt>
      <trkpt lat="44.47984" lon="4.90072">
        <ele>409.31</ele>
        <time>2014-09-11T09:22:40Z</time>
      </trkpt>
      <trkpt lat="44.47986" lon="4.90067">
        <ele>409.59</ele>
        <time>2014-09-11T09:22:42Z</time>
      </trkpt>
      <trkpt lat="44.47988" lon="4.90064">
        <ele>409.86</ele>
        <time>2014-09-11T09:22:43Z</time>
      </trkpt>
      <trkpt lat="44.4799" lon="4.90062">
        <ele>410.1</ele>
        <time>2014-09-11T09:22:44Z</time>
      </trkpt>
      <trkpt lat="44.47991" lon="4.9006">
        <ele>410.28</ele>
        <time>2014-09-11T09:22:45Z</time>
      </trkpt>
      <trkpt lat="44.47993" lon="4.90057">
        <ele>410.38</ele>
        <time>2014-09-11T09:22:46Z</time>
      </trkpt>
      <trkpt lat="44.47994" lon="4.90055">
        <ele>410.45</ele>
        <time>2014-09-11T09:22:47Z</time>
      </trkpt>
      <trkpt lat="44.47996" lon="4.90052">
        <ele>410.46</ele>
        <time>2014-09-11T09:22:48Z</time>
      </trkpt>
      <trkpt lat="44.47998" lon="4.9005">
        <ele>410.46</ele>
        <time>2014-09-11T09:22:49Z</time>
      </trkpt>
      <trkpt lat="44.48002" lon="4.90045">
        <ele>410.75</ele>
        <time>2014-09-11T09:22:51Z</time>
      </trkpt>
      <trkpt lat="44.48004" lon="4.90043">
        <ele>410.92</ele>
        <time>2014-09-11T09:22:52Z</time>
      </trkpt>
      <trkpt lat="44.48006" lon="4.90042">
        <ele>411</ele>
        <time>2014-09-11T09:22:53Z</time>
      </trkpt>
      <trkpt lat="44.48009" lon="4.90038">
        <ele>411.11</ele>
        <time>2014-09-11T09:22:55Z</time>
      </trkpt>
      <trkpt lat="44.48011" lon="4.90036">
        <ele>411.3</ele>
        <time>2014-09-11T09:22:56Z</time>
      </trkpt>
      <trkpt lat="44.48013" lon="4.90034">
        <ele>411.39</ele>
        <time>2014-09-11T09:22:57Z</time>
      </trkpt>
      <trkpt lat="44.48015" lon="4.90032">
        <ele>411.44</ele>
        <time>2014-09-11T09:22:58Z</time>
      </trkpt>
      <trkpt lat="44.48016" lon="4.9003">
        <ele>411.67</ele>
        <time>2014-09-11T09:22:59Z</time>
      </trkpt>
      <trkpt lat="44.48019" lon="4.90026">
        <ele>413.09</ele>
        <time>2014-09-11T09:23:01Z</time>
      </trkpt>
      <trkpt lat="44.48021" lon="4.90023">
        <ele>413.72</ele>
        <time>2014-09-11T09:23:02Z</time>
      </trkpt>
      <trkpt lat="44.48022" lon="4.90021">
        <ele>414.02</ele>
        <time>2014-09-11T09:23:03Z</time>
      </trkpt>
      <trkpt lat="44.48024" lon="4.90019">
        <ele>414.3</ele>
        <time>2014-09-11T09:23:04Z</time>
      </trkpt>
      <trkpt lat="44.48027" lon="4.90015">
        <ele>414.3</ele>
        <time>2014-09-11T09:23:06Z</time>
      </trkpt>
      <trkpt lat="44.48028" lon="4.90013">
        <ele>414.28</ele>
        <time>2014-09-11T09:23:07Z</time>
      </trkpt>
      <trkpt lat="44.48029" lon="4.90011">
        <ele>414.17</ele>
        <time>2014-09-11T09:23:08Z</time>
      </trkpt>
      <trkpt lat="44.48031" lon="4.90008">
        <ele>414.02</ele>
        <time>2014-09-11T09:23:09Z</time>
      </trkpt>
      <trkpt lat="44.48033" lon="4.90006">
        <ele>413.79</ele>
        <time>2014-09-11T09:23:10Z</time>
      </trkpt>
      <trkpt lat="44.48038" lon="4.89999">
        <ele>413.81</ele>
        <time>2014-09-11T09:23:14Z</time>
      </trkpt>
      <trkpt lat="44.48039" lon="4.89997">
        <ele>413.87</ele>
        <time>2014-09-11T09:23:15Z</time>
      </trkpt>
      <trkpt lat="44.48042" lon="4.89992">
        <ele>413.98</ele>
        <time>2014-09-11T09:23:17Z</time>
      </trkpt>
      <trkpt lat="44.48043" lon="4.89989">
        <ele>414.02</ele>
        <time>2014-09-11T09:23:18Z</time>
      </trkpt>
      <trkpt lat="44.48044" lon="4.89987">
        <ele>414.07</ele>
        <time>2014-09-11T09:23:19Z</time>
      </trkpt>
      <trkpt lat="44.48045" lon="4.89985">
        <ele>414.14</ele>
        <time>2014-09-11T09:23:20Z</time>
      </trkpt>
      <trkpt lat="44.48046" lon="4.89983">
        <ele>414.33</ele>
        <time>2014-09-11T09:23:21Z</time>
      </trkpt>
      <trkpt lat="44.48048" lon="4.89981">
        <ele>414.53</ele>
        <time>2014-09-11T09:23:22Z</time>
      </trkpt>
      <trkpt lat="44.48049" lon="4.89979">
        <ele>414.69</ele>
        <time>2014-09-11T09:23:23Z</time>
      </trkpt>
      <trkpt lat="44.4805" lon="4.89977">
        <ele>414.84</ele>
        <time>2014-09-11T09:23:24Z</time>
      </trkpt>
      <trkpt lat="44.48052" lon="4.89976">
        <ele>415.14</ele>
        <time>2014-09-11T09:23:25Z</time>
      </trkpt>
      <trkpt lat="44.48055" lon="4.89972">
        <ele>415.39</ele>
        <time>2014-09-11T09:23:27Z</time>
      </trkpt>
      <trkpt lat="44.48056" lon="4.8997">
        <ele>415.64</ele>
        <time>2014-09-11T09:23:28Z</time>
      </trkpt>
      <trkpt lat="44.48056" lon="4.89968">
        <ele>415.76</ele>
        <time>2014-09-11T09:23:29Z</time>
      </trkpt>
      <trkpt lat="44.48058" lon="4.89966">
        <ele>415.83</ele>
        <time>2014-09-11T09:23:30Z</time>
      </trkpt>
      <trkpt lat="44.48059" lon="4.89965">
        <ele>415.85</ele>
        <time>2014-09-11T09:23:31Z</time>
      </trkpt>
      <trkpt lat="44.48061" lon="4.89961">
        <ele>415.73</ele>
        <time>2014-09-11T09:23:34Z</time>
      </trkpt>
      <trkpt lat="44.48062" lon="4.8996">
        <ele>415.85</ele>
        <time>2014-09-11T09:23:35Z</time>
      </trkpt>
      <trkpt lat="44.48064" lon="4.89959">
        <ele>415.9</ele>
        <time>2014-09-11T09:23:36Z</time>
      </trkpt>
      <trkpt lat="44.48065" lon="4.89957">
        <ele>416.04</ele>
        <time>2014-09-11T09:23:37Z</time>
      </trkpt>
      <trkpt lat="44.48071" lon="4.8995">
        <ele>416.15</ele>
        <time>2014-09-11T09:23:41Z</time>
      </trkpt>
      <trkpt lat="44.48072" lon="4.89948">
        <ele>416.29</ele>
        <time>2014-09-11T09:23:42Z</time>
      </trkpt>
      <trkpt lat="44.48073" lon="4.89946">
        <ele>416.36</ele>
        <time>2014-09-11T09:23:43Z</time>
      </trkpt>
      <trkpt lat="44.48075" lon="4.89944">
        <ele>416.53</ele>
        <time>2014-09-11T09:23:44Z</time>
      </trkpt>
      <trkpt lat="44.48076" lon="4.89942">
        <ele>416.68</ele>
        <time>2014-09-11T09:23:45Z</time>
      </trkpt>
      <trkpt lat="44.48078" lon="4.89938">
        <ele>416.79</ele>
        <time>2014-09-11T09:23:47Z</time>
      </trkpt>
      <trkpt lat="44.48079" lon="4.89936">
        <ele>416.88</ele>
        <time>2014-09-11T09:23:48Z</time>
      </trkpt>
      <trkpt lat="44.4808" lon="4.89935">
        <ele>416.98</ele>
        <time>2014-09-11T09:23:49Z</time>
      </trkpt>
      <trkpt lat="44.48081" lon="4.89933">
        <ele>416.97</ele>
        <time>2014-09-11T09:23:50Z</time>
      </trkpt>
      <trkpt lat="44.48083" lon="4.89932">
        <ele>416.97</ele>
        <time>2014-09-11T09:23:51Z</time>
      </trkpt>
      <trkpt lat="44.48098" lon="4.89911">
        <ele>417.82</ele>
        <time>2014-09-11T09:24:03Z</time>
      </trkpt>
      <trkpt lat="44.481" lon="4.8991">
        <ele>417.9</ele>
        <time>2014-09-11T09:24:04Z</time>
      </trkpt>
      <trkpt lat="44.48103" lon="4.89906">
        <ele>418.04</ele>
        <time>2014-09-11T09:24:06Z</time>
      </trkpt>
      <trkpt lat="44.48104" lon="4.89904">
        <ele>418.14</ele>
        <time>2014-09-11T09:24:07Z</time>
      </trkpt>
      <trkpt lat="44.48105" lon="4.89903">
        <ele>418.19</ele>
        <time>2014-09-11T09:24:08Z</time>
      </trkpt>
      <trkpt lat="44.48106" lon="4.89902">
        <ele>418.28</ele>
        <time>2014-09-11T09:24:09Z</time>
      </trkpt>
      <trkpt lat="44.48107" lon="4.899">
        <ele>418.41</ele>
        <time>2014-09-11T09:24:10Z</time>
      </trkpt>
      <trkpt lat="44.48109" lon="4.89898">
        <ele>418.51</ele>
        <time>2014-09-11T09:24:11Z</time>
      </trkpt>
      <trkpt lat="44.4811" lon="4.89896">
        <ele>418.7</ele>
        <time>2014-09-11T09:24:12Z</time>
      </trkpt>
      <trkpt lat="44.48111" lon="4.89894">
        <ele>418.89</ele>
        <time>2014-09-11T09:24:13Z</time>
      </trkpt>
      <trkpt lat="44.48113" lon="4.89891">
        <ele>419.05</ele>
        <time>2014-09-11T09:24:15Z</time>
      </trkpt>
      <trkpt lat="44.48116" lon="4.89886">
        <ele>419.32</ele>
        <time>2014-09-11T09:24:17Z</time>
      </trkpt>
      <trkpt lat="44.48122" lon="4.89876">
        <ele>419.51</ele>
        <time>2014-09-11T09:24:22Z</time>
      </trkpt>
      <trkpt lat="44.48123" lon="4.89874">
        <ele>419.46</ele>
        <time>2014-09-11T09:24:23Z</time>
      </trkpt>
      <trkpt lat="44.48124" lon="4.89873">
        <ele>419.6</ele>
        <time>2014-09-11T09:24:24Z</time>
      </trkpt>
      <trkpt lat="44.48125" lon="4.89871">
        <ele>419.83</ele>
        <time>2014-09-11T09:24:25Z</time>
      </trkpt>
      <trkpt lat="44.48127" lon="4.89869">
        <ele>420.02</ele>
        <time>2014-09-11T09:24:26Z</time>
      </trkpt>
      <trkpt lat="44.48128" lon="4.89867">
        <ele>420.17</ele>
        <time>2014-09-11T09:24:27Z</time>
      </trkpt>
      <trkpt lat="44.48129" lon="4.89866">
        <ele>420.26</ele>
        <time>2014-09-11T09:24:28Z</time>
      </trkpt>
      <trkpt lat="44.4813" lon="4.89864">
        <ele>420.3</ele>
        <time>2014-09-11T09:24:29Z</time>
      </trkpt>
      <trkpt lat="44.48131" lon="4.89862">
        <ele>420.31</ele>
        <time>2014-09-11T09:24:30Z</time>
      </trkpt>
      <trkpt lat="44.48132" lon="4.8986">
        <ele>420.32</ele>
        <time>2014-09-11T09:24:31Z</time>
      </trkpt>
      <trkpt lat="44.48133" lon="4.89858">
        <ele>420.33</ele>
        <time>2014-09-11T09:24:32Z</time>
      </trkpt>
      <trkpt lat="44.48134" lon="4.89856">
        <ele>420.37</ele>
        <time>2014-09-11T09:24:33Z</time>
      </trkpt>
      <trkpt lat="44.48135" lon="4.89854">
        <ele>420.35</ele>
        <time>2014-09-11T09:24:34Z</time>
      </trkpt>
      <trkpt lat="44.48136" lon="4.89852">
        <ele>420.54</ele>
        <time>2014-09-11T09:24:35Z</time>
      </trkpt>
      <trkpt lat="44.48137" lon="4.8985">
        <ele>420.9</ele>
        <time>2014-09-11T09:24:36Z</time>
      </trkpt>
      <trkpt lat="44.48138" lon="4.89848">
        <ele>421.25</ele>
        <time>2014-09-11T09:24:37Z</time>
      </trkpt>
      <trkpt lat="44.48139" lon="4.89846">
        <ele>421.42</ele>
        <time>2014-09-11T09:24:38Z</time>
      </trkpt>
      <trkpt lat="44.48139" lon="4.89844">
        <ele>421.56</ele>
        <time>2014-09-11T09:24:39Z</time>
      </trkpt>
      <trkpt lat="44.4814" lon="4.89842">
        <ele>421.64</ele>
        <time>2014-09-11T09:24:40Z</time>
      </trkpt>
      <trkpt lat="44.48141" lon="4.8984">
        <ele>421.78</ele>
        <time>2014-09-11T09:24:41Z</time>
      </trkpt>
      <trkpt lat="44.48142" lon="4.89837">
        <ele>421.95</ele>
        <time>2014-09-11T09:24:42Z</time>
      </trkpt>
      <trkpt lat="44.48143" lon="4.89835">
        <ele>422.13</ele>
        <time>2014-09-11T09:24:43Z</time>
      </trkpt>
      <trkpt lat="44.48144" lon="4.89833">
        <ele>422.13</ele>
        <time>2014-09-11T09:24:44Z</time>
      </trkpt>
      <trkpt lat="44.48145" lon="4.89831">
        <ele>422.23</ele>
        <time>2014-09-11T09:24:45Z</time>
      </trkpt>
      <trkpt lat="44.48145" lon="4.89829">
        <ele>422.4</ele>
        <time>2014-09-11T09:24:46Z</time>
      </trkpt>
      <trkpt lat="44.48146" lon="4.89827">
        <ele>422.56</ele>
        <time>2014-09-11T09:24:47Z</time>
      </trkpt>
      <trkpt lat="44.48147" lon="4.89824">
        <ele>422.65</ele>
        <time>2014-09-11T09:24:48Z</time>
      </trkpt>
      <trkpt lat="44.48147" lon="4.89822">
        <ele>422.75</ele>
        <time>2014-09-11T09:24:49Z</time>
      </trkpt>
      <trkpt lat="44.48148" lon="4.8982">
        <ele>422.73</ele>
        <time>2014-09-11T09:24:50Z</time>
      </trkpt>
      <trkpt lat="44.48149" lon="4.89817">
        <ele>422.79</ele>
        <time>2014-09-11T09:24:51Z</time>
      </trkpt>
      <trkpt lat="44.48152" lon="4.89807">
        <ele>422.76</ele>
        <time>2014-09-11T09:24:55Z</time>
      </trkpt>
      <trkpt lat="44.48153" lon="4.89801">
        <ele>422.63</ele>
        <time>2014-09-11T09:24:57Z</time>
      </trkpt>
      <trkpt lat="44.48153" lon="4.89799">
        <ele>422.46</ele>
        <time>2014-09-11T09:24:58Z</time>
      </trkpt>
      <trkpt lat="44.48154" lon="4.89796">
        <ele>422.38</ele>
        <time>2014-09-11T09:24:59Z</time>
      </trkpt>
      <trkpt lat="44.48155" lon="4.89791">
        <ele>422.38</ele>
        <time>2014-09-11T09:25:01Z</time>
      </trkpt>
      <trkpt lat="44.48155" lon="4.89788">
        <ele>422.41</ele>
        <time>2014-09-11T09:25:02Z</time>
      </trkpt>
      <trkpt lat="44.48156" lon="4.89786">
        <ele>422.51</ele>
        <time>2014-09-11T09:25:03Z</time>
      </trkpt>
      <trkpt lat="44.48157" lon="4.89783">
        <ele>422.62</ele>
        <time>2014-09-11T09:25:04Z</time>
      </trkpt>
      <trkpt lat="44.48158" lon="4.89781">
        <ele>422.87</ele>
        <time>2014-09-11T09:25:05Z</time>
      </trkpt>
      <trkpt lat="44.48159" lon="4.89778">
        <ele>423.1</ele>
        <time>2014-09-11T09:25:06Z</time>
      </trkpt>
      <trkpt lat="44.4816" lon="4.89776">
        <ele>423.21</ele>
        <time>2014-09-11T09:25:07Z</time>
      </trkpt>
      <trkpt lat="44.48161" lon="4.8977">
        <ele>423.38</ele>
        <time>2014-09-11T09:25:09Z</time>
      </trkpt>
      <trkpt lat="44.48163" lon="4.89765">
        <ele>423.69</ele>
        <time>2014-09-11T09:25:11Z</time>
      </trkpt>
      <trkpt lat="44.48165" lon="4.89759">
        <ele>423.81</ele>
        <time>2014-09-11T09:25:13Z</time>
      </trkpt>
      <trkpt lat="44.48165" lon="4.89756">
        <ele>423.9</ele>
        <time>2014-09-11T09:25:14Z</time>
      </trkpt>
      <trkpt lat="44.48166" lon="4.89754">
        <ele>423.94</ele>
        <time>2014-09-11T09:25:15Z</time>
      </trkpt>
      <trkpt lat="44.48167" lon="4.89752">
        <ele>423.97</ele>
        <time>2014-09-11T09:25:16Z</time>
      </trkpt>
      <trkpt lat="44.48169" lon="4.89746">
        <ele>423.93</ele>
        <time>2014-09-11T09:25:18Z</time>
      </trkpt>
      <trkpt lat="44.48173" lon="4.89735">
        <ele>423.87</ele>
        <time>2014-09-11T09:25:22Z</time>
      </trkpt>
      <trkpt lat="44.48174" lon="4.89733">
        <ele>423.99</ele>
        <time>2014-09-11T09:25:23Z</time>
      </trkpt>
      <trkpt lat="44.48175" lon="4.8973">
        <ele>424.08</ele>
        <time>2014-09-11T09:25:24Z</time>
      </trkpt>
      <trkpt lat="44.48175" lon="4.89727">
        <ele>424.2</ele>
        <time>2014-09-11T09:25:25Z</time>
      </trkpt>
      <trkpt lat="44.48176" lon="4.89725">
        <ele>424.33</ele>
        <time>2014-09-11T09:25:26Z</time>
      </trkpt>
      <trkpt lat="44.48178" lon="4.89717">
        <ele>424.77</ele>
        <time>2014-09-11T09:25:29Z</time>
      </trkpt>
      <trkpt lat="44.48179" lon="4.89715">
        <ele>424.94</ele>
        <time>2014-09-11T09:25:30Z</time>
      </trkpt>
      <trkpt lat="44.48179" lon="4.89712">
        <ele>425.1</ele>
        <time>2014-09-11T09:25:31Z</time>
      </trkpt>
      <trkpt lat="44.48182" lon="4.89702">
        <ele>425.83</ele>
        <time>2014-09-11T09:25:35Z</time>
      </trkpt>
      <trkpt lat="44.48183" lon="4.89699">
        <ele>425.92</ele>
        <time>2014-09-11T09:25:36Z</time>
      </trkpt>
      <trkpt lat="44.48183" lon="4.89697">
        <ele>426.08</ele>
        <time>2014-09-11T09:25:37Z</time>
      </trkpt>
      <trkpt lat="44.48183" lon="4.89694">
        <ele>426.26</ele>
        <time>2014-09-11T09:25:38Z</time>
      </trkpt>
      <trkpt lat="44.48183" lon="4.8969">
        <ele>426.24</ele>
        <time>2014-09-11T09:25:39Z</time>
      </trkpt>
      <trkpt lat="44.48184" lon="4.89687">
        <ele>426.33</ele>
        <time>2014-09-11T09:25:40Z</time>
      </trkpt>
      <trkpt lat="44.48184" lon="4.89685">
        <ele>426.38</ele>
        <time>2014-09-11T09:25:41Z</time>
      </trkpt>
      <trkpt lat="44.48184" lon="4.89682">
        <ele>426.45</ele>
        <time>2014-09-11T09:25:42Z</time>
      </trkpt>
      <trkpt lat="44.48185" lon="4.89679">
        <ele>426.59</ele>
        <time>2014-09-11T09:25:43Z</time>
      </trkpt>
      <trkpt lat="44.48187" lon="4.8967">
        <ele>427.11</ele>
        <time>2014-09-11T09:25:46Z</time>
      </trkpt>
      <trkpt lat="44.4819" lon="4.89655">
        <ele>427.56</ele>
        <time>2014-09-11T09:25:51Z</time>
      </trkpt>
      <trkpt lat="44.4819" lon="4.89653">
        <ele>427.64</ele>
        <time>2014-09-11T09:25:52Z</time>
      </trkpt>
      <trkpt lat="44.48191" lon="4.8965">
        <ele>427.72</ele>
        <time>2014-09-11T09:25:53Z</time>
      </trkpt>
      <trkpt lat="44.48191" lon="4.89646">
        <ele>427.8</ele>
        <time>2014-09-11T09:25:54Z</time>
      </trkpt>
      <trkpt lat="44.48191" lon="4.89642">
        <ele>427.84</ele>
        <time>2014-09-11T09:25:55Z</time>
      </trkpt>
      <trkpt lat="44.48192" lon="4.89639">
        <ele>428.04</ele>
        <time>2014-09-11T09:25:56Z</time>
      </trkpt>
      <trkpt lat="44.48193" lon="4.89635">
        <ele>428.14</ele>
        <time>2014-09-11T09:25:57Z</time>
      </trkpt>
      <trkpt lat="44.48193" lon="4.89632">
        <ele>428.2</ele>
        <time>2014-09-11T09:25:58Z</time>
      </trkpt>
      <trkpt lat="44.48194" lon="4.89629">
        <ele>428.29</ele>
        <time>2014-09-11T09:25:59Z</time>
      </trkpt>
      <trkpt lat="44.48195" lon="4.89626">
        <ele>428.38</ele>
        <time>2014-09-11T09:26:00Z</time>
      </trkpt>
      <trkpt lat="44.48196" lon="4.89623">
        <ele>428.55</ele>
        <time>2014-09-11T09:26:01Z</time>
      </trkpt>
      <trkpt lat="44.48198" lon="4.89616">
        <ele>428.93</ele>
        <time>2014-09-11T09:26:03Z</time>
      </trkpt>
      <trkpt lat="44.48199" lon="4.89613">
        <ele>429.13</ele>
        <time>2014-09-11T09:26:04Z</time>
      </trkpt>
      <trkpt lat="44.482" lon="4.89609">
        <ele>429.23</ele>
        <time>2014-09-11T09:26:05Z</time>
      </trkpt>
      <trkpt lat="44.48201" lon="4.89606">
        <ele>429.26</ele>
        <time>2014-09-11T09:26:06Z</time>
      </trkpt>
      <trkpt lat="44.48202" lon="4.89603">
        <ele>429.28</ele>
        <time>2014-09-11T09:26:07Z</time>
      </trkpt>
      <trkpt lat="44.48202" lon="4.896">
        <ele>429.2</ele>
        <time>2014-09-11T09:26:08Z</time>
      </trkpt>
      <trkpt lat="44.48202" lon="4.89597">
        <ele>429.17</ele>
        <time>2014-09-11T09:26:09Z</time>
      </trkpt>
      <trkpt lat="44.48203" lon="4.89594">
        <ele>429.15</ele>
        <time>2014-09-11T09:26:10Z</time>
      </trkpt>
      <trkpt lat="44.48204" lon="4.8959">
        <ele>429.18</ele>
        <time>2014-09-11T09:26:11Z</time>
      </trkpt>
      <trkpt lat="44.48205" lon="4.89586">
        <ele>429.3</ele>
        <time>2014-09-11T09:26:12Z</time>
      </trkpt>
      <trkpt lat="44.48206" lon="4.89583">
        <ele>429.49</ele>
        <time>2014-09-11T09:26:13Z</time>
      </trkpt>
      <trkpt lat="44.48208" lon="4.89578">
        <ele>429.86</ele>
        <time>2014-09-11T09:26:15Z</time>
      </trkpt>
      <trkpt lat="44.48209" lon="4.89575">
        <ele>430.03</ele>
        <time>2014-09-11T09:26:16Z</time>
      </trkpt>
      <trkpt lat="44.4821" lon="4.89571">
        <ele>430.17</ele>
        <time>2014-09-11T09:26:18Z</time>
      </trkpt>
      <trkpt lat="44.48211" lon="4.89568">
        <ele>430.18</ele>
        <time>2014-09-11T09:26:19Z</time>
      </trkpt>
      <trkpt lat="44.48212" lon="4.89564">
        <ele>430.18</ele>
        <time>2014-09-11T09:26:20Z</time>
      </trkpt>
      <trkpt lat="44.48214" lon="4.89558">
        <ele>430.16</ele>
        <time>2014-09-11T09:26:22Z</time>
      </trkpt>
      <trkpt lat="44.48215" lon="4.89555">
        <ele>430.16</ele>
        <time>2014-09-11T09:26:23Z</time>
      </trkpt>
      <trkpt lat="44.48217" lon="4.89549">
        <ele>430.15</ele>
        <time>2014-09-11T09:26:25Z</time>
      </trkpt>
      <trkpt lat="44.48218" lon="4.89546">
        <ele>430.17</ele>
        <time>2014-09-11T09:26:26Z</time>
      </trkpt>
      <trkpt lat="44.48218" lon="4.89543">
        <ele>430.22</ele>
        <time>2014-09-11T09:26:27Z</time>
      </trkpt>
      <trkpt lat="44.48219" lon="4.8954">
        <ele>430.25</ele>
        <time>2014-09-11T09:26:28Z</time>
      </trkpt>
      <trkpt lat="44.4822" lon="4.89534">
        <ele>430.38</ele>
        <time>2014-09-11T09:26:30Z</time>
      </trkpt>
      <trkpt lat="44.48222" lon="4.89531">
        <ele>430.48</ele>
        <time>2014-09-11T09:26:31Z</time>
      </trkpt>
      <trkpt lat="44.48222" lon="4.89529">
        <ele>430.53</ele>
        <time>2014-09-11T09:26:32Z</time>
      </trkpt>
      <trkpt lat="44.48224" lon="4.89525">
        <ele>430.56</ele>
        <time>2014-09-11T09:26:33Z</time>
      </trkpt>
      <trkpt lat="44.48225" lon="4.89522">
        <ele>430.61</ele>
        <time>2014-09-11T09:26:34Z</time>
      </trkpt>
      <trkpt lat="44.48225" lon="4.89519">
        <ele>430.72</ele>
        <time>2014-09-11T09:26:35Z</time>
      </trkpt>
      <trkpt lat="44.48226" lon="4.89516">
        <ele>430.81</ele>
        <time>2014-09-11T09:26:36Z</time>
      </trkpt>
      <trkpt lat="44.48227" lon="4.89511">
        <ele>430.92</ele>
        <time>2014-09-11T09:26:37Z</time>
      </trkpt>
      <trkpt lat="44.48229" lon="4.89503">
        <ele>431.18</ele>
        <time>2014-09-11T09:26:39Z</time>
      </trkpt>
      <trkpt lat="44.4823" lon="4.89499">
        <ele>431.36</ele>
        <time>2014-09-11T09:26:40Z</time>
      </trkpt>
      <trkpt lat="44.48231" lon="4.89495">
        <ele>431.59</ele>
        <time>2014-09-11T09:26:41Z</time>
      </trkpt>
      <trkpt lat="44.48232" lon="4.8949">
        <ele>431.8</ele>
        <time>2014-09-11T09:26:42Z</time>
      </trkpt>
      <trkpt lat="44.48233" lon="4.89486">
        <ele>431.91</ele>
        <time>2014-09-11T09:26:43Z</time>
      </trkpt>
      <trkpt lat="44.48234" lon="4.89481">
        <ele>431.89</ele>
        <time>2014-09-11T09:26:44Z</time>
      </trkpt>
      <trkpt lat="44.48235" lon="4.89478">
        <ele>431.78</ele>
        <time>2014-09-11T09:26:45Z</time>
      </trkpt>
      <trkpt lat="44.48237" lon="4.89473">
        <ele>431.71</ele>
        <time>2014-09-11T09:26:46Z</time>
      </trkpt>
      <trkpt lat="44.48238" lon="4.89468">
        <ele>431.67</ele>
        <time>2014-09-11T09:26:47Z</time>
      </trkpt>
      <trkpt lat="44.48239" lon="4.89464">
        <ele>431.65</ele>
        <time>2014-09-11T09:26:48Z</time>
      </trkpt>
      <trkpt lat="44.48241" lon="4.8946">
        <ele>431.66</ele>
        <time>2014-09-11T09:26:49Z</time>
      </trkpt>
      <trkpt lat="44.48242" lon="4.89457">
        <ele>431.97</ele>
        <time>2014-09-11T09:26:50Z</time>
      </trkpt>
      <trkpt lat="44.48243" lon="4.89454">
        <ele>432.36</ele>
        <time>2014-09-11T09:26:51Z</time>
      </trkpt>
      <trkpt lat="44.48243" lon="4.8945">
        <ele>432.55</ele>
        <time>2014-09-11T09:26:52Z</time>
      </trkpt>
      <trkpt lat="44.48245" lon="4.89446">
        <ele>432.69</ele>
        <time>2014-09-11T09:26:53Z</time>
      </trkpt>
      <trkpt lat="44.48247" lon="4.89441">
        <ele>432.77</ele>
        <time>2014-09-11T09:26:54Z</time>
      </trkpt>
      <trkpt lat="44.48248" lon="4.89437">
        <ele>432.81</ele>
        <time>2014-09-11T09:26:55Z</time>
      </trkpt>
      <trkpt lat="44.4825" lon="4.89434">
        <ele>432.81</ele>
        <time>2014-09-11T09:26:56Z</time>
      </trkpt>
      <trkpt lat="44.48252" lon="4.89431">
        <ele>432.72</ele>
        <time>2014-09-11T09:26:57Z</time>
      </trkpt>
      <trkpt lat="44.48253" lon="4.89427">
        <ele>432.67</ele>
        <time>2014-09-11T09:26:58Z</time>
      </trkpt>
      <trkpt lat="44.48255" lon="4.89423">
        <ele>432.62</ele>
        <time>2014-09-11T09:26:59Z</time>
      </trkpt>
      <trkpt lat="44.48256" lon="4.89419">
        <ele>432.72</ele>
        <time>2014-09-11T09:27:00Z</time>
      </trkpt>
      <trkpt lat="44.48257" lon="4.89414">
        <ele>432.74</ele>
        <time>2014-09-11T09:27:01Z</time>
      </trkpt>
      <trkpt lat="44.48258" lon="4.8941">
        <ele>432.72</ele>
        <time>2014-09-11T09:27:02Z</time>
      </trkpt>
      <trkpt lat="44.4826" lon="4.89406">
        <ele>432.72</ele>
        <time>2014-09-11T09:27:03Z</time>
      </trkpt>
      <trkpt lat="44.48262" lon="4.89402">
        <ele>432.79</ele>
        <time>2014-09-11T09:27:04Z</time>
      </trkpt>
      <trkpt lat="44.48273" lon="4.8936">
        <ele>432.16</ele>
        <time>2014-09-11T09:27:13Z</time>
      </trkpt>
      <trkpt lat="44.48279" lon="4.89338">
        <ele>432.78</ele>
        <time>2014-09-11T09:27:17Z</time>
      </trkpt>
      <trkpt lat="44.48281" lon="4.89333">
        <ele>432.96</ele>
        <time>2014-09-11T09:27:18Z</time>
      </trkpt>
      <trkpt lat="44.48283" lon="4.89327">
        <ele>433.04</ele>
        <time>2014-09-11T09:27:19Z</time>
      </trkpt>
      <trkpt lat="44.48285" lon="4.89322">
        <ele>433.09</ele>
        <time>2014-09-11T09:27:20Z</time>
      </trkpt>
      <trkpt lat="44.48287" lon="4.89318">
        <ele>433.12</ele>
        <time>2014-09-11T09:27:21Z</time>
      </trkpt>
      <trkpt lat="44.48288" lon="4.89313">
        <ele>433.17</ele>
        <time>2014-09-11T09:27:22Z</time>
      </trkpt>
      <trkpt lat="44.48292" lon="4.89307">
        <ele>433.17</ele>
        <time>2014-09-11T09:27:24Z</time>
      </trkpt>
      <trkpt lat="44.48293" lon="4.89303">
        <ele>433.2</ele>
        <time>2014-09-11T09:27:25Z</time>
      </trkpt>
      <trkpt lat="44.48294" lon="4.89301">
        <ele>433.26</ele>
        <time>2014-09-11T09:27:26Z</time>
      </trkpt>
      <trkpt lat="44.48295" lon="4.89298">
        <ele>433.37</ele>
        <time>2014-09-11T09:27:27Z</time>
      </trkpt>
      <trkpt lat="44.48297" lon="4.89293">
        <ele>434.11</ele>
        <time>2014-09-11T09:27:40Z</time>
      </trkpt>
      <trkpt lat="44.48297" lon="4.89287">
        <ele>433.67</ele>
        <time>2014-09-11T09:28:10Z</time>
      </trkpt>
      <trkpt lat="44.48301" lon="4.89277">
        <ele>433.35</ele>
        <time>2014-09-11T09:28:20Z</time>
      </trkpt>
      <trkpt lat="44.48302" lon="4.89275">
        <ele>433.18</ele>
        <time>2014-09-11T09:28:38Z</time>
      </trkpt>
      <trkpt lat="44.48302" lon="4.89274">
        <ele>433.14</ele>
        <time>2014-09-11T09:28:39Z</time>
      </trkpt>
      <trkpt lat="44.48303" lon="4.89272">
        <ele>433.12</ele>
        <time>2014-09-11T09:28:40Z</time>
      </trkpt>
      <trkpt lat="44.48304" lon="4.89267">
        <ele>433.88</ele>
        <time>2014-09-11T09:28:54Z</time>
      </trkpt>
      <trkpt lat="44.48305" lon="4.89266">
        <ele>434.26</ele>
        <time>2014-09-11T09:29:26Z</time>
      </trkpt>
      <trkpt lat="44.48306" lon="4.89266">
        <ele>433.21</ele>
        <time>2014-09-11T09:29:48Z</time>
      </trkpt>
      <trkpt lat="44.48305" lon="4.89265">
        <ele>433.79</ele>
        <time>2014-09-11T09:30:23Z</time>
      </trkpt>
      <trkpt lat="44.48305" lon="4.89263">
        <ele>433.86</ele>
        <time>2014-09-11T09:30:56Z</time>
      </trkpt>
      <trkpt lat="44.48305" lon="4.89264">
        <ele>434.02</ele>
        <time>2014-09-11T09:31:50Z</time>
      </trkpt>
      <trkpt lat="44.48305" lon="4.89267">
        <ele>433.26</ele>
        <time>2014-09-11T09:32:28Z</time>
      </trkpt>
      <trkpt lat="44.48304" lon="4.89268">
        <ele>434.25</ele>
        <time>2014-09-11T09:33:26Z</time>
      </trkpt>
      <trkpt lat="44.48305" lon="4.89259">
        <ele>434.25</ele>
        <time>2014-09-11T09:33:34Z</time>
      </trkpt>
      <trkpt lat="44.48306" lon="4.89257">
        <ele>434.26</ele>
        <time>2014-09-11T09:33:35Z</time>
      </trkpt>
      <trkpt lat="44.48307" lon="4.89254">
        <ele>434.14</ele>
        <time>2014-09-11T09:33:36Z</time>
      </trkpt>
      <trkpt lat="44.48308" lon="4.8925">
        <ele>434.05</ele>
        <time>2014-09-11T09:33:37Z</time>
      </trkpt>
      <trkpt lat="44.48308" lon="4.89247">
        <ele>433.94</ele>
        <time>2014-09-11T09:33:38Z</time>
      </trkpt>
      <trkpt lat="44.48309" lon="4.89243">
        <ele>433.96</ele>
        <time>2014-09-11T09:33:39Z</time>
      </trkpt>
      <trkpt lat="44.4831" lon="4.89239">
        <ele>434.03</ele>
        <time>2014-09-11T09:33:40Z</time>
      </trkpt>
      <trkpt lat="44.48312" lon="4.89235">
        <ele>434.13</ele>
        <time>2014-09-11T09:33:41Z</time>
      </trkpt>
      <trkpt lat="44.48313" lon="4.89231">
        <ele>434.14</ele>
        <time>2014-09-11T09:33:42Z</time>
      </trkpt>
      <trkpt lat="44.48314" lon="4.89226">
        <ele>434.27</ele>
        <time>2014-09-11T09:33:43Z</time>
      </trkpt>
      <trkpt lat="44.48315" lon="4.89222">
        <ele>434.34</ele>
        <time>2014-09-11T09:33:44Z</time>
      </trkpt>
      <trkpt lat="44.48316" lon="4.89218">
        <ele>434.37</ele>
        <time>2014-09-11T09:33:45Z</time>
      </trkpt>
      <trkpt lat="44.48318" lon="4.89213">
        <ele>434.27</ele>
        <time>2014-09-11T09:33:46Z</time>
      </trkpt>
      <trkpt lat="44.4832" lon="4.89209">
        <ele>434.21</ele>
        <time>2014-09-11T09:33:47Z</time>
      </trkpt>
      <trkpt lat="44.48321" lon="4.89204">
        <ele>434.11</ele>
        <time>2014-09-11T09:33:48Z</time>
      </trkpt>
      <trkpt lat="44.48327" lon="4.89186">
        <ele>434.13</ele>
        <time>2014-09-11T09:33:52Z</time>
      </trkpt>
      <trkpt lat="44.48328" lon="4.89181">
        <ele>434.25</ele>
        <time>2014-09-11T09:33:53Z</time>
      </trkpt>
      <trkpt lat="44.4833" lon="4.89176">
        <ele>434.32</ele>
        <time>2014-09-11T09:33:54Z</time>
      </trkpt>
      <trkpt lat="44.48331" lon="4.89172">
        <ele>434.45</ele>
        <time>2014-09-11T09:33:55Z</time>
      </trkpt>
      <trkpt lat="44.48333" lon="4.89167">
        <ele>434.65</ele>
        <time>2014-09-11T09:33:56Z</time>
      </trkpt>
      <trkpt lat="44.48334" lon="4.89162">
        <ele>434.84</ele>
        <time>2014-09-11T09:33:57Z</time>
      </trkpt>
      <trkpt lat="44.48336" lon="4.89158">
        <ele>435.01</ele>
        <time>2014-09-11T09:33:58Z</time>
      </trkpt>
      <trkpt lat="44.48337" lon="4.89153">
        <ele>435.03</ele>
        <time>2014-09-11T09:33:59Z</time>
      </trkpt>
      <trkpt lat="44.48338" lon="4.89148">
        <ele>435.05</ele>
        <time>2014-09-11T09:34:00Z</time>
      </trkpt>
      <trkpt lat="44.48339" lon="4.89143">
        <ele>435.06</ele>
        <time>2014-09-11T09:34:01Z</time>
      </trkpt>
      <trkpt lat="44.48341" lon="4.89138">
        <ele>435.07</ele>
        <time>2014-09-11T09:34:02Z</time>
      </trkpt>
      <trkpt lat="44.48342" lon="4.89133">
        <ele>435.07</ele>
        <time>2014-09-11T09:34:03Z</time>
      </trkpt>
      <trkpt lat="44.48343" lon="4.89128">
        <ele>435.07</ele>
        <time>2014-09-11T09:34:04Z</time>
      </trkpt>
      <trkpt lat="44.48344" lon="4.89122">
        <ele>435.07</ele>
        <time>2014-09-11T09:34:05Z</time>
      </trkpt>
      <trkpt lat="44.4835" lon="4.89102">
        <ele>435.19</ele>
        <time>2014-09-11T09:34:09Z</time>
      </trkpt>
      <trkpt lat="44.48352" lon="4.89096">
        <ele>435.17</ele>
        <time>2014-09-11T09:34:10Z</time>
      </trkpt>
      <trkpt lat="44.48355" lon="4.89085">
        <ele>435.1</ele>
        <time>2014-09-11T09:34:12Z</time>
      </trkpt>
      <trkpt lat="44.48363" lon="4.89057">
        <ele>434.95</ele>
        <time>2014-09-11T09:34:17Z</time>
      </trkpt>
      <trkpt lat="44.48364" lon="4.89051">
        <ele>434.98</ele>
        <time>2014-09-11T09:34:18Z</time>
      </trkpt>
      <trkpt lat="44.48367" lon="4.8904">
        <ele>434.99</ele>
        <time>2014-09-11T09:34:20Z</time>
      </trkpt>
      <trkpt lat="44.48377" lon="4.89007">
        <ele>435.25</ele>
        <time>2014-09-11T09:34:26Z</time>
      </trkpt>
      <trkpt lat="44.48378" lon="4.89002">
        <ele>435.24</ele>
        <time>2014-09-11T09:34:27Z</time>
      </trkpt>
      <trkpt lat="44.4838" lon="4.88997">
        <ele>435.24</ele>
        <time>2014-09-11T09:34:28Z</time>
      </trkpt>
      <trkpt lat="44.48381" lon="4.88991">
        <ele>435.41</ele>
        <time>2014-09-11T09:34:29Z</time>
      </trkpt>
      <trkpt lat="44.48383" lon="4.88986">
        <ele>435.64</ele>
        <time>2014-09-11T09:34:30Z</time>
      </trkpt>
      <trkpt lat="44.48385" lon="4.8898">
        <ele>435.81</ele>
        <time>2014-09-11T09:34:31Z</time>
      </trkpt>
      <trkpt lat="44.48386" lon="4.88974">
        <ele>435.91</ele>
        <time>2014-09-11T09:34:32Z</time>
      </trkpt>
      <trkpt lat="44.48396" lon="4.88933">
        <ele>435.87</ele>
        <time>2014-09-11T09:34:39Z</time>
      </trkpt>
      <trkpt lat="44.48398" lon="4.88928">
        <ele>435.84</ele>
        <time>2014-09-11T09:34:40Z</time>
      </trkpt>
      <trkpt lat="44.48418" lon="4.88848">
        <ele>435.38</ele>
        <time>2014-09-11T09:34:54Z</time>
      </trkpt>
      <trkpt lat="44.48434" lon="4.88799">
        <ele>435.05</ele>
        <time>2014-09-11T09:35:03Z</time>
      </trkpt>
      <trkpt lat="44.48452" lon="4.88731">
        <ele>435.48</ele>
        <time>2014-09-11T09:35:15Z</time>
      </trkpt>
      <trkpt lat="44.48457" lon="4.88714">
        <ele>435.77</ele>
        <time>2014-09-11T09:35:18Z</time>
      </trkpt>
      <trkpt lat="44.48458" lon="4.88708">
        <ele>435.88</ele>
        <time>2014-09-11T09:35:19Z</time>
      </trkpt>
      <trkpt lat="44.4846" lon="4.88703">
        <ele>435.97</ele>
        <time>2014-09-11T09:35:20Z</time>
      </trkpt>
      <trkpt lat="44.48462" lon="4.88697">
        <ele>436.15</ele>
        <time>2014-09-11T09:35:21Z</time>
      </trkpt>
      <trkpt lat="44.48464" lon="4.88692">
        <ele>436.24</ele>
        <time>2014-09-11T09:35:22Z</time>
      </trkpt>
      <trkpt lat="44.48479" lon="4.88631">
        <ele>436.48</ele>
        <time>2014-09-11T09:35:33Z</time>
      </trkpt>
      <trkpt lat="44.48495" lon="4.88577">
        <ele>437.07</ele>
        <time>2014-09-11T09:35:43Z</time>
      </trkpt>
      <trkpt lat="44.48497" lon="4.88572">
        <ele>437.06</ele>
        <time>2014-09-11T09:35:44Z</time>
      </trkpt>
      <trkpt lat="44.48506" lon="4.88536">
        <ele>436.9</ele>
        <time>2014-09-11T09:35:53Z</time>
      </trkpt>
      <trkpt lat="44.48507" lon="4.88532">
        <ele>436.65</ele>
        <time>2014-09-11T09:35:55Z</time>
      </trkpt>
      <trkpt lat="44.48508" lon="4.88528">
        <ele>436.57</ele>
        <time>2014-09-11T09:35:57Z</time>
      </trkpt>
      <trkpt lat="44.48508" lon="4.88526">
        <ele>436.46</ele>
        <time>2014-09-11T09:35:58Z</time>
      </trkpt>
      <trkpt lat="44.48509" lon="4.88523">
        <ele>436.37</ele>
        <time>2014-09-11T09:35:59Z</time>
      </trkpt>
      <trkpt lat="44.4851" lon="4.88521">
        <ele>436.27</ele>
        <time>2014-09-11T09:36:00Z</time>
      </trkpt>
      <trkpt lat="44.48511" lon="4.88518">
        <ele>436.15</ele>
        <time>2014-09-11T09:36:01Z</time>
      </trkpt>
      <trkpt lat="44.48512" lon="4.88514">
        <ele>436.09</ele>
        <time>2014-09-11T09:36:02Z</time>
      </trkpt>
      <trkpt lat="44.48513" lon="4.88511">
        <ele>436.06</ele>
        <time>2014-09-11T09:36:03Z</time>
      </trkpt>
      <trkpt lat="44.48514" lon="4.88508">
        <ele>435.95</ele>
        <time>2014-09-11T09:36:04Z</time>
      </trkpt>
      <trkpt lat="44.48515" lon="4.88506">
        <ele>435.91</ele>
        <time>2014-09-11T09:36:05Z</time>
      </trkpt>
      <trkpt lat="44.48516" lon="4.88503">
        <ele>435.88</ele>
        <time>2014-09-11T09:36:06Z</time>
      </trkpt>
      <trkpt lat="44.48517" lon="4.885">
        <ele>435.97</ele>
        <time>2014-09-11T09:36:07Z</time>
      </trkpt>
      <trkpt lat="44.48518" lon="4.88497">
        <ele>436.08</ele>
        <time>2014-09-11T09:36:08Z</time>
      </trkpt>
      <trkpt lat="44.4852" lon="4.88493">
        <ele>436.14</ele>
        <time>2014-09-11T09:36:09Z</time>
      </trkpt>
      <trkpt lat="44.48521" lon="4.8849">
        <ele>436.23</ele>
        <time>2014-09-11T09:36:10Z</time>
      </trkpt>
      <trkpt lat="44.48523" lon="4.88487">
        <ele>436.35</ele>
        <time>2014-09-11T09:36:11Z</time>
      </trkpt>
      <trkpt lat="44.48524" lon="4.88484">
        <ele>436.54</ele>
        <time>2014-09-11T09:36:12Z</time>
      </trkpt>
      <trkpt lat="44.48526" lon="4.88482">
        <ele>436.8</ele>
        <time>2014-09-11T09:36:13Z</time>
      </trkpt>
      <trkpt lat="44.48527" lon="4.88479">
        <ele>436.96</ele>
        <time>2014-09-11T09:36:14Z</time>
      </trkpt>
      <trkpt lat="44.48529" lon="4.88477">
        <ele>436.94</ele>
        <time>2014-09-11T09:36:15Z</time>
      </trkpt>
      <trkpt lat="44.4853" lon="4.88474">
        <ele>436.94</ele>
        <time>2014-09-11T09:36:16Z</time>
      </trkpt>
      <trkpt lat="44.48532" lon="4.88471">
        <ele>436.94</ele>
        <time>2014-09-11T09:36:17Z</time>
      </trkpt>
      <trkpt lat="44.48534" lon="4.88469">
        <ele>436.94</ele>
        <time>2014-09-11T09:36:18Z</time>
      </trkpt>
      <trkpt lat="44.48536" lon="4.88466">
        <ele>436.74</ele>
        <time>2014-09-11T09:36:19Z</time>
      </trkpt>
      <trkpt lat="44.48537" lon="4.88463">
        <ele>436.61</ele>
        <time>2014-09-11T09:36:20Z</time>
      </trkpt>
      <trkpt lat="44.48538" lon="4.88461">
        <ele>436.31</ele>
        <time>2014-09-11T09:36:21Z</time>
      </trkpt>
      <trkpt lat="44.48541" lon="4.88455">
        <ele>435.85</ele>
        <time>2014-09-11T09:36:23Z</time>
      </trkpt>
      <trkpt lat="44.48542" lon="4.88452">
        <ele>435.74</ele>
        <time>2014-09-11T09:36:24Z</time>
      </trkpt>
      <trkpt lat="44.48544" lon="4.88449">
        <ele>435.68</ele>
        <time>2014-09-11T09:36:25Z</time>
      </trkpt>
      <trkpt lat="44.48546" lon="4.88446">
        <ele>435.76</ele>
        <time>2014-09-11T09:36:26Z</time>
      </trkpt>
      <trkpt lat="44.48547" lon="4.88443">
        <ele>435.79</ele>
        <time>2014-09-11T09:36:27Z</time>
      </trkpt>
      <trkpt lat="44.48549" lon="4.88439">
        <ele>435.94</ele>
        <time>2014-09-11T09:36:28Z</time>
      </trkpt>
      <trkpt lat="44.4855" lon="4.88436">
        <ele>436.02</ele>
        <time>2014-09-11T09:36:29Z</time>
      </trkpt>
      <trkpt lat="44.48552" lon="4.88434">
        <ele>435.96</ele>
        <time>2014-09-11T09:36:30Z</time>
      </trkpt>
      <trkpt lat="44.48554" lon="4.88431">
        <ele>436.1</ele>
        <time>2014-09-11T09:36:31Z</time>
      </trkpt>
      <trkpt lat="44.48556" lon="4.88428">
        <ele>436.27</ele>
        <time>2014-09-11T09:36:32Z</time>
      </trkpt>
      <trkpt lat="44.48557" lon="4.88426">
        <ele>436.35</ele>
        <time>2014-09-11T09:36:33Z</time>
      </trkpt>
      <trkpt lat="44.48559" lon="4.88422">
        <ele>436.26</ele>
        <time>2014-09-11T09:36:34Z</time>
      </trkpt>
      <trkpt lat="44.48561" lon="4.88419">
        <ele>436.15</ele>
        <time>2014-09-11T09:36:35Z</time>
      </trkpt>
      <trkpt lat="44.48572" lon="4.88402">
        <ele>436.01</ele>
        <time>2014-09-11T09:36:41Z</time>
      </trkpt>
      <trkpt lat="44.48574" lon="4.884">
        <ele>436.01</ele>
        <time>2014-09-11T09:36:42Z</time>
      </trkpt>
      <trkpt lat="44.48576" lon="4.88398">
        <ele>435.97</ele>
        <time>2014-09-11T09:36:43Z</time>
      </trkpt>
      <trkpt lat="44.48578" lon="4.88395">
        <ele>435.95</ele>
        <time>2014-09-11T09:36:44Z</time>
      </trkpt>
      <trkpt lat="44.48581" lon="4.88393">
        <ele>435.95</ele>
        <time>2014-09-11T09:36:45Z</time>
      </trkpt>
      <trkpt lat="44.48583" lon="4.8839">
        <ele>435.95</ele>
        <time>2014-09-11T09:36:46Z</time>
      </trkpt>
      <trkpt lat="44.48585" lon="4.88387">
        <ele>435.95</ele>
        <time>2014-09-11T09:36:47Z</time>
      </trkpt>
      <trkpt lat="44.48587" lon="4.88384">
        <ele>435.95</ele>
        <time>2014-09-11T09:36:48Z</time>
      </trkpt>
      <trkpt lat="44.48589" lon="4.88381">
        <ele>435.95</ele>
        <time>2014-09-11T09:36:49Z</time>
      </trkpt>
      <trkpt lat="44.48592" lon="4.88379">
        <ele>435.99</ele>
        <time>2014-09-11T09:36:50Z</time>
      </trkpt>
      <trkpt lat="44.48596" lon="4.88373">
        <ele>435.99</ele>
        <time>2014-09-11T09:36:52Z</time>
      </trkpt>
      <trkpt lat="44.48599" lon="4.8837">
        <ele>436.08</ele>
        <time>2014-09-11T09:36:53Z</time>
      </trkpt>
      <trkpt lat="44.48601" lon="4.88367">
        <ele>436.1</ele>
        <time>2014-09-11T09:36:54Z</time>
      </trkpt>
      <trkpt lat="44.48604" lon="4.88365">
        <ele>436.19</ele>
        <time>2014-09-11T09:36:55Z</time>
      </trkpt>
      <trkpt lat="44.48607" lon="4.88363">
        <ele>436.26</ele>
        <time>2014-09-11T09:36:56Z</time>
      </trkpt>
      <trkpt lat="44.48609" lon="4.88361">
        <ele>436.2</ele>
        <time>2014-09-11T09:36:57Z</time>
      </trkpt>
      <trkpt lat="44.48612" lon="4.8836">
        <ele>436.17</ele>
        <time>2014-09-11T09:36:58Z</time>
      </trkpt>
      <trkpt lat="44.48615" lon="4.88358">
        <ele>436.2</ele>
        <time>2014-09-11T09:36:59Z</time>
      </trkpt>
      <trkpt lat="44.48618" lon="4.88356">
        <ele>436.08</ele>
        <time>2014-09-11T09:37:00Z</time>
      </trkpt>
      <trkpt lat="44.48621" lon="4.88355">
        <ele>436.03</ele>
        <time>2014-09-11T09:37:01Z</time>
      </trkpt>
      <trkpt lat="44.48627" lon="4.88354">
        <ele>435.65</ele>
        <time>2014-09-11T09:37:03Z</time>
      </trkpt>
      <trkpt lat="44.48647" lon="4.88353">
        <ele>436.79</ele>
        <time>2014-09-11T09:37:10Z</time>
      </trkpt>
      <trkpt lat="44.48653" lon="4.88353">
        <ele>436.87</ele>
        <time>2014-09-11T09:37:12Z</time>
      </trkpt>
      <trkpt lat="44.48656" lon="4.88353">
        <ele>436.9</ele>
        <time>2014-09-11T09:37:13Z</time>
      </trkpt>
      <trkpt lat="44.48659" lon="4.88353">
        <ele>436.9</ele>
        <time>2014-09-11T09:37:14Z</time>
      </trkpt>
      <trkpt lat="44.48661" lon="4.88352">
        <ele>436.85</ele>
        <time>2014-09-11T09:37:15Z</time>
      </trkpt>
      <trkpt lat="44.48664" lon="4.88351">
        <ele>436.86</ele>
        <time>2014-09-11T09:37:16Z</time>
      </trkpt>
      <trkpt lat="44.48666" lon="4.88349">
        <ele>436.86</ele>
        <time>2014-09-11T09:37:17Z</time>
      </trkpt>
      <trkpt lat="44.48669" lon="4.88348">
        <ele>436.89</ele>
        <time>2014-09-11T09:37:18Z</time>
      </trkpt>
      <trkpt lat="44.48671" lon="4.88347">
        <ele>436.9</ele>
        <time>2014-09-11T09:37:19Z</time>
      </trkpt>
      <trkpt lat="44.48674" lon="4.88346">
        <ele>437.04</ele>
        <time>2014-09-11T09:37:20Z</time>
      </trkpt>
      <trkpt lat="44.48677" lon="4.88344">
        <ele>437.05</ele>
        <time>2014-09-11T09:37:21Z</time>
      </trkpt>
      <trkpt lat="44.48679" lon="4.88342">
        <ele>437.05</ele>
        <time>2014-09-11T09:37:22Z</time>
      </trkpt>
      <trkpt lat="44.48684" lon="4.88336">
        <ele>437.26</ele>
        <time>2014-09-11T09:37:24Z</time>
      </trkpt>
      <trkpt lat="44.48687" lon="4.88333">
        <ele>437.2</ele>
        <time>2014-09-11T09:37:25Z</time>
      </trkpt>
      <trkpt lat="44.48689" lon="4.88329">
        <ele>437.31</ele>
        <time>2014-09-11T09:37:26Z</time>
      </trkpt>
      <trkpt lat="44.48692" lon="4.88326">
        <ele>437.46</ele>
        <time>2014-09-11T09:37:27Z</time>
      </trkpt>
      <trkpt lat="44.48696" lon="4.8832">
        <ele>437.73</ele>
        <time>2014-09-11T09:37:29Z</time>
      </trkpt>
      <trkpt lat="44.487" lon="4.88315">
        <ele>438.01</ele>
        <time>2014-09-11T09:37:31Z</time>
      </trkpt>
      <trkpt lat="44.48703" lon="4.8831">
        <ele>438.42</ele>
        <time>2014-09-11T09:37:33Z</time>
      </trkpt>
      <trkpt lat="44.48705" lon="4.88307">
        <ele>438.49</ele>
        <time>2014-09-11T09:37:34Z</time>
      </trkpt>
      <trkpt lat="44.48707" lon="4.88303">
        <ele>438.56</ele>
        <time>2014-09-11T09:37:35Z</time>
      </trkpt>
      <trkpt lat="44.48708" lon="4.88299">
        <ele>438.43</ele>
        <time>2014-09-11T09:37:36Z</time>
      </trkpt>
      <trkpt lat="44.48709" lon="4.88295">
        <ele>438.24</ele>
        <time>2014-09-11T09:37:37Z</time>
      </trkpt>
      <trkpt lat="44.48711" lon="4.88291">
        <ele>438.15</ele>
        <time>2014-09-11T09:37:38Z</time>
      </trkpt>
      <trkpt lat="44.48712" lon="4.88287">
        <ele>438.1</ele>
        <time>2014-09-11T09:37:39Z</time>
      </trkpt>
      <trkpt lat="44.48715" lon="4.8828">
        <ele>438.02</ele>
        <time>2014-09-11T09:37:41Z</time>
      </trkpt>
      <trkpt lat="44.48716" lon="4.88276">
        <ele>437.88</ele>
        <time>2014-09-11T09:37:42Z</time>
      </trkpt>
      <trkpt lat="44.48718" lon="4.88273">
        <ele>437.71</ele>
        <time>2014-09-11T09:37:43Z</time>
      </trkpt>
      <trkpt lat="44.4872" lon="4.88265">
        <ele>437.33</ele>
        <time>2014-09-11T09:37:45Z</time>
      </trkpt>
      <trkpt lat="44.48722" lon="4.88262">
        <ele>437.18</ele>
        <time>2014-09-11T09:37:46Z</time>
      </trkpt>
      <trkpt lat="44.48732" lon="4.88241">
        <ele>437.26</ele>
        <time>2014-09-11T09:37:52Z</time>
      </trkpt>
      <trkpt lat="44.48734" lon="4.88238">
        <ele>437.3</ele>
        <time>2014-09-11T09:37:53Z</time>
      </trkpt>
      <trkpt lat="44.48736" lon="4.88235">
        <ele>437.3</ele>
        <time>2014-09-11T09:37:54Z</time>
      </trkpt>
      <trkpt lat="44.48739" lon="4.88232">
        <ele>437.38</ele>
        <time>2014-09-11T09:37:55Z</time>
      </trkpt>
      <trkpt lat="44.48741" lon="4.88229">
        <ele>437.36</ele>
        <time>2014-09-11T09:37:56Z</time>
      </trkpt>
      <trkpt lat="44.48742" lon="4.88225">
        <ele>437.42</ele>
        <time>2014-09-11T09:37:57Z</time>
      </trkpt>
      <trkpt lat="44.48744" lon="4.88222">
        <ele>437.51</ele>
        <time>2014-09-11T09:37:58Z</time>
      </trkpt>
      <trkpt lat="44.48746" lon="4.88219">
        <ele>437.53</ele>
        <time>2014-09-11T09:37:59Z</time>
      </trkpt>
      <trkpt lat="44.48749" lon="4.88216">
        <ele>437.54</ele>
        <time>2014-09-11T09:38:00Z</time>
      </trkpt>
      <trkpt lat="44.48751" lon="4.88213">
        <ele>437.61</ele>
        <time>2014-09-11T09:38:01Z</time>
      </trkpt>
      <trkpt lat="44.48776" lon="4.8819">
        <ele>438.57</ele>
        <time>2014-09-11T09:38:12Z</time>
      </trkpt>
      <trkpt lat="44.48779" lon="4.88188">
        <ele>438.62</ele>
        <time>2014-09-11T09:38:13Z</time>
      </trkpt>
      <trkpt lat="44.48782" lon="4.88186">
        <ele>438.8</ele>
        <time>2014-09-11T09:38:14Z</time>
      </trkpt>
      <trkpt lat="44.48785" lon="4.88184">
        <ele>438.89</ele>
        <time>2014-09-11T09:38:15Z</time>
      </trkpt>
      <trkpt lat="44.48788" lon="4.88182">
        <ele>438.94</ele>
        <time>2014-09-11T09:38:16Z</time>
      </trkpt>
      <trkpt lat="44.48791" lon="4.88181">
        <ele>438.99</ele>
        <time>2014-09-11T09:38:17Z</time>
      </trkpt>
      <trkpt lat="44.48794" lon="4.88179">
        <ele>438.93</ele>
        <time>2014-09-11T09:38:18Z</time>
      </trkpt>
      <trkpt lat="44.48797" lon="4.88177">
        <ele>438.86</ele>
        <time>2014-09-11T09:38:19Z</time>
      </trkpt>
      <trkpt lat="44.488" lon="4.88176">
        <ele>438.84</ele>
        <time>2014-09-11T09:38:20Z</time>
      </trkpt>
      <trkpt lat="44.48803" lon="4.88174">
        <ele>438.66</ele>
        <time>2014-09-11T09:38:21Z</time>
      </trkpt>
      <trkpt lat="44.48806" lon="4.88171">
        <ele>438.73</ele>
        <time>2014-09-11T09:38:22Z</time>
      </trkpt>
      <trkpt lat="44.48809" lon="4.88169">
        <ele>438.61</ele>
        <time>2014-09-11T09:38:23Z</time>
      </trkpt>
      <trkpt lat="44.48812" lon="4.88168">
        <ele>438.63</ele>
        <time>2014-09-11T09:38:24Z</time>
      </trkpt>
      <trkpt lat="44.48815" lon="4.88166">
        <ele>438.77</ele>
        <time>2014-09-11T09:38:25Z</time>
      </trkpt>
      <trkpt lat="44.48818" lon="4.88164">
        <ele>439.03</ele>
        <time>2014-09-11T09:38:26Z</time>
      </trkpt>
      <trkpt lat="44.48821" lon="4.88162">
        <ele>439.03</ele>
        <time>2014-09-11T09:38:27Z</time>
      </trkpt>
      <trkpt lat="44.48825" lon="4.88159">
        <ele>439.16</ele>
        <time>2014-09-11T09:38:28Z</time>
      </trkpt>
      <trkpt lat="44.48828" lon="4.88157">
        <ele>439.27</ele>
        <time>2014-09-11T09:38:29Z</time>
      </trkpt>
      <trkpt lat="44.48831" lon="4.88154">
        <ele>439.39</ele>
        <time>2014-09-11T09:38:30Z</time>
      </trkpt>
      <trkpt lat="44.48833" lon="4.88152">
        <ele>439.61</ele>
        <time>2014-09-11T09:38:31Z</time>
      </trkpt>
      <trkpt lat="44.48836" lon="4.8815">
        <ele>439.76</ele>
        <time>2014-09-11T09:38:32Z</time>
      </trkpt>
      <trkpt lat="44.48839" lon="4.88148">
        <ele>439.83</ele>
        <time>2014-09-11T09:38:33Z</time>
      </trkpt>
      <trkpt lat="44.48842" lon="4.88146">
        <ele>439.91</ele>
        <time>2014-09-11T09:38:34Z</time>
      </trkpt>
      <trkpt lat="44.48844" lon="4.88145">
        <ele>440.06</ele>
        <time>2014-09-11T09:38:35Z</time>
      </trkpt>
      <trkpt lat="44.48847" lon="4.88143">
        <ele>440.16</ele>
        <time>2014-09-11T09:38:36Z</time>
      </trkpt>
      <trkpt lat="44.4885" lon="4.88141">
        <ele>440.18</ele>
        <time>2014-09-11T09:38:37Z</time>
      </trkpt>
      <trkpt lat="44.48853" lon="4.88139">
        <ele>440.09</ele>
        <time>2014-09-11T09:38:38Z</time>
      </trkpt>
      <trkpt lat="44.48856" lon="4.88138">
        <ele>439.88</ele>
        <time>2014-09-11T09:38:39Z</time>
      </trkpt>
      <trkpt lat="44.48859" lon="4.88135">
        <ele>439.82</ele>
        <time>2014-09-11T09:38:40Z</time>
      </trkpt>
      <trkpt lat="44.48861" lon="4.88133">
        <ele>439.89</ele>
        <time>2014-09-11T09:38:41Z</time>
      </trkpt>
      <trkpt lat="44.48864" lon="4.88131">
        <ele>439.72</ele>
        <time>2014-09-11T09:38:42Z</time>
      </trkpt>
      <trkpt lat="44.48867" lon="4.88129">
        <ele>439.65</ele>
        <time>2014-09-11T09:38:43Z</time>
      </trkpt>
      <trkpt lat="44.48872" lon="4.88125">
        <ele>439.59</ele>
        <time>2014-09-11T09:38:45Z</time>
      </trkpt>
      <trkpt lat="44.48875" lon="4.88123">
        <ele>439.63</ele>
        <time>2014-09-11T09:38:46Z</time>
      </trkpt>
      <trkpt lat="44.48878" lon="4.88121">
        <ele>439.65</ele>
        <time>2014-09-11T09:38:47Z</time>
      </trkpt>
      <trkpt lat="44.48881" lon="4.88118">
        <ele>439.66</ele>
        <time>2014-09-11T09:38:48Z</time>
      </trkpt>
      <trkpt lat="44.48884" lon="4.88116">
        <ele>439.66</ele>
        <time>2014-09-11T09:38:49Z</time>
      </trkpt>
      <trkpt lat="44.48887" lon="4.88112">
        <ele>439.56</ele>
        <time>2014-09-11T09:38:50Z</time>
      </trkpt>
      <trkpt lat="44.48889" lon="4.88109">
        <ele>439.45</ele>
        <time>2014-09-11T09:38:51Z</time>
      </trkpt>
      <trkpt lat="44.48892" lon="4.88106">
        <ele>439.13</ele>
        <time>2014-09-11T09:38:52Z</time>
      </trkpt>
      <trkpt lat="44.48898" lon="4.881">
        <ele>438.94</ele>
        <time>2014-09-11T09:38:54Z</time>
      </trkpt>
      <trkpt lat="44.48905" lon="4.88088">
        <ele>438.91</ele>
        <time>2014-09-11T09:38:57Z</time>
      </trkpt>
      <trkpt lat="44.48908" lon="4.88085">
        <ele>439.08</ele>
        <time>2014-09-11T09:38:58Z</time>
      </trkpt>
      <trkpt lat="44.4891" lon="4.88081">
        <ele>439.2</ele>
        <time>2014-09-11T09:38:59Z</time>
      </trkpt>
      <trkpt lat="44.48913" lon="4.88077">
        <ele>439.2</ele>
        <time>2014-09-11T09:39:00Z</time>
      </trkpt>
      <trkpt lat="44.48916" lon="4.88073">
        <ele>439.36</ele>
        <time>2014-09-11T09:39:01Z</time>
      </trkpt>
      <trkpt lat="44.48919" lon="4.88069">
        <ele>439.44</ele>
        <time>2014-09-11T09:39:02Z</time>
      </trkpt>
      <trkpt lat="44.48922" lon="4.88066">
        <ele>439.39</ele>
        <time>2014-09-11T09:39:03Z</time>
      </trkpt>
      <trkpt lat="44.48942" lon="4.88034">
        <ele>440.29</ele>
        <time>2014-09-11T09:39:12Z</time>
      </trkpt>
      <trkpt lat="44.48945" lon="4.88031">
        <ele>440.33</ele>
        <time>2014-09-11T09:39:13Z</time>
      </trkpt>
      <trkpt lat="44.48948" lon="4.88027">
        <ele>440.45</ele>
        <time>2014-09-11T09:39:14Z</time>
      </trkpt>
      <trkpt lat="44.4895" lon="4.88023">
        <ele>440.48</ele>
        <time>2014-09-11T09:39:15Z</time>
      </trkpt>
      <trkpt lat="44.48955" lon="4.88015">
        <ele>440.11</ele>
        <time>2014-09-11T09:39:17Z</time>
      </trkpt>
      <trkpt lat="44.48958" lon="4.88011">
        <ele>440.02</ele>
        <time>2014-09-11T09:39:18Z</time>
      </trkpt>
      <trkpt lat="44.4896" lon="4.88007">
        <ele>440.05</ele>
        <time>2014-09-11T09:39:19Z</time>
      </trkpt>
      <trkpt lat="44.48963" lon="4.88003">
        <ele>440.06</ele>
        <time>2014-09-11T09:39:20Z</time>
      </trkpt>
      <trkpt lat="44.48968" lon="4.87995">
        <ele>440.04</ele>
        <time>2014-09-11T09:39:22Z</time>
      </trkpt>
      <trkpt lat="44.4897" lon="4.8799">
        <ele>440.1</ele>
        <time>2014-09-11T09:39:23Z</time>
      </trkpt>
      <trkpt lat="44.48973" lon="4.87986">
        <ele>440.12</ele>
        <time>2014-09-11T09:39:24Z</time>
      </trkpt>
      <trkpt lat="44.48976" lon="4.87981">
        <ele>440.14</ele>
        <time>2014-09-11T09:39:25Z</time>
      </trkpt>
      <trkpt lat="44.48979" lon="4.87976">
        <ele>440.11</ele>
        <time>2014-09-11T09:39:26Z</time>
      </trkpt>
      <trkpt lat="44.48982" lon="4.87972">
        <ele>440</ele>
        <time>2014-09-11T09:39:27Z</time>
      </trkpt>
      <trkpt lat="44.48984" lon="4.87968">
        <ele>439.88</ele>
        <time>2014-09-11T09:39:28Z</time>
      </trkpt>
      <trkpt lat="44.48988" lon="4.87962">
        <ele>439.69</ele>
        <time>2014-09-11T09:39:29Z</time>
      </trkpt>
      <trkpt lat="44.48991" lon="4.87957">
        <ele>439.47</ele>
        <time>2014-09-11T09:39:30Z</time>
      </trkpt>
      <trkpt lat="44.48994" lon="4.87951">
        <ele>439.2</ele>
        <time>2014-09-11T09:39:31Z</time>
      </trkpt>
      <trkpt lat="44.48997" lon="4.87947">
        <ele>438.91</ele>
        <time>2014-09-11T09:39:32Z</time>
      </trkpt>
      <trkpt lat="44.49" lon="4.87943">
        <ele>438.77</ele>
        <time>2014-09-11T09:39:33Z</time>
      </trkpt>
      <trkpt lat="44.49003" lon="4.87938">
        <ele>438.77</ele>
        <time>2014-09-11T09:39:34Z</time>
      </trkpt>
      <trkpt lat="44.49012" lon="4.87926">
        <ele>438.71</ele>
        <time>2014-09-11T09:39:37Z</time>
      </trkpt>
      <trkpt lat="44.49014" lon="4.87922">
        <ele>438.85</ele>
        <time>2014-09-11T09:39:38Z</time>
      </trkpt>
      <trkpt lat="44.49016" lon="4.87919">
        <ele>438.93</ele>
        <time>2014-09-11T09:39:39Z</time>
      </trkpt>
      <trkpt lat="44.49018" lon="4.87915">
        <ele>439.03</ele>
        <time>2014-09-11T09:39:40Z</time>
      </trkpt>
      <trkpt lat="44.4902" lon="4.87911">
        <ele>439.12</ele>
        <time>2014-09-11T09:39:41Z</time>
      </trkpt>
      <trkpt lat="44.49022" lon="4.87908">
        <ele>439.13</ele>
        <time>2014-09-11T09:39:42Z</time>
      </trkpt>
      <trkpt lat="44.49024" lon="4.87904">
        <ele>439.14</ele>
        <time>2014-09-11T09:39:43Z</time>
      </trkpt>
      <trkpt lat="44.49027" lon="4.87897">
        <ele>438.88</ele>
        <time>2014-09-11T09:39:45Z</time>
      </trkpt>
      <trkpt lat="44.49028" lon="4.87894">
        <ele>438.82</ele>
        <time>2014-09-11T09:39:46Z</time>
      </trkpt>
      <trkpt lat="44.4903" lon="4.87891">
        <ele>438.62</ele>
        <time>2014-09-11T09:39:47Z</time>
      </trkpt>
      <trkpt lat="44.49031" lon="4.87888">
        <ele>438.43</ele>
        <time>2014-09-11T09:39:48Z</time>
      </trkpt>
      <trkpt lat="44.49031" lon="4.87886">
        <ele>438.18</ele>
        <time>2014-09-11T09:39:49Z</time>
      </trkpt>
      <trkpt lat="44.49032" lon="4.87883">
        <ele>437.53</ele>
        <time>2014-09-11T09:40:05Z</time>
      </trkpt>
      <trkpt lat="44.49032" lon="4.87883">
        <ele>438.03</ele>
        <time>2014-09-11T09:40:55Z</time>
      </trkpt>
      <trkpt lat="44.49035" lon="4.87859">
        <ele>438.02</ele>
        <time>2014-09-11T09:41:23Z</time>
      </trkpt>
      <trkpt lat="44.49036" lon="4.87853">
        <ele>437.33</ele>
        <time>2014-09-11T09:41:26Z</time>
      </trkpt>
      <trkpt lat="44.49036" lon="4.87851">
        <ele>437.2</ele>
        <time>2014-09-11T09:41:27Z</time>
      </trkpt>
      <trkpt lat="44.49036" lon="4.87848">
        <ele>437.03</ele>
        <time>2014-09-11T09:41:28Z</time>
      </trkpt>
      <trkpt lat="44.49038" lon="4.87843">
        <ele>437.29</ele>
        <time>2014-09-11T09:41:35Z</time>
      </trkpt>
      <trkpt lat="44.49039" lon="4.8784">
        <ele>437.29</ele>
        <time>2014-09-11T09:41:36Z</time>
      </trkpt>
      <trkpt lat="44.49039" lon="4.87836">
        <ele>437.29</ele>
        <time>2014-09-11T09:41:37Z</time>
      </trkpt>
      <trkpt lat="44.49039" lon="4.87828">
        <ele>437.35</ele>
        <time>2014-09-11T09:41:39Z</time>
      </trkpt>
      <trkpt lat="44.49039" lon="4.87824">
        <ele>437.26</ele>
        <time>2014-09-11T09:41:40Z</time>
      </trkpt>
      <trkpt lat="44.49039" lon="4.8782">
        <ele>437.21</ele>
        <time>2014-09-11T09:41:41Z</time>
      </trkpt>
      <trkpt lat="44.49038" lon="4.87816">
        <ele>437.3</ele>
        <time>2014-09-11T09:41:42Z</time>
      </trkpt>
      <trkpt lat="44.49038" lon="4.87812">
        <ele>437.33</ele>
        <time>2014-09-11T09:41:43Z</time>
      </trkpt>
      <trkpt lat="44.49038" lon="4.87808">
        <ele>437.35</ele>
        <time>2014-09-11T09:41:44Z</time>
      </trkpt>
      <trkpt lat="44.49038" lon="4.87804">
        <ele>437.35</ele>
        <time>2014-09-11T09:41:45Z</time>
      </trkpt>
      <trkpt lat="44.49038" lon="4.87797">
        <ele>437.16</ele>
        <time>2014-09-11T09:41:47Z</time>
      </trkpt>
      <trkpt lat="44.49039" lon="4.87795">
        <ele>437.24</ele>
        <time>2014-09-11T09:41:48Z</time>
      </trkpt>
      <trkpt lat="44.49039" lon="4.87792">
        <ele>437.42</ele>
        <time>2014-09-11T09:41:49Z</time>
      </trkpt>
      <trkpt lat="44.49039" lon="4.87789">
        <ele>437.5</ele>
        <time>2014-09-11T09:41:50Z</time>
      </trkpt>
      <trkpt lat="44.4904" lon="4.87787">
        <ele>437.38</ele>
        <time>2014-09-11T09:41:51Z</time>
      </trkpt>
      <trkpt lat="44.4904" lon="4.87784">
        <ele>437.05</ele>
        <time>2014-09-11T09:41:52Z</time>
      </trkpt>
      <trkpt lat="44.4904" lon="4.87782">
        <ele>436.94</ele>
        <time>2014-09-11T09:41:53Z</time>
      </trkpt>
      <trkpt lat="44.49041" lon="4.87775">
        <ele>436.78</ele>
        <time>2014-09-11T09:41:56Z</time>
      </trkpt>
      <trkpt lat="44.49042" lon="4.87773">
        <ele>436.57</ele>
        <time>2014-09-11T09:41:57Z</time>
      </trkpt>
      <trkpt lat="44.49044" lon="4.87768">
        <ele>436.66</ele>
        <time>2014-09-11T09:41:59Z</time>
      </trkpt>
      <trkpt lat="44.49045" lon="4.87766">
        <ele>436.62</ele>
        <time>2014-09-11T09:42:00Z</time>
      </trkpt>
      <trkpt lat="44.49046" lon="4.87761">
        <ele>436.06</ele>
        <time>2014-09-11T09:42:09Z</time>
      </trkpt>
      <trkpt lat="44.49047" lon="4.87759">
        <ele>436.08</ele>
        <time>2014-09-11T09:42:10Z</time>
      </trkpt>
      <trkpt lat="44.49048" lon="4.87755">
        <ele>436.06</ele>
        <time>2014-09-11T09:42:11Z</time>
      </trkpt>
      <trkpt lat="44.49048" lon="4.8775">
        <ele>436.16</ele>
        <time>2014-09-11T09:42:12Z</time>
      </trkpt>
      <trkpt lat="44.49049" lon="4.87746">
        <ele>436.37</ele>
        <time>2014-09-11T09:42:13Z</time>
      </trkpt>
      <trkpt lat="44.49049" lon="4.87742">
        <ele>436.41</ele>
        <time>2014-09-11T09:42:14Z</time>
      </trkpt>
      <trkpt lat="44.49049" lon="4.87737">
        <ele>436.5</ele>
        <time>2014-09-11T09:42:15Z</time>
      </trkpt>
      <trkpt lat="44.49049" lon="4.87733">
        <ele>436.25</ele>
        <time>2014-09-11T09:42:16Z</time>
      </trkpt>
      <trkpt lat="44.49049" lon="4.87729">
        <ele>436.22</ele>
        <time>2014-09-11T09:42:17Z</time>
      </trkpt>
      <trkpt lat="44.49049" lon="4.87724">
        <ele>436.22</ele>
        <time>2014-09-11T09:42:18Z</time>
      </trkpt>
      <trkpt lat="44.49049" lon="4.87719">
        <ele>436.38</ele>
        <time>2014-09-11T09:42:19Z</time>
      </trkpt>
      <trkpt lat="44.4905" lon="4.87714">
        <ele>436.22</ele>
        <time>2014-09-11T09:42:20Z</time>
      </trkpt>
      <trkpt lat="44.4905" lon="4.87708">
        <ele>435.95</ele>
        <time>2014-09-11T09:42:21Z</time>
      </trkpt>
      <trkpt lat="44.4905" lon="4.87702">
        <ele>435.81</ele>
        <time>2014-09-11T09:42:22Z</time>
      </trkpt>
      <trkpt lat="44.4905" lon="4.87696">
        <ele>435.75</ele>
        <time>2014-09-11T09:42:23Z</time>
      </trkpt>
      <trkpt lat="44.4905" lon="4.8769">
        <ele>435.78</ele>
        <time>2014-09-11T09:42:24Z</time>
      </trkpt>
      <trkpt lat="44.49049" lon="4.87684">
        <ele>435.7</ele>
        <time>2014-09-11T09:42:25Z</time>
      </trkpt>
      <trkpt lat="44.49049" lon="4.87678">
        <ele>435.63</ele>
        <time>2014-09-11T09:42:26Z</time>
      </trkpt>
      <trkpt lat="44.49049" lon="4.87673">
        <ele>435.59</ele>
        <time>2014-09-11T09:42:27Z</time>
      </trkpt>
      <trkpt lat="44.49048" lon="4.87665">
        <ele>435.42</ele>
        <time>2014-09-11T09:42:29Z</time>
      </trkpt>
      <trkpt lat="44.49045" lon="4.87659">
        <ele>434.8</ele>
        <time>2014-09-11T09:42:31Z</time>
      </trkpt>
      <trkpt lat="44.49043" lon="4.87656">
        <ele>434.73</ele>
        <time>2014-09-11T09:42:32Z</time>
      </trkpt>
      <trkpt lat="44.49042" lon="4.87654">
        <ele>434.82</ele>
        <time>2014-09-11T09:42:33Z</time>
      </trkpt>
      <trkpt lat="44.49041" lon="4.87651">
        <ele>434.68</ele>
        <time>2014-09-11T09:42:34Z</time>
      </trkpt>
      <trkpt lat="44.4904" lon="4.87647">
        <ele>434.51</ele>
        <time>2014-09-11T09:42:35Z</time>
      </trkpt>
      <trkpt lat="44.49037" lon="4.87639">
        <ele>434.65</ele>
        <time>2014-09-11T09:42:37Z</time>
      </trkpt>
      <trkpt lat="44.49036" lon="4.87635">
        <ele>434.67</ele>
        <time>2014-09-11T09:42:38Z</time>
      </trkpt>
      <trkpt lat="44.49035" lon="4.87631">
        <ele>434.56</ele>
        <time>2014-09-11T09:42:39Z</time>
      </trkpt>
      <trkpt lat="44.49033" lon="4.87628">
        <ele>434.39</ele>
        <time>2014-09-11T09:42:40Z</time>
      </trkpt>
      <trkpt lat="44.49032" lon="4.87625">
        <ele>434.31</ele>
        <time>2014-09-11T09:42:41Z</time>
      </trkpt>
      <trkpt lat="44.4903" lon="4.87621">
        <ele>433.97</ele>
        <time>2014-09-11T09:42:42Z</time>
      </trkpt>
      <trkpt lat="44.49027" lon="4.87618">
        <ele>433.42</ele>
        <time>2014-09-11T09:42:43Z</time>
      </trkpt>
      <trkpt lat="44.49024" lon="4.87615">
        <ele>432.94</ele>
        <time>2014-09-11T09:42:44Z</time>
      </trkpt>
      <trkpt lat="44.49021" lon="4.87612">
        <ele>432.54</ele>
        <time>2014-09-11T09:42:45Z</time>
      </trkpt>
      <trkpt lat="44.49019" lon="4.87608">
        <ele>432.25</ele>
        <time>2014-09-11T09:42:46Z</time>
      </trkpt>
      <trkpt lat="44.49017" lon="4.87606">
        <ele>431.93</ele>
        <time>2014-09-11T09:42:47Z</time>
      </trkpt>
      <trkpt lat="44.49016" lon="4.87603">
        <ele>431.68</ele>
        <time>2014-09-11T09:42:48Z</time>
      </trkpt>
      <trkpt lat="44.49015" lon="4.87601">
        <ele>431.59</ele>
        <time>2014-09-11T09:42:49Z</time>
      </trkpt>
      <trkpt lat="44.49013" lon="4.87599">
        <ele>431.51</ele>
        <time>2014-09-11T09:42:50Z</time>
      </trkpt>
      <trkpt lat="44.49011" lon="4.87595">
        <ele>431.37</ele>
        <time>2014-09-11T09:42:51Z</time>
      </trkpt>
      <trkpt lat="44.49008" lon="4.87592">
        <ele>431.37</ele>
        <time>2014-09-11T09:42:52Z</time>
      </trkpt>
      <trkpt lat="44.49005" lon="4.87589">
        <ele>431.27</ele>
        <time>2014-09-11T09:42:53Z</time>
      </trkpt>
      <trkpt lat="44.49001" lon="4.87586">
        <ele>431.16</ele>
        <time>2014-09-11T09:42:54Z</time>
      </trkpt>
      <trkpt lat="44.48997" lon="4.87584">
        <ele>431.04</ele>
        <time>2014-09-11T09:42:55Z</time>
      </trkpt>
      <trkpt lat="44.48993" lon="4.87582">
        <ele>430.82</ele>
        <time>2014-09-11T09:42:56Z</time>
      </trkpt>
      <trkpt lat="44.48987" lon="4.87578">
        <ele>430.22</ele>
        <time>2014-09-11T09:42:58Z</time>
      </trkpt>
      <trkpt lat="44.48985" lon="4.87574">
        <ele>430.02</ele>
        <time>2014-09-11T09:42:59Z</time>
      </trkpt>
      <trkpt lat="44.48984" lon="4.8757">
        <ele>429.92</ele>
        <time>2014-09-11T09:43:00Z</time>
      </trkpt>
      <trkpt lat="44.48984" lon="4.87566">
        <ele>429.8</ele>
        <time>2014-09-11T09:43:01Z</time>
      </trkpt>
      <trkpt lat="44.48984" lon="4.87563">
        <ele>429.65</ele>
        <time>2014-09-11T09:43:02Z</time>
      </trkpt>
      <trkpt lat="44.48986" lon="4.8756">
        <ele>429.6</ele>
        <time>2014-09-11T09:43:03Z</time>
      </trkpt>
      <trkpt lat="44.48988" lon="4.87559">
        <ele>429.51</ele>
        <time>2014-09-11T09:43:04Z</time>
      </trkpt>
      <trkpt lat="44.48991" lon="4.87558">
        <ele>429.55</ele>
        <time>2014-09-11T09:43:05Z</time>
      </trkpt>
      <trkpt lat="44.48995" lon="4.87557">
        <ele>429.63</ele>
        <time>2014-09-11T09:43:06Z</time>
      </trkpt>
      <trkpt lat="44.48997" lon="4.87558">
        <ele>429.66</ele>
        <time>2014-09-11T09:43:07Z</time>
      </trkpt>
      <trkpt lat="44.49" lon="4.87556">
        <ele>429.7</ele>
        <time>2014-09-11T09:43:08Z</time>
      </trkpt>
      <trkpt lat="44.49001" lon="4.87554">
        <ele>429.72</ele>
        <time>2014-09-11T09:43:09Z</time>
      </trkpt>
      <trkpt lat="44.49002" lon="4.87551">
        <ele>429.7</ele>
        <time>2014-09-11T09:43:10Z</time>
      </trkpt>
      <trkpt lat="44.49001" lon="4.87543">
        <ele>429.37</ele>
        <time>2014-09-11T09:43:12Z</time>
      </trkpt>
      <trkpt lat="44.49" lon="4.8754">
        <ele>429.13</ele>
        <time>2014-09-11T09:43:13Z</time>
      </trkpt>
      <trkpt lat="44.48998" lon="4.87536">
        <ele>429.01</ele>
        <time>2014-09-11T09:43:14Z</time>
      </trkpt>
      <trkpt lat="44.48995" lon="4.87532">
        <ele>428.91</ele>
        <time>2014-09-11T09:43:15Z</time>
      </trkpt>
      <trkpt lat="44.48993" lon="4.87528">
        <ele>428.91</ele>
        <time>2014-09-11T09:43:16Z</time>
      </trkpt>
      <trkpt lat="44.48968" lon="4.87506">
        <ele>429.08</ele>
        <time>2014-09-11T09:43:23Z</time>
      </trkpt>
      <trkpt lat="44.48942" lon="4.87484">
        <ele>428.12</ele>
        <time>2014-09-11T09:43:30Z</time>
      </trkpt>
      <trkpt lat="44.48941" lon="4.87479">
        <ele>427.87</ele>
        <time>2014-09-11T09:43:31Z</time>
      </trkpt>
      <trkpt lat="44.4894" lon="4.87475">
        <ele>427.56</ele>
        <time>2014-09-11T09:43:32Z</time>
      </trkpt>
      <trkpt lat="44.48939" lon="4.8747">
        <ele>427.26</ele>
        <time>2014-09-11T09:43:33Z</time>
      </trkpt>
      <trkpt lat="44.48939" lon="4.87464">
        <ele>427.1</ele>
        <time>2014-09-11T09:43:34Z</time>
      </trkpt>
      <trkpt lat="44.48939" lon="4.87458">
        <ele>426.96</ele>
        <time>2014-09-11T09:43:35Z</time>
      </trkpt>
      <trkpt lat="44.4894" lon="4.87452">
        <ele>426.88</ele>
        <time>2014-09-11T09:43:36Z</time>
      </trkpt>
      <trkpt lat="44.48939" lon="4.87446">
        <ele>426.95</ele>
        <time>2014-09-11T09:43:37Z</time>
      </trkpt>
      <trkpt lat="44.48938" lon="4.8742">
        <ele>427.98</ele>
        <time>2014-09-11T09:43:42Z</time>
      </trkpt>
      <trkpt lat="44.48937" lon="4.87415">
        <ele>427.98</ele>
        <time>2014-09-11T09:43:43Z</time>
      </trkpt>
      <trkpt lat="44.4893" lon="4.874">
        <ele>428.48</ele>
        <time>2014-09-11T09:43:47Z</time>
      </trkpt>
      <trkpt lat="44.48928" lon="4.87398">
        <ele>428.42</ele>
        <time>2014-09-11T09:43:48Z</time>
      </trkpt>
      <trkpt lat="44.48925" lon="4.87396">
        <ele>428.56</ele>
        <time>2014-09-11T09:43:49Z</time>
      </trkpt>
      <trkpt lat="44.48923" lon="4.87394">
        <ele>428.64</ele>
        <time>2014-09-11T09:43:50Z</time>
      </trkpt>
      <trkpt lat="44.48921" lon="4.87392">
        <ele>428.74</ele>
        <time>2014-09-11T09:43:51Z</time>
      </trkpt>
      <trkpt lat="44.48919" lon="4.87391">
        <ele>428.82</ele>
        <time>2014-09-11T09:43:52Z</time>
      </trkpt>
      <trkpt lat="44.48917" lon="4.8739">
        <ele>429.13</ele>
        <time>2014-09-11T09:43:53Z</time>
      </trkpt>
      <trkpt lat="44.48915" lon="4.87388">
        <ele>429.57</ele>
        <time>2014-09-11T09:43:54Z</time>
      </trkpt>
      <trkpt lat="44.48913" lon="4.87387">
        <ele>429.96</ele>
        <time>2014-09-11T09:43:55Z</time>
      </trkpt>
      <trkpt lat="44.48908" lon="4.87384">
        <ele>430.35</ele>
        <time>2014-09-11T09:43:57Z</time>
      </trkpt>
      <trkpt lat="44.48906" lon="4.87383">
        <ele>430.57</ele>
        <time>2014-09-11T09:43:58Z</time>
      </trkpt>
      <trkpt lat="44.48904" lon="4.87381">
        <ele>430.77</ele>
        <time>2014-09-11T09:43:59Z</time>
      </trkpt>
      <trkpt lat="44.48902" lon="4.87379">
        <ele>430.91</ele>
        <time>2014-09-11T09:44:00Z</time>
      </trkpt>
      <trkpt lat="44.48895" lon="4.8737">
        <ele>431.8</ele>
        <time>2014-09-11T09:44:04Z</time>
      </trkpt>
      <trkpt lat="44.48893" lon="4.87367">
        <ele>431.88</ele>
        <time>2014-09-11T09:44:05Z</time>
      </trkpt>
      <trkpt lat="44.48892" lon="4.87364">
        <ele>431.92</ele>
        <time>2014-09-11T09:44:06Z</time>
      </trkpt>
      <trkpt lat="44.4889" lon="4.87361">
        <ele>432.02</ele>
        <time>2014-09-11T09:44:07Z</time>
      </trkpt>
      <trkpt lat="44.48889" lon="4.87358">
        <ele>432.22</ele>
        <time>2014-09-11T09:44:08Z</time>
      </trkpt>
      <trkpt lat="44.48888" lon="4.87356">
        <ele>432.32</ele>
        <time>2014-09-11T09:44:09Z</time>
      </trkpt>
      <trkpt lat="44.48887" lon="4.87353">
        <ele>432.38</ele>
        <time>2014-09-11T09:44:10Z</time>
      </trkpt>
      <trkpt lat="44.48886" lon="4.873">
        <ele>434.44</ele>
        <time>2014-09-11T09:44:27Z</time>
      </trkpt>
      <trkpt lat="44.48898" lon="4.87267">
        <ele>433.87</ele>
        <time>2014-09-11T09:44:35Z</time>
      </trkpt>
      <trkpt lat="44.489" lon="4.87262">
        <ele>433.85</ele>
        <time>2014-09-11T09:44:36Z</time>
      </trkpt>
      <trkpt lat="44.48903" lon="4.87257">
        <ele>433.85</ele>
        <time>2014-09-11T09:44:37Z</time>
      </trkpt>
      <trkpt lat="44.48905" lon="4.87252">
        <ele>433.76</ele>
        <time>2014-09-11T09:44:38Z</time>
      </trkpt>
      <trkpt lat="44.48907" lon="4.87246">
        <ele>433.51</ele>
        <time>2014-09-11T09:44:39Z</time>
      </trkpt>
      <trkpt lat="44.48909" lon="4.8724">
        <ele>433.19</ele>
        <time>2014-09-11T09:44:40Z</time>
      </trkpt>
      <trkpt lat="44.48925" lon="4.87195">
        <ele>430.19</ele>
        <time>2014-09-11T09:44:47Z</time>
      </trkpt>
      <trkpt lat="44.48949" lon="4.87129">
        <ele>428.26</ele>
        <time>2014-09-11T09:44:58Z</time>
      </trkpt>
      <trkpt lat="44.48952" lon="4.87119">
        <ele>427.35</ele>
        <time>2014-09-11T09:45:00Z</time>
      </trkpt>
      <trkpt lat="44.48953" lon="4.87114">
        <ele>427.02</ele>
        <time>2014-09-11T09:45:01Z</time>
      </trkpt>
      <trkpt lat="44.48954" lon="4.87108">
        <ele>426.77</ele>
        <time>2014-09-11T09:45:02Z</time>
      </trkpt>
      <trkpt lat="44.48954" lon="4.87103">
        <ele>426.77</ele>
        <time>2014-09-11T09:45:03Z</time>
      </trkpt>
      <trkpt lat="44.48954" lon="4.87097">
        <ele>426.26</ele>
        <time>2014-09-11T09:45:04Z</time>
      </trkpt>
      <trkpt lat="44.48949" lon="4.87061">
        <ele>422.15</ele>
        <time>2014-09-11T09:45:10Z</time>
      </trkpt>
      <trkpt lat="44.48939" lon="4.87013">
        <ele>418.78</ele>
        <time>2014-09-11T09:45:17Z</time>
      </trkpt>
      <trkpt lat="44.48938" lon="4.87005">
        <ele>417.89</ele>
        <time>2014-09-11T09:45:18Z</time>
      </trkpt>
      <trkpt lat="44.48937" lon="4.86996">
        <ele>416.79</ele>
        <time>2014-09-11T09:45:19Z</time>
      </trkpt>
      <trkpt lat="44.48936" lon="4.86987">
        <ele>415.65</ele>
        <time>2014-09-11T09:45:20Z</time>
      </trkpt>
      <trkpt lat="44.48935" lon="4.86978">
        <ele>414.79</ele>
        <time>2014-09-11T09:45:21Z</time>
      </trkpt>
      <trkpt lat="44.48935" lon="4.86969">
        <ele>414.37</ele>
        <time>2014-09-11T09:45:22Z</time>
      </trkpt>
      <trkpt lat="44.48935" lon="4.8696">
        <ele>414.13</ele>
        <time>2014-09-11T09:45:23Z</time>
      </trkpt>
      <trkpt lat="44.48936" lon="4.86951">
        <ele>413.95</ele>
        <time>2014-09-11T09:45:24Z</time>
      </trkpt>
      <trkpt lat="44.48961" lon="4.86852">
        <ele>411.57</ele>
        <time>2014-09-11T09:45:38Z</time>
      </trkpt>
      <trkpt lat="44.48968" lon="4.86813">
        <ele>409.46</ele>
        <time>2014-09-11T09:45:44Z</time>
      </trkpt>
      <trkpt lat="44.48968" lon="4.86806">
        <ele>409.17</ele>
        <time>2014-09-11T09:45:45Z</time>
      </trkpt>
      <trkpt lat="44.48968" lon="4.868">
        <ele>408.69</ele>
        <time>2014-09-11T09:45:46Z</time>
      </trkpt>
      <trkpt lat="44.48965" lon="4.86777">
        <ele>405.48</ele>
        <time>2014-09-11T09:45:50Z</time>
      </trkpt>
      <trkpt lat="44.48965" lon="4.86764">
        <ele>404.98</ele>
        <time>2014-09-11T09:45:52Z</time>
      </trkpt>
      <trkpt lat="44.48966" lon="4.86757">
        <ele>404.67</ele>
        <time>2014-09-11T09:45:53Z</time>
      </trkpt>
      <trkpt lat="44.48967" lon="4.86749">
        <ele>404.39</ele>
        <time>2014-09-11T09:45:54Z</time>
      </trkpt>
      <trkpt lat="44.48977" lon="4.86696">
        <ele>401.37</ele>
        <time>2014-09-11T09:46:00Z</time>
      </trkpt>
      <trkpt lat="44.48999" lon="4.86603">
        <ele>399.19</ele>
        <time>2014-09-11T09:46:11Z</time>
      </trkpt>
      <trkpt lat="44.49003" lon="4.86573">
        <ele>396.69</ele>
        <time>2014-09-11T09:46:15Z</time>
      </trkpt>
      <trkpt lat="44.49005" lon="4.86566">
        <ele>396.39</ele>
        <time>2014-09-11T09:46:16Z</time>
      </trkpt>
      <trkpt lat="44.4903" lon="4.86482">
        <ele>394.69</ele>
        <time>2014-09-11T09:46:28Z</time>
      </trkpt>
      <trkpt lat="44.49034" lon="4.86436">
        <ele>395.13</ele>
        <time>2014-09-11T09:46:35Z</time>
      </trkpt>
      <trkpt lat="44.49036" lon="4.8643">
        <ele>395.02</ele>
        <time>2014-09-11T09:46:36Z</time>
      </trkpt>
      <trkpt lat="44.49052" lon="4.8637">
        <ele>393.66</ele>
        <time>2014-09-11T09:46:45Z</time>
      </trkpt>
      <trkpt lat="44.49056" lon="4.86357">
        <ele>393.71</ele>
        <time>2014-09-11T09:46:47Z</time>
      </trkpt>
      <trkpt lat="44.49058" lon="4.86351">
        <ele>393.66</ele>
        <time>2014-09-11T09:46:48Z</time>
      </trkpt>
      <trkpt lat="44.49064" lon="4.86335">
        <ele>393.65</ele>
        <time>2014-09-11T09:46:51Z</time>
      </trkpt>
      <trkpt lat="44.49072" lon="4.86318">
        <ele>393.54</ele>
        <time>2014-09-11T09:46:54Z</time>
      </trkpt>
      <trkpt lat="44.49075" lon="4.86312">
        <ele>393.76</ele>
        <time>2014-09-11T09:46:55Z</time>
      </trkpt>
      <trkpt lat="44.49109" lon="4.86242">
        <ele>393.63</ele>
        <time>2014-09-11T09:47:07Z</time>
      </trkpt>
      <trkpt lat="44.49121" lon="4.86198">
        <ele>394.68</ele>
        <time>2014-09-11T09:47:14Z</time>
      </trkpt>
      <trkpt lat="44.49123" lon="4.86183">
        <ele>394.84</ele>
        <time>2014-09-11T09:47:16Z</time>
      </trkpt>
      <trkpt lat="44.49126" lon="4.86134">
        <ele>393.9</ele>
        <time>2014-09-11T09:47:22Z</time>
      </trkpt>
      <trkpt lat="44.49129" lon="4.86111">
        <ele>392.66</ele>
        <time>2014-09-11T09:47:25Z</time>
      </trkpt>
      <trkpt lat="44.49133" lon="4.86097">
        <ele>392.66</ele>
        <time>2014-09-11T09:47:27Z</time>
      </trkpt>
      <trkpt lat="44.49135" lon="4.86089">
        <ele>393.01</ele>
        <time>2014-09-11T09:47:28Z</time>
      </trkpt>
      <trkpt lat="44.49144" lon="4.86069">
        <ele>394.05</ele>
        <time>2014-09-11T09:47:31Z</time>
      </trkpt>
      <trkpt lat="44.49152" lon="4.86052">
        <ele>394.3</ele>
        <time>2014-09-11T09:47:34Z</time>
      </trkpt>
      <trkpt lat="44.49161" lon="4.86034">
        <ele>393.7</ele>
        <time>2014-09-11T09:47:37Z</time>
      </trkpt>
      <trkpt lat="44.49168" lon="4.86023">
        <ele>393.05</ele>
        <time>2014-09-11T09:47:39Z</time>
      </trkpt>
      <trkpt lat="44.49173" lon="4.86011">
        <ele>392.64</ele>
        <time>2014-09-11T09:47:41Z</time>
      </trkpt>
      <trkpt lat="44.49176" lon="4.86006">
        <ele>392.57</ele>
        <time>2014-09-11T09:47:42Z</time>
      </trkpt>
      <trkpt lat="44.49192" lon="4.85984">
        <ele>392.83</ele>
        <time>2014-09-11T09:47:47Z</time>
      </trkpt>
      <trkpt lat="44.49195" lon="4.85981">
        <ele>392.84</ele>
        <time>2014-09-11T09:47:48Z</time>
      </trkpt>
      <trkpt lat="44.49223" lon="4.85963">
        <ele>391.42</ele>
        <time>2014-09-11T09:47:59Z</time>
      </trkpt>
      <trkpt lat="44.49229" lon="4.85961">
        <ele>391.6</ele>
        <time>2014-09-11T09:48:11Z</time>
      </trkpt>
      <trkpt lat="44.49231" lon="4.85961">
        <ele>391.88</ele>
        <time>2014-09-11T09:48:12Z</time>
      </trkpt>
      <trkpt lat="44.49234" lon="4.8596">
        <ele>392.09</ele>
        <time>2014-09-11T09:48:13Z</time>
      </trkpt>
      <trkpt lat="44.49236" lon="4.85959">
        <ele>392.26</ele>
        <time>2014-09-11T09:48:14Z</time>
      </trkpt>
      <trkpt lat="44.49238" lon="4.85958">
        <ele>392.41</ele>
        <time>2014-09-11T09:48:15Z</time>
      </trkpt>
      <trkpt lat="44.49241" lon="4.85957">
        <ele>392.55</ele>
        <time>2014-09-11T09:48:16Z</time>
      </trkpt>
      <trkpt lat="44.49243" lon="4.85956">
        <ele>392.71</ele>
        <time>2014-09-11T09:48:17Z</time>
      </trkpt>
      <trkpt lat="44.49245" lon="4.85954">
        <ele>392.93</ele>
        <time>2014-09-11T09:48:18Z</time>
      </trkpt>
      <trkpt lat="44.4925" lon="4.8595">
        <ele>393.03</ele>
        <time>2014-09-11T09:48:20Z</time>
      </trkpt>
      <trkpt lat="44.49252" lon="4.85947">
        <ele>393.09</ele>
        <time>2014-09-11T09:48:21Z</time>
      </trkpt>
      <trkpt lat="44.49254" lon="4.85945">
        <ele>393.08</ele>
        <time>2014-09-11T09:48:22Z</time>
      </trkpt>
      <trkpt lat="44.49255" lon="4.85942">
        <ele>392.82</ele>
        <time>2014-09-11T09:48:23Z</time>
      </trkpt>
      <trkpt lat="44.49256" lon="4.85938">
        <ele>392.62</ele>
        <time>2014-09-11T09:48:24Z</time>
      </trkpt>
      <trkpt lat="44.49258" lon="4.85935">
        <ele>392.49</ele>
        <time>2014-09-11T09:48:25Z</time>
      </trkpt>
      <trkpt lat="44.49259" lon="4.85932">
        <ele>392.43</ele>
        <time>2014-09-11T09:48:26Z</time>
      </trkpt>
      <trkpt lat="44.4926" lon="4.85929">
        <ele>392.49</ele>
        <time>2014-09-11T09:48:27Z</time>
      </trkpt>
      <trkpt lat="44.49261" lon="4.85925">
        <ele>392.59</ele>
        <time>2014-09-11T09:48:28Z</time>
      </trkpt>
      <trkpt lat="44.49262" lon="4.85922">
        <ele>392.68</ele>
        <time>2014-09-11T09:48:29Z</time>
      </trkpt>
      <trkpt lat="44.49263" lon="4.85919">
        <ele>392.75</ele>
        <time>2014-09-11T09:48:30Z</time>
      </trkpt>
      <trkpt lat="44.49264" lon="4.85916">
        <ele>392.79</ele>
        <time>2014-09-11T09:48:31Z</time>
      </trkpt>
      <trkpt lat="44.49265" lon="4.85913">
        <ele>392.81</ele>
        <time>2014-09-11T09:48:32Z</time>
      </trkpt>
      <trkpt lat="44.49267" lon="4.8591">
        <ele>392.76</ele>
        <time>2014-09-11T09:48:33Z</time>
      </trkpt>
      <trkpt lat="44.49269" lon="4.85904">
        <ele>392.72</ele>
        <time>2014-09-11T09:48:35Z</time>
      </trkpt>
      <trkpt lat="44.49271" lon="4.859">
        <ele>392.61</ele>
        <time>2014-09-11T09:48:36Z</time>
      </trkpt>
      <trkpt lat="44.49272" lon="4.85897">
        <ele>392.56</ele>
        <time>2014-09-11T09:48:37Z</time>
      </trkpt>
      <trkpt lat="44.49273" lon="4.85893">
        <ele>392.59</ele>
        <time>2014-09-11T09:48:38Z</time>
      </trkpt>
      <trkpt lat="44.49274" lon="4.8589">
        <ele>392.74</ele>
        <time>2014-09-11T09:48:39Z</time>
      </trkpt>
      <trkpt lat="44.49276" lon="4.85885">
        <ele>393.32</ele>
        <time>2014-09-11T09:48:41Z</time>
      </trkpt>
      <trkpt lat="44.49278" lon="4.85881">
        <ele>393.67</ele>
        <time>2014-09-11T09:48:42Z</time>
      </trkpt>
      <trkpt lat="44.49279" lon="4.85878">
        <ele>393.83</ele>
        <time>2014-09-11T09:48:43Z</time>
      </trkpt>
      <trkpt lat="44.4928" lon="4.85876">
        <ele>393.97</ele>
        <time>2014-09-11T09:48:44Z</time>
      </trkpt>
      <trkpt lat="44.49281" lon="4.85873">
        <ele>394.04</ele>
        <time>2014-09-11T09:48:45Z</time>
      </trkpt>
      <trkpt lat="44.49286" lon="4.85862">
        <ele>394.19</ele>
        <time>2014-09-11T09:48:50Z</time>
      </trkpt>
      <trkpt lat="44.4929" lon="4.8586">
        <ele>393.36</ele>
        <time>2014-09-11T09:49:05Z</time>
      </trkpt>
      <trkpt lat="44.49296" lon="4.85854">
        <ele>394.29</ele>
        <time>2014-09-11T09:49:57Z</time>
      </trkpt>
      <trkpt lat="44.49298" lon="4.85851">
        <ele>394.12</ele>
        <time>2014-09-11T09:50:15Z</time>
      </trkpt>
      <trkpt lat="44.49299" lon="4.85851">
        <ele>395.01</ele>
        <time>2014-09-11T09:50:48Z</time>
      </trkpt>
      <trkpt lat="44.49298" lon="4.85849">
        <ele>394.23</ele>
        <time>2014-09-11T09:51:40Z</time>
      </trkpt>
      <trkpt lat="44.49297" lon="4.85848">
        <ele>393.53</ele>
        <time>2014-09-11T09:52:15Z</time>
      </trkpt>
      <trkpt lat="44.49296" lon="4.85848">
        <ele>394.51</ele>
        <time>2014-09-11T09:53:05Z</time>
      </trkpt>
      <trkpt lat="44.49293" lon="4.85845">
        <ele>395.31</ele>
        <time>2014-09-11T09:54:18Z</time>
      </trkpt>
      <trkpt lat="44.49293" lon="4.85843">
        <ele>395.36</ele>
        <time>2014-09-11T09:54:19Z</time>
      </trkpt>
      <trkpt lat="44.49294" lon="4.85841">
        <ele>395.47</ele>
        <time>2014-09-11T09:54:20Z</time>
      </trkpt>
      <trkpt lat="44.49295" lon="4.85838">
        <ele>395.36</ele>
        <time>2014-09-11T09:54:21Z</time>
      </trkpt>
      <trkpt lat="44.49296" lon="4.85836">
        <ele>395.26</ele>
        <time>2014-09-11T09:54:22Z</time>
      </trkpt>
      <trkpt lat="44.49297" lon="4.85834">
        <ele>395.26</ele>
        <time>2014-09-11T09:54:23Z</time>
      </trkpt>
      <trkpt lat="44.49298" lon="4.85831">
        <ele>395.16</ele>
        <time>2014-09-11T09:54:24Z</time>
      </trkpt>
      <trkpt lat="44.49298" lon="4.85829">
        <ele>395.2</ele>
        <time>2014-09-11T09:54:25Z</time>
      </trkpt>
      <trkpt lat="44.49299" lon="4.85827">
        <ele>395.22</ele>
        <time>2014-09-11T09:54:26Z</time>
      </trkpt>
      <trkpt lat="44.493" lon="4.85824">
        <ele>395.34</ele>
        <time>2014-09-11T09:54:27Z</time>
      </trkpt>
      <trkpt lat="44.49301" lon="4.85822">
        <ele>395.41</ele>
        <time>2014-09-11T09:54:28Z</time>
      </trkpt>
      <trkpt lat="44.49301" lon="4.85819">
        <ele>395.61</ele>
        <time>2014-09-11T09:54:29Z</time>
      </trkpt>
      <trkpt lat="44.49302" lon="4.85816">
        <ele>395.71</ele>
        <time>2014-09-11T09:54:30Z</time>
      </trkpt>
      <trkpt lat="44.49303" lon="4.85813">
        <ele>395.8</ele>
        <time>2014-09-11T09:54:31Z</time>
      </trkpt>
      <trkpt lat="44.49304" lon="4.85811">
        <ele>395.85</ele>
        <time>2014-09-11T09:54:32Z</time>
      </trkpt>
      <trkpt lat="44.49305" lon="4.85808">
        <ele>395.89</ele>
        <time>2014-09-11T09:54:33Z</time>
      </trkpt>
      <trkpt lat="44.49305" lon="4.85805">
        <ele>395.91</ele>
        <time>2014-09-11T09:54:34Z</time>
      </trkpt>
      <trkpt lat="44.49306" lon="4.85803">
        <ele>395.88</ele>
        <time>2014-09-11T09:54:35Z</time>
      </trkpt>
      <trkpt lat="44.49306" lon="4.85791">
        <ele>396.54</ele>
        <time>2014-09-11T09:54:39Z</time>
      </trkpt>
      <trkpt lat="44.49307" lon="4.85788">
        <ele>396.54</ele>
        <time>2014-09-11T09:54:40Z</time>
      </trkpt>
      <trkpt lat="44.49307" lon="4.85785">
        <ele>396.54</ele>
        <time>2014-09-11T09:54:41Z</time>
      </trkpt>
      <trkpt lat="44.49307" lon="4.85782">
        <ele>396.62</ele>
        <time>2014-09-11T09:54:42Z</time>
      </trkpt>
      <trkpt lat="44.49307" lon="4.85778">
        <ele>396.67</ele>
        <time>2014-09-11T09:54:43Z</time>
      </trkpt>
      <trkpt lat="44.49307" lon="4.85775">
        <ele>396.79</ele>
        <time>2014-09-11T09:54:44Z</time>
      </trkpt>
      <trkpt lat="44.49306" lon="4.85771">
        <ele>397.12</ele>
        <time>2014-09-11T09:54:45Z</time>
      </trkpt>
      <trkpt lat="44.49306" lon="4.85768">
        <ele>397.37</ele>
        <time>2014-09-11T09:54:46Z</time>
      </trkpt>
      <trkpt lat="44.49305" lon="4.85764">
        <ele>397.58</ele>
        <time>2014-09-11T09:54:47Z</time>
      </trkpt>
      <trkpt lat="44.49305" lon="4.85761">
        <ele>397.75</ele>
        <time>2014-09-11T09:54:48Z</time>
      </trkpt>
      <trkpt lat="44.49305" lon="4.85758">
        <ele>397.85</ele>
        <time>2014-09-11T09:54:49Z</time>
      </trkpt>
      <trkpt lat="44.49305" lon="4.85754">
        <ele>397.99</ele>
        <time>2014-09-11T09:54:50Z</time>
      </trkpt>
      <trkpt lat="44.49308" lon="4.85709">
        <ele>400.44</ele>
        <time>2014-09-11T09:55:06Z</time>
      </trkpt>
      <trkpt lat="44.49315" lon="4.85688">
        <ele>401.19</ele>
        <time>2014-09-11T09:55:13Z</time>
      </trkpt>
      <trkpt lat="44.49316" lon="4.85685">
        <ele>401.22</ele>
        <time>2014-09-11T09:55:14Z</time>
      </trkpt>
      <trkpt lat="44.49317" lon="4.85682">
        <ele>401.27</ele>
        <time>2014-09-11T09:55:15Z</time>
      </trkpt>
      <trkpt lat="44.4932" lon="4.85646">
        <ele>403.35</ele>
        <time>2014-09-11T09:55:28Z</time>
      </trkpt>
      <trkpt lat="44.49321" lon="4.85625">
        <ele>403.56</ele>
        <time>2014-09-11T09:55:35Z</time>
      </trkpt>
      <trkpt lat="44.49321" lon="4.85618">
        <ele>403.5</ele>
        <time>2014-09-11T09:55:37Z</time>
      </trkpt>
      <trkpt lat="44.49321" lon="4.85615">
        <ele>403.44</ele>
        <time>2014-09-11T09:55:38Z</time>
      </trkpt>
      <trkpt lat="44.49321" lon="4.85612">
        <ele>403.42</ele>
        <time>2014-09-11T09:55:39Z</time>
      </trkpt>
      <trkpt lat="44.49322" lon="4.85606">
        <ele>403.46</ele>
        <time>2014-09-11T09:55:41Z</time>
      </trkpt>
      <trkpt lat="44.49322" lon="4.85604">
        <ele>403.44</ele>
        <time>2014-09-11T09:55:42Z</time>
      </trkpt>
      <trkpt lat="44.49323" lon="4.85601">
        <ele>404.83</ele>
        <time>2014-09-11T09:55:55Z</time>
      </trkpt>
      <trkpt lat="44.49323" lon="4.85599">
        <ele>404.92</ele>
        <time>2014-09-11T09:56:42Z</time>
      </trkpt>
      <trkpt lat="44.49324" lon="4.85593">
        <ele>406.3</ele>
        <time>2014-09-11T09:56:46Z</time>
      </trkpt>
      <trkpt lat="44.49324" lon="4.8559">
        <ele>406.59</ele>
        <time>2014-09-11T09:56:47Z</time>
      </trkpt>
      <trkpt lat="44.49324" lon="4.85588">
        <ele>406.7</ele>
        <time>2014-09-11T09:56:48Z</time>
      </trkpt>
      <trkpt lat="44.49324" lon="4.85586">
        <ele>406.43</ele>
        <time>2014-09-11T09:56:49Z</time>
      </trkpt>
      <trkpt lat="44.49324" lon="4.85584">
        <ele>406.36</ele>
        <time>2014-09-11T09:56:50Z</time>
      </trkpt>
      <trkpt lat="44.49325" lon="4.8558">
        <ele>404.88</ele>
        <time>2014-09-11T09:57:03Z</time>
      </trkpt>
      <trkpt lat="44.49325" lon="4.85578">
        <ele>405.01</ele>
        <time>2014-09-11T09:58:43Z</time>
      </trkpt>
      <trkpt lat="44.49328" lon="4.8557">
        <ele>405.05</ele>
        <time>2014-09-11T09:58:46Z</time>
      </trkpt>
      <trkpt lat="44.49328" lon="4.85567">
        <ele>404.9</ele>
        <time>2014-09-11T09:58:47Z</time>
      </trkpt>
      <trkpt lat="44.49329" lon="4.85565">
        <ele>404.83</ele>
        <time>2014-09-11T09:58:48Z</time>
      </trkpt>
      <trkpt lat="44.49329" lon="4.85562">
        <ele>404.96</ele>
        <time>2014-09-11T09:58:49Z</time>
      </trkpt>
      <trkpt lat="44.49328" lon="4.85559">
        <ele>405.02</ele>
        <time>2014-09-11T09:58:50Z</time>
      </trkpt>
      <trkpt lat="44.49328" lon="4.85557">
        <ele>405.12</ele>
        <time>2014-09-11T09:58:51Z</time>
      </trkpt>
      <trkpt lat="44.49328" lon="4.85554">
        <ele>405.16</ele>
        <time>2014-09-11T09:58:52Z</time>
      </trkpt>
      <trkpt lat="44.49327" lon="4.85551">
        <ele>405.05</ele>
        <time>2014-09-11T09:58:53Z</time>
      </trkpt>
      <trkpt lat="44.49327" lon="4.85548">
        <ele>404.99</ele>
        <time>2014-09-11T09:58:54Z</time>
      </trkpt>
      <trkpt lat="44.49325" lon="4.85536">
        <ele>405</ele>
        <time>2014-09-11T09:58:57Z</time>
      </trkpt>
      <trkpt lat="44.49324" lon="4.85532">
        <ele>404.74</ele>
        <time>2014-09-11T09:58:58Z</time>
      </trkpt>
      <trkpt lat="44.49323" lon="4.85528">
        <ele>404.49</ele>
        <time>2014-09-11T09:58:59Z</time>
      </trkpt>
      <trkpt lat="44.49322" lon="4.85523">
        <ele>404.29</ele>
        <time>2014-09-11T09:59:00Z</time>
      </trkpt>
      <trkpt lat="44.49322" lon="4.85517">
        <ele>404.03</ele>
        <time>2014-09-11T09:59:01Z</time>
      </trkpt>
      <trkpt lat="44.49321" lon="4.85511">
        <ele>403.64</ele>
        <time>2014-09-11T09:59:02Z</time>
      </trkpt>
      <trkpt lat="44.49321" lon="4.85505">
        <ele>403.18</ele>
        <time>2014-09-11T09:59:03Z</time>
      </trkpt>
      <trkpt lat="44.49321" lon="4.85498">
        <ele>402.6</ele>
        <time>2014-09-11T09:59:04Z</time>
      </trkpt>
      <trkpt lat="44.49321" lon="4.85491">
        <ele>401.97</ele>
        <time>2014-09-11T09:59:05Z</time>
      </trkpt>
      <trkpt lat="44.49322" lon="4.85474">
        <ele>401.35</ele>
        <time>2014-09-11T09:59:07Z</time>
      </trkpt>
      <trkpt lat="44.49322" lon="4.85381">
        <ele>398.14</ele>
        <time>2014-09-11T09:59:18Z</time>
      </trkpt>
      <trkpt lat="44.4932" lon="4.8534">
        <ele>397.26</ele>
        <time>2014-09-11T09:59:23Z</time>
      </trkpt>
      <trkpt lat="44.4932" lon="4.85332">
        <ele>397.2</ele>
        <time>2014-09-11T09:59:24Z</time>
      </trkpt>
      <trkpt lat="44.4932" lon="4.85303">
        <ele>396.98</ele>
        <time>2014-09-11T09:59:28Z</time>
      </trkpt>
      <trkpt lat="44.49323" lon="4.85287">
        <ele>397.37</ele>
        <time>2014-09-11T09:59:31Z</time>
      </trkpt>
      <trkpt lat="44.49323" lon="4.8528">
        <ele>397.85</ele>
        <time>2014-09-11T09:59:33Z</time>
      </trkpt>
      <trkpt lat="44.49323" lon="4.85277">
        <ele>397.88</ele>
        <time>2014-09-11T09:59:34Z</time>
      </trkpt>
      <trkpt lat="44.49321" lon="4.85269">
        <ele>397.91</ele>
        <time>2014-09-11T09:59:38Z</time>
      </trkpt>
      <trkpt lat="44.49319" lon="4.85263">
        <ele>397.46</ele>
        <time>2014-09-11T09:59:55Z</time>
      </trkpt>
      <trkpt lat="44.49325" lon="4.85253">
        <ele>396.74</ele>
        <time>2014-09-11T10:00:39Z</time>
      </trkpt>
      <trkpt lat="44.49327" lon="4.85255">
        <ele>397.39</ele>
        <time>2014-09-11T10:00:43Z</time>
      </trkpt>
      <trkpt lat="44.49338" lon="4.85254">
        <ele>398.29</ele>
        <time>2014-09-11T10:00:50Z</time>
      </trkpt>
      <trkpt lat="44.49341" lon="4.85248">
        <ele>398.61</ele>
        <time>2014-09-11T10:00:52Z</time>
      </trkpt>
      <trkpt lat="44.49343" lon="4.85246">
        <ele>398.67</ele>
        <time>2014-09-11T10:00:53Z</time>
      </trkpt>
      <trkpt lat="44.49345" lon="4.85243">
        <ele>398.77</ele>
        <time>2014-09-11T10:00:54Z</time>
      </trkpt>
      <trkpt lat="44.49347" lon="4.8524">
        <ele>398.92</ele>
        <time>2014-09-11T10:00:55Z</time>
      </trkpt>
      <trkpt lat="44.49348" lon="4.85237">
        <ele>399.1</ele>
        <time>2014-09-11T10:00:56Z</time>
      </trkpt>
      <trkpt lat="44.4935" lon="4.85234">
        <ele>399.19</ele>
        <time>2014-09-11T10:00:57Z</time>
      </trkpt>
      <trkpt lat="44.49359" lon="4.85221">
        <ele>399.4</ele>
        <time>2014-09-11T10:01:01Z</time>
      </trkpt>
      <trkpt lat="44.4936" lon="4.85217">
        <ele>399.55</ele>
        <time>2014-09-11T10:01:02Z</time>
      </trkpt>
      <trkpt lat="44.49366" lon="4.85206">
        <ele>399.84</ele>
        <time>2014-09-11T10:01:05Z</time>
      </trkpt>
      <trkpt lat="44.49368" lon="4.85203">
        <ele>399.9</ele>
        <time>2014-09-11T10:01:06Z</time>
      </trkpt>
      <trkpt lat="44.4937" lon="4.852">
        <ele>399.98</ele>
        <time>2014-09-11T10:01:07Z</time>
      </trkpt>
      <trkpt lat="44.49372" lon="4.85197">
        <ele>400.02</ele>
        <time>2014-09-11T10:01:08Z</time>
      </trkpt>
      <trkpt lat="44.49373" lon="4.85194">
        <ele>400.1</ele>
        <time>2014-09-11T10:01:09Z</time>
      </trkpt>
      <trkpt lat="44.49375" lon="4.85191">
        <ele>400.24</ele>
        <time>2014-09-11T10:01:10Z</time>
      </trkpt>
      <trkpt lat="44.49376" lon="4.85188">
        <ele>400.41</ele>
        <time>2014-09-11T10:01:11Z</time>
      </trkpt>
      <trkpt lat="44.49376" lon="4.85185">
        <ele>400.52</ele>
        <time>2014-09-11T10:01:12Z</time>
      </trkpt>
      <trkpt lat="44.49378" lon="4.85177">
        <ele>400.65</ele>
        <time>2014-09-11T10:01:14Z</time>
      </trkpt>
      <trkpt lat="44.49379" lon="4.85172">
        <ele>400.68</ele>
        <time>2014-09-11T10:01:15Z</time>
      </trkpt>
      <trkpt lat="44.49379" lon="4.85167">
        <ele>400.7</ele>
        <time>2014-09-11T10:01:16Z</time>
      </trkpt>
      <trkpt lat="44.49379" lon="4.85162">
        <ele>400.71</ele>
        <time>2014-09-11T10:01:17Z</time>
      </trkpt>
      <trkpt lat="44.49379" lon="4.85157">
        <ele>400.81</ele>
        <time>2014-09-11T10:01:18Z</time>
      </trkpt>
      <trkpt lat="44.4938" lon="4.85151">
        <ele>400.99</ele>
        <time>2014-09-11T10:01:19Z</time>
      </trkpt>
      <trkpt lat="44.49379" lon="4.85145">
        <ele>401.18</ele>
        <time>2014-09-11T10:01:20Z</time>
      </trkpt>
      <trkpt lat="44.49379" lon="4.85139">
        <ele>401.21</ele>
        <time>2014-09-11T10:01:21Z</time>
      </trkpt>
      <trkpt lat="44.49379" lon="4.85134">
        <ele>401.22</ele>
        <time>2014-09-11T10:01:22Z</time>
      </trkpt>
      <trkpt lat="44.49379" lon="4.85129">
        <ele>401.3</ele>
        <time>2014-09-11T10:01:23Z</time>
      </trkpt>
      <trkpt lat="44.49379" lon="4.85125">
        <ele>401.33</ele>
        <time>2014-09-11T10:01:24Z</time>
      </trkpt>
      <trkpt lat="44.49379" lon="4.8512">
        <ele>401.37</ele>
        <time>2014-09-11T10:01:25Z</time>
      </trkpt>
      <trkpt lat="44.49379" lon="4.85115">
        <ele>401.4</ele>
        <time>2014-09-11T10:01:26Z</time>
      </trkpt>
      <trkpt lat="44.4938" lon="4.8511">
        <ele>401.41</ele>
        <time>2014-09-11T10:01:27Z</time>
      </trkpt>
      <trkpt lat="44.4938" lon="4.85104">
        <ele>401.48</ele>
        <time>2014-09-11T10:01:28Z</time>
      </trkpt>
      <trkpt lat="44.49381" lon="4.85099">
        <ele>401.7</ele>
        <time>2014-09-11T10:01:29Z</time>
      </trkpt>
      <trkpt lat="44.49381" lon="4.85093">
        <ele>401.88</ele>
        <time>2014-09-11T10:01:30Z</time>
      </trkpt>
      <trkpt lat="44.49382" lon="4.85088">
        <ele>401.97</ele>
        <time>2014-09-11T10:01:31Z</time>
      </trkpt>
      <trkpt lat="44.49383" lon="4.85083">
        <ele>401.97</ele>
        <time>2014-09-11T10:01:32Z</time>
      </trkpt>
      <trkpt lat="44.49383" lon="4.85078">
        <ele>402.15</ele>
        <time>2014-09-11T10:01:33Z</time>
      </trkpt>
      <trkpt lat="44.49384" lon="4.85073">
        <ele>402.26</ele>
        <time>2014-09-11T10:01:34Z</time>
      </trkpt>
      <trkpt lat="44.49386" lon="4.85049">
        <ele>402.87</ele>
        <time>2014-09-11T10:01:39Z</time>
      </trkpt>
      <trkpt lat="44.49388" lon="4.85039">
        <ele>402.96</ele>
        <time>2014-09-11T10:01:41Z</time>
      </trkpt>
      <trkpt lat="44.49389" lon="4.85034">
        <ele>403.1</ele>
        <time>2014-09-11T10:01:42Z</time>
      </trkpt>
      <trkpt lat="44.49389" lon="4.85029">
        <ele>403.36</ele>
        <time>2014-09-11T10:01:43Z</time>
      </trkpt>
      <trkpt lat="44.4939" lon="4.85024">
        <ele>403.62</ele>
        <time>2014-09-11T10:01:44Z</time>
      </trkpt>
      <trkpt lat="44.49391" lon="4.85019">
        <ele>403.78</ele>
        <time>2014-09-11T10:01:45Z</time>
      </trkpt>
      <trkpt lat="44.49396" lon="4.84996">
        <ele>403.97</ele>
        <time>2014-09-11T10:01:49Z</time>
      </trkpt>
      <trkpt lat="44.49399" lon="4.84983">
        <ele>404.14</ele>
        <time>2014-09-11T10:01:51Z</time>
      </trkpt>
      <trkpt lat="44.494" lon="4.84976">
        <ele>404.3</ele>
        <time>2014-09-11T10:01:52Z</time>
      </trkpt>
      <trkpt lat="44.49411" lon="4.84903">
        <ele>403.91</ele>
        <time>2014-09-11T10:02:05Z</time>
      </trkpt>
      <trkpt lat="44.49419" lon="4.84867">
        <ele>403.81</ele>
        <time>2014-09-11T10:02:12Z</time>
      </trkpt>
      <trkpt lat="44.4942" lon="4.84861">
        <ele>403.85</ele>
        <time>2014-09-11T10:02:13Z</time>
      </trkpt>
      <trkpt lat="44.4942" lon="4.84857">
        <ele>403.86</ele>
        <time>2014-09-11T10:02:14Z</time>
      </trkpt>
      <trkpt lat="44.49421" lon="4.84851">
        <ele>403.99</ele>
        <time>2014-09-11T10:02:15Z</time>
      </trkpt>
      <trkpt lat="44.49422" lon="4.84846">
        <ele>404.14</ele>
        <time>2014-09-11T10:02:16Z</time>
      </trkpt>
      <trkpt lat="44.49422" lon="4.84804">
        <ele>403.85</ele>
        <time>2014-09-11T10:02:24Z</time>
      </trkpt>
      <trkpt lat="44.49422" lon="4.848">
        <ele>403.86</ele>
        <time>2014-09-11T10:02:25Z</time>
      </trkpt>
      <trkpt lat="44.49421" lon="4.84795">
        <ele>404.05</ele>
        <time>2014-09-11T10:02:26Z</time>
      </trkpt>
      <trkpt lat="44.4942" lon="4.84787">
        <ele>404.14</ele>
        <time>2014-09-11T10:02:28Z</time>
      </trkpt>
      <trkpt lat="44.49419" lon="4.84783">
        <ele>404.05</ele>
        <time>2014-09-11T10:02:29Z</time>
      </trkpt>
      <trkpt lat="44.49417" lon="4.84768">
        <ele>403.88</ele>
        <time>2014-09-11T10:02:32Z</time>
      </trkpt>
      <trkpt lat="44.49416" lon="4.84763">
        <ele>403.85</ele>
        <time>2014-09-11T10:02:33Z</time>
      </trkpt>
      <trkpt lat="44.49416" lon="4.84758">
        <ele>403.86</ele>
        <time>2014-09-11T10:02:34Z</time>
      </trkpt>
      <trkpt lat="44.49415" lon="4.84754">
        <ele>403.87</ele>
        <time>2014-09-11T10:02:35Z</time>
      </trkpt>
      <trkpt lat="44.49415" lon="4.84744">
        <ele>403.93</ele>
        <time>2014-09-11T10:02:37Z</time>
      </trkpt>
      <trkpt lat="44.49414" lon="4.8474">
        <ele>403.93</ele>
        <time>2014-09-11T10:02:38Z</time>
      </trkpt>
      <trkpt lat="44.49414" lon="4.84736">
        <ele>403.93</ele>
        <time>2014-09-11T10:02:39Z</time>
      </trkpt>
      <trkpt lat="44.49414" lon="4.84732">
        <ele>403.93</ele>
        <time>2014-09-11T10:02:40Z</time>
      </trkpt>
      <trkpt lat="44.49413" lon="4.84729">
        <ele>403.86</ele>
        <time>2014-09-11T10:02:41Z</time>
      </trkpt>
      <trkpt lat="44.49413" lon="4.84726">
        <ele>403.7</ele>
        <time>2014-09-11T10:02:42Z</time>
      </trkpt>
      <trkpt lat="44.49413" lon="4.84719">
        <ele>403.42</ele>
        <time>2014-09-11T10:02:44Z</time>
      </trkpt>
      <trkpt lat="44.49413" lon="4.84716">
        <ele>403.37</ele>
        <time>2014-09-11T10:02:45Z</time>
      </trkpt>
      <trkpt lat="44.49413" lon="4.84712">
        <ele>403.22</ele>
        <time>2014-09-11T10:02:46Z</time>
      </trkpt>
      <trkpt lat="44.49413" lon="4.84704">
        <ele>403.42</ele>
        <time>2014-09-11T10:02:48Z</time>
      </trkpt>
      <trkpt lat="44.49413" lon="4.847">
        <ele>403.58</ele>
        <time>2014-09-11T10:02:49Z</time>
      </trkpt>
      <trkpt lat="44.49412" lon="4.84695">
        <ele>403.65</ele>
        <time>2014-09-11T10:02:50Z</time>
      </trkpt>
      <trkpt lat="44.49411" lon="4.8469">
        <ele>403.63</ele>
        <time>2014-09-11T10:02:51Z</time>
      </trkpt>
      <trkpt lat="44.4941" lon="4.84686">
        <ele>403.68</ele>
        <time>2014-09-11T10:02:52Z</time>
      </trkpt>
      <trkpt lat="44.49409" lon="4.84681">
        <ele>403.71</ele>
        <time>2014-09-11T10:02:53Z</time>
      </trkpt>
      <trkpt lat="44.49407" lon="4.84677">
        <ele>403.66</ele>
        <time>2014-09-11T10:02:54Z</time>
      </trkpt>
      <trkpt lat="44.49405" lon="4.84673">
        <ele>403.58</ele>
        <time>2014-09-11T10:02:55Z</time>
      </trkpt>
      <trkpt lat="44.49403" lon="4.84669">
        <ele>403.44</ele>
        <time>2014-09-11T10:02:56Z</time>
      </trkpt>
      <trkpt lat="44.494" lon="4.84665">
        <ele>403.33</ele>
        <time>2014-09-11T10:02:57Z</time>
      </trkpt>
      <trkpt lat="44.49398" lon="4.84662">
        <ele>403.29</ele>
        <time>2014-09-11T10:02:58Z</time>
      </trkpt>
      <trkpt lat="44.49396" lon="4.84659">
        <ele>403.16</ele>
        <time>2014-09-11T10:02:59Z</time>
      </trkpt>
      <trkpt lat="44.49394" lon="4.84656">
        <ele>403.2</ele>
        <time>2014-09-11T10:03:00Z</time>
      </trkpt>
      <trkpt lat="44.49392" lon="4.84654">
        <ele>403.26</ele>
        <time>2014-09-11T10:03:01Z</time>
      </trkpt>
      <trkpt lat="44.4939" lon="4.84651">
        <ele>403.38</ele>
        <time>2014-09-11T10:03:02Z</time>
      </trkpt>
      <trkpt lat="44.49388" lon="4.84649">
        <ele>403.58</ele>
        <time>2014-09-11T10:03:03Z</time>
      </trkpt>
      <trkpt lat="44.49385" lon="4.84646">
        <ele>403.73</ele>
        <time>2014-09-11T10:03:04Z</time>
      </trkpt>
      <trkpt lat="44.4938" lon="4.8464">
        <ele>403.85</ele>
        <time>2014-09-11T10:03:06Z</time>
      </trkpt>
      <trkpt lat="44.49378" lon="4.84636">
        <ele>403.86</ele>
        <time>2014-09-11T10:03:07Z</time>
      </trkpt>
      <trkpt lat="44.49376" lon="4.84633">
        <ele>403.84</ele>
        <time>2014-09-11T10:03:08Z</time>
      </trkpt>
      <trkpt lat="44.49373" lon="4.8463">
        <ele>403.83</ele>
        <time>2014-09-11T10:03:09Z</time>
      </trkpt>
      <trkpt lat="44.4937" lon="4.84627">
        <ele>403.83</ele>
        <time>2014-09-11T10:03:10Z</time>
      </trkpt>
      <trkpt lat="44.49367" lon="4.84624">
        <ele>403.86</ele>
        <time>2014-09-11T10:03:11Z</time>
      </trkpt>
      <trkpt lat="44.49364" lon="4.84621">
        <ele>403.93</ele>
        <time>2014-09-11T10:03:12Z</time>
      </trkpt>
      <trkpt lat="44.49362" lon="4.84617">
        <ele>404</ele>
        <time>2014-09-11T10:03:13Z</time>
      </trkpt>
      <trkpt lat="44.49359" lon="4.84613">
        <ele>404.03</ele>
        <time>2014-09-11T10:03:14Z</time>
      </trkpt>
      <trkpt lat="44.49356" lon="4.8461">
        <ele>404.04</ele>
        <time>2014-09-11T10:03:15Z</time>
      </trkpt>
      <trkpt lat="44.49354" lon="4.84606">
        <ele>404.05</ele>
        <time>2014-09-11T10:03:16Z</time>
      </trkpt>
      <trkpt lat="44.49351" lon="4.84602">
        <ele>404.05</ele>
        <time>2014-09-11T10:03:17Z</time>
      </trkpt>
      <trkpt lat="44.49348" lon="4.84598">
        <ele>404.01</ele>
        <time>2014-09-11T10:03:18Z</time>
      </trkpt>
      <trkpt lat="44.49345" lon="4.84594">
        <ele>403.76</ele>
        <time>2014-09-11T10:03:19Z</time>
      </trkpt>
      <trkpt lat="44.49329" lon="4.84569">
        <ele>402.82</ele>
        <time>2014-09-11T10:03:25Z</time>
      </trkpt>
      <trkpt lat="44.49325" lon="4.84558">
        <ele>402.89</ele>
        <time>2014-09-11T10:03:27Z</time>
      </trkpt>
      <trkpt lat="44.49323" lon="4.84553">
        <ele>402.71</ele>
        <time>2014-09-11T10:03:28Z</time>
      </trkpt>
      <trkpt lat="44.49321" lon="4.84547">
        <ele>402.31</ele>
        <time>2014-09-11T10:03:29Z</time>
      </trkpt>
      <trkpt lat="44.4932" lon="4.84541">
        <ele>401.82</ele>
        <time>2014-09-11T10:03:30Z</time>
      </trkpt>
      <trkpt lat="44.4932" lon="4.84513">
        <ele>401.73</ele>
        <time>2014-09-11T10:03:36Z</time>
      </trkpt>
      <trkpt lat="44.4932" lon="4.84509">
        <ele>401.86</ele>
        <time>2014-09-11T10:03:37Z</time>
      </trkpt>
      <trkpt lat="44.49321" lon="4.84506">
        <ele>401.9</ele>
        <time>2014-09-11T10:03:38Z</time>
      </trkpt>
      <trkpt lat="44.49315" lon="4.84494">
        <ele>400.65</ele>
        <time>2014-09-11T10:03:48Z</time>
      </trkpt>
      <trkpt lat="44.49312" lon="4.84492">
        <ele>400.42</ele>
        <time>2014-09-11T10:04:26Z</time>
      </trkpt>
      <trkpt lat="44.49309" lon="4.84493">
        <ele>400.52</ele>
        <time>2014-09-11T10:04:28Z</time>
      </trkpt>
      <trkpt lat="44.49307" lon="4.84493">
        <ele>400.55</ele>
        <time>2014-09-11T10:04:29Z</time>
      </trkpt>
      <trkpt lat="44.49304" lon="4.84495">
        <ele>400.57</ele>
        <time>2014-09-11T10:04:30Z</time>
      </trkpt>
      <trkpt lat="44.49299" lon="4.84499">
        <ele>400.34</ele>
        <time>2014-09-11T10:04:32Z</time>
      </trkpt>
      <trkpt lat="44.49296" lon="4.845">
        <ele>400.24</ele>
        <time>2014-09-11T10:04:33Z</time>
      </trkpt>
      <trkpt lat="44.49293" lon="4.84502">
        <ele>400.15</ele>
        <time>2014-09-11T10:04:34Z</time>
      </trkpt>
      <trkpt lat="44.4929" lon="4.84504">
        <ele>399.95</ele>
        <time>2014-09-11T10:04:35Z</time>
      </trkpt>
      <trkpt lat="44.49287" lon="4.84507">
        <ele>399.96</ele>
        <time>2014-09-11T10:04:36Z</time>
      </trkpt>
      <trkpt lat="44.49285" lon="4.84509">
        <ele>399.79</ele>
        <time>2014-09-11T10:04:37Z</time>
      </trkpt>
      <trkpt lat="44.49282" lon="4.84512">
        <ele>399.61</ele>
        <time>2014-09-11T10:04:38Z</time>
      </trkpt>
      <trkpt lat="44.49279" lon="4.84514">
        <ele>399.59</ele>
        <time>2014-09-11T10:04:39Z</time>
      </trkpt>
      <trkpt lat="44.49276" lon="4.84518">
        <ele>399.52</ele>
        <time>2014-09-11T10:04:40Z</time>
      </trkpt>
      <trkpt lat="44.49273" lon="4.84521">
        <ele>399.48</ele>
        <time>2014-09-11T10:04:41Z</time>
      </trkpt>
      <trkpt lat="44.49269" lon="4.84523">
        <ele>399.57</ele>
        <time>2014-09-11T10:04:42Z</time>
      </trkpt>
      <trkpt lat="44.49266" lon="4.84526">
        <ele>399.62</ele>
        <time>2014-09-11T10:04:43Z</time>
      </trkpt>
      <trkpt lat="44.49262" lon="4.8453">
        <ele>399.64</ele>
        <time>2014-09-11T10:04:44Z</time>
      </trkpt>
      <trkpt lat="44.49258" lon="4.84533">
        <ele>399.61</ele>
        <time>2014-09-11T10:04:45Z</time>
      </trkpt>
      <trkpt lat="44.49254" lon="4.84537">
        <ele>399.38</ele>
        <time>2014-09-11T10:04:46Z</time>
      </trkpt>
      <trkpt lat="44.49251" lon="4.84541">
        <ele>398.97</ele>
        <time>2014-09-11T10:04:47Z</time>
      </trkpt>
      <trkpt lat="44.49236" lon="4.84554">
        <ele>398.33</ele>
        <time>2014-09-11T10:04:51Z</time>
      </trkpt>
      <trkpt lat="44.49232" lon="4.84557">
        <ele>398.18</ele>
        <time>2014-09-11T10:04:52Z</time>
      </trkpt>
      <trkpt lat="44.49216" lon="4.84572">
        <ele>396.65</ele>
        <time>2014-09-11T10:04:56Z</time>
      </trkpt>
      <trkpt lat="44.49211" lon="4.84576">
        <ele>396.51</ele>
        <time>2014-09-11T10:04:57Z</time>
      </trkpt>
      <trkpt lat="44.49179" lon="4.84607">
        <ele>394.76</ele>
        <time>2014-09-11T10:05:09Z</time>
      </trkpt>
      <trkpt lat="44.49177" lon="4.84609">
        <ele>394.9</ele>
        <time>2014-09-11T10:05:29Z</time>
      </trkpt>
      <trkpt lat="44.49176" lon="4.8461">
        <ele>395.02</ele>
        <time>2014-09-11T10:05:30Z</time>
      </trkpt>
      <trkpt lat="44.49172" lon="4.84613">
        <ele>395</ele>
        <time>2014-09-11T10:05:32Z</time>
      </trkpt>
      <trkpt lat="44.49171" lon="4.84615">
        <ele>395.04</ele>
        <time>2014-09-11T10:05:33Z</time>
      </trkpt>
      <trkpt lat="44.49169" lon="4.84617">
        <ele>395.06</ele>
        <time>2014-09-11T10:05:34Z</time>
      </trkpt>
      <trkpt lat="44.49166" lon="4.84619">
        <ele>395.07</ele>
        <time>2014-09-11T10:05:35Z</time>
      </trkpt>
      <trkpt lat="44.49164" lon="4.84621">
        <ele>395.03</ele>
        <time>2014-09-11T10:05:36Z</time>
      </trkpt>
      <trkpt lat="44.49152" lon="4.84633">
        <ele>393.71</ele>
        <time>2014-09-11T10:05:44Z</time>
      </trkpt>
      <trkpt lat="44.49144" lon="4.84638">
        <ele>393.03</ele>
        <time>2014-09-11T10:05:59Z</time>
      </trkpt>
      <trkpt lat="44.4913" lon="4.84651">
        <ele>393.08</ele>
        <time>2014-09-11T10:06:04Z</time>
      </trkpt>
      <trkpt lat="44.49127" lon="4.84655">
        <ele>393.06</ele>
        <time>2014-09-11T10:06:05Z</time>
      </trkpt>
      <trkpt lat="44.49119" lon="4.84662">
        <ele>393.06</ele>
        <time>2014-09-11T10:06:07Z</time>
      </trkpt>
      <trkpt lat="44.49111" lon="4.84669">
        <ele>392.96</ele>
        <time>2014-09-11T10:06:09Z</time>
      </trkpt>
      <trkpt lat="44.49106" lon="4.84673">
        <ele>392.79</ele>
        <time>2014-09-11T10:06:10Z</time>
      </trkpt>
      <trkpt lat="44.49093" lon="4.84687">
        <ele>392.71</ele>
        <time>2014-09-11T10:06:13Z</time>
      </trkpt>
      <trkpt lat="44.49042" lon="4.84738">
        <ele>389.98</ele>
        <time>2014-09-11T10:06:25Z</time>
      </trkpt>
      <trkpt lat="44.48968" lon="4.84815">
        <ele>386.96</ele>
        <time>2014-09-11T10:06:40Z</time>
      </trkpt>
      <trkpt lat="44.48931" lon="4.84855">
        <ele>385.08</ele>
        <time>2014-09-11T10:06:51Z</time>
      </trkpt>
      <trkpt lat="44.48931" lon="4.84855">
        <ele>385.19</ele>
        <time>2014-09-11T10:07:06Z</time>
      </trkpt>
      <trkpt lat="44.4893" lon="4.84856">
        <ele>385.09</ele>
        <time>2014-09-11T10:07:07Z</time>
      </trkpt>
      <trkpt lat="44.48929" lon="4.84857">
        <ele>385.04</ele>
        <time>2014-09-11T10:07:08Z</time>
      </trkpt>
      <trkpt lat="44.48927" lon="4.84859">
        <ele>384.99</ele>
        <time>2014-09-11T10:07:09Z</time>
      </trkpt>
      <trkpt lat="44.48925" lon="4.84861">
        <ele>384.96</ele>
        <time>2014-09-11T10:07:10Z</time>
      </trkpt>
      <trkpt lat="44.48918" lon="4.84868">
        <ele>384.95</ele>
        <time>2014-09-11T10:07:13Z</time>
      </trkpt>
      <trkpt lat="44.48915" lon="4.8487">
        <ele>384.95</ele>
        <time>2014-09-11T10:07:14Z</time>
      </trkpt>
      <trkpt lat="44.48913" lon="4.84873">
        <ele>384.91</ele>
        <time>2014-09-11T10:07:15Z</time>
      </trkpt>
      <trkpt lat="44.48911" lon="4.84875">
        <ele>384.97</ele>
        <time>2014-09-11T10:07:16Z</time>
      </trkpt>
      <trkpt lat="44.48908" lon="4.84877">
        <ele>384.96</ele>
        <time>2014-09-11T10:07:17Z</time>
      </trkpt>
      <trkpt lat="44.48906" lon="4.8488">
        <ele>384.9</ele>
        <time>2014-09-11T10:07:18Z</time>
      </trkpt>
      <trkpt lat="44.48903" lon="4.84884">
        <ele>384.76</ele>
        <time>2014-09-11T10:07:19Z</time>
      </trkpt>
      <trkpt lat="44.48901" lon="4.84887">
        <ele>384.57</ele>
        <time>2014-09-11T10:07:20Z</time>
      </trkpt>
      <trkpt lat="44.48898" lon="4.84891">
        <ele>384.24</ele>
        <time>2014-09-11T10:07:21Z</time>
      </trkpt>
      <trkpt lat="44.48895" lon="4.84898">
        <ele>383.81</ele>
        <time>2014-09-11T10:07:23Z</time>
      </trkpt>
      <trkpt lat="44.48894" lon="4.84902">
        <ele>383.62</ele>
        <time>2014-09-11T10:07:24Z</time>
      </trkpt>
      <trkpt lat="44.48892" lon="4.84904">
        <ele>383.55</ele>
        <time>2014-09-11T10:07:25Z</time>
      </trkpt>
      <trkpt lat="44.48891" lon="4.84907">
        <ele>383.42</ele>
        <time>2014-09-11T10:07:26Z</time>
      </trkpt>
      <trkpt lat="44.4889" lon="4.8491">
        <ele>383.23</ele>
        <time>2014-09-11T10:07:27Z</time>
      </trkpt>
      <trkpt lat="44.48889" lon="4.84912">
        <ele>383.07</ele>
        <time>2014-09-11T10:07:28Z</time>
      </trkpt>
      <trkpt lat="44.48888" lon="4.84914">
        <ele>382.95</ele>
        <time>2014-09-11T10:07:29Z</time>
      </trkpt>
      <trkpt lat="44.48887" lon="4.84917">
        <ele>382.71</ele>
        <time>2014-09-11T10:07:44Z</time>
      </trkpt>
      <trkpt lat="44.48888" lon="4.84916">
        <ele>382.81</ele>
        <time>2014-09-11T10:08:31Z</time>
      </trkpt>
      <trkpt lat="44.48886" lon="4.8492">
        <ele>382.12</ele>
        <time>2014-09-11T10:09:20Z</time>
      </trkpt>
      <trkpt lat="44.48885" lon="4.84923">
        <ele>382.07</ele>
        <time>2014-09-11T10:09:21Z</time>
      </trkpt>
      <trkpt lat="44.48885" lon="4.84927">
        <ele>382.07</ele>
        <time>2014-09-11T10:09:22Z</time>
      </trkpt>
      <trkpt lat="44.48884" lon="4.8493">
        <ele>382.1</ele>
        <time>2014-09-11T10:09:23Z</time>
      </trkpt>
      <trkpt lat="44.48883" lon="4.84934">
        <ele>382.11</ele>
        <time>2014-09-11T10:09:24Z</time>
      </trkpt>
      <trkpt lat="44.48881" lon="4.84938">
        <ele>382.12</ele>
        <time>2014-09-11T10:09:25Z</time>
      </trkpt>
      <trkpt lat="44.48875" lon="4.84956">
        <ele>382.09</ele>
        <time>2014-09-11T10:09:29Z</time>
      </trkpt>
      <trkpt lat="44.48874" lon="4.84961">
        <ele>381.97</ele>
        <time>2014-09-11T10:09:30Z</time>
      </trkpt>
      <trkpt lat="44.48872" lon="4.84967">
        <ele>381.79</ele>
        <time>2014-09-11T10:09:31Z</time>
      </trkpt>
      <trkpt lat="44.48871" lon="4.84972">
        <ele>381.6</ele>
        <time>2014-09-11T10:09:32Z</time>
      </trkpt>
      <trkpt lat="44.48869" lon="4.84977">
        <ele>381.51</ele>
        <time>2014-09-11T10:09:33Z</time>
      </trkpt>
      <trkpt lat="44.48867" lon="4.84982">
        <ele>381.42</ele>
        <time>2014-09-11T10:09:34Z</time>
      </trkpt>
      <trkpt lat="44.48859" lon="4.85007">
        <ele>381.27</ele>
        <time>2014-09-11T10:09:39Z</time>
      </trkpt>
      <trkpt lat="44.48857" lon="4.85012">
        <ele>381.16</ele>
        <time>2014-09-11T10:09:40Z</time>
      </trkpt>
      <trkpt lat="44.48853" lon="4.85028">
        <ele>381.23</ele>
        <time>2014-09-11T10:09:43Z</time>
      </trkpt>
      <trkpt lat="44.48851" lon="4.85032">
        <ele>381.23</ele>
        <time>2014-09-11T10:09:44Z</time>
      </trkpt>
      <trkpt lat="44.48849" lon="4.85037">
        <ele>381.24</ele>
        <time>2014-09-11T10:09:45Z</time>
      </trkpt>
      <trkpt lat="44.48848" lon="4.85042">
        <ele>381.22</ele>
        <time>2014-09-11T10:09:46Z</time>
      </trkpt>
      <trkpt lat="44.48846" lon="4.85047">
        <ele>381.21</ele>
        <time>2014-09-11T10:09:47Z</time>
      </trkpt>
      <trkpt lat="44.48843" lon="4.85058">
        <ele>381.63</ele>
        <time>2014-09-11T10:09:49Z</time>
      </trkpt>
      <trkpt lat="44.48841" lon="4.85063">
        <ele>381.56</ele>
        <time>2014-09-11T10:09:50Z</time>
      </trkpt>
      <trkpt lat="44.48839" lon="4.85068">
        <ele>381.54</ele>
        <time>2014-09-11T10:09:51Z</time>
      </trkpt>
      <trkpt lat="44.48838" lon="4.85074">
        <ele>381.41</ele>
        <time>2014-09-11T10:09:52Z</time>
      </trkpt>
      <trkpt lat="44.48836" lon="4.85079">
        <ele>381.28</ele>
        <time>2014-09-11T10:09:53Z</time>
      </trkpt>
      <trkpt lat="44.48834" lon="4.85085">
        <ele>381.19</ele>
        <time>2014-09-11T10:09:54Z</time>
      </trkpt>
      <trkpt lat="44.48832" lon="4.8509">
        <ele>381.08</ele>
        <time>2014-09-11T10:09:55Z</time>
      </trkpt>
      <trkpt lat="44.48826" lon="4.8511">
        <ele>380.73</ele>
        <time>2014-09-11T10:09:59Z</time>
      </trkpt>
      <trkpt lat="44.48822" lon="4.8512">
        <ele>380.86</ele>
        <time>2014-09-11T10:10:01Z</time>
      </trkpt>
      <trkpt lat="44.4882" lon="4.85124">
        <ele>380.93</ele>
        <time>2014-09-11T10:10:02Z</time>
      </trkpt>
      <trkpt lat="44.48818" lon="4.85129">
        <ele>380.96</ele>
        <time>2014-09-11T10:10:03Z</time>
      </trkpt>
      <trkpt lat="44.48815" lon="4.85132">
        <ele>381</ele>
        <time>2014-09-11T10:10:04Z</time>
      </trkpt>
      <trkpt lat="44.48811" lon="4.85135">
        <ele>381.03</ele>
        <time>2014-09-11T10:10:05Z</time>
      </trkpt>
      <trkpt lat="44.48808" lon="4.85137">
        <ele>381.07</ele>
        <time>2014-09-11T10:10:06Z</time>
      </trkpt>
      <trkpt lat="44.48803" lon="4.85138">
        <ele>381.18</ele>
        <time>2014-09-11T10:10:07Z</time>
      </trkpt>
      <trkpt lat="44.48799" lon="4.85139">
        <ele>381.12</ele>
        <time>2014-09-11T10:10:08Z</time>
      </trkpt>
      <trkpt lat="44.48794" lon="4.85139">
        <ele>381.02</ele>
        <time>2014-09-11T10:10:09Z</time>
      </trkpt>
      <trkpt lat="44.48704" lon="4.85144">
        <ele>378.26</ele>
        <time>2014-09-11T10:10:25Z</time>
      </trkpt>
      <trkpt lat="44.48655" lon="4.85146">
        <ele>375.18</ele>
        <time>2014-09-11T10:10:32Z</time>
      </trkpt>
      <trkpt lat="44.486" lon="4.85147">
        <ele>372.18</ele>
        <time>2014-09-11T10:10:39Z</time>
      </trkpt>
      <trkpt lat="44.48512" lon="4.85169">
        <ele>368.65</ele>
        <time>2014-09-11T10:10:49Z</time>
      </trkpt>
      <trkpt lat="44.48486" lon="4.85177">
        <ele>367.36</ele>
        <time>2014-09-11T10:10:52Z</time>
      </trkpt>
      <trkpt lat="44.48425" lon="4.85186">
        <ele>364.34</ele>
        <time>2014-09-11T10:10:58Z</time>
      </trkpt>
      <trkpt lat="44.48381" lon="4.85192">
        <ele>361.22</ele>
        <time>2014-09-11T10:11:02Z</time>
      </trkpt>
      <trkpt lat="44.48336" lon="4.85202">
        <ele>357.97</ele>
        <time>2014-09-11T10:11:06Z</time>
      </trkpt>
      <trkpt lat="44.48267" lon="4.85223">
        <ele>354.51</ele>
        <time>2014-09-11T10:11:12Z</time>
      </trkpt>
      <trkpt lat="44.48245" lon="4.85228">
        <ele>353.21</ele>
        <time>2014-09-11T10:11:14Z</time>
      </trkpt>
      <trkpt lat="44.48138" lon="4.8522">
        <ele>350.22</ele>
        <time>2014-09-11T10:11:24Z</time>
      </trkpt>
      <trkpt lat="44.48108" lon="4.85215">
        <ele>349.19</ele>
        <time>2014-09-11T10:11:27Z</time>
      </trkpt>
      <trkpt lat="44.48099" lon="4.85216">
        <ele>348.83</ele>
        <time>2014-09-11T10:11:28Z</time>
      </trkpt>
      <trkpt lat="44.47978" lon="4.85254">
        <ele>346.07</ele>
        <time>2014-09-11T10:11:42Z</time>
      </trkpt>
      <trkpt lat="44.47863" lon="4.85277">
        <ele>344.12</ele>
        <time>2014-09-11T10:11:56Z</time>
      </trkpt>
      <trkpt lat="44.47829" lon="4.85282">
        <ele>340.93</ele>
        <time>2014-09-11T10:12:00Z</time>
      </trkpt>
      <trkpt lat="44.47774" lon="4.85289">
        <ele>337.88</ele>
        <time>2014-09-11T10:12:07Z</time>
      </trkpt>
      <trkpt lat="44.47749" lon="4.85288">
        <ele>334.81</ele>
        <time>2014-09-11T10:12:11Z</time>
      </trkpt>
      <trkpt lat="44.47727" lon="4.85284">
        <ele>331.6</ele>
        <time>2014-09-11T10:12:15Z</time>
      </trkpt>
      <trkpt lat="44.47708" lon="4.85278">
        <ele>329.4</ele>
        <time>2014-09-11T10:12:19Z</time>
      </trkpt>
      <trkpt lat="44.47704" lon="4.85276">
        <ele>328.84</ele>
        <time>2014-09-11T10:12:20Z</time>
      </trkpt>
      <trkpt lat="44.47655" lon="4.8524">
        <ele>327.81</ele>
        <time>2014-09-11T10:12:33Z</time>
      </trkpt>
      <trkpt lat="44.47636" lon="4.85215">
        <ele>328.09</ele>
        <time>2014-09-11T10:12:45Z</time>
      </trkpt>
      <trkpt lat="44.47634" lon="4.85208">
        <ele>328.23</ele>
        <time>2014-09-11T10:12:48Z</time>
      </trkpt>
      <trkpt lat="44.47633" lon="4.85206">
        <ele>328.34</ele>
        <time>2014-09-11T10:12:50Z</time>
      </trkpt>
      <trkpt lat="44.47632" lon="4.85205">
        <ele>328.35</ele>
        <time>2014-09-11T10:12:51Z</time>
      </trkpt>
      <trkpt lat="44.4764" lon="4.85166">
        <ele>328.3</ele>
        <time>2014-09-11T10:13:03Z</time>
      </trkpt>
      <trkpt lat="44.4764" lon="4.85163">
        <ele>328.26</ele>
        <time>2014-09-11T10:13:04Z</time>
      </trkpt>
      <trkpt lat="44.47641" lon="4.85161">
        <ele>328.11</ele>
        <time>2014-09-11T10:13:05Z</time>
      </trkpt>
      <trkpt lat="44.47642" lon="4.85151">
        <ele>327.32</ele>
        <time>2014-09-11T10:13:20Z</time>
      </trkpt>
      <trkpt lat="44.47641" lon="4.85152">
        <ele>327.18</ele>
        <time>2014-09-11T10:13:51Z</time>
      </trkpt>
      <trkpt lat="44.47641" lon="4.85155">
        <ele>327.62</ele>
        <time>2014-09-11T10:14:10Z</time>
      </trkpt>
      <trkpt lat="44.47639" lon="4.85157">
        <ele>327.64</ele>
        <time>2014-09-11T10:14:13Z</time>
      </trkpt>
      <trkpt lat="44.47638" lon="4.85158">
        <ele>327.62</ele>
        <time>2014-09-11T10:14:14Z</time>
      </trkpt>
      <trkpt lat="44.47637" lon="4.85159">
        <ele>327.62</ele>
        <time>2014-09-11T10:14:15Z</time>
      </trkpt>
      <trkpt lat="44.47636" lon="4.8516">
        <ele>327.62</ele>
        <time>2014-09-11T10:14:16Z</time>
      </trkpt>
      <trkpt lat="44.47634" lon="4.85161">
        <ele>327.63</ele>
        <time>2014-09-11T10:14:17Z</time>
      </trkpt>
      <trkpt lat="44.47633" lon="4.85161">
        <ele>327.67</ele>
        <time>2014-09-11T10:14:18Z</time>
      </trkpt>
      <trkpt lat="44.47632" lon="4.85162">
        <ele>327.75</ele>
        <time>2014-09-11T10:14:19Z</time>
      </trkpt>
      <trkpt lat="44.47631" lon="4.85164">
        <ele>327.79</ele>
        <time>2014-09-11T10:14:20Z</time>
      </trkpt>
      <trkpt lat="44.47628" lon="4.85166">
        <ele>327.81</ele>
        <time>2014-09-11T10:14:22Z</time>
      </trkpt>
      <trkpt lat="44.47628" lon="4.85169">
        <ele>327.78</ele>
        <time>2014-09-11T10:14:35Z</time>
      </trkpt>
      <trkpt lat="44.4763" lon="4.85168">
        <ele>327.35</ele>
        <time>2014-09-11T10:16:19Z</time>
      </trkpt>
      <trkpt lat="44.4763" lon="4.85163">
        <ele>327.59</ele>
        <time>2014-09-11T10:17:58Z</time>
      </trkpt>
      <trkpt lat="44.47631" lon="4.85163">
        <ele>327.7</ele>
        <time>2014-09-11T10:18:53Z</time>
      </trkpt>
      <trkpt lat="44.47631" lon="4.8516">
        <ele>328.27</ele>
        <time>2014-09-11T10:19:09Z</time>
      </trkpt>
      <trkpt lat="44.47635" lon="4.85153">
        <ele>327.45</ele>
        <time>2014-09-11T10:19:15Z</time>
      </trkpt>
      <trkpt lat="44.47637" lon="4.85152">
        <ele>327.33</ele>
        <time>2014-09-11T10:19:16Z</time>
      </trkpt>
      <trkpt lat="44.47642" lon="4.8515">
        <ele>328.95</ele>
        <time>2014-09-11T10:19:30Z</time>
      </trkpt>
      <trkpt lat="44.47644" lon="4.8515">
        <ele>328.47</ele>
        <time>2014-09-11T10:20:14Z</time>
      </trkpt>
      <trkpt lat="44.4764" lon="4.85152">
        <ele>328.5</ele>
        <time>2014-09-11T10:20:30Z</time>
      </trkpt>
      <trkpt lat="44.4763" lon="4.85154">
        <ele>328.12</ele>
        <time>2014-09-11T10:20:42Z</time>
      </trkpt>
      <trkpt lat="44.47625" lon="4.85152">
        <ele>328.67</ele>
        <time>2014-09-11T10:20:58Z</time>
      </trkpt>
      <trkpt lat="44.47615" lon="4.8513">
        <ele>327.62</ele>
        <time>2014-09-11T10:21:09Z</time>
      </trkpt>
      <trkpt lat="44.47611" lon="4.85118">
        <ele>327.25</ele>
        <time>2014-09-11T10:21:11Z</time>
      </trkpt>
      <trkpt lat="44.47609" lon="4.85112">
        <ele>326.83</ele>
        <time>2014-09-11T10:21:12Z</time>
      </trkpt>
      <trkpt lat="44.47608" lon="4.85106">
        <ele>326.73</ele>
        <time>2014-09-11T10:21:13Z</time>
      </trkpt>
      <trkpt lat="44.47597" lon="4.85067">
        <ele>323.7</ele>
        <time>2014-09-11T10:21:20Z</time>
      </trkpt>
      <trkpt lat="44.47596" lon="4.85062">
        <ele>323.26</ele>
        <time>2014-09-11T10:21:21Z</time>
      </trkpt>
      <trkpt lat="44.47589" lon="4.85049">
        <ele>322.55</ele>
        <time>2014-09-11T10:21:24Z</time>
      </trkpt>
      <trkpt lat="44.4758" lon="4.85028">
        <ele>319.53</ele>
        <time>2014-09-11T10:21:30Z</time>
      </trkpt>
      <trkpt lat="44.47577" lon="4.84982">
        <ele>315.8</ele>
        <time>2014-09-11T10:21:40Z</time>
      </trkpt>
      <trkpt lat="44.47578" lon="4.84969">
        <ele>314.5</ele>
        <time>2014-09-11T10:21:43Z</time>
      </trkpt>
      <trkpt lat="44.47585" lon="4.84925">
        <ele>311.5</ele>
        <time>2014-09-11T10:21:52Z</time>
      </trkpt>
      <trkpt lat="44.47587" lon="4.84898">
        <ele>309.74</ele>
        <time>2014-09-11T10:21:57Z</time>
      </trkpt>
      <trkpt lat="44.47586" lon="4.84868">
        <ele>308.86</ele>
        <time>2014-09-11T10:22:04Z</time>
      </trkpt>
      <trkpt lat="44.47578" lon="4.84842">
        <ele>308.94</ele>
        <time>2014-09-11T10:22:10Z</time>
      </trkpt>
      <trkpt lat="44.47574" lon="4.84821">
        <ele>309.04</ele>
        <time>2014-09-11T10:22:15Z</time>
      </trkpt>
      <trkpt lat="44.47572" lon="4.84814">
        <ele>309.18</ele>
        <time>2014-09-11T10:22:17Z</time>
      </trkpt>
      <trkpt lat="44.47571" lon="4.84811">
        <ele>309.23</ele>
        <time>2014-09-11T10:22:18Z</time>
      </trkpt>
      <trkpt lat="44.4757" lon="4.84808">
        <ele>309.23</ele>
        <time>2014-09-11T10:22:19Z</time>
      </trkpt>
      <trkpt lat="44.47569" lon="4.84806">
        <ele>309.23</ele>
        <time>2014-09-11T10:22:20Z</time>
      </trkpt>
      <trkpt lat="44.47569" lon="4.84804">
        <ele>309.3</ele>
        <time>2014-09-11T10:22:21Z</time>
      </trkpt>
      <trkpt lat="44.47568" lon="4.84802">
        <ele>309.4</ele>
        <time>2014-09-11T10:22:22Z</time>
      </trkpt>
      <trkpt lat="44.4756" lon="4.84787">
        <ele>311.73</ele>
        <time>2014-09-11T10:22:39Z</time>
      </trkpt>
      <trkpt lat="44.47556" lon="4.84783">
        <ele>311.91</ele>
        <time>2014-09-11T10:22:49Z</time>
      </trkpt>
      <trkpt lat="44.47556" lon="4.84781">
        <ele>311.91</ele>
        <time>2014-09-11T10:22:50Z</time>
      </trkpt>
      <trkpt lat="44.47555" lon="4.8478">
        <ele>311.91</ele>
        <time>2014-09-11T10:22:51Z</time>
      </trkpt>
      <trkpt lat="44.47552" lon="4.84771">
        <ele>312</ele>
        <time>2014-09-11T10:22:57Z</time>
      </trkpt>
      <trkpt lat="44.47549" lon="4.84761">
        <ele>313.16</ele>
        <time>2014-09-11T10:23:13Z</time>
      </trkpt>
      <trkpt lat="44.47548" lon="4.84729">
        <ele>313.3</ele>
        <time>2014-09-11T10:23:24Z</time>
      </trkpt>
      <trkpt lat="44.47546" lon="4.84718">
        <ele>313.16</ele>
        <time>2014-09-11T10:23:28Z</time>
      </trkpt>
      <trkpt lat="44.47546" lon="4.8471">
        <ele>313.11</ele>
        <time>2014-09-11T10:23:30Z</time>
      </trkpt>
      <trkpt lat="44.47544" lon="4.84672">
        <ele>312.55</ele>
        <time>2014-09-11T10:23:37Z</time>
      </trkpt>
      <trkpt lat="44.47543" lon="4.84666">
        <ele>312.49</ele>
        <time>2014-09-11T10:23:38Z</time>
      </trkpt>
      <trkpt lat="44.47532" lon="4.84554">
        <ele>310.47</ele>
        <time>2014-09-11T10:23:53Z</time>
      </trkpt>
      <trkpt lat="44.47519" lon="4.84427">
        <ele>307.84</ele>
        <time>2014-09-11T10:24:08Z</time>
      </trkpt>
      <trkpt lat="44.47507" lon="4.84323">
        <ele>304.56</ele>
        <time>2014-09-11T10:24:22Z</time>
      </trkpt>
      <trkpt lat="44.47505" lon="4.84313">
        <ele>303.59</ele>
        <time>2014-09-11T10:24:34Z</time>
      </trkpt>
      <trkpt lat="44.47504" lon="4.84301">
        <ele>304.32</ele>
        <time>2014-09-11T10:25:03Z</time>
      </trkpt>
      <trkpt lat="44.47504" lon="4.84292">
        <ele>304.29</ele>
        <time>2014-09-11T10:25:05Z</time>
      </trkpt>
      <trkpt lat="44.47504" lon="4.84283">
        <ele>304.29</ele>
        <time>2014-09-11T10:25:07Z</time>
      </trkpt>
      <trkpt lat="44.47504" lon="4.84278">
        <ele>304.22</ele>
        <time>2014-09-11T10:25:08Z</time>
      </trkpt>
      <trkpt lat="44.47499" lon="4.84259">
        <ele>303.64</ele>
        <time>2014-09-11T10:25:12Z</time>
      </trkpt>
      <trkpt lat="44.47498" lon="4.84255">
        <ele>303.49</ele>
        <time>2014-09-11T10:25:13Z</time>
      </trkpt>
      <trkpt lat="44.47497" lon="4.84251">
        <ele>303.42</ele>
        <time>2014-09-11T10:25:14Z</time>
      </trkpt>
      <trkpt lat="44.47496" lon="4.84246">
        <ele>303.6</ele>
        <time>2014-09-11T10:25:15Z</time>
      </trkpt>
      <trkpt lat="44.47496" lon="4.84241">
        <ele>303.68</ele>
        <time>2014-09-11T10:25:16Z</time>
      </trkpt>
      <trkpt lat="44.47497" lon="4.84236">
        <ele>303.77</ele>
        <time>2014-09-11T10:25:17Z</time>
      </trkpt>
      <trkpt lat="44.47497" lon="4.84231">
        <ele>303.84</ele>
        <time>2014-09-11T10:25:18Z</time>
      </trkpt>
      <trkpt lat="44.47498" lon="4.84226">
        <ele>303.74</ele>
        <time>2014-09-11T10:25:19Z</time>
      </trkpt>
      <trkpt lat="44.47498" lon="4.84221">
        <ele>303.83</ele>
        <time>2014-09-11T10:25:20Z</time>
      </trkpt>
      <trkpt lat="44.47499" lon="4.84216">
        <ele>303.74</ele>
        <time>2014-09-11T10:25:21Z</time>
      </trkpt>
      <trkpt lat="44.47499" lon="4.84211">
        <ele>303.72</ele>
        <time>2014-09-11T10:25:22Z</time>
      </trkpt>
      <trkpt lat="44.475" lon="4.84205">
        <ele>303.92</ele>
        <time>2014-09-11T10:25:23Z</time>
      </trkpt>
      <trkpt lat="44.47501" lon="4.84199">
        <ele>304.16</ele>
        <time>2014-09-11T10:25:24Z</time>
      </trkpt>
      <trkpt lat="44.47502" lon="4.84192">
        <ele>304.24</ele>
        <time>2014-09-11T10:25:25Z</time>
      </trkpt>
      <trkpt lat="44.47504" lon="4.84186">
        <ele>304.28</ele>
        <time>2014-09-11T10:25:26Z</time>
      </trkpt>
      <trkpt lat="44.47505" lon="4.8418">
        <ele>304.15</ele>
        <time>2014-09-11T10:25:27Z</time>
      </trkpt>
      <trkpt lat="44.47507" lon="4.84174">
        <ele>304.08</ele>
        <time>2014-09-11T10:25:28Z</time>
      </trkpt>
      <trkpt lat="44.47509" lon="4.84169">
        <ele>303.97</ele>
        <time>2014-09-11T10:25:29Z</time>
      </trkpt>
      <trkpt lat="44.47517" lon="4.84153">
        <ele>303.55</ele>
        <time>2014-09-11T10:25:32Z</time>
      </trkpt>
      <trkpt lat="44.4752" lon="4.84149">
        <ele>303.22</ele>
        <time>2014-09-11T10:25:33Z</time>
      </trkpt>
      <trkpt lat="44.47523" lon="4.84145">
        <ele>302.88</ele>
        <time>2014-09-11T10:25:34Z</time>
      </trkpt>
      <trkpt lat="44.47527" lon="4.84141">
        <ele>302.61</ele>
        <time>2014-09-11T10:25:35Z</time>
      </trkpt>
      <trkpt lat="44.4753" lon="4.84139">
        <ele>302.48</ele>
        <time>2014-09-11T10:25:36Z</time>
      </trkpt>
      <trkpt lat="44.47534" lon="4.84136">
        <ele>302.35</ele>
        <time>2014-09-11T10:25:37Z</time>
      </trkpt>
      <trkpt lat="44.47539" lon="4.84133">
        <ele>302.22</ele>
        <time>2014-09-11T10:25:38Z</time>
      </trkpt>
      <trkpt lat="44.47543" lon="4.84131">
        <ele>301.96</ele>
        <time>2014-09-11T10:25:39Z</time>
      </trkpt>
      <trkpt lat="44.47548" lon="4.84128">
        <ele>301.65</ele>
        <time>2014-09-11T10:25:40Z</time>
      </trkpt>
      <trkpt lat="44.4758" lon="4.84122">
        <ele>300.76</ele>
        <time>2014-09-11T10:25:49Z</time>
      </trkpt>
      <trkpt lat="44.47583" lon="4.84123">
        <ele>300.61</ele>
        <time>2014-09-11T10:25:50Z</time>
      </trkpt>
      <trkpt lat="44.47586" lon="4.84123">
        <ele>300.38</ele>
        <time>2014-09-11T10:25:51Z</time>
      </trkpt>
      <trkpt lat="44.47592" lon="4.84123">
        <ele>299.42</ele>
        <time>2014-09-11T10:25:54Z</time>
      </trkpt>
      <trkpt lat="44.47594" lon="4.84123">
        <ele>299.16</ele>
        <time>2014-09-11T10:25:55Z</time>
      </trkpt>
      <trkpt lat="44.47595" lon="4.84123">
        <ele>298.9</ele>
        <time>2014-09-11T10:25:56Z</time>
      </trkpt>
      <trkpt lat="44.47601" lon="4.84119">
        <ele>298.94</ele>
        <time>2014-09-11T10:26:11Z</time>
      </trkpt>
      <trkpt lat="44.47607" lon="4.84117">
        <ele>297.82</ele>
        <time>2014-09-11T10:26:18Z</time>
      </trkpt>
      <trkpt lat="44.47609" lon="4.84116">
        <ele>297.83</ele>
        <time>2014-09-11T10:26:19Z</time>
      </trkpt>
      <trkpt lat="44.4761" lon="4.84116">
        <ele>297.91</ele>
        <time>2014-09-11T10:26:20Z</time>
      </trkpt>
      <trkpt lat="44.47612" lon="4.84115">
        <ele>297.94</ele>
        <time>2014-09-11T10:26:21Z</time>
      </trkpt>
      <trkpt lat="44.47614" lon="4.84114">
        <ele>298.03</ele>
        <time>2014-09-11T10:26:22Z</time>
      </trkpt>
      <trkpt lat="44.47616" lon="4.84112">
        <ele>298.13</ele>
        <time>2014-09-11T10:26:23Z</time>
      </trkpt>
      <trkpt lat="44.47618" lon="4.8411">
        <ele>298.22</ele>
        <time>2014-09-11T10:26:24Z</time>
      </trkpt>
      <trkpt lat="44.4762" lon="4.84108">
        <ele>298.27</ele>
        <time>2014-09-11T10:26:25Z</time>
      </trkpt>
      <trkpt lat="44.47622" lon="4.84106">
        <ele>298.25</ele>
        <time>2014-09-11T10:26:26Z</time>
      </trkpt>
      <trkpt lat="44.47623" lon="4.84103">
        <ele>298.21</ele>
        <time>2014-09-11T10:26:27Z</time>
      </trkpt>
      <trkpt lat="44.47625" lon="4.841">
        <ele>298.14</ele>
        <time>2014-09-11T10:26:28Z</time>
      </trkpt>
      <trkpt lat="44.47629" lon="4.84091">
        <ele>297.93</ele>
        <time>2014-09-11T10:26:30Z</time>
      </trkpt>
      <trkpt lat="44.47629" lon="4.84087">
        <ele>297.84</ele>
        <time>2014-09-11T10:26:31Z</time>
      </trkpt>
      <trkpt lat="44.4763" lon="4.84081">
        <ele>297.63</ele>
        <time>2014-09-11T10:26:33Z</time>
      </trkpt>
      <trkpt lat="44.4763" lon="4.84077">
        <ele>297.49</ele>
        <time>2014-09-11T10:26:34Z</time>
      </trkpt>
      <trkpt lat="44.47629" lon="4.84073">
        <ele>297.49</ele>
        <time>2014-09-11T10:26:35Z</time>
      </trkpt>
      <trkpt lat="44.47628" lon="4.84069">
        <ele>297.4</ele>
        <time>2014-09-11T10:26:36Z</time>
      </trkpt>
      <trkpt lat="44.47627" lon="4.84066">
        <ele>297.39</ele>
        <time>2014-09-11T10:26:37Z</time>
      </trkpt>
      <trkpt lat="44.47626" lon="4.84064">
        <ele>297.39</ele>
        <time>2014-09-11T10:26:38Z</time>
      </trkpt>
      <trkpt lat="44.47625" lon="4.84061">
        <ele>297.49</ele>
        <time>2014-09-11T10:26:39Z</time>
      </trkpt>
      <trkpt lat="44.47624" lon="4.84059">
        <ele>297.81</ele>
        <time>2014-09-11T10:26:40Z</time>
      </trkpt>
      <trkpt lat="44.47622" lon="4.84056">
        <ele>298.06</ele>
        <time>2014-09-11T10:26:41Z</time>
      </trkpt>
      <trkpt lat="44.47621" lon="4.84054">
        <ele>298.25</ele>
        <time>2014-09-11T10:26:42Z</time>
      </trkpt>
      <trkpt lat="44.47619" lon="4.84052">
        <ele>298.45</ele>
        <time>2014-09-11T10:26:43Z</time>
      </trkpt>
      <trkpt lat="44.47618" lon="4.84049">
        <ele>298.64</ele>
        <time>2014-09-11T10:26:44Z</time>
      </trkpt>
      <trkpt lat="44.47616" lon="4.84047">
        <ele>298.77</ele>
        <time>2014-09-11T10:26:45Z</time>
      </trkpt>
      <trkpt lat="44.47612" lon="4.84041">
        <ele>298.98</ele>
        <time>2014-09-11T10:26:47Z</time>
      </trkpt>
      <trkpt lat="44.4761" lon="4.84039">
        <ele>299.15</ele>
        <time>2014-09-11T10:26:48Z</time>
      </trkpt>
      <trkpt lat="44.47608" lon="4.84035">
        <ele>299.39</ele>
        <time>2014-09-11T10:26:49Z</time>
      </trkpt>
      <trkpt lat="44.47606" lon="4.84032">
        <ele>299.58</ele>
        <time>2014-09-11T10:26:50Z</time>
      </trkpt>
      <trkpt lat="44.47604" lon="4.8403">
        <ele>299.85</ele>
        <time>2014-09-11T10:26:51Z</time>
      </trkpt>
      <trkpt lat="44.47603" lon="4.84027">
        <ele>300.01</ele>
        <time>2014-09-11T10:26:52Z</time>
      </trkpt>
      <trkpt lat="44.47602" lon="4.84025">
        <ele>300.14</ele>
        <time>2014-09-11T10:26:53Z</time>
      </trkpt>
      <trkpt lat="44.476" lon="4.84022">
        <ele>300.19</ele>
        <time>2014-09-11T10:26:54Z</time>
      </trkpt>
      <trkpt lat="44.47599" lon="4.84019">
        <ele>300.19</ele>
        <time>2014-09-11T10:26:55Z</time>
      </trkpt>
      <trkpt lat="44.47597" lon="4.84017">
        <ele>300.19</ele>
        <time>2014-09-11T10:26:56Z</time>
      </trkpt>
      <trkpt lat="44.47596" lon="4.84014">
        <ele>300.24</ele>
        <time>2014-09-11T10:26:57Z</time>
      </trkpt>
      <trkpt lat="44.47595" lon="4.84012">
        <ele>300.33</ele>
        <time>2014-09-11T10:26:58Z</time>
      </trkpt>
      <trkpt lat="44.47593" lon="4.8401">
        <ele>300.56</ele>
        <time>2014-09-11T10:26:59Z</time>
      </trkpt>
      <trkpt lat="44.47591" lon="4.84007">
        <ele>300.68</ele>
        <time>2014-09-11T10:27:00Z</time>
      </trkpt>
      <trkpt lat="44.47589" lon="4.84005">
        <ele>300.91</ele>
        <time>2014-09-11T10:27:01Z</time>
      </trkpt>
      <trkpt lat="44.47588" lon="4.84003">
        <ele>301.09</ele>
        <time>2014-09-11T10:27:02Z</time>
      </trkpt>
      <trkpt lat="44.47586" lon="4.84">
        <ele>301.25</ele>
        <time>2014-09-11T10:27:03Z</time>
      </trkpt>
      <trkpt lat="44.47584" lon="4.83997">
        <ele>301.32</ele>
        <time>2014-09-11T10:27:04Z</time>
      </trkpt>
      <trkpt lat="44.47582" lon="4.83994">
        <ele>301.43</ele>
        <time>2014-09-11T10:27:05Z</time>
      </trkpt>
      <trkpt lat="44.47581" lon="4.83992">
        <ele>301.39</ele>
        <time>2014-09-11T10:27:06Z</time>
      </trkpt>
      <trkpt lat="44.47579" lon="4.83989">
        <ele>301.35</ele>
        <time>2014-09-11T10:27:07Z</time>
      </trkpt>
      <trkpt lat="44.47575" lon="4.83984">
        <ele>301.33</ele>
        <time>2014-09-11T10:27:09Z</time>
      </trkpt>
      <trkpt lat="44.47573" lon="4.83982">
        <ele>301.43</ele>
        <time>2014-09-11T10:27:10Z</time>
      </trkpt>
      <trkpt lat="44.4757" lon="4.83977">
        <ele>301.57</ele>
        <time>2014-09-11T10:27:12Z</time>
      </trkpt>
      <trkpt lat="44.47568" lon="4.83974">
        <ele>301.63</ele>
        <time>2014-09-11T10:27:13Z</time>
      </trkpt>
      <trkpt lat="44.47567" lon="4.83972">
        <ele>301.72</ele>
        <time>2014-09-11T10:27:14Z</time>
      </trkpt>
      <trkpt lat="44.47565" lon="4.83969">
        <ele>301.77</ele>
        <time>2014-09-11T10:27:15Z</time>
      </trkpt>
      <trkpt lat="44.47561" lon="4.83964">
        <ele>301.75</ele>
        <time>2014-09-11T10:27:17Z</time>
      </trkpt>
      <trkpt lat="44.4756" lon="4.83961">
        <ele>301.69</ele>
        <time>2014-09-11T10:27:18Z</time>
      </trkpt>
      <trkpt lat="44.47558" lon="4.83958">
        <ele>301.71</ele>
        <time>2014-09-11T10:27:19Z</time>
      </trkpt>
      <trkpt lat="44.47557" lon="4.83956">
        <ele>301.82</ele>
        <time>2014-09-11T10:27:20Z</time>
      </trkpt>
      <trkpt lat="44.47555" lon="4.83953">
        <ele>301.88</ele>
        <time>2014-09-11T10:27:21Z</time>
      </trkpt>
      <trkpt lat="44.47554" lon="4.83951">
        <ele>302.02</ele>
        <time>2014-09-11T10:27:22Z</time>
      </trkpt>
      <trkpt lat="44.47552" lon="4.83948">
        <ele>302.18</ele>
        <time>2014-09-11T10:27:23Z</time>
      </trkpt>
      <trkpt lat="44.47551" lon="4.83946">
        <ele>302.28</ele>
        <time>2014-09-11T10:27:24Z</time>
      </trkpt>
      <trkpt lat="44.47549" lon="4.83943">
        <ele>302.39</ele>
        <time>2014-09-11T10:27:25Z</time>
      </trkpt>
      <trkpt lat="44.47547" lon="4.8394">
        <ele>302.53</ele>
        <time>2014-09-11T10:27:26Z</time>
      </trkpt>
      <trkpt lat="44.47545" lon="4.83937">
        <ele>302.73</ele>
        <time>2014-09-11T10:27:27Z</time>
      </trkpt>
      <trkpt lat="44.47544" lon="4.83935">
        <ele>302.94</ele>
        <time>2014-09-11T10:27:28Z</time>
      </trkpt>
      <trkpt lat="44.47542" lon="4.83932">
        <ele>303.2</ele>
        <time>2014-09-11T10:27:29Z</time>
      </trkpt>
      <trkpt lat="44.47539" lon="4.8393">
        <ele>303.33</ele>
        <time>2014-09-11T10:27:30Z</time>
      </trkpt>
      <trkpt lat="44.47538" lon="4.83927">
        <ele>303.58</ele>
        <time>2014-09-11T10:27:31Z</time>
      </trkpt>
      <trkpt lat="44.47536" lon="4.83924">
        <ele>303.87</ele>
        <time>2014-09-11T10:27:32Z</time>
      </trkpt>
      <trkpt lat="44.47534" lon="4.83922">
        <ele>304.06</ele>
        <time>2014-09-11T10:27:33Z</time>
      </trkpt>
      <trkpt lat="44.47532" lon="4.8392">
        <ele>304.06</ele>
        <time>2014-09-11T10:27:34Z</time>
      </trkpt>
      <trkpt lat="44.47529" lon="4.83915">
        <ele>304.25</ele>
        <time>2014-09-11T10:27:36Z</time>
      </trkpt>
      <trkpt lat="44.47527" lon="4.83912">
        <ele>304.26</ele>
        <time>2014-09-11T10:27:37Z</time>
      </trkpt>
      <trkpt lat="44.47526" lon="4.8391">
        <ele>304.27</ele>
        <time>2014-09-11T10:27:38Z</time>
      </trkpt>
      <trkpt lat="44.47524" lon="4.83908">
        <ele>304.3</ele>
        <time>2014-09-11T10:27:39Z</time>
      </trkpt>
      <trkpt lat="44.47522" lon="4.83905">
        <ele>304.42</ele>
        <time>2014-09-11T10:27:40Z</time>
      </trkpt>
      <trkpt lat="44.47521" lon="4.83903">
        <ele>304.42</ele>
        <time>2014-09-11T10:27:41Z</time>
      </trkpt>
      <trkpt lat="44.47519" lon="4.839">
        <ele>304.54</ele>
        <time>2014-09-11T10:27:42Z</time>
      </trkpt>
      <trkpt lat="44.47517" lon="4.83898">
        <ele>304.64</ele>
        <time>2014-09-11T10:27:43Z</time>
      </trkpt>
      <trkpt lat="44.47511" lon="4.83891">
        <ele>304.85</ele>
        <time>2014-09-11T10:27:46Z</time>
      </trkpt>
      <trkpt lat="44.47509" lon="4.83889">
        <ele>304.87</ele>
        <time>2014-09-11T10:27:47Z</time>
      </trkpt>
      <trkpt lat="44.47507" lon="4.83886">
        <ele>304.82</ele>
        <time>2014-09-11T10:27:48Z</time>
      </trkpt>
      <trkpt lat="44.475" lon="4.83878">
        <ele>304.68</ele>
        <time>2014-09-11T10:27:52Z</time>
      </trkpt>
      <trkpt lat="44.47498" lon="4.83876">
        <ele>304.69</ele>
        <time>2014-09-11T10:27:53Z</time>
      </trkpt>
      <trkpt lat="44.47497" lon="4.83874">
        <ele>304.74</ele>
        <time>2014-09-11T10:27:54Z</time>
      </trkpt>
      <trkpt lat="44.47495" lon="4.83872">
        <ele>304.85</ele>
        <time>2014-09-11T10:27:55Z</time>
      </trkpt>
      <trkpt lat="44.47492" lon="4.83868">
        <ele>305.06</ele>
        <time>2014-09-11T10:27:57Z</time>
      </trkpt>
      <trkpt lat="44.4749" lon="4.83866">
        <ele>305.28</ele>
        <time>2014-09-11T10:27:58Z</time>
      </trkpt>
      <trkpt lat="44.47488" lon="4.83864">
        <ele>305.42</ele>
        <time>2014-09-11T10:27:59Z</time>
      </trkpt>
      <trkpt lat="44.47486" lon="4.83863">
        <ele>305.49</ele>
        <time>2014-09-11T10:28:00Z</time>
      </trkpt>
      <trkpt lat="44.47485" lon="4.8386">
        <ele>305.66</ele>
        <time>2014-09-11T10:28:01Z</time>
      </trkpt>
      <trkpt lat="44.47483" lon="4.83858">
        <ele>305.74</ele>
        <time>2014-09-11T10:28:02Z</time>
      </trkpt>
      <trkpt lat="44.47481" lon="4.83856">
        <ele>305.79</ele>
        <time>2014-09-11T10:28:03Z</time>
      </trkpt>
      <trkpt lat="44.4748" lon="4.83854">
        <ele>305.91</ele>
        <time>2014-09-11T10:28:04Z</time>
      </trkpt>
      <trkpt lat="44.47478" lon="4.83852">
        <ele>306.21</ele>
        <time>2014-09-11T10:28:05Z</time>
      </trkpt>
      <trkpt lat="44.47475" lon="4.8385">
        <ele>306.36</ele>
        <time>2014-09-11T10:28:06Z</time>
      </trkpt>
      <trkpt lat="44.47474" lon="4.83848">
        <ele>306.54</ele>
        <time>2014-09-11T10:28:07Z</time>
      </trkpt>
      <trkpt lat="44.47472" lon="4.83846">
        <ele>306.46</ele>
        <time>2014-09-11T10:28:08Z</time>
      </trkpt>
      <trkpt lat="44.4747" lon="4.83844">
        <ele>306.42</ele>
        <time>2014-09-11T10:28:09Z</time>
      </trkpt>
      <trkpt lat="44.47467" lon="4.8384">
        <ele>306.25</ele>
        <time>2014-09-11T10:28:11Z</time>
      </trkpt>
      <trkpt lat="44.47465" lon="4.83838">
        <ele>306.19</ele>
        <time>2014-09-11T10:28:12Z</time>
      </trkpt>
      <trkpt lat="44.47463" lon="4.83836">
        <ele>306.19</ele>
        <time>2014-09-11T10:28:13Z</time>
      </trkpt>
      <trkpt lat="44.47461" lon="4.83834">
        <ele>306.16</ele>
        <time>2014-09-11T10:28:14Z</time>
      </trkpt>
      <trkpt lat="44.47455" lon="4.83828">
        <ele>306.48</ele>
        <time>2014-09-11T10:28:17Z</time>
      </trkpt>
      <trkpt lat="44.4745" lon="4.83824">
        <ele>306.65</ele>
        <time>2014-09-11T10:28:19Z</time>
      </trkpt>
      <trkpt lat="44.47447" lon="4.83821">
        <ele>306.73</ele>
        <time>2014-09-11T10:28:20Z</time>
      </trkpt>
      <trkpt lat="44.47444" lon="4.83819">
        <ele>306.89</ele>
        <time>2014-09-11T10:28:21Z</time>
      </trkpt>
      <trkpt lat="44.47442" lon="4.83816">
        <ele>306.97</ele>
        <time>2014-09-11T10:28:22Z</time>
      </trkpt>
      <trkpt lat="44.4743" lon="4.83803">
        <ele>307.6</ele>
        <time>2014-09-11T10:28:27Z</time>
      </trkpt>
      <trkpt lat="44.47428" lon="4.83801">
        <ele>307.53</ele>
        <time>2014-09-11T10:28:28Z</time>
      </trkpt>
      <trkpt lat="44.47424" lon="4.83797">
        <ele>307.63</ele>
        <time>2014-09-11T10:28:30Z</time>
      </trkpt>
      <trkpt lat="44.47422" lon="4.83795">
        <ele>307.7</ele>
        <time>2014-09-11T10:28:31Z</time>
      </trkpt>
      <trkpt lat="44.47419" lon="4.83793">
        <ele>307.74</ele>
        <time>2014-09-11T10:28:32Z</time>
      </trkpt>
      <trkpt lat="44.47417" lon="4.8379">
        <ele>307.72</ele>
        <time>2014-09-11T10:28:33Z</time>
      </trkpt>
      <trkpt lat="44.47414" lon="4.83788">
        <ele>307.71</ele>
        <time>2014-09-11T10:28:34Z</time>
      </trkpt>
      <trkpt lat="44.47411" lon="4.83784">
        <ele>307.71</ele>
        <time>2014-09-11T10:28:35Z</time>
      </trkpt>
      <trkpt lat="44.47407" lon="4.83781">
        <ele>307.64</ele>
        <time>2014-09-11T10:28:36Z</time>
      </trkpt>
      <trkpt lat="44.47405" lon="4.83778">
        <ele>307.6</ele>
        <time>2014-09-11T10:28:37Z</time>
      </trkpt>
      <trkpt lat="44.47403" lon="4.83774">
        <ele>307.45</ele>
        <time>2014-09-11T10:28:38Z</time>
      </trkpt>
      <trkpt lat="44.47401" lon="4.8377">
        <ele>307.38</ele>
        <time>2014-09-11T10:28:39Z</time>
      </trkpt>
      <trkpt lat="44.47399" lon="4.83766">
        <ele>307.43</ele>
        <time>2014-09-11T10:28:40Z</time>
      </trkpt>
      <trkpt lat="44.47398" lon="4.83763">
        <ele>307.71</ele>
        <time>2014-09-11T10:28:41Z</time>
      </trkpt>
      <trkpt lat="44.47396" lon="4.83759">
        <ele>308.1</ele>
        <time>2014-09-11T10:28:42Z</time>
      </trkpt>
      <trkpt lat="44.47395" lon="4.83755">
        <ele>308.38</ele>
        <time>2014-09-11T10:28:43Z</time>
      </trkpt>
      <trkpt lat="44.47393" lon="4.83746">
        <ele>308.56</ele>
        <time>2014-09-11T10:28:45Z</time>
      </trkpt>
      <trkpt lat="44.47392" lon="4.83742">
        <ele>308.65</ele>
        <time>2014-09-11T10:28:46Z</time>
      </trkpt>
      <trkpt lat="44.4739" lon="4.83729">
        <ele>308.56</ele>
        <time>2014-09-11T10:28:49Z</time>
      </trkpt>
      <trkpt lat="44.4739" lon="4.83724">
        <ele>308.56</ele>
        <time>2014-09-11T10:28:50Z</time>
      </trkpt>
      <trkpt lat="44.47391" lon="4.8372">
        <ele>308.43</ele>
        <time>2014-09-11T10:28:51Z</time>
      </trkpt>
      <trkpt lat="44.47392" lon="4.83715">
        <ele>308.37</ele>
        <time>2014-09-11T10:28:52Z</time>
      </trkpt>
      <trkpt lat="44.47393" lon="4.83711">
        <ele>308.46</ele>
        <time>2014-09-11T10:28:53Z</time>
      </trkpt>
      <trkpt lat="44.47394" lon="4.83706">
        <ele>308.6</ele>
        <time>2014-09-11T10:28:54Z</time>
      </trkpt>
      <trkpt lat="44.47395" lon="4.83703">
        <ele>308.84</ele>
        <time>2014-09-11T10:28:55Z</time>
      </trkpt>
      <trkpt lat="44.47404" lon="4.83687">
        <ele>309.22</ele>
        <time>2014-09-11T10:29:00Z</time>
      </trkpt>
      <trkpt lat="44.47405" lon="4.83684">
        <ele>309.2</ele>
        <time>2014-09-11T10:29:01Z</time>
      </trkpt>
      <trkpt lat="44.47407" lon="4.83682">
        <ele>309.27</ele>
        <time>2014-09-11T10:29:02Z</time>
      </trkpt>
      <trkpt lat="44.47409" lon="4.83679">
        <ele>309.43</ele>
        <time>2014-09-11T10:29:03Z</time>
      </trkpt>
      <trkpt lat="44.47412" lon="4.83676">
        <ele>309.56</ele>
        <time>2014-09-11T10:29:04Z</time>
      </trkpt>
      <trkpt lat="44.47414" lon="4.83673">
        <ele>309.62</ele>
        <time>2014-09-11T10:29:05Z</time>
      </trkpt>
      <trkpt lat="44.47417" lon="4.83668">
        <ele>309.66</ele>
        <time>2014-09-11T10:29:07Z</time>
      </trkpt>
      <trkpt lat="44.47419" lon="4.83665">
        <ele>309.68</ele>
        <time>2014-09-11T10:29:08Z</time>
      </trkpt>
      <trkpt lat="44.4742" lon="4.83663">
        <ele>309.65</ele>
        <time>2014-09-11T10:29:09Z</time>
      </trkpt>
      <trkpt lat="44.47422" lon="4.8366">
        <ele>309.62</ele>
        <time>2014-09-11T10:29:10Z</time>
      </trkpt>
      <trkpt lat="44.47423" lon="4.83658">
        <ele>309.62</ele>
        <time>2014-09-11T10:29:11Z</time>
      </trkpt>
      <trkpt lat="44.47425" lon="4.83655">
        <ele>309.67</ele>
        <time>2014-09-11T10:29:12Z</time>
      </trkpt>
      <trkpt lat="44.47426" lon="4.83652">
        <ele>309.82</ele>
        <time>2014-09-11T10:29:13Z</time>
      </trkpt>
      <trkpt lat="44.47428" lon="4.8365">
        <ele>309.82</ele>
        <time>2014-09-11T10:29:14Z</time>
      </trkpt>
      <trkpt lat="44.4743" lon="4.83647">
        <ele>309.92</ele>
        <time>2014-09-11T10:29:15Z</time>
      </trkpt>
      <trkpt lat="44.47432" lon="4.83645">
        <ele>309.92</ele>
        <time>2014-09-11T10:29:16Z</time>
      </trkpt>
      <trkpt lat="44.47433" lon="4.83641">
        <ele>310.1</ele>
        <time>2014-09-11T10:29:17Z</time>
      </trkpt>
      <trkpt lat="44.47435" lon="4.83638">
        <ele>310.23</ele>
        <time>2014-09-11T10:29:18Z</time>
      </trkpt>
      <trkpt lat="44.47436" lon="4.83635">
        <ele>310.38</ele>
        <time>2014-09-11T10:29:19Z</time>
      </trkpt>
      <trkpt lat="44.47438" lon="4.83631">
        <ele>310.46</ele>
        <time>2014-09-11T10:29:20Z</time>
      </trkpt>
      <trkpt lat="44.4744" lon="4.83628">
        <ele>310.39</ele>
        <time>2014-09-11T10:29:21Z</time>
      </trkpt>
      <trkpt lat="44.47442" lon="4.83626">
        <ele>310.46</ele>
        <time>2014-09-11T10:29:22Z</time>
      </trkpt>
      <trkpt lat="44.47444" lon="4.83623">
        <ele>310.52</ele>
        <time>2014-09-11T10:29:23Z</time>
      </trkpt>
      <trkpt lat="44.47445" lon="4.83621">
        <ele>310.42</ele>
        <time>2014-09-11T10:29:24Z</time>
      </trkpt>
      <trkpt lat="44.47448" lon="4.83618">
        <ele>310.35</ele>
        <time>2014-09-11T10:29:25Z</time>
      </trkpt>
      <trkpt lat="44.47451" lon="4.83612">
        <ele>310.34</ele>
        <time>2014-09-11T10:29:27Z</time>
      </trkpt>
      <trkpt lat="44.47453" lon="4.8361">
        <ele>310.67</ele>
        <time>2014-09-11T10:29:28Z</time>
      </trkpt>
      <trkpt lat="44.47458" lon="4.83603">
        <ele>310.74</ele>
        <time>2014-09-11T10:29:30Z</time>
      </trkpt>
      <trkpt lat="44.4746" lon="4.836">
        <ele>311.02</ele>
        <time>2014-09-11T10:29:31Z</time>
      </trkpt>
      <trkpt lat="44.47466" lon="4.83592">
        <ele>311.54</ele>
        <time>2014-09-11T10:29:34Z</time>
      </trkpt>
      <trkpt lat="44.47467" lon="4.83589">
        <ele>311.52</ele>
        <time>2014-09-11T10:29:35Z</time>
      </trkpt>
      <trkpt lat="44.47469" lon="4.83586">
        <ele>311.59</ele>
        <time>2014-09-11T10:29:36Z</time>
      </trkpt>
      <trkpt lat="44.47479" lon="4.83572">
        <ele>312.2</ele>
        <time>2014-09-11T10:29:41Z</time>
      </trkpt>
      <trkpt lat="44.4748" lon="4.83569">
        <ele>312.26</ele>
        <time>2014-09-11T10:29:42Z</time>
      </trkpt>
      <trkpt lat="44.47482" lon="4.83566">
        <ele>312.35</ele>
        <time>2014-09-11T10:29:43Z</time>
      </trkpt>
      <trkpt lat="44.47484" lon="4.83564">
        <ele>312.49</ele>
        <time>2014-09-11T10:29:44Z</time>
      </trkpt>
      <trkpt lat="44.47486" lon="4.83561">
        <ele>312.46</ele>
        <time>2014-09-11T10:29:45Z</time>
      </trkpt>
      <trkpt lat="44.47488" lon="4.83558">
        <ele>312.43</ele>
        <time>2014-09-11T10:29:46Z</time>
      </trkpt>
      <trkpt lat="44.47489" lon="4.83555">
        <ele>312.52</ele>
        <time>2014-09-11T10:29:47Z</time>
      </trkpt>
      <trkpt lat="44.47491" lon="4.83553">
        <ele>312.52</ele>
        <time>2014-09-11T10:29:48Z</time>
      </trkpt>
      <trkpt lat="44.47493" lon="4.8355">
        <ele>312.46</ele>
        <time>2014-09-11T10:29:49Z</time>
      </trkpt>
      <trkpt lat="44.47496" lon="4.83548">
        <ele>312.42</ele>
        <time>2014-09-11T10:29:50Z</time>
      </trkpt>
      <trkpt lat="44.47498" lon="4.83546">
        <ele>312.46</ele>
        <time>2014-09-11T10:29:51Z</time>
      </trkpt>
      <trkpt lat="44.475" lon="4.83544">
        <ele>312.48</ele>
        <time>2014-09-11T10:29:52Z</time>
      </trkpt>
      <trkpt lat="44.47502" lon="4.83541">
        <ele>312.49</ele>
        <time>2014-09-11T10:29:53Z</time>
      </trkpt>
      <trkpt lat="44.47504" lon="4.83539">
        <ele>312.52</ele>
        <time>2014-09-11T10:29:54Z</time>
      </trkpt>
      <trkpt lat="44.47506" lon="4.83536">
        <ele>312.54</ele>
        <time>2014-09-11T10:29:55Z</time>
      </trkpt>
      <trkpt lat="44.47509" lon="4.83534">
        <ele>312.67</ele>
        <time>2014-09-11T10:29:56Z</time>
      </trkpt>
      <trkpt lat="44.47511" lon="4.83532">
        <ele>312.76</ele>
        <time>2014-09-11T10:29:57Z</time>
      </trkpt>
      <trkpt lat="44.47515" lon="4.83528">
        <ele>313.35</ele>
        <time>2014-09-11T10:29:59Z</time>
      </trkpt>
      <trkpt lat="44.4752" lon="4.83524">
        <ele>313.44</ele>
        <time>2014-09-11T10:30:01Z</time>
      </trkpt>
      <trkpt lat="44.47522" lon="4.83522">
        <ele>313.56</ele>
        <time>2014-09-11T10:30:02Z</time>
      </trkpt>
      <trkpt lat="44.47524" lon="4.8352">
        <ele>313.71</ele>
        <time>2014-09-11T10:30:03Z</time>
      </trkpt>
      <trkpt lat="44.47526" lon="4.83519">
        <ele>313.72</ele>
        <time>2014-09-11T10:30:04Z</time>
      </trkpt>
      <trkpt lat="44.4753" lon="4.83515">
        <ele>313.47</ele>
        <time>2014-09-11T10:30:06Z</time>
      </trkpt>
      <trkpt lat="44.47532" lon="4.83514">
        <ele>313.32</ele>
        <time>2014-09-11T10:30:07Z</time>
      </trkpt>
      <trkpt lat="44.47535" lon="4.83512">
        <ele>313.41</ele>
        <time>2014-09-11T10:30:08Z</time>
      </trkpt>
      <trkpt lat="44.47537" lon="4.8351">
        <ele>313.42</ele>
        <time>2014-09-11T10:30:09Z</time>
      </trkpt>
      <trkpt lat="44.47542" lon="4.83507">
        <ele>313.47</ele>
        <time>2014-09-11T10:30:11Z</time>
      </trkpt>
      <trkpt lat="44.47544" lon="4.83505">
        <ele>313.61</ele>
        <time>2014-09-11T10:30:12Z</time>
      </trkpt>
      <trkpt lat="44.47546" lon="4.83504">
        <ele>313.68</ele>
        <time>2014-09-11T10:30:13Z</time>
      </trkpt>
      <trkpt lat="44.47548" lon="4.83502">
        <ele>313.72</ele>
        <time>2014-09-11T10:30:14Z</time>
      </trkpt>
      <trkpt lat="44.4755" lon="4.835">
        <ele>313.74</ele>
        <time>2014-09-11T10:30:15Z</time>
      </trkpt>
      <trkpt lat="44.47552" lon="4.83498">
        <ele>313.81</ele>
        <time>2014-09-11T10:30:16Z</time>
      </trkpt>
      <trkpt lat="44.47555" lon="4.83497">
        <ele>313.85</ele>
        <time>2014-09-11T10:30:17Z</time>
      </trkpt>
      <trkpt lat="44.47566" lon="4.83488">
        <ele>314.04</ele>
        <time>2014-09-11T10:30:22Z</time>
      </trkpt>
      <trkpt lat="44.47569" lon="4.83486">
        <ele>314.19</ele>
        <time>2014-09-11T10:30:23Z</time>
      </trkpt>
      <trkpt lat="44.47571" lon="4.83485">
        <ele>314.26</ele>
        <time>2014-09-11T10:30:24Z</time>
      </trkpt>
      <trkpt lat="44.47573" lon="4.83483">
        <ele>314.26</ele>
        <time>2014-09-11T10:30:25Z</time>
      </trkpt>
      <trkpt lat="44.47575" lon="4.83482">
        <ele>314.3</ele>
        <time>2014-09-11T10:30:26Z</time>
      </trkpt>
      <trkpt lat="44.47577" lon="4.8348">
        <ele>314.36</ele>
        <time>2014-09-11T10:30:27Z</time>
      </trkpt>
      <trkpt lat="44.47579" lon="4.83478">
        <ele>314.45</ele>
        <time>2014-09-11T10:30:28Z</time>
      </trkpt>
      <trkpt lat="44.47581" lon="4.83476">
        <ele>314.56</ele>
        <time>2014-09-11T10:30:29Z</time>
      </trkpt>
      <trkpt lat="44.47616" lon="4.8346">
        <ele>315.35</ele>
        <time>2014-09-11T10:30:43Z</time>
      </trkpt>
      <trkpt lat="44.47647" lon="4.83457">
        <ele>316.61</ele>
        <time>2014-09-11T10:30:55Z</time>
      </trkpt>
      <trkpt lat="44.47652" lon="4.83457">
        <ele>316.71</ele>
        <time>2014-09-11T10:30:57Z</time>
      </trkpt>
      <trkpt lat="44.47654" lon="4.83458">
        <ele>316.75</ele>
        <time>2014-09-11T10:30:58Z</time>
      </trkpt>
      <trkpt lat="44.47657" lon="4.83458">
        <ele>316.93</ele>
        <time>2014-09-11T10:30:59Z</time>
      </trkpt>
      <trkpt lat="44.4766" lon="4.83458">
        <ele>317.01</ele>
        <time>2014-09-11T10:31:00Z</time>
      </trkpt>
      <trkpt lat="44.47662" lon="4.83458">
        <ele>317.15</ele>
        <time>2014-09-11T10:31:01Z</time>
      </trkpt>
      <trkpt lat="44.47667" lon="4.83458">
        <ele>317.37</ele>
        <time>2014-09-11T10:31:03Z</time>
      </trkpt>
      <trkpt lat="44.47669" lon="4.83458">
        <ele>317.2</ele>
        <time>2014-09-11T10:31:04Z</time>
      </trkpt>
      <trkpt lat="44.47672" lon="4.83458">
        <ele>317.22</ele>
        <time>2014-09-11T10:31:05Z</time>
      </trkpt>
      <trkpt lat="44.47675" lon="4.83458">
        <ele>317.21</ele>
        <time>2014-09-11T10:31:06Z</time>
      </trkpt>
      <trkpt lat="44.47678" lon="4.83458">
        <ele>317.12</ele>
        <time>2014-09-11T10:31:07Z</time>
      </trkpt>
      <trkpt lat="44.47682" lon="4.83458">
        <ele>317.18</ele>
        <time>2014-09-11T10:31:09Z</time>
      </trkpt>
      <trkpt lat="44.47687" lon="4.83458">
        <ele>317.3</ele>
        <time>2014-09-11T10:31:11Z</time>
      </trkpt>
      <trkpt lat="44.47689" lon="4.83458">
        <ele>317.43</ele>
        <time>2014-09-11T10:31:12Z</time>
      </trkpt>
      <trkpt lat="44.47692" lon="4.83458">
        <ele>317.61</ele>
        <time>2014-09-11T10:31:13Z</time>
      </trkpt>
      <trkpt lat="44.47696" lon="4.83458">
        <ele>317.99</ele>
        <time>2014-09-11T10:31:15Z</time>
      </trkpt>
      <trkpt lat="44.47701" lon="4.83458">
        <ele>318.2</ele>
        <time>2014-09-11T10:31:17Z</time>
      </trkpt>
      <trkpt lat="44.47703" lon="4.83458">
        <ele>318.27</ele>
        <time>2014-09-11T10:31:18Z</time>
      </trkpt>
      <trkpt lat="44.47705" lon="4.83458">
        <ele>318.27</ele>
        <time>2014-09-11T10:31:19Z</time>
      </trkpt>
      <trkpt lat="44.4771" lon="4.83458">
        <ele>318.25</ele>
        <time>2014-09-11T10:31:21Z</time>
      </trkpt>
      <trkpt lat="44.47713" lon="4.83458">
        <ele>318.32</ele>
        <time>2014-09-11T10:31:22Z</time>
      </trkpt>
      <trkpt lat="44.47718" lon="4.83458">
        <ele>318.31</ele>
        <time>2014-09-11T10:31:24Z</time>
      </trkpt>
      <trkpt lat="44.4772" lon="4.83457">
        <ele>318.29</ele>
        <time>2014-09-11T10:31:25Z</time>
      </trkpt>
      <trkpt lat="44.47724" lon="4.83457">
        <ele>318.48</ele>
        <time>2014-09-11T10:31:27Z</time>
      </trkpt>
      <trkpt lat="44.47731" lon="4.83456">
        <ele>319.01</ele>
        <time>2014-09-11T10:31:30Z</time>
      </trkpt>
      <trkpt lat="44.47733" lon="4.83455">
        <ele>319.1</ele>
        <time>2014-09-11T10:31:31Z</time>
      </trkpt>
      <trkpt lat="44.47735" lon="4.83454">
        <ele>319.19</ele>
        <time>2014-09-11T10:31:32Z</time>
      </trkpt>
      <trkpt lat="44.47737" lon="4.83452">
        <ele>319.33</ele>
        <time>2014-09-11T10:31:33Z</time>
      </trkpt>
      <trkpt lat="44.47739" lon="4.8345">
        <ele>319.44</ele>
        <time>2014-09-11T10:31:34Z</time>
      </trkpt>
      <trkpt lat="44.4774" lon="4.83449">
        <ele>319.5</ele>
        <time>2014-09-11T10:31:35Z</time>
      </trkpt>
      <trkpt lat="44.47745" lon="4.83438">
        <ele>319.03</ele>
        <time>2014-09-11T10:31:50Z</time>
      </trkpt>
      <trkpt lat="44.47745" lon="4.83434">
        <ele>319.19</ele>
        <time>2014-09-11T10:32:36Z</time>
      </trkpt>
      <trkpt lat="44.47747" lon="4.83424">
        <ele>319.07</ele>
        <time>2014-09-11T10:32:50Z</time>
      </trkpt>
      <trkpt lat="44.47747" lon="4.83422">
        <ele>319.15</ele>
        <time>2014-09-11T10:32:51Z</time>
      </trkpt>
      <trkpt lat="44.47747" lon="4.83419">
        <ele>319.19</ele>
        <time>2014-09-11T10:32:52Z</time>
      </trkpt>
      <trkpt lat="44.47742" lon="4.83403">
        <ele>319.39</ele>
        <time>2014-09-11T10:32:58Z</time>
      </trkpt>
      <trkpt lat="44.47741" lon="4.83401">
        <ele>319.5</ele>
        <time>2014-09-11T10:32:59Z</time>
      </trkpt>
      <trkpt lat="44.47739" lon="4.83399">
        <ele>319.52</ele>
        <time>2014-09-11T10:33:00Z</time>
      </trkpt>
      <trkpt lat="44.47738" lon="4.83397">
        <ele>319.54</ele>
        <time>2014-09-11T10:33:01Z</time>
      </trkpt>
      <trkpt lat="44.47736" lon="4.83395">
        <ele>319.65</ele>
        <time>2014-09-11T10:33:02Z</time>
      </trkpt>
      <trkpt lat="44.47732" lon="4.83389">
        <ele>320.24</ele>
        <time>2014-09-11T10:33:05Z</time>
      </trkpt>
      <trkpt lat="44.4773" lon="4.83387">
        <ele>320.49</ele>
        <time>2014-09-11T10:33:06Z</time>
      </trkpt>
      <trkpt lat="44.47729" lon="4.83384">
        <ele>320.63</ele>
        <time>2014-09-11T10:33:07Z</time>
      </trkpt>
      <trkpt lat="44.47727" lon="4.83382">
        <ele>320.76</ele>
        <time>2014-09-11T10:33:08Z</time>
      </trkpt>
      <trkpt lat="44.47725" lon="4.83379">
        <ele>320.79</ele>
        <time>2014-09-11T10:33:09Z</time>
      </trkpt>
      <trkpt lat="44.47724" lon="4.83377">
        <ele>320.85</ele>
        <time>2014-09-11T10:33:10Z</time>
      </trkpt>
      <trkpt lat="44.47721" lon="4.83372">
        <ele>321.03</ele>
        <time>2014-09-11T10:33:12Z</time>
      </trkpt>
      <trkpt lat="44.47717" lon="4.83367">
        <ele>321.1</ele>
        <time>2014-09-11T10:33:14Z</time>
      </trkpt>
      <trkpt lat="44.47715" lon="4.83365">
        <ele>321.21</ele>
        <time>2014-09-11T10:33:15Z</time>
      </trkpt>
      <trkpt lat="44.47712" lon="4.83361">
        <ele>321.25</ele>
        <time>2014-09-11T10:33:17Z</time>
      </trkpt>
      <trkpt lat="44.47709" lon="4.83358">
        <ele>321.17</ele>
        <time>2014-09-11T10:33:18Z</time>
      </trkpt>
      <trkpt lat="44.47707" lon="4.83354">
        <ele>321.19</ele>
        <time>2014-09-11T10:33:19Z</time>
      </trkpt>
      <trkpt lat="44.47706" lon="4.83352">
        <ele>321.21</ele>
        <time>2014-09-11T10:33:20Z</time>
      </trkpt>
      <trkpt lat="44.47704" lon="4.83349">
        <ele>321.26</ele>
        <time>2014-09-11T10:33:21Z</time>
      </trkpt>
      <trkpt lat="44.47702" lon="4.83346">
        <ele>321.28</ele>
        <time>2014-09-11T10:33:22Z</time>
      </trkpt>
      <trkpt lat="44.477" lon="4.83343">
        <ele>321.42</ele>
        <time>2014-09-11T10:33:23Z</time>
      </trkpt>
      <trkpt lat="44.47698" lon="4.83341">
        <ele>321.49</ele>
        <time>2014-09-11T10:33:24Z</time>
      </trkpt>
      <trkpt lat="44.47696" lon="4.83338">
        <ele>321.57</ele>
        <time>2014-09-11T10:33:25Z</time>
      </trkpt>
      <trkpt lat="44.47695" lon="4.83336">
        <ele>321.63</ele>
        <time>2014-09-11T10:33:26Z</time>
      </trkpt>
      <trkpt lat="44.47691" lon="4.83332">
        <ele>321.74</ele>
        <time>2014-09-11T10:33:28Z</time>
      </trkpt>
      <trkpt lat="44.47689" lon="4.8333">
        <ele>321.77</ele>
        <time>2014-09-11T10:33:29Z</time>
      </trkpt>
      <trkpt lat="44.47687" lon="4.83328">
        <ele>321.91</ele>
        <time>2014-09-11T10:33:30Z</time>
      </trkpt>
      <trkpt lat="44.47686" lon="4.83325">
        <ele>322.03</ele>
        <time>2014-09-11T10:33:31Z</time>
      </trkpt>
      <trkpt lat="44.47684" lon="4.83323">
        <ele>322.1</ele>
        <time>2014-09-11T10:33:32Z</time>
      </trkpt>
      <trkpt lat="44.47682" lon="4.8332">
        <ele>322.06</ele>
        <time>2014-09-11T10:33:33Z</time>
      </trkpt>
      <trkpt lat="44.4768" lon="4.83318">
        <ele>322.04</ele>
        <time>2014-09-11T10:33:34Z</time>
      </trkpt>
      <trkpt lat="44.47678" lon="4.83315">
        <ele>322.07</ele>
        <time>2014-09-11T10:33:35Z</time>
      </trkpt>
      <trkpt lat="44.47676" lon="4.83313">
        <ele>322.18</ele>
        <time>2014-09-11T10:33:36Z</time>
      </trkpt>
      <trkpt lat="44.47674" lon="4.8331">
        <ele>322.19</ele>
        <time>2014-09-11T10:33:37Z</time>
      </trkpt>
      <trkpt lat="44.47672" lon="4.83307">
        <ele>322.19</ele>
        <time>2014-09-11T10:33:38Z</time>
      </trkpt>
      <trkpt lat="44.4767" lon="4.83305">
        <ele>322.2</ele>
        <time>2014-09-11T10:33:39Z</time>
      </trkpt>
      <trkpt lat="44.47669" lon="4.83302">
        <ele>322.2</ele>
        <time>2014-09-11T10:33:40Z</time>
      </trkpt>
      <trkpt lat="44.47667" lon="4.833">
        <ele>322.2</ele>
        <time>2014-09-11T10:33:41Z</time>
      </trkpt>
      <trkpt lat="44.47663" lon="4.83296">
        <ele>322.2</ele>
        <time>2014-09-11T10:33:43Z</time>
      </trkpt>
      <trkpt lat="44.47653" lon="4.83283">
        <ele>322.92</ele>
        <time>2014-09-11T10:33:49Z</time>
      </trkpt>
      <trkpt lat="44.47652" lon="4.83281">
        <ele>322.99</ele>
        <time>2014-09-11T10:33:50Z</time>
      </trkpt>
      <trkpt lat="44.4765" lon="4.8328">
        <ele>323.05</ele>
        <time>2014-09-11T10:33:51Z</time>
      </trkpt>
      <trkpt lat="44.47648" lon="4.83278">
        <ele>323.14</ele>
        <time>2014-09-11T10:33:52Z</time>
      </trkpt>
      <trkpt lat="44.47647" lon="4.83276">
        <ele>323.2</ele>
        <time>2014-09-11T10:33:53Z</time>
      </trkpt>
      <trkpt lat="44.47644" lon="4.83273">
        <ele>323.2</ele>
        <time>2014-09-11T10:33:54Z</time>
      </trkpt>
      <trkpt lat="44.4764" lon="4.83268">
        <ele>323.06</ele>
        <time>2014-09-11T10:33:56Z</time>
      </trkpt>
      <trkpt lat="44.47638" lon="4.83266">
        <ele>323.14</ele>
        <time>2014-09-11T10:33:57Z</time>
      </trkpt>
      <trkpt lat="44.47636" lon="4.83264">
        <ele>323.22</ele>
        <time>2014-09-11T10:33:58Z</time>
      </trkpt>
      <trkpt lat="44.47635" lon="4.83262">
        <ele>323.26</ele>
        <time>2014-09-11T10:33:59Z</time>
      </trkpt>
      <trkpt lat="44.47633" lon="4.8326">
        <ele>323.24</ele>
        <time>2014-09-11T10:34:00Z</time>
      </trkpt>
      <trkpt lat="44.47631" lon="4.83258">
        <ele>323.3</ele>
        <time>2014-09-11T10:34:01Z</time>
      </trkpt>
      <trkpt lat="44.47629" lon="4.83257">
        <ele>323.34</ele>
        <time>2014-09-11T10:34:02Z</time>
      </trkpt>
      <trkpt lat="44.47627" lon="4.83256">
        <ele>323.42</ele>
        <time>2014-09-11T10:34:03Z</time>
      </trkpt>
      <trkpt lat="44.47624" lon="4.83254">
        <ele>323.47</ele>
        <time>2014-09-11T10:34:04Z</time>
      </trkpt>
      <trkpt lat="44.47619" lon="4.8325">
        <ele>323.46</ele>
        <time>2014-09-11T10:34:07Z</time>
      </trkpt>
      <trkpt lat="44.47615" lon="4.83246">
        <ele>323.61</ele>
        <time>2014-09-11T10:34:09Z</time>
      </trkpt>
      <trkpt lat="44.47613" lon="4.83244">
        <ele>323.71</ele>
        <time>2014-09-11T10:34:10Z</time>
      </trkpt>
      <trkpt lat="44.47611" lon="4.83243">
        <ele>323.71</ele>
        <time>2014-09-11T10:34:11Z</time>
      </trkpt>
      <trkpt lat="44.47609" lon="4.83241">
        <ele>323.89</ele>
        <time>2014-09-11T10:34:12Z</time>
      </trkpt>
      <trkpt lat="44.47607" lon="4.8324">
        <ele>324.07</ele>
        <time>2014-09-11T10:34:13Z</time>
      </trkpt>
      <trkpt lat="44.47604" lon="4.83238">
        <ele>324.32</ele>
        <time>2014-09-11T10:34:14Z</time>
      </trkpt>
      <trkpt lat="44.47601" lon="4.83236">
        <ele>324.45</ele>
        <time>2014-09-11T10:34:15Z</time>
      </trkpt>
      <trkpt lat="44.47588" lon="4.83233">
        <ele>324.89</ele>
        <time>2014-09-11T10:34:19Z</time>
      </trkpt>
      <trkpt lat="44.47585" lon="4.83231">
        <ele>325.05</ele>
        <time>2014-09-11T10:34:20Z</time>
      </trkpt>
      <trkpt lat="44.4758" lon="4.83228">
        <ele>325.37</ele>
        <time>2014-09-11T10:34:22Z</time>
      </trkpt>
      <trkpt lat="44.47571" lon="4.83223">
        <ele>325.83</ele>
        <time>2014-09-11T10:34:26Z</time>
      </trkpt>
      <trkpt lat="44.47568" lon="4.83223">
        <ele>325.93</ele>
        <time>2014-09-11T10:34:27Z</time>
      </trkpt>
      <trkpt lat="44.47545" lon="4.83211">
        <ele>326.85</ele>
        <time>2014-09-11T10:34:38Z</time>
      </trkpt>
      <trkpt lat="44.47541" lon="4.83211">
        <ele>326.99</ele>
        <time>2014-09-11T10:34:39Z</time>
      </trkpt>
      <trkpt lat="44.47539" lon="4.83209">
        <ele>327.21</ele>
        <time>2014-09-11T10:34:40Z</time>
      </trkpt>
      <trkpt lat="44.47536" lon="4.83208">
        <ele>327.48</ele>
        <time>2014-09-11T10:34:41Z</time>
      </trkpt>
      <trkpt lat="44.47534" lon="4.83206">
        <ele>327.68</ele>
        <time>2014-09-11T10:34:42Z</time>
      </trkpt>
      <trkpt lat="44.47529" lon="4.83202">
        <ele>327.77</ele>
        <time>2014-09-11T10:34:44Z</time>
      </trkpt>
      <trkpt lat="44.47526" lon="4.83201">
        <ele>327.91</ele>
        <time>2014-09-11T10:34:45Z</time>
      </trkpt>
      <trkpt lat="44.47523" lon="4.832">
        <ele>328.14</ele>
        <time>2014-09-11T10:34:46Z</time>
      </trkpt>
      <trkpt lat="44.47521" lon="4.83199">
        <ele>328.24</ele>
        <time>2014-09-11T10:34:47Z</time>
      </trkpt>
      <trkpt lat="44.4752" lon="4.83196">
        <ele>328.29</ele>
        <time>2014-09-11T10:34:48Z</time>
      </trkpt>
      <trkpt lat="44.47518" lon="4.83195">
        <ele>328.45</ele>
        <time>2014-09-11T10:34:49Z</time>
      </trkpt>
      <trkpt lat="44.47514" lon="4.83191">
        <ele>328.86</ele>
        <time>2014-09-11T10:34:51Z</time>
      </trkpt>
      <trkpt lat="44.47512" lon="4.83188">
        <ele>328.95</ele>
        <time>2014-09-11T10:34:52Z</time>
      </trkpt>
      <trkpt lat="44.47503" lon="4.83182">
        <ele>329.38</ele>
        <time>2014-09-11T10:34:56Z</time>
      </trkpt>
      <trkpt lat="44.47502" lon="4.8318">
        <ele>329.45</ele>
        <time>2014-09-11T10:34:57Z</time>
      </trkpt>
      <trkpt lat="44.47501" lon="4.83177">
        <ele>329.42</ele>
        <time>2014-09-11T10:34:58Z</time>
      </trkpt>
      <trkpt lat="44.47491" lon="4.8317">
        <ele>329.33</ele>
        <time>2014-09-11T10:35:13Z</time>
      </trkpt>
      <trkpt lat="44.47489" lon="4.83171">
        <ele>329.43</ele>
        <time>2014-09-11T10:35:15Z</time>
      </trkpt>
      <trkpt lat="44.47488" lon="4.83171">
        <ele>329.44</ele>
        <time>2014-09-11T10:35:16Z</time>
      </trkpt>
      <trkpt lat="44.47484" lon="4.83176">
        <ele>329.59</ele>
        <time>2014-09-11T10:35:19Z</time>
      </trkpt>
      <trkpt lat="44.47482" lon="4.83179">
        <ele>329.44</ele>
        <time>2014-09-11T10:35:20Z</time>
      </trkpt>
      <trkpt lat="44.47479" lon="4.83192">
        <ele>328.28</ele>
        <time>2014-09-11T10:35:24Z</time>
      </trkpt>
      <trkpt lat="44.47478" lon="4.83199">
        <ele>327.88</ele>
        <time>2014-09-11T10:35:26Z</time>
      </trkpt>
      <trkpt lat="44.47477" lon="4.83202">
        <ele>327.6</ele>
        <time>2014-09-11T10:35:27Z</time>
      </trkpt>
      <trkpt lat="44.47476" lon="4.83206">
        <ele>327.28</ele>
        <time>2014-09-11T10:35:28Z</time>
      </trkpt>
      <trkpt lat="44.47462" lon="4.83214">
        <ele>324.66</ele>
        <time>2014-09-11T10:35:34Z</time>
      </trkpt>
      <trkpt lat="44.47454" lon="4.83214">
        <ele>324.16</ele>
        <time>2014-09-11T10:35:37Z</time>
      </trkpt>
      <trkpt lat="44.47444" lon="4.8321">
        <ele>323.58</ele>
        <time>2014-09-11T10:35:41Z</time>
      </trkpt>
      <trkpt lat="44.47412" lon="4.832">
        <ele>321.92</ele>
        <time>2014-09-11T10:35:51Z</time>
      </trkpt>
      <trkpt lat="44.47372" lon="4.83192">
        <ele>319.81</ele>
        <time>2014-09-11T10:36:02Z</time>
      </trkpt>
      <trkpt lat="44.47352" lon="4.83208">
        <ele>316.27</ele>
        <time>2014-09-11T10:36:12Z</time>
      </trkpt>
      <trkpt lat="44.47345" lon="4.83218">
        <ele>315.56</ele>
        <time>2014-09-11T10:36:15Z</time>
      </trkpt>
      <trkpt lat="44.47338" lon="4.83229">
        <ele>314.24</ele>
        <time>2014-09-11T10:36:29Z</time>
      </trkpt>
      <trkpt lat="44.47335" lon="4.83243">
        <ele>313.49</ele>
        <time>2014-09-11T10:36:43Z</time>
      </trkpt>
      <trkpt lat="44.47333" lon="4.83253">
        <ele>312.8</ele>
        <time>2014-09-11T10:36:47Z</time>
      </trkpt>
      <trkpt lat="44.47331" lon="4.8326">
        <ele>312.24</ele>
        <time>2014-09-11T10:36:49Z</time>
      </trkpt>
      <trkpt lat="44.47321" lon="4.83287">
        <ele>310.58</ele>
        <time>2014-09-11T10:36:57Z</time>
      </trkpt>
      <trkpt lat="44.47317" lon="4.83301">
        <ele>308.56</ele>
        <time>2014-09-11T10:37:03Z</time>
      </trkpt>
      <trkpt lat="44.47314" lon="4.83306">
        <ele>307.98</ele>
        <time>2014-09-11T10:37:05Z</time>
      </trkpt>
      <trkpt lat="44.47303" lon="4.83326">
        <ele>305.61</ele>
        <time>2014-09-11T10:37:12Z</time>
      </trkpt>
      <trkpt lat="44.47295" lon="4.83332">
        <ele>304.65</ele>
        <time>2014-09-11T10:37:17Z</time>
      </trkpt>
      <trkpt lat="44.4729" lon="4.83337">
        <ele>304.03</ele>
        <time>2014-09-11T10:37:20Z</time>
      </trkpt>
      <trkpt lat="44.47283" lon="4.83341">
        <ele>302.79</ele>
        <time>2014-09-11T10:37:23Z</time>
      </trkpt>
      <trkpt lat="44.47276" lon="4.83346">
        <ele>301.89</ele>
        <time>2014-09-11T10:37:26Z</time>
      </trkpt>
      <trkpt lat="44.47259" lon="4.83363">
        <ele>300.43</ele>
        <time>2014-09-11T10:37:35Z</time>
      </trkpt>
      <trkpt lat="44.47255" lon="4.83365">
        <ele>299.88</ele>
        <time>2014-09-11T10:37:37Z</time>
      </trkpt>
      <trkpt lat="44.47222" lon="4.83394">
        <ele>298.17</ele>
        <time>2014-09-11T10:37:50Z</time>
      </trkpt>
      <trkpt lat="44.4721" lon="4.83407">
        <ele>298.07</ele>
        <time>2014-09-11T10:37:59Z</time>
      </trkpt>
      <trkpt lat="44.47183" lon="4.83432">
        <ele>296.21</ele>
        <time>2014-09-11T10:38:11Z</time>
      </trkpt>
      <trkpt lat="44.47172" lon="4.83442">
        <ele>296.25</ele>
        <time>2014-09-11T10:38:24Z</time>
      </trkpt>
      <trkpt lat="44.4717" lon="4.83445">
        <ele>296.68</ele>
        <time>2014-09-11T10:38:28Z</time>
      </trkpt>
      <trkpt lat="44.4714" lon="4.83481">
        <ele>296.86</ele>
        <time>2014-09-11T10:38:43Z</time>
      </trkpt>
      <trkpt lat="44.47111" lon="4.83502">
        <ele>298.84</ele>
        <time>2014-09-11T10:38:55Z</time>
      </trkpt>
      <trkpt lat="44.47071" lon="4.83527">
        <ele>299.26</ele>
        <time>2014-09-11T10:39:10Z</time>
      </trkpt>
      <trkpt lat="44.47062" lon="4.83532">
        <ele>299.2</ele>
        <time>2014-09-11T10:39:13Z</time>
      </trkpt>
      <trkpt lat="44.47027" lon="4.83546">
        <ele>299.53</ele>
        <time>2014-09-11T10:39:27Z</time>
      </trkpt>
      <trkpt lat="44.46997" lon="4.83543">
        <ele>299.21</ele>
        <time>2014-09-11T10:39:39Z</time>
      </trkpt>
      <trkpt lat="44.46964" lon="4.83566">
        <ele>300.14</ele>
        <time>2014-09-11T10:39:52Z</time>
      </trkpt>
      <trkpt lat="44.46933" lon="4.83606">
        <ele>300.49</ele>
        <time>2014-09-11T10:40:06Z</time>
      </trkpt>
      <trkpt lat="44.46918" lon="4.83614">
        <ele>299.52</ele>
        <time>2014-09-11T10:40:13Z</time>
      </trkpt>
      <trkpt lat="44.46912" lon="4.83616">
        <ele>299.66</ele>
        <time>2014-09-11T10:40:15Z</time>
      </trkpt>
      <trkpt lat="44.46872" lon="4.83634">
        <ele>298.94</ele>
        <time>2014-09-11T10:40:27Z</time>
      </trkpt>
      <trkpt lat="44.46852" lon="4.8365">
        <ele>296.82</ele>
        <time>2014-09-11T10:40:33Z</time>
      </trkpt>
      <trkpt lat="44.46806" lon="4.83669">
        <ele>295.01</ele>
        <time>2014-09-11T10:40:48Z</time>
      </trkpt>
      <trkpt lat="44.46758" lon="4.83668">
        <ele>293.37</ele>
        <time>2014-09-11T10:41:00Z</time>
      </trkpt>
      <trkpt lat="44.46754" lon="4.8367">
        <ele>293.28</ele>
        <time>2014-09-11T10:41:01Z</time>
      </trkpt>
      <trkpt lat="44.46741" lon="4.83679">
        <ele>292.84</ele>
        <time>2014-09-11T10:41:05Z</time>
      </trkpt>
      <trkpt lat="44.46717" lon="4.8371">
        <ele>291.48</ele>
        <time>2014-09-11T10:41:15Z</time>
      </trkpt>
      <trkpt lat="44.4668" lon="4.83741">
        <ele>291.14</ele>
        <time>2014-09-11T10:41:28Z</time>
      </trkpt>
      <trkpt lat="44.46653" lon="4.83768">
        <ele>289.08</ele>
        <time>2014-09-11T10:41:39Z</time>
      </trkpt>
      <trkpt lat="44.46626" lon="4.83783">
        <ele>287.19</ele>
        <time>2014-09-11T10:41:48Z</time>
      </trkpt>
      <trkpt lat="44.46623" lon="4.83784">
        <ele>286.99</ele>
        <time>2014-09-11T10:41:49Z</time>
      </trkpt>
      <trkpt lat="44.4662" lon="4.83785">
        <ele>286.99</ele>
        <time>2014-09-11T10:41:50Z</time>
      </trkpt>
      <trkpt lat="44.46617" lon="4.83785">
        <ele>286.82</ele>
        <time>2014-09-11T10:41:51Z</time>
      </trkpt>
      <trkpt lat="44.46614" lon="4.83786">
        <ele>286.67</ele>
        <time>2014-09-11T10:41:52Z</time>
      </trkpt>
      <trkpt lat="44.46611" lon="4.83786">
        <ele>286.6</ele>
        <time>2014-09-11T10:41:53Z</time>
      </trkpt>
      <trkpt lat="44.46609" lon="4.83786">
        <ele>286.56</ele>
        <time>2014-09-11T10:41:54Z</time>
      </trkpt>
      <trkpt lat="44.46601" lon="4.83784">
        <ele>286.02</ele>
        <time>2014-09-11T10:42:04Z</time>
      </trkpt>
      <trkpt lat="44.46599" lon="4.83783">
        <ele>286.11</ele>
        <time>2014-09-11T10:42:05Z</time>
      </trkpt>
      <trkpt lat="44.46588" lon="4.83779">
        <ele>285.87</ele>
        <time>2014-09-11T10:42:08Z</time>
      </trkpt>
      <trkpt lat="44.46584" lon="4.83776">
        <ele>285.64</ele>
        <time>2014-09-11T10:42:09Z</time>
      </trkpt>
      <trkpt lat="44.46576" lon="4.83772">
        <ele>285.18</ele>
        <time>2014-09-11T10:42:11Z</time>
      </trkpt>
      <trkpt lat="44.46572" lon="4.8377">
        <ele>284.88</ele>
        <time>2014-09-11T10:42:12Z</time>
      </trkpt>
      <trkpt lat="44.46559" lon="4.83764">
        <ele>283.48</ele>
        <time>2014-09-11T10:42:15Z</time>
      </trkpt>
      <trkpt lat="44.46543" lon="4.8376">
        <ele>281.53</ele>
        <time>2014-09-11T10:42:19Z</time>
      </trkpt>
      <trkpt lat="44.46522" lon="4.83751">
        <ele>278.67</ele>
        <time>2014-09-11T10:42:25Z</time>
      </trkpt>
      <trkpt lat="44.46512" lon="4.83759">
        <ele>277.7</ele>
        <time>2014-09-11T10:42:30Z</time>
      </trkpt>
      <trkpt lat="44.46495" lon="4.83787">
        <ele>274.18</ele>
        <time>2014-09-11T10:42:38Z</time>
      </trkpt>
      <trkpt lat="44.4649" lon="4.83797">
        <ele>272.92</ele>
        <time>2014-09-11T10:42:41Z</time>
      </trkpt>
      <trkpt lat="44.46483" lon="4.83827">
        <ele>270.33</ele>
        <time>2014-09-11T10:42:49Z</time>
      </trkpt>
      <trkpt lat="44.46474" lon="4.83874">
        <ele>267.51</ele>
        <time>2014-09-11T10:43:00Z</time>
      </trkpt>
      <trkpt lat="44.46471" lon="4.83884">
        <ele>266.84</ele>
        <time>2014-09-11T10:43:02Z</time>
      </trkpt>
      <trkpt lat="44.4647" lon="4.83889">
        <ele>266.61</ele>
        <time>2014-09-11T10:43:03Z</time>
      </trkpt>
      <trkpt lat="44.46469" lon="4.83893">
        <ele>266.37</ele>
        <time>2014-09-11T10:43:04Z</time>
      </trkpt>
      <trkpt lat="44.46468" lon="4.83897">
        <ele>266.15</ele>
        <time>2014-09-11T10:43:05Z</time>
      </trkpt>
      <trkpt lat="44.46467" lon="4.83902">
        <ele>266.07</ele>
        <time>2014-09-11T10:43:06Z</time>
      </trkpt>
      <trkpt lat="44.46463" lon="4.83928">
        <ele>264.75</ele>
        <time>2014-09-11T10:43:11Z</time>
      </trkpt>
      <trkpt lat="44.4646" lon="4.83941">
        <ele>263.48</ele>
        <time>2014-09-11T10:43:14Z</time>
      </trkpt>
      <trkpt lat="44.46451" lon="4.83967">
        <ele>260.1</ele>
        <time>2014-09-11T10:43:22Z</time>
      </trkpt>
      <trkpt lat="44.46443" lon="4.83974">
        <ele>257.55</ele>
        <time>2014-09-11T10:43:35Z</time>
      </trkpt>
      <trkpt lat="44.46443" lon="4.83974">
        <ele>257.61</ele>
        <time>2014-09-11T10:43:36Z</time>
      </trkpt>
      <trkpt lat="44.46413" lon="4.83995">
        <ele>254.44</ele>
        <time>2014-09-11T10:43:49Z</time>
      </trkpt>
      <trkpt lat="44.46387" lon="4.84009">
        <ele>251.4</ele>
        <time>2014-09-11T10:43:56Z</time>
      </trkpt>
      <trkpt lat="44.46384" lon="4.84012">
        <ele>250.82</ele>
        <time>2014-09-11T10:43:57Z</time>
      </trkpt>
      <trkpt lat="44.4638" lon="4.84014">
        <ele>250.37</ele>
        <time>2014-09-11T10:43:58Z</time>
      </trkpt>
      <trkpt lat="44.46363" lon="4.84024">
        <ele>249.17</ele>
        <time>2014-09-11T10:44:02Z</time>
      </trkpt>
      <trkpt lat="44.46359" lon="4.84026">
        <ele>248.53</ele>
        <time>2014-09-11T10:44:03Z</time>
      </trkpt>
      <trkpt lat="44.46346" lon="4.84031">
        <ele>247.13</ele>
        <time>2014-09-11T10:44:06Z</time>
      </trkpt>
      <trkpt lat="44.46338" lon="4.84035">
        <ele>245.63</ele>
        <time>2014-09-11T10:44:08Z</time>
      </trkpt>
      <trkpt lat="44.46316" lon="4.84038">
        <ele>242.78</ele>
        <time>2014-09-11T10:44:14Z</time>
      </trkpt>
      <trkpt lat="44.46299" lon="4.84041">
        <ele>241.19</ele>
        <time>2014-09-11T10:44:18Z</time>
      </trkpt>
      <trkpt lat="44.46295" lon="4.84041">
        <ele>240.95</ele>
        <time>2014-09-11T10:44:19Z</time>
      </trkpt>
      <trkpt lat="44.46292" lon="4.84041">
        <ele>240.66</ele>
        <time>2014-09-11T10:44:20Z</time>
      </trkpt>
      <trkpt lat="44.46289" lon="4.8404">
        <ele>240.29</ele>
        <time>2014-09-11T10:44:21Z</time>
      </trkpt>
      <trkpt lat="44.46287" lon="4.84038">
        <ele>239.98</ele>
        <time>2014-09-11T10:44:22Z</time>
      </trkpt>
      <trkpt lat="44.46286" lon="4.84037">
        <ele>239.7</ele>
        <time>2014-09-11T10:44:23Z</time>
      </trkpt>
      <trkpt lat="44.46284" lon="4.84035">
        <ele>239.36</ele>
        <time>2014-09-11T10:44:24Z</time>
      </trkpt>
      <trkpt lat="44.46282" lon="4.84033">
        <ele>239.13</ele>
        <time>2014-09-11T10:44:25Z</time>
      </trkpt>
      <trkpt lat="44.46279" lon="4.84031">
        <ele>238.93</ele>
        <time>2014-09-11T10:44:26Z</time>
      </trkpt>
      <trkpt lat="44.46277" lon="4.84028">
        <ele>238.76</ele>
        <time>2014-09-11T10:44:27Z</time>
      </trkpt>
      <trkpt lat="44.46274" lon="4.84025">
        <ele>238.54</ele>
        <time>2014-09-11T10:44:28Z</time>
      </trkpt>
      <trkpt lat="44.46271" lon="4.84022">
        <ele>238.27</ele>
        <time>2014-09-11T10:44:29Z</time>
      </trkpt>
      <trkpt lat="44.46261" lon="4.84014">
        <ele>236.78</ele>
        <time>2014-09-11T10:44:33Z</time>
      </trkpt>
      <trkpt lat="44.46259" lon="4.84014">
        <ele>236.78</ele>
        <time>2014-09-11T10:44:34Z</time>
      </trkpt>
      <trkpt lat="44.46257" lon="4.84015">
        <ele>236.19</ele>
        <time>2014-09-11T10:44:35Z</time>
      </trkpt>
      <trkpt lat="44.46261" lon="4.84027">
        <ele>235.15</ele>
        <time>2014-09-11T10:44:42Z</time>
      </trkpt>
      <trkpt lat="44.46263" lon="4.84029">
        <ele>235.19</ele>
        <time>2014-09-11T10:44:43Z</time>
      </trkpt>
      <trkpt lat="44.46266" lon="4.84032">
        <ele>235.34</ele>
        <time>2014-09-11T10:44:44Z</time>
      </trkpt>
      <trkpt lat="44.46268" lon="4.84034">
        <ele>235.42</ele>
        <time>2014-09-11T10:44:45Z</time>
      </trkpt>
      <trkpt lat="44.46282" lon="4.84051">
        <ele>233.64</ele>
        <time>2014-09-11T10:44:56Z</time>
      </trkpt>
      <trkpt lat="44.46285" lon="4.8406">
        <ele>232.92</ele>
        <time>2014-09-11T10:45:09Z</time>
      </trkpt>
      <trkpt lat="44.46285" lon="4.84062">
        <ele>233.75</ele>
        <time>2014-09-11T10:45:34Z</time>
      </trkpt>
      <trkpt lat="44.46292" lon="4.8406">
        <ele>233</ele>
        <time>2014-09-11T10:45:51Z</time>
      </trkpt>
      <trkpt lat="44.46294" lon="4.8406">
        <ele>233.11</ele>
        <time>2014-09-11T10:45:52Z</time>
      </trkpt>
      <trkpt lat="44.46297" lon="4.8406">
        <ele>233.36</ele>
        <time>2014-09-11T10:45:53Z</time>
      </trkpt>
      <trkpt lat="44.463" lon="4.84059">
        <ele>233.8</ele>
        <time>2014-09-11T10:45:54Z</time>
      </trkpt>
      <trkpt lat="44.46304" lon="4.84058">
        <ele>234.19</ele>
        <time>2014-09-11T10:45:55Z</time>
      </trkpt>
      <trkpt lat="44.46308" lon="4.84057">
        <ele>234.37</ele>
        <time>2014-09-11T10:45:56Z</time>
      </trkpt>
      <trkpt lat="44.46311" lon="4.84056">
        <ele>234.49</ele>
        <time>2014-09-11T10:45:57Z</time>
      </trkpt>
      <trkpt lat="44.46348" lon="4.84047">
        <ele>237.75</ele>
        <time>2014-09-11T10:46:08Z</time>
      </trkpt>
      <trkpt lat="44.46352" lon="4.84046">
        <ele>237.95</ele>
        <time>2014-09-11T10:46:09Z</time>
      </trkpt>
      <trkpt lat="44.46356" lon="4.84045">
        <ele>238.17</ele>
        <time>2014-09-11T10:46:10Z</time>
      </trkpt>
      <trkpt lat="44.46359" lon="4.84044">
        <ele>238.39</ele>
        <time>2014-09-11T10:46:11Z</time>
      </trkpt>
      <trkpt lat="44.46385" lon="4.84032">
        <ele>239.77</ele>
        <time>2014-09-11T10:46:18Z</time>
      </trkpt>
      <trkpt lat="44.46389" lon="4.84034">
        <ele>239.94</ele>
        <time>2014-09-11T10:46:19Z</time>
      </trkpt>
      <trkpt lat="44.46392" lon="4.84038">
        <ele>240.04</ele>
        <time>2014-09-11T10:46:20Z</time>
      </trkpt>
      <trkpt lat="44.46395" lon="4.84042">
        <ele>240.13</ele>
        <time>2014-09-11T10:46:21Z</time>
      </trkpt>
      <trkpt lat="44.46397" lon="4.84046">
        <ele>240.18</ele>
        <time>2014-09-11T10:46:22Z</time>
      </trkpt>
      <trkpt lat="44.46398" lon="4.84051">
        <ele>240.33</ele>
        <time>2014-09-11T10:46:23Z</time>
      </trkpt>
      <trkpt lat="44.46411" lon="4.84103">
        <ele>243.53</ele>
        <time>2014-09-11T10:46:38Z</time>
      </trkpt>
      <trkpt lat="44.46411" lon="4.84106">
        <ele>243.8</ele>
        <time>2014-09-11T10:46:39Z</time>
      </trkpt>
      <trkpt lat="44.4641" lon="4.84109">
        <ele>244.02</ele>
        <time>2014-09-11T10:46:40Z</time>
      </trkpt>
      <trkpt lat="44.46409" lon="4.8411">
        <ele>244.19</ele>
        <time>2014-09-11T10:46:41Z</time>
      </trkpt>
      <trkpt lat="44.46409" lon="4.84112">
        <ele>244.33</ele>
        <time>2014-09-11T10:46:42Z</time>
      </trkpt>
      <trkpt lat="44.46407" lon="4.84115">
        <ele>243.86</ele>
        <time>2014-09-11T10:46:53Z</time>
      </trkpt>
      <trkpt lat="44.46403" lon="4.84118">
        <ele>244.16</ele>
        <time>2014-09-11T10:47:11Z</time>
      </trkpt>
      <trkpt lat="44.46399" lon="4.84125">
        <ele>243.46</ele>
        <time>2014-09-11T10:47:21Z</time>
      </trkpt>
      <trkpt lat="44.46398" lon="4.84127">
        <ele>243.38</ele>
        <time>2014-09-11T10:47:22Z</time>
      </trkpt>
      <trkpt lat="44.46397" lon="4.84129">
        <ele>243.3</ele>
        <time>2014-09-11T10:47:23Z</time>
      </trkpt>
      <trkpt lat="44.46395" lon="4.8413">
        <ele>243.2</ele>
        <time>2014-09-11T10:47:24Z</time>
      </trkpt>
      <trkpt lat="44.46395" lon="4.84132">
        <ele>243.09</ele>
        <time>2014-09-11T10:47:25Z</time>
      </trkpt>
      <trkpt lat="44.46388" lon="4.84138">
        <ele>242.46</ele>
        <time>2014-09-11T10:47:41Z</time>
      </trkpt>
      <trkpt lat="44.46387" lon="4.8414">
        <ele>242.46</ele>
        <time>2014-09-11T10:47:42Z</time>
      </trkpt>
      <trkpt lat="44.46386" lon="4.84141">
        <ele>242.43</ele>
        <time>2014-09-11T10:47:43Z</time>
      </trkpt>
      <trkpt lat="44.46384" lon="4.84146">
        <ele>242.57</ele>
        <time>2014-09-11T10:47:59Z</time>
      </trkpt>
      <trkpt lat="44.46383" lon="4.84151">
        <ele>242.48</ele>
        <time>2014-09-11T10:48:04Z</time>
      </trkpt>
      <trkpt lat="44.46383" lon="4.84153">
        <ele>242.43</ele>
        <time>2014-09-11T10:48:05Z</time>
      </trkpt>
      <trkpt lat="44.46384" lon="4.84158">
        <ele>241.72</ele>
        <time>2014-09-11T10:48:18Z</time>
      </trkpt>
    </trkseg>
  </trk>
</gpx>